# Wetter Temperatur Luftdruck Luftfeuchtigkeit Sichtweite Windgeschwindigkeit Windrichtung Zeit
1 Clear 22 1021 25 16093 1.5 250 21:39 28.01.2020
2 Clear 22 1021 25 16093 1.5 250 21:20 28.01.2020
3 Clear 21 1022 24 16093 1.74 243 20:46 28.01.2020
4 Clear 20 1022 24 16093 2.06 246 20:28 28.01.2020
5 Clear 19 1022 30 16093 0.81 242 19:58 28.01.2020
6 Clear 19 1022 30 16093 0.81 242 19:38 28.01.2020
7 Clear 18 1022 30 16093 0.81 242 19:19 28.01.2020
8 Clear 18 1022 36 16093 0.81 242 18:57 28.01.2020
9 Clear 17 1022 36 16093 0.81 242 18:38 28.01.2020
10 Clear 17 1022 36 16093 0.81 242 18:20 28.01.2020
11 Clear 15 1022 38 12874 2.1 30 17:55 28.01.2020
12 Clear 15 1022 38 12874 2.1 30 17:36 28.01.2020
13 Clear 12 1022 38 12874 2.1 30 17:18 28.01.2020
14 Clear 11 1022 33 16093 0.66 32 16:45 28.01.2020
15 Clear 11 1022 33 16093 0.66 32 16:27 28.01.2020
16 Mist 10 1022 87 1609 0.66 32 15:59 28.01.2020
17 Clear 10 1021 50 16093 0.66 32 15:40 28.01.2020
18 Clear 10 1021 50 16093 0.66 32 15:18 28.01.2020
19 Clouds 11 1021 76 12874 0.66 32 14:45 28.01.2020
20 Clear 11 1021 38 16093 1.5 30 14:20 28.01.2020
21 Clear 11 1021 50 16093 1.5 10 13:57 28.01.2020
22 Clear 11 1021 50 16093 1.5 10 13:38 28.01.2020
23 Clear 11 1021 50 16093 1.5 10 13:19 28.01.2020
24 Clear 11 1021 50 16093 0.75 21 12:42 28.01.2020
25 Clear 12 1021 50 16093 0.75 21 12:22 28.01.2020
26 Clear 12 1022 38 16093 1.5 100 11:48 28.01.2020
27 Clear 12 1022 38 16093 1.5 100 11:23 28.01.2020
28 Clear 12 1022 36 16093 1.21 13 10:58 28.01.2020
29 Clear 13 1022 36 16093 1.21 13 10:39 28.01.2020
30 Clear 13 1022 36 16093 1.21 13 10:20 28.01.2020
31 Clear 13 1022 33 16093 1.21 13 09:43 28.01.2020
32 Clear 13 1022 33 16093 1.21 13 09:21 28.01.2020
33 Clear 13 1022 34 16093 1.5 340 08:58 28.01.2020
34 Clear 13 1022 34 16093 1.5 340 08:39 28.01.2020
35 Clear 13 1022 34 16093 1.5 340 08:19 28.01.2020
36 Clear 13 1023 31 16093 2.6 20 07:37 28.01.2020
37 Clear 14 1022 36 16093 1.5 80 06:50 28.01.2020
38 Clear 14 1022 36 16093 1.5 80 06:26 28.01.2020
39 Clear 15 1022 32 16093 1.5 360 05:54 28.01.2020
40 Clear 15 1022 32 16093 1.5 360 05:27 28.01.2020
41 Clear 16 1022 59 16093 1.5 110 04:30 28.01.2020
42 Clear 17 1021 52 16093 0.44 299 02:58 28.01.2020
43 Clear 18 1021 52 16093 1.39 226 02:25 28.01.2020
44 Clear 18 1021 52 16093 0.44 299 02:25 28.01.2020
45 Clear 19 1021 49 16093 1.39 226 01:57 28.01.2020
46 Clear 19 1021 49 16093 1.39 226 01:32 28.01.2020
47 Clear 20 1021 43 16093 1.66 227 00:51 28.01.2020
48 Clear 20 1021 43 16093 1.66 227 00:29 28.01.2020
49 Clear 21 1021 46 16093 2.6 260 23:51 27.01.2020
50 Clear 21 1021 46 16093 2.6 260 23:30 27.01.2020
51 Clear 20 1021 23 16093 4.1 350 22:59 27.01.2020
52 Clear 20 1022 40 11265 1.52 232 22:40 27.01.2020
53 Clear 20 1022 40 11265 1.52 232 22:20 27.01.2020
54 Haze 20 1022 45 8047 1.52 232 21:56 27.01.2020
55 Haze 19 1022 45 8047 1.52 232 21:37 27.01.2020
56 Haze 19 1022 45 8047 1.52 232 21:18 27.01.2020
57 Haze 18 1024 63 12874 2.1 260 20:54 27.01.2020
58 Haze 18 1024 63 12874 2.1 260 20:36 27.01.2020
59 Haze 17 1023 55 6437 0.84 175 20:18 27.01.2020
60 Haze 16 1023 59 6437 0.65 185 19:41 27.01.2020
61 Haze 16 1023 59 6437 0.65 185 19:23 27.01.2020
62 Haze 15 1024 81 4828 2.1 180 18:56 27.01.2020
63 Haze 14 1023 71 4828 1.5 90 18:38 27.01.2020
64 Haze 13 1023 71 4828 1.5 90 18:20 27.01.2020
65 Haze 12 1023 76 4828 0.65 185 17:40 27.01.2020
66 Haze 10 1023 81 4828 0.19 142 17:21 27.01.2020
67 Mist 9 1023 87 3219 0.19 142 16:59 27.01.2020
68 Mist 9 1023 87 3219 0.19 142 16:41 27.01.2020
69 Mist 9 1023 87 3219 0.19 142 16:41 27.01.2020
70 Haze 9 1023 76 6437 0.19 142 16:23 27.01.2020
71 Rain 8 1023 93 2414 0.19 142 15:55 27.01.2020
72 Rain 8 1023 93 402 0.19 142 15:37 27.01.2020
73 Rain 8 1022 93 4828 3.1 110 15:19 27.01.2020
74 Mist 9 1022 87 4828 0.19 142 14:54 27.01.2020
75 Mist 9 1022 87 4828 0.19 142 14:36 27.01.2020
76 Haze 9 1022 76 6437 1.5 70 14:18 27.01.2020
77 Fog 9 1022 100 402 1.5 270 13:41 27.01.2020
78 Haze 9 1021 81 4828 1.28 155 13:20 27.01.2020
79 Haze 9 1022 81 4828 0.97 148 12:56 27.01.2020
80 Haze 9 1022 81 6437 0.97 148 12:37 27.01.2020
81 Haze 9 1022 82 6437 0.97 148 12:19 27.01.2020
82 Mist 10 1021 93 4023 0.97 148 11:41 27.01.2020
83 Mist 10 1022 81 4828 1.12 169 11:21 27.01.2020
84 Mist 10 1022 81 4828 1.12 169 11:21 27.01.2020
85 Mist 10 1022 87 6437 1.12 169 10:44 27.01.2020
86 Mist 10 1022 87 4828 1.12 169 10:25 27.01.2020
87 Mist 10 1022 100 4828 1.12 169 09:58 27.01.2020
88 Mist 10 1022 93 4828 1.5 40 09:39 27.01.2020
89 Mist 11 1022 93 4828 1.5 40 09:18 27.01.2020
90 Haze 11 1022 82 9656 2.6 110 08:46 27.01.2020
91 Haze 11 1022 82 8047 1.5 90 08:22 27.01.2020
92 Haze 11 1021 82 8047 1.69 160 07:55 27.01.2020
93 Haze 11 1022 81 3219 2.6 90 07:35 27.01.2020
94 Haze 11 1021 76 8047 1.5 80 06:55 27.01.2020
95 Haze 11 1021 82 9656 1.69 160 06:32 27.01.2020
96 Mist 11 1021 93 8047 1.69 160 05:37 27.01.2020
97 Haze 12 1021 82 8047 2.63 212 04:20 27.01.2020
98 Clear 12 1020 76 12874 1.5 240 03:27 27.01.2020
99 Clouds 14 1020 77 16093 1.5 0 01:42 27.01.2020
100 Clouds 15 1020 63 12874 2.6 260 01:22 27.01.2020
101 Haze 15 1020 59 6437 1.5 0 00:40 27.01.2020
102 Haze 15 1019 63 8047 3.1 228 00:19 27.01.2020
103 Haze 15 1020 72 9656 3.1 230 23:42 26.01.2020
104 Haze 15 1020 59 4828 2.1 250 23:20 26.01.2020
105 Haze 15 1020 59 4828 1.5 0 22:57 26.01.2020
106 Haze 15 1020 59 4023 3.24 246 22:37 26.01.2020
107 Haze 15 1020 59 4023 3.24 246 22:19 26.01.2020
108 Haze 15 1020 59 4023 3.24 246 22:19 26.01.2020
109 Haze 15 1020 71 9656 2.1 250 21:57 26.01.2020
110 Haze 15 1020 71 9656 2.1 250 21:38 26.01.2020
111 Haze 14 1021 76 9656 1.5 0 21:20 26.01.2020
112 Haze 14 1022 71 4023 3.24 246 20:57 26.01.2020
113 Haze 14 1022 71 4023 3.24 246 20:38 26.01.2020
114 Haze 13 1022 76 4023 1.5 0 20:18 26.01.2020
115 Haze 13 1022 72 4023 1.69 201 19:57 26.01.2020
116 Haze 13 1022 72 4023 1.69 201 19:38 26.01.2020
117 Haze 13 1022 72 4023 1.69 201 19:18 26.01.2020
118 Haze 13 1021 76 4023 1.69 201 18:54 26.01.2020
119 Haze 13 1022 67 3219 1.69 201 18:36 26.01.2020
120 Haze 13 1022 71 4828 2.1 110 18:18 26.01.2020
121 Haze 12 1022 71 3219 1.69 201 17:54 26.01.2020
122 Haze 12 1021 81 4023 1.5 170 17:36 26.01.2020
123 Haze 11 1021 76 3219 1.2 222 17:18 26.01.2020
124 Haze 11 1021 71 3219 1.2 222 16:54 26.01.2020
125 Haze 11 1021 76 4828 1.2 222 16:36 26.01.2020
126 Haze 11 1021 76 4828 1.2 222 16:18 26.01.2020
127 Haze 11 1021 76 6437 2.6 170 15:41 26.01.2020
128 Haze 11 1020 76 8047 2.1 140 15:19 26.01.2020
129 Haze 11 1020 71 8047 1.5 180 14:41 26.01.2020
130 Fog 11 1020 100 0 1.5 300 14:23 26.01.2020
131 Mist 11 1020 87 4023 2.1 170 13:59 26.01.2020
132 Haze 11 1020 82 9656 1.5 220 13:38 26.01.2020
133 Haze 11 1020 82 9656 1.5 220 13:18 26.01.2020
134 Haze 11 1020 76 6437 1.5 90 12:43 26.01.2020
135 Mist 11 1020 87 4023 1.5 190 12:43 26.01.2020
136 Haze 11 1020 82 8047 0.9 240 12:25 26.01.2020
137 Mist 11 1020 93 1609 1.5 250 11:59 26.01.2020
138 Haze 11 1020 82 8047 0.9 240 11:40 26.01.2020
139 Haze 11 1020 82 8047 0.94 180 11:19 26.01.2020
140 Clear 12 1020 66 14484 0.94 180 10:59 26.01.2020
141 Clear 12 1020 66 14484 0.94 180 10:39 26.01.2020
142 Haze 12 1020 82 4023 0.94 180 10:21 26.01.2020
143 Haze 12 1020 82 6437 0.94 180 09:59 26.01.2020
144 Haze 12 1020 82 6437 0.94 180 09:41 26.01.2020
145 Mist 12 1020 87 4023 1.5 170 09:22 26.01.2020
146 Haze 12 1020 87 4023 0.94 180 08:55 26.01.2020
147 Mist 12 1020 87 2414 3.6 120 08:37 26.01.2020
148 Haze 12 1020 87 4023 1.24 204 08:18 26.01.2020
149 Mist 12 1020 93 4828 2.6 110 07:45 26.01.2020
150 Mist 12 1020 93 4828 2.6 110 07:45 26.01.2020
151 Mist 12 1020 87 9656 1.24 204 07:22 26.01.2020
152 Haze 12 1019 82 4023 1.24 204 06:34 26.01.2020
153 Haze 13 1019 82 4828 1.24 204 05:52 26.01.2020
154 Haze 13 1019 82 4828 1.54 223 05:22 26.01.2020
155 Haze 15 1017 72 6437 1.54 223 03:22 26.01.2020
156 Haze 16 1017 67 4828 1.5 0 02:23 26.01.2020
157 Haze 18 1017 63 6437 1.5 260 01:40 26.01.2020
158 Haze 18 1017 63 6437 1.5 260 01:20 26.01.2020
159 Haze 19 1016 56 6437 2.6 260 00:40 26.01.2020
160 Haze 19 1016 56 6437 2.6 260 00:20 26.01.2020
161 Clear 20 1017 28 16093 2.6 248 23:38 25.01.2020
162 Haze 20 1017 72 6437 3.1 210 23:20 25.01.2020
163 Haze 20 1017 72 4828 2.6 220 22:44 25.01.2020
164 Haze 20 1017 72 4828 2.6 220 22:21 25.01.2020
165 Haze 20 1017 72 4828 2.6 220 21:59 25.01.2020
166 Clear 19 1018 28 16093 2.6 240 21:41 25.01.2020
167 Clear 19 1018 28 16093 2.6 240 21:22 25.01.2020
168 Clear 22 1017 25 0 1.5 248 20:55 25.01.2020
169 Haze 18 1019 82 4828 2.6 220 20:36 25.01.2020
170 Clear 16 1018 32 16093 0.76 255 20:18 25.01.2020
171 Clear 15 1017 38 0 0.45 298 19:42 25.01.2020
172 Mist 15 1019 87 6437 0.76 255 19:20 25.01.2020
173 Clear 14 1018 47 16093 1.5 150 18:57 25.01.2020
174 Clear 14 1018 47 16093 1.5 150 18:57 25.01.2020
175 Clear 15 1018 47 16093 1.5 150 18:38 25.01.2020
176 Clear 13 1018 47 16093 1.5 150 18:20 25.01.2020
177 Mist 13 1018 93 2012 1.5 280 17:40 25.01.2020
178 Fog 11 1018 100 805 0.7 99 17:21 25.01.2020
179 Fog 11 1018 100 805 0.57 85 16:58 25.01.2020
180 Fog 10 1017 87 402 3.1 110 16:39 25.01.2020
181 Mist 10 1017 87 2012 0.7 99 16:19 25.01.2020
182 Clear 10 1017 50 16093 0.7 99 15:47 25.01.2020
183 Clear 10 1017 50 16093 0.7 99 15:25 25.01.2020
184 Fog 10 1017 93 805 0.7 99 14:59 25.01.2020
185 Mist 10 1016 93 2816 0.7 99 14:40 25.01.2020
186 Clouds 10 1016 43 16093 1.5 40 14:18 25.01.2020
187 Fog 10 1017 100 805 2.1 300 13:42 25.01.2020
188 Fog 10 1017 100 805 2.1 300 13:42 25.01.2020
189 Fog 11 1017 100 805 2.1 300 13:23 25.01.2020
190 Mist 11 1017 93 2012 0.58 340 12:46 25.01.2020
191 Mist 11 1017 93 2012 0.58 340 12:26 25.01.2020
192 Mist 11 1017 100 2414 0.58 340 11:46 25.01.2020
193 Mist 11 1016 93 3219 1.5 110 11:22 25.01.2020
194 Fog 11 1016 87 0 0.26 210 10:59 25.01.2020
195 Fog 11 1016 87 0 0.26 210 10:40 25.01.2020
196 Mist 11 1017 93 1609 0.26 210 10:21 25.01.2020
197 Mist 11 1016 93 1207 0.26 210 09:57 25.01.2020
198 Mist 11 1016 93 3219 2.1 120 09:37 25.01.2020
199 Mist 11 1016 93 3219 2.1 120 09:18 25.01.2020
200 Fog 12 1016 93 402 3.6 100 08:42 25.01.2020
201 Mist 12 1017 87 1207 0.51 155 07:51 25.01.2020
202 Mist 12 1016 87 1207 0.51 155 06:57 25.01.2020
203 Mist 12 1016 87 1207 2.1 90 06:31 25.01.2020
204 Fog 13 1016 87 805 2.1 140 05:50 25.01.2020
205 Clear 14 1016 77 16093 1.15 204 05:28 25.01.2020
206 Mist 15 1015 93 4023 1.15 204 03:55 25.01.2020
207 Clear 15 1014 68 16093 1.15 204 03:34 25.01.2020
208 Clear 18 1014 56 16093 2.84 214 02:24 25.01.2020
209 Clear 19 1014 52 16093 2.84 214 01:54 25.01.2020
210 Clear 20 1014 49 16093 1.5 0 00:59 25.01.2020
211 Clear 20 1014 49 16093 1.5 0 00:37 25.01.2020
212 Clear 21 1014 49 16093 1.5 0 00:18 25.01.2020
213 Clear 21 1014 49 16093 1.5 0 00:18 25.01.2020
214 Clear 21 1015 22 16093 6.7 260 23:41 24.01.2020
215 Clear 21 1015 22 16093 6.7 260 23:41 24.01.2020
216 Clear 21 1015 22 16093 6.7 260 23:41 24.01.2020
217 Clear 21 1015 22 16093 6.7 260 23:23 24.01.2020
218 Clear 21 1015 23 16093 2.1 100 22:46 24.01.2020
219 Clear 21 1015 29 16093 1.5 250 22:27 24.01.2020
220 Clear 21 1016 28 16093 1.5 250 21:57 24.01.2020
221 Clear 21 1016 28 16093 1.5 250 21:39 24.01.2020
222 Clear 21 1016 28 16093 1.5 250 21:18 24.01.2020
223 Clear 20 1017 35 16093 1.97 206 20:43 24.01.2020
224 Clear 20 1017 35 16093 1.03 171 20:22 24.01.2020
225 Clear 19 1017 40 16093 0.75 197 19:58 24.01.2020
226 Clear 19 1017 40 16093 0.75 197 19:40 24.01.2020
227 Clear 18 1017 40 16093 0.75 197 19:22 24.01.2020
228 Clear 17 1017 51 16093 0.75 197 18:54 24.01.2020
229 Clear 17 1017 51 16093 0.75 197 18:36 24.01.2020
230 Clear 16 1017 51 16093 0.75 197 18:18 24.01.2020
231 Clear 14 1017 66 16093 0.75 197 17:42 24.01.2020
232 Clear 12 1017 66 16093 0.75 73 17:21 24.01.2020
233 Clear 10 1016 71 16093 0.75 73 16:43 24.01.2020
234 Clear 10 1016 71 16093 0.75 73 16:22 24.01.2020
235 Clear 10 1016 71 16093 0.75 73 16:22 24.01.2020
236 Clear 10 1016 66 16093 0.75 73 15:57 24.01.2020
237 Clear 10 1016 66 16093 0.75 73 15:39 24.01.2020
238 Clear 10 1016 66 16093 0.75 73 15:20 24.01.2020
239 Clear 10 1016 71 16093 0.75 73 14:41 24.01.2020
240 Clear 10 1016 71 16093 0.41 211 14:23 24.01.2020
241 Clear 10 1016 76 16093 0.41 211 13:57 24.01.2020
242 Clear 10 1016 76 16093 0.41 211 13:39 24.01.2020
243 Clear 11 1016 76 16093 0.16 257 13:19 24.01.2020
244 Clear 11 1016 76 16093 0.16 257 12:41 24.01.2020
245 Clear 11 1016 76 16093 0.16 257 12:18 24.01.2020
246 Clear 11 1016 76 16093 0.16 257 11:43 24.01.2020
247 Clear 11 1016 76 16093 0.32 80 11:19 24.01.2020
248 Clear 12 1017 82 14484 0.32 80 10:43 24.01.2020
249 Clear 12 1017 82 14484 0.32 80 10:23 24.01.2020
250 Clear 12 1017 82 14484 0.32 80 10:23 24.01.2020
251 Clear 12 1017 82 16093 0.32 80 09:57 24.01.2020
252 Clear 12 1017 82 16093 0.32 80 09:39 24.01.2020
253 Clear 12 1017 82 16093 0.32 80 09:21 24.01.2020
254 Clear 13 1017 82 16093 0.32 80 08:41 24.01.2020
255 Clear 13 1017 82 16093 0.83 91 08:20 24.01.2020
256 Clear 13 1018 82 16093 0.83 91 07:53 24.01.2020
257 Clear 13 1018 82 16093 0.83 91 07:35 24.01.2020
258 Clear 13 1017 72 16093 0.83 91 06:48 24.01.2020
259 Clear 13 1017 72 16093 0.83 91 06:29 24.01.2020
260 Clear 14 1017 77 16093 0.83 91 05:59 24.01.2020
261 Clear 14 1017 77 16093 0.07 141 05:18 24.01.2020
262 Clear 17 1016 56 16093 0.07 141 02:54 24.01.2020
263 Clear 18 1016 56 16093 0.07 141 02:26 24.01.2020
264 Clear 20 1017 43 16093 3.6 270 01:49 24.01.2020
265 Clear 20 1017 43 16093 3.6 270 01:31 24.01.2020
266 Clear 21 1017 43 16093 1.5 0 00:31 24.01.2020
267 Clear 21 1017 29 16093 3.6 200 23:56 23.01.2020
268 Clear 21 1017 29 16093 3.6 200 23:37 23.01.2020
269 Clear 21 1017 29 16093 3.6 200 23:18 23.01.2020
270 Clear 22 1018 36 16093 1.5 0 22:39 23.01.2020
271 Clear 22 1018 36 16093 1.5 0 22:19 23.01.2020
272 Clear 22 1018 49 16093 2.6 260 21:58 23.01.2020
273 Clear 22 1018 49 16093 2.6 260 21:39 23.01.2020
274 Clear 21 1019 35 16093 1.5 250 21:21 23.01.2020
275 Clear 21 1020 52 16093 3.1 270 20:59 23.01.2020
276 Clear 21 1020 52 16093 3.1 270 20:39 23.01.2020
277 Clear 19 1020 40 16093 0.3 169 20:21 23.01.2020
278 Clear 19 1021 32 16093 4.6 340 19:56 23.01.2020
279 Clear 19 1021 32 16093 4.6 340 19:38 23.01.2020
280 Clear 18 1021 48 16093 0.3 169 19:20 23.01.2020
281 Clear 17 1021 48 16093 0.3 169 18:56 23.01.2020
282 Clear 16 1021 63 16093 0.3 169 18:37 23.01.2020
283 Clear 15 1021 63 16093 0.3 169 18:19 23.01.2020
284 Clear 14 1021 47 16093 2.1 290 17:43 23.01.2020
285 Clear 12 1021 71 16093 0.75 354 17:20 23.01.2020
286 Clear 11 1021 50 16093 0.75 354 16:58 23.01.2020
287 Clear 10 1021 50 16093 0.75 354 16:38 23.01.2020
288 Clear 10 1021 76 14484 1.5 270 16:19 23.01.2020
289 Clear 10 1020 71 16093 1.5 270 15:57 23.01.2020
290 Clear 10 1020 71 16093 1.5 270 15:38 23.01.2020
291 Clear 10 1020 76 12874 0.75 354 15:19 23.01.2020
292 Clear 10 1020 66 16093 0.75 354 14:57 23.01.2020
293 Clear 10 1020 66 16093 0.75 354 14:39 23.01.2020
294 Clear 10 1020 66 16093 0.86 55 14:21 23.01.2020
295 Clear 10 1020 76 12874 0.86 55 13:46 23.01.2020
296 Clear 10 1020 76 12874 0.73 34 13:21 23.01.2020
297 Clear 10 1020 71 11265 1.5 10 12:57 23.01.2020
298 Clear 9 1020 71 11265 1.5 10 12:39 23.01.2020
299 Clear 10 1020 71 11265 1.5 10 12:20 23.01.2020
300 Clear 10 1020 81 11265 1.01 40 11:45 23.01.2020
301 Clear 10 1020 81 11265 1.01 40 11:25 23.01.2020
302 Mist 10 1022 93 8047 0.46 356 10:59 23.01.2020
303 Mist 10 1022 93 8047 0.46 356 10:41 23.01.2020
304 Clear 10 1021 81 11265 0.72 350 10:19 23.01.2020
305 Clear 10 1021 81 11265 0.72 350 10:19 23.01.2020
306 Clear 10 1021 76 11265 0.72 350 09:41 23.01.2020
307 Clear 10 1021 76 11265 0.72 350 09:22 23.01.2020
308 Clear 10 1021 76 11265 0.72 350 08:57 23.01.2020
309 Clear 10 1021 76 11265 0.46 356 08:38 23.01.2020
310 Clear 10 1021 76 11265 0.69 279 08:19 23.01.2020
311 Clear 11 1021 71 16093 3.1 30 07:42 23.01.2020
312 Clear 11 1021 82 14484 0.69 279 07:21 23.01.2020
313 Clear 11 1021 82 14484 0.69 279 07:21 23.01.2020
314 Clear 11 1021 71 16093 2.1 30 06:44 23.01.2020
315 Clear 11 1021 76 12874 0.69 279 06:19 23.01.2020
316 Clear 12 1020 71 16093 2.6 360 04:44 23.01.2020
317 Clear 13 1021 72 16093 2.6 260 04:21 23.01.2020
318 Clear 16 1020 67 16093 2.63 217 01:58 23.01.2020
319 Clear 17 1020 59 16093 1.5 0 00:56 23.01.2020
320 Clear 17 1020 55 16093 3.05 208 00:26 23.01.2020
321 Clear 17 1020 48 16093 3.05 208 23:47 22.01.2020
322 Clear 17 1020 48 16093 3.05 208 23:29 22.01.2020
323 Clouds 17 1020 72 16093 2.6 190 22:56 22.01.2020
324 Clear 17 1020 52 16093 2.05 211 22:38 22.01.2020
325 Clear 17 1020 52 16093 2.05 211 22:20 22.01.2020
326 Clear 17 1021 62 14484 2.05 211 21:39 22.01.2020
327 Clouds 16 1021 55 16093 1.5 0 21:21 22.01.2020
328 Clouds 16 1022 67 16093 2.05 211 20:56 22.01.2020
329 Clouds 16 1022 67 11265 2.1 250 20:37 22.01.2020
330 Clear 15 1023 59 16093 1.77 192 20:18 22.01.2020
331 Clouds 15 1022 67 16093 1.5 0 19:55 22.01.2020
332 Clouds 15 1022 67 16093 1.5 0 19:37 22.01.2020
333 Clear 14 1023 63 14484 1.5 100 19:18 22.01.2020
334 Mist 14 1023 87 6437 1.77 192 18:56 22.01.2020
335 Clear 13 1023 71 11265 1.77 192 18:37 22.01.2020
336 Clear 12 1023 71 11265 1.77 192 18:19 22.01.2020
337 Mist 11 1022 100 6437 1.77 192 17:40 22.01.2020
338 Clear 10 1022 76 11265 1.27 131 17:21 22.01.2020
339 Clear 9 1022 76 11265 1.27 131 16:58 22.01.2020
340 Clear 9 1022 76 11265 1.27 131 16:40 22.01.2020
341 Clear 9 1022 76 11265 1.27 131 16:21 22.01.2020
342 Clouds 9 1022 81 16093 1.5 90 15:58 22.01.2020
343 Clear 9 1022 71 12874 1.27 131 15:38 22.01.2020
344 Clear 9 1022 71 12874 1.27 131 15:20 22.01.2020
345 Clouds 9 1022 93 11265 1.27 131 14:40 22.01.2020
346 Clouds 9 1022 93 11265 1.27 131 14:40 22.01.2020
347 Clouds 9 1022 93 11265 1.27 131 14:40 22.01.2020
348 Clear 9 1022 76 12874 0.9 144 14:21 22.01.2020
349 Clouds 9 1022 76 16093 0.9 144 13:59 22.01.2020
350 Clouds 9 1022 76 16093 0.9 144 13:38 22.01.2020
351 Clouds 9 1022 93 11265 0.83 126 13:20 22.01.2020
352 Clear 9 1022 76 16093 0.83 126 12:58 22.01.2020
353 Clear 9 1022 76 16093 0.83 126 12:40 22.01.2020
354 Clear 9 1022 76 16093 0.83 126 12:20 22.01.2020
355 Clear 9 1022 76 16093 0.83 126 11:58 22.01.2020
356 Clear 9 1022 76 16093 0.83 126 11:40 22.01.2020
357 Clear 9 1022 76 16093 1.63 131 11:19 22.01.2020
358 Clouds 9 1022 87 16093 2.1 100 10:59 22.01.2020
359 Clouds 9 1022 87 16093 2.1 100 10:41 22.01.2020
360 Clear 10 1022 71 16093 1.63 131 10:18 22.01.2020
361 Clear 10 1022 71 16093 1.63 131 09:42 22.01.2020
362 Clear 10 1022 71 16093 1.63 131 09:24 22.01.2020
363 Clouds 10 1023 81 16093 1.63 131 08:57 22.01.2020
364 Clouds 10 1023 81 16093 1.63 131 08:38 22.01.2020
365 Clear 10 1023 71 16093 1.68 178 08:20 22.01.2020
366 Haze 10 1022 76 8047 1.28 168 07:46 22.01.2020
367 Clear 10 1022 71 16093 1.28 168 07:28 22.01.2020
368 Clear 11 1022 71 16093 1.28 168 06:38 22.01.2020
369 Clear 11 1022 71 16093 1.28 168 06:20 22.01.2020
370 Clear 11 1022 67 16093 2.5 245 05:21 22.01.2020
371 Clouds 12 1021 59 16093 2.5 245 03:30 22.01.2020
372 Clouds 13 1021 67 16093 1.5 280 02:57 22.01.2020
373 Clouds 14 1021 63 16093 4.1 250 01:42 22.01.2020
374 Clear 15 1020 52 16093 4.14 247 00:44 22.01.2020
375 Clear 15 1020 52 16093 4.14 247 00:26 22.01.2020
376 Clouds 15 1021 63 16093 4.1 220 23:38 21.01.2020
377 Clouds 15 1020 52 16093 2.1 250 23:20 21.01.2020
378 Clouds 15 1020 55 16093 3.1 270 22:55 21.01.2020
379 Clouds 15 1020 55 16093 1.5 0 22:36 21.01.2020
380 Clouds 15 1020 55 16093 1.5 0 22:18 21.01.2020
381 Clouds 15 1021 55 16093 2.5 234 21:55 21.01.2020
382 Clouds 15 1021 55 16093 2.5 234 21:37 21.01.2020
383 Clouds 15 1021 55 16093 2.5 234 21:18 21.01.2020
384 Clouds 15 1021 63 16093 1.5 260 20:55 21.01.2020
385 Clouds 14 1022 82 16093 2.6 210 20:36 21.01.2020
386 Clouds 14 1021 59 16093 1.24 128 20:18 21.01.2020
387 Rain 14 1021 72 16093 1.5 160 19:55 21.01.2020
388 Rain 14 1021 72 16093 1.5 160 19:36 21.01.2020
389 Rain 14 1021 67 16093 1.24 128 19:18 21.01.2020
390 Clouds 13 1021 71 16093 1.5 230 18:54 21.01.2020
391 Clear 13 1021 77 16093 1.24 128 18:36 21.01.2020
392 Clear 13 1021 77 16093 1.24 128 18:18 21.01.2020
393 Clouds 12 1021 82 16093 1.24 128 17:42 21.01.2020
394 Clouds 12 1020 82 16093 0.79 118 17:19 21.01.2020
395 Clouds 12 1020 82 16093 0.79 118 17:19 21.01.2020
396 Clouds 11 1020 82 16093 0.79 118 16:56 21.01.2020
397 Clouds 11 1020 82 16093 0.79 118 16:36 21.01.2020
398 Clouds 11 1020 82 16093 0.79 118 16:18 21.01.2020
399 Clouds 11 1020 82 16093 0.79 118 15:39 21.01.2020
400 Clouds 12 1019 82 16093 0.79 118 15:20 21.01.2020
401 Clouds 12 1020 93 16093 0.79 118 14:54 21.01.2020
402 Rain 12 1020 82 16093 0.79 118 14:36 21.01.2020
403 Rain 12 1020 82 16093 1.02 39 14:18 21.01.2020
404 Rain 12 1019 82 16093 2.6 220 13:38 21.01.2020
405 Rain 12 1019 82 16093 0.65 277 13:18 21.01.2020
406 Rain 12 1019 93 4828 1.5 180 12:43 21.01.2020
407 Rain 12 1019 87 9656 0.65 277 12:24 21.01.2020
408 Rain 12 1019 81 16093 1.5 290 11:56 21.01.2020
409 Rain 12 1019 81 16093 1.5 290 11:38 21.01.2020
410 Rain 12 1019 87 16093 1.91 84 11:19 21.01.2020
411 Rain 12 1019 82 16093 1.91 84 10:43 21.01.2020
412 Rain 12 1019 82 16093 1.91 84 10:23 21.01.2020
413 Rain 12 1019 72 16093 1.91 84 09:58 21.01.2020
414 Rain 13 1019 72 16093 1.91 84 09:40 21.01.2020
415 Rain 13 1019 72 16093 1.91 84 09:21 21.01.2020
416 Clouds 13 1019 72 16093 2.6 240 08:47 21.01.2020
417 Clouds 13 1019 72 16093 2.6 240 08:27 21.01.2020
418 Clouds 13 1019 72 16093 2.31 163 07:56 21.01.2020
419 Clouds 13 1019 76 16093 2.31 163 07:37 21.01.2020
420 Clouds 13 1018 67 16093 2.31 163 07:19 21.01.2020
421 Clouds 13 1018 63 16093 2.31 163 06:44 21.01.2020
422 Clouds 13 1018 63 16093 2.31 163 06:23 21.01.2020
423 Clouds 13 1018 63 16093 2.31 163 05:41 21.01.2020
424 Clouds 13 1018 63 16093 1.5 260 04:39 21.01.2020
425 Clouds 13 1018 63 16093 1.5 260 04:39 21.01.2020
426 Clouds 14 1017 55 16093 1.5 120 02:34 21.01.2020
427 Clouds 15 1018 67 16093 2.1 260 01:47 21.01.2020
428 Clouds 15 1017 59 16093 3.98 217 00:52 21.01.2020
429 Clouds 16 1017 59 16093 3.98 217 00:29 21.01.2020
430 Clouds 16 1017 59 16093 3.98 217 23:57 20.01.2020
431 Clouds 16 1017 59 16093 3.98 217 23:36 20.01.2020
432 Clouds 16 1018 72 16093 2.1 220 23:18 20.01.2020
433 Clouds 16 1018 63 16093 2.4 121 22:56 20.01.2020
434 Clouds 16 1018 63 16093 2.4 121 22:36 20.01.2020
435 Clouds 16 1018 63 16093 2.4 121 22:18 20.01.2020
436 Clouds 16 1019 77 16093 2.1 260 21:55 20.01.2020
437 Clear 16 1018 63 14484 2.4 121 21:36 20.01.2020
438 Clear 16 1018 63 14484 2.4 121 21:18 20.01.2020
439 Clouds 15 1018 82 16093 2.4 121 20:55 20.01.2020
440 Clouds 15 1018 82 16093 2.4 121 20:36 20.01.2020
441 Clear 15 1019 63 16093 1.19 261 20:18 20.01.2020
442 Clear 15 1019 63 16093 2.12 133 20:18 20.01.2020
443 Clear 15 1020 62 16093 4.1 40 19:56 20.01.2020
444 Clear 14 1019 67 16093 1.5 0 19:37 20.01.2020
445 Clear 14 1019 67 16093 1.5 0 19:18 20.01.2020
446 Clear 14 1019 63 14484 2.12 133 18:42 20.01.2020
447 Clear 13 1019 63 14484 2.12 133 18:21 20.01.2020
448 Clear 13 1020 71 14484 2.12 133 17:39 20.01.2020
449 Clear 12 1020 71 14484 1.74 156 17:19 20.01.2020
450 Clear 12 1019 67 16093 1.74 156 16:58 20.01.2020
451 Clear 12 1019 67 16093 1.74 156 16:37 20.01.2020
452 Clear 12 1019 67 16093 1.74 156 16:18 20.01.2020
453 Clear 12 1019 67 16093 1.74 156 16:18 20.01.2020
454 Clouds 12 1018 82 16093 1.5 270 15:54 20.01.2020
455 Clear 12 1018 67 16093 1.74 156 15:36 20.01.2020
456 Clear 12 1018 67 16093 1.74 156 15:18 20.01.2020
457 Clear 12 1016 67 16093 1.74 156 14:41 20.01.2020
458 Clear 12 1016 67 16093 0.55 111 14:22 20.01.2020
459 Clear 12 1017 67 16093 0.55 111 13:57 20.01.2020
460 Clear 12 1017 67 16093 0.55 111 13:39 20.01.2020
461 Clear 12 1017 67 16093 0.98 114 13:20 20.01.2020
462 Clear 12 1018 33 16093 0.98 114 12:45 20.01.2020
463 Clear 12 1018 67 16093 0.98 114 12:26 20.01.2020
464 Clear 12 1018 33 16093 2.1 40 11:56 20.01.2020
465 Clear 12 1018 33 16093 2.1 40 11:37 20.01.2020
466 Clear 12 1018 71 16093 0.64 267 11:19 20.01.2020
467 Clear 12 1018 62 16093 0.64 267 10:47 20.01.2020
468 Clear 12 1018 82 12874 0.64 267 10:21 20.01.2020
469 Clear 12 1018 62 16093 0.64 267 10:21 20.01.2020
470 Clear 13 1018 58 16093 0.64 267 09:54 20.01.2020
471 Clear 13 1018 58 16093 0.64 267 09:36 20.01.2020
472 Clear 13 1018 58 16093 0.64 267 09:18 20.01.2020
473 Clear 13 1019 55 16093 0.64 267 08:42 20.01.2020
474 Clear 13 1019 55 16093 1.75 215 08:24 20.01.2020
475 Clear 14 1018 26 16093 3.1 360 07:42 20.01.2020
476 Clear 14 1018 26 16093 3.1 360 07:42 20.01.2020
477 Clear 14 1018 48 16093 2.04 209 07:22 20.01.2020
478 Clear 14 1018 51 16093 2.04 209 06:45 20.01.2020
479 Clear 15 1018 51 16093 2.04 209 06:25 20.01.2020
480 Clear 15 1018 38 16093 3.1 270 05:41 20.01.2020
481 Clear 15 1018 55 16093 1.37 209 05:21 20.01.2020
482 Clear 16 1019 16 16093 2.1 0 04:41 20.01.2020
483 Clear 17 1016 45 16093 1.37 209 02:55 20.01.2020
484 Clear 18 1017 40 16093 0.59 165 01:52 20.01.2020
485 Clear 18 1017 40 16093 1.03 242 01:26 20.01.2020
486 Clear 19 1017 33 16093 1.03 242 00:44 20.01.2020
487 Clear 19 1017 33 16093 1.03 242 00:22 20.01.2020
488 Clear 20 1018 28 16093 3.1 260 23:39 19.01.2020
489 Clear 20 1018 28 16093 3.1 260 23:20 19.01.2020
490 Clear 20 1018 28 16093 3.1 260 23:20 19.01.2020
491 Clear 20 1018 28 16093 3.1 260 23:20 19.01.2020
492 Clear 20 1018 16 16093 1.37 116 22:56 19.01.2020
493 Clear 20 1018 16 16093 1.37 116 22:56 19.01.2020
494 Clear 21 1018 16 16093 1.37 116 22:38 19.01.2020
495 Clear 21 1018 16 16093 1.37 116 22:20 19.01.2020
496 Clear 21 1019 16 16093 1.37 116 21:56 19.01.2020
497 Clear 21 1019 16 16093 1.37 116 21:38 19.01.2020
498 Haze 22 1019 15 9656 1.5 0 21:20 19.01.2020
499 Clouds 21 1021 19 16093 4.1 280 20:57 19.01.2020
500 Clear 21 1020 18 16093 1.5 0 20:39 19.01.2020
501 Clear 19 1020 18 16093 1.5 0 20:20 19.01.2020
502 Clear 19 1021 20 16093 2.1 230 19:57 19.01.2020
503 Clear 18 1020 20 16093 2.6 40 19:39 19.01.2020
504 Clear 18 1020 20 16093 2.6 40 19:20 19.01.2020
505 Clear 17 1020 25 16093 1.5 360 18:57 19.01.2020
506 Clear 17 1020 25 16093 1.5 360 18:38 19.01.2020
507 Clear 17 1020 25 16093 1.5 360 18:38 19.01.2020
508 Clear 16 1020 25 16093 1.5 360 18:20 19.01.2020
509 Clear 15 1019 28 16093 2.1 10 17:58 19.01.2020
510 Clear 14 1019 28 16093 2.1 10 17:40 19.01.2020
511 Clear 14 1019 28 16093 2.1 10 17:40 19.01.2020
512 Clear 12 1019 28 16093 2.1 10 17:21 19.01.2020
513 Clear 11 1020 37 16093 2.1 310 16:59 19.01.2020
514 Clear 11 1020 37 16093 2.1 310 16:59 19.01.2020
515 Clear 11 1020 37 16093 2.1 310 16:39 19.01.2020
516 Clear 10 1020 32 16093 1.5 40 16:21 19.01.2020
517 Clear 10 1020 52 16093 1.43 52 15:58 19.01.2020
518 Clear 11 1020 45 16093 2.1 300 15:39 19.01.2020
519 Clear 11 1019 30 16093 1.43 52 15:20 19.01.2020
520 Clear 11 1019 34 16093 1.5 340 14:58 19.01.2020
521 Clear 11 1019 34 16093 1.5 340 14:39 19.01.2020
522 Clear 11 1019 30 16093 1.5 30 14:18 19.01.2020
523 Clear 11 1019 42 16093 2.6 350 13:58 19.01.2020
524 Clear 11 1019 42 16093 2.6 350 13:38 19.01.2020
525 Clear 11 1019 26 16093 2.1 0 13:20 19.01.2020
526 Clear 11 1020 39 16093 0.86 335 12:56 19.01.2020
527 Clear 11 1020 28 16093 1.5 0 12:37 19.01.2020
528 Clear 11 1020 28 16093 1.5 0 12:19 19.01.2020
529 Clear 11 1020 28 16093 1.5 30 11:43 19.01.2020
530 Clear 12 1020 28 16093 1.5 30 11:21 19.01.2020
531 Clear 11 1021 28 16093 2.1 20 10:57 19.01.2020
532 Clear 11 1021 28 16093 2.1 20 10:39 19.01.2020
533 Clear 11 1021 28 16093 2.1 20 10:19 19.01.2020
534 Clear 12 1021 28 16093 2.1 20 09:56 19.01.2020
535 Clear 12 1021 28 16093 2.1 20 09:56 19.01.2020
536 Clear 12 1021 28 16093 2.1 20 09:56 19.01.2020
537 Clear 12 1021 28 16093 2.1 20 09:37 19.01.2020
538 Clear 12 1021 28 16093 2.1 20 09:19 19.01.2020
539 Clear 12 1021 30 16093 1.43 46 08:54 19.01.2020
540 Clear 12 1021 30 16093 1.43 46 08:30 19.01.2020
541 Clear 13 1021 31 16093 1.5 30 07:46 19.01.2020
542 Clear 13 1021 31 16093 1.5 30 07:27 19.01.2020
543 Clear 13 1021 31 16093 1.12 30 06:54 19.01.2020
544 Clear 13 1021 31 16093 1.12 30 06:21 19.01.2020
545 Clear 14 1020 48 16093 0.92 324 03:52 19.01.2020
546 Clear 16 1020 42 16093 0.92 324 02:32 19.01.2020
547 Clear 18 1020 30 16093 1.5 260 01:39 19.01.2020
548 Clear 18 1020 30 16093 1.5 260 01:18 19.01.2020
549 Clear 19 1021 20 16093 2.1 0 00:44 19.01.2020
550 Clear 19 1021 37 16093 4.1 270 00:19 19.01.2020
551 Clear 19 1020 18 16093 2.1 270 23:45 18.01.2020
552 Clear 19 1020 18 16093 2.1 270 23:25 18.01.2020
553 Clear 19 1021 19 16093 0.81 255 22:58 18.01.2020
554 Clear 19 1021 19 16093 0.81 255 22:40 18.01.2020
555 Clear 19 1021 19 16093 0.81 255 22:21 18.01.2020
556 Clear 18 1022 21 16093 1.5 0 21:58 18.01.2020
557 Clear 19 1022 21 16093 1.5 0 21:58 18.01.2020
558 Clear 19 1022 21 16093 1.5 0 21:38 18.01.2020
559 Clear 19 1022 21 16093 1.5 0 21:20 18.01.2020
560 Clear 18 1024 22 16093 3.6 310 20:55 18.01.2020
561 Clear 18 1024 22 16093 3.6 310 20:36 18.01.2020
562 Clear 17 1023 24 16093 1.5 30 20:18 18.01.2020
563 Clear 16 1023 30 16093 1.06 120 19:42 18.01.2020
564 Clear 16 1023 27 16093 1.06 120 19:24 18.01.2020
565 Clear 15 1023 41 16093 1.06 120 18:43 18.01.2020
566 Clear 14 1023 41 16093 1.06 120 18:24 18.01.2020
567 Clear 12 1024 53 16093 1.06 120 17:58 18.01.2020
568 Clear 11 1023 40 16093 1.06 120 17:40 18.01.2020
569 Clear 10 1023 40 16093 0.65 45 17:20 18.01.2020
570 Clear 9 1023 43 16093 1.5 30 16:56 18.01.2020
571 Clear 8 1023 43 16093 1.5 30 16:38 18.01.2020
572 Clear 7 1023 43 16093 1.5 30 16:19 18.01.2020
573 Clear 8 1022 43 16093 1.5 30 15:44 18.01.2020
574 Clear 8 1022 43 16093 1.5 30 15:25 18.01.2020
575 Clear 7 1022 53 16093 0.65 45 14:59 18.01.2020
576 Clear 8 1022 53 16093 0.65 45 14:40 18.01.2020
577 Clear 8 1022 53 16093 0.9 354 14:19 18.01.2020
578 Clear 8 1022 38 16093 2.1 300 13:56 18.01.2020
579 Clear 8 1022 57 16093 0.9 354 13:36 18.01.2020
580 Clear 8 1022 57 16093 0.99 350 13:18 18.01.2020
581 Clear 8 1022 57 16093 0.99 350 13:18 18.01.2020
582 Clear 8 1022 70 16093 0.99 350 12:41 18.01.2020
583 Clear 8 1022 57 16093 1.5 0 12:21 18.01.2020
584 Clear 8 1023 62 16093 0.99 350 11:56 18.01.2020
585 Clear 8 1023 62 16093 0.99 350 11:38 18.01.2020
586 Clear 8 1023 62 16093 0.59 27 11:19 18.01.2020
587 Clear 8 1023 58 16093 0.59 27 10:42 18.01.2020
588 Clear 8 1023 58 16093 0.59 27 10:21 18.01.2020
589 Clear 8 1023 62 16093 1.5 30 09:55 18.01.2020
590 Clear 8 1023 62 16093 1.5 30 09:37 18.01.2020
591 Clear 8 1023 71 16093 0.59 27 08:59 18.01.2020
592 Clear 8 1023 71 16093 0.59 27 08:41 18.01.2020
593 Clear 9 1023 76 16093 0.83 157 08:20 18.01.2020
594 Clear 9 1023 76 16093 0.83 157 08:20 18.01.2020
595 Clear 9 1023 71 16093 0.83 157 07:56 18.01.2020
596 Clear 9 1023 71 16093 0.83 157 07:37 18.01.2020
597 Clear 9 1022 71 16093 0.83 157 06:49 18.01.2020
598 Clear 10 1022 71 16093 0.83 157 06:22 18.01.2020
599 Clear 10 1022 66 16093 0.83 157 05:45 18.01.2020
600 Clear 11 1022 62 16093 1.48 240 04:19 18.01.2020
601 Clear 13 1022 51 16093 2.1 260 02:33 18.01.2020
602 Clear 14 1022 47 16093 2.18 226 01:36 18.01.2020
603 Clear 15 1022 42 16093 3.53 198 00:39 18.01.2020
604 Clear 15 1022 42 16093 3.53 198 00:19 18.01.2020
605 Clouds 15 1022 50 16093 2.1 20 23:56 17.01.2020
606 Clouds 15 1022 50 16093 2.1 20 23:38 17.01.2020
607 Clear 15 1022 48 16093 2.6 0 23:18 17.01.2020
608 Clouds 15 1022 54 16093 2.6 130 22:40 17.01.2020
609 Clear 15 1022 48 16093 1.5 0 22:19 17.01.2020
610 Clear 15 1022 48 16093 1.5 0 22:19 17.01.2020
611 Clouds 15 1023 55 16093 1.87 122 21:54 17.01.2020
612 Clouds 14 1023 62 16093 1.87 122 21:36 17.01.2020
613 Clouds 14 1023 59 16093 1.87 122 21:18 17.01.2020
614 Clouds 14 1023 62 16093 2.1 0 20:41 17.01.2020
615 Clear 13 1024 62 16093 1.5 90 20:21 17.01.2020
616 Clear 13 1024 62 16093 1.5 90 20:21 17.01.2020
617 Clouds 13 1024 76 16093 1.5 0 19:58 17.01.2020
618 Clouds 12 1024 76 16093 1.5 0 19:38 17.01.2020
619 Clouds 12 1024 71 16093 1.5 80 19:20 17.01.2020
620 Clouds 11 1024 71 16093 2.96 91 18:58 17.01.2020
621 Clouds 11 1024 71 16093 2.96 91 18:58 17.01.2020
622 Clouds 11 1024 76 16093 2.1 10 18:39 17.01.2020
623 Clouds 10 1024 76 16093 2.1 10 18:21 17.01.2020
624 Clouds 9 1023 81 16093 1.5 320 17:40 17.01.2020
625 Clear 8 1023 81 16093 1.79 80 17:22 17.01.2020
626 Clouds 7 1022 87 2816 1.5 60 16:57 17.01.2020
627 Clouds 7 1022 87 2816 1.5 60 16:38 17.01.2020
628 Clear 7 1022 87 16093 1.79 80 16:19 17.01.2020
629 Rain 8 1022 100 8047 1.5 340 15:45 17.01.2020
630 Rain 8 1021 100 2816 1.79 80 15:26 17.01.2020
631 Rain 8 1021 93 1207 2.1 320 14:45 17.01.2020
632 Rain 8 1021 87 16093 2.53 86 14:27 17.01.2020
633 Rain 8 1020 93 12874 2.53 86 13:58 17.01.2020
634 Rain 8 1020 93 12874 2.53 86 13:58 17.01.2020
635 Rain 8 1020 93 12874 2.53 86 13:38 17.01.2020
636 Rain 9 1021 87 16093 1.14 194 13:19 17.01.2020
637 Rain 9 1020 87 16093 1.14 194 12:44 17.01.2020
638 Rain 9 1021 93 16093 3.1 50 12:22 17.01.2020
639 Rain 9 1020 87 16093 1.14 194 11:40 17.01.2020
640 Rain 10 1021 93 6437 1.72 193 11:19 17.01.2020
641 Rain 10 1020 81 11265 2.6 80 10:44 17.01.2020
642 Rain 10 1019 93 16093 3.1 130 10:23 17.01.2020
643 Rain 10 1020 87 3219 1.5 70 09:59 17.01.2020
644 Rain 10 1020 87 3219 1.5 70 09:59 17.01.2020
645 Rain 9 1020 93 16093 2.6 0 09:41 17.01.2020
646 Rain 9 1020 93 2414 3.6 70 09:20 17.01.2020
647 Rain 9 1021 87 2816 3.1 100 08:46 17.01.2020
648 Rain 9 1021 87 4023 3.1 90 08:25 17.01.2020
649 Rain 10 1021 81 4023 1.5 0 07:56 17.01.2020
650 Rain 10 1020 100 3219 2.1 100 07:36 17.01.2020
651 Rain 10 1021 76 4023 3.21 194 07:18 17.01.2020
652 Rain 10 1020 66 12874 1.5 280 06:41 17.01.2020
653 Rain 10 1019 62 14484 3.21 194 05:57 17.01.2020
654 Clouds 11 1019 76 16093 2.6 240 03:44 17.01.2020
655 Clouds 11 1018 58 16093 2.6 220 02:55 17.01.2020
656 Clouds 11 1018 58 16093 3.6 230 02:28 17.01.2020
657 Clouds 12 1018 58 16093 5.1 240 01:32 17.01.2020
658 Clouds 13 1018 62 16093 3.6 230 00:55 17.01.2020
659 Clouds 13 1017 71 16093 4.1 250 00:28 17.01.2020
660 Clear 13 1016 62 14484 5.1 260 23:54 16.01.2020
661 Clouds 14 1017 51 16093 3.86 202 23:36 16.01.2020
662 Clouds 14 1017 51 16093 2.37 173 23:18 16.01.2020
663 Clear 14 1016 58 14484 6.2 250 22:40 16.01.2020
664 Haze 14 1017 55 8047 2.37 173 22:21 16.01.2020
665 Haze 14 1017 55 8047 2.37 173 21:56 16.01.2020
666 Haze 14 1017 55 8047 2.37 173 21:37 16.01.2020
667 Haze 14 1017 55 8047 2.37 173 21:18 16.01.2020
668 Haze 14 1018 62 9656 2.37 173 20:56 16.01.2020
669 Haze 13 1018 62 8047 2.6 100 20:37 16.01.2020
670 Haze 13 1018 62 8047 2.6 100 20:18 16.01.2020
671 Haze 12 1018 71 4828 2.6 120 19:54 16.01.2020
672 Haze 12 1018 67 4828 1.84 178 19:36 16.01.2020
673 Haze 12 1018 67 4828 1.84 178 19:18 16.01.2020
674 Haze 11 1018 67 4828 1.5 0 18:54 16.01.2020
675 Haze 11 1017 81 4023 1.5 150 18:36 16.01.2020
676 Haze 11 1017 81 4023 1.5 150 18:18 16.01.2020
677 Haze 10 1017 76 4828 1.84 178 17:41 16.01.2020
678 Haze 9 1017 76 4023 0.6 196 17:21 16.01.2020
679 Haze 8 1016 81 4023 2.1 340 16:57 16.01.2020
680 Mist 8 1017 93 3219 0.6 196 16:38 16.01.2020
681 Haze 8 1016 76 6437 0.6 196 16:19 16.01.2020
682 Haze 8 1016 81 4828 1.5 0 15:44 16.01.2020
683 Mist 8 1016 76 4828 2.1 50 15:22 16.01.2020
684 Mist 8 1017 81 4023 0.6 196 14:56 16.01.2020
685 Mist 8 1017 81 4023 0.6 196 14:37 16.01.2020
686 Haze 8 1017 81 4828 0.62 200 14:19 16.01.2020
687 Haze 8 1017 81 4828 0.62 200 13:44 16.01.2020
688 Mist 8 1016 93 4023 2.6 360 13:25 16.01.2020
689 Mist 8 1016 81 6437 2.1 330 12:46 16.01.2020
690 Haze 8 1016 81 6437 0.53 207 12:28 16.01.2020
691 Haze 8 1017 76 6437 0.53 207 11:58 16.01.2020
692 Haze 7 1017 76 6437 0.53 207 11:39 16.01.2020
693 Haze 7 1017 76 6437 1.09 184 11:21 16.01.2020
694 Mist 8 1017 87 4023 3.1 80 10:40 16.01.2020
695 Mist 8 1016 87 4828 1.09 184 10:21 16.01.2020
696 Haze 8 1016 81 4023 1.09 184 09:58 16.01.2020
697 Haze 8 1016 81 4828 1.09 184 09:40 16.01.2020
698 Haze 8 1016 81 4828 1.09 184 09:22 16.01.2020
699 Mist 8 1016 93 4023 1.09 184 08:53 16.01.2020
700 Haze 8 1016 87 9656 1.5 350 08:35 16.01.2020
701 Haze 9 1016 81 4828 1.12 226 07:59 16.01.2020
702 Haze 9 1016 81 4828 1.12 226 07:41 16.01.2020
703 Haze 9 1016 81 4828 1.12 226 07:23 16.01.2020
704 Mist 9 1017 100 3219 1.12 226 06:46 16.01.2020
705 Haze 10 1016 76 6437 1.12 226 06:28 16.01.2020
706 Clear 10 1015 50 16093 1.12 226 05:46 16.01.2020
707 Haze 11 1015 71 8047 1.8 272 04:46 16.01.2020
708 Haze 12 1015 67 9656 1.8 272 03:29 16.01.2020
709 Haze 13 1015 59 9656 2.1 0 02:44 16.01.2020
710 Haze 16 1015 55 9656 2.02 214 01:24 16.01.2020
711 Haze 16 1014 52 8047 1.5 0 00:41 16.01.2020
712 Haze 17 1014 52 8047 1.5 0 00:19 16.01.2020
713 Haze 17 1014 45 8047 2.02 214 23:40 15.01.2020
714 Haze 17 1014 45 8047 1.5 272 23:19 15.01.2020
715 Haze 17 1014 51 4828 1.5 272 22:56 15.01.2020
716 Haze 17 1015 52 3219 1.5 272 22:36 15.01.2020
717 Haze 17 1015 52 3219 1.5 272 22:18 15.01.2020
718 Haze 16 1015 55 2816 1.5 272 21:55 15.01.2020
719 Haze 16 1016 48 6437 1.5 272 21:36 15.01.2020
720 Haze 15 1016 48 6437 1.5 272 21:18 15.01.2020
721 Haze 15 1017 55 6437 1.5 272 20:54 15.01.2020
722 Haze 15 1017 55 6437 1.5 272 20:36 15.01.2020
723 Haze 14 1017 55 6437 0.75 257 20:18 15.01.2020
724 Haze 13 1018 93 1609 0.75 257 19:54 15.01.2020
725 Haze 13 1018 93 1609 0.75 257 19:36 15.01.2020
726 Haze 12 1018 58 6437 0.75 257 19:18 15.01.2020
727 Haze 12 1018 58 6437 0.75 257 19:18 15.01.2020
728 Mist 12 1018 100 3219 0.75 257 18:54 15.01.2020
729 Haze 11 1017 62 9656 0.75 257 18:36 15.01.2020
730 Haze 10 1017 62 9656 0.75 257 18:18 15.01.2020
731 Haze 8 1017 81 3219 1.5 90 17:40 15.01.2020
732 Haze 8 1017 81 3219 1.5 90 17:40 15.01.2020
733 Haze 7 1017 81 6437 0.28 330 17:21 15.01.2020
734 Fog 7 1017 93 402 2.6 90 16:57 15.01.2020
735 Clear 6 1017 70 12874 0.28 330 16:38 15.01.2020
736 Clear 6 1017 70 12874 0.28 330 16:20 15.01.2020
737 Clear 6 1017 70 12874 0.28 330 16:20 15.01.2020
738 Clear 6 1017 70 12874 0.28 330 16:20 15.01.2020
739 Mist 7 1017 100 2012 1.5 80 15:43 15.01.2020
740 Clear 7 1016 70 12874 0.28 330 15:21 15.01.2020
741 Mist 7 1016 87 4023 2.1 80 14:56 15.01.2020
742 Mist 7 1016 87 4023 2.1 80 14:37 15.01.2020
743 Clear 7 1017 70 12874 0.29 189 14:18 15.01.2020
744 Haze 7 1016 81 8047 2.1 20 13:44 15.01.2020
745 Clear 7 1017 71 14484 0.48 242 13:23 15.01.2020
746 Haze 7 1018 100 1609 0.48 242 12:56 15.01.2020
747 Haze 7 1018 100 1609 0.48 242 12:37 15.01.2020
748 Clear 7 1018 81 12874 0.48 242 12:19 15.01.2020
749 Clear 7 1018 81 12874 0.48 242 12:19 15.01.2020
750 Mist 7 1018 93 1609 0.48 242 11:55 15.01.2020
751 Mist 7 1018 93 1609 0.48 242 11:36 15.01.2020
752 Mist 7 1018 93 1609 0.48 242 11:36 15.01.2020
753 Clear 7 1018 81 11265 0.57 311 11:18 15.01.2020
754 Haze 7 1018 93 805 0.57 311 10:41 15.01.2020
755 Clear 7 1018 76 16093 0.57 311 10:21 15.01.2020
756 Haze 8 1018 100 2012 0.57 311 09:42 15.01.2020
757 Clear 8 1018 81 16093 0.57 311 09:22 15.01.2020
758 Haze 8 1019 93 3219 0.57 311 08:55 15.01.2020
759 Haze 8 1019 93 3219 0.57 311 08:37 15.01.2020
760 Clear 8 1019 76 16093 0.8 199 08:19 15.01.2020
761 Haze 9 1019 87 9656 2.1 30 07:43 15.01.2020
762 Clear 9 1019 76 16093 0.8 199 07:24 15.01.2020
763 Haze 9 1019 81 9656 0.8 199 06:44 15.01.2020
764 Clear 9 1018 71 16093 0.8 199 05:57 15.01.2020
765 Clouds 11 1017 81 11265 2.6 270 03:56 15.01.2020
766 Clear 12 1018 59 16093 1.5 0 02:30 15.01.2020
767 Clear 15 1018 55 16093 2.1 250 01:25 15.01.2020
768 Clouds 15 1018 52 16093 1.5 250 00:45 15.01.2020
769 Clouds 16 1018 52 16093 1.5 250 00:26 15.01.2020
770 Clear 16 1018 52 16093 2.69 217 23:48 14.01.2020
771 Clear 16 1018 52 16093 1.62 238 23:29 14.01.2020
772 Clouds 16 1018 52 14484 1.62 238 22:59 14.01.2020
773 Clouds 16 1018 52 14484 1.62 238 22:40 14.01.2020
774 Clouds 16 1018 52 12874 1.5 250 22:19 14.01.2020
775 Clouds 16 1020 63 16093 2.6 0 21:58 14.01.2020
776 Clear 16 1019 62 11265 2.6 260 21:39 14.01.2020
777 Clear 15 1020 51 11265 1.62 238 21:21 14.01.2020
778 Clouds 15 1021 62 12874 1.62 238 20:58 14.01.2020
779 Clouds 15 1021 62 12874 1.62 238 20:40 14.01.2020
780 Clear 14 1022 67 12874 3.6 200 20:19 14.01.2020
781 Clouds 14 1022 55 12874 1.09 208 19:55 14.01.2020
782 Clouds 13 1022 55 12874 1.09 208 19:37 14.01.2020
783 Clouds 13 1022 55 12874 1.09 208 19:18 14.01.2020
784 Haze 12 1021 81 4828 1.09 208 18:41 14.01.2020
785 Clear 11 1021 66 11265 1.5 0 18:21 14.01.2020
786 Haze 10 1020 81 6437 2.1 80 17:59 14.01.2020
787 Haze 9 1020 81 6437 2.1 80 17:37 14.01.2020
788 Clear 8 1020 62 12874 0.89 230 17:19 14.01.2020
789 Clear 7 1020 81 11265 1.5 80 16:55 14.01.2020
790 Clear 6 1020 81 11265 1.5 80 16:37 14.01.2020
791 Clear 6 1020 76 12874 0.89 230 16:19 14.01.2020
792 Clear 6 1020 93 11265 0.89 230 15:42 14.01.2020
793 Clear 6 1019 81 11265 0.89 230 15:19 14.01.2020
794 Clouds 6 1019 75 16093 2.1 10 14:47 14.01.2020
795 Clear 6 1019 76 11265 0.52 172 14:23 14.01.2020
796 Clouds 6 1019 75 16093 2.1 30 13:59 14.01.2020
797 Clouds 6 1019 75 16093 2.1 30 13:41 14.01.2020
798 Haze 7 1019 81 9656 0.32 181 13:19 14.01.2020
799 Clouds 7 1019 75 16093 0.32 181 12:42 14.01.2020
800 Haze 7 1020 87 8047 0.32 181 12:24 14.01.2020
801 Clouds 7 1019 87 12874 2.6 40 11:58 14.01.2020
802 Clouds 7 1019 87 12874 2.6 40 11:40 14.01.2020
803 Haze 7 1019 81 9656 0.29 50 11:22 14.01.2020
804 Clouds 7 1019 87 12874 2.6 70 10:56 14.01.2020
805 Clouds 7 1019 87 12874 2.6 70 10:37 14.01.2020
806 Haze 8 1019 76 9656 0.29 50 10:19 14.01.2020
807 Clouds 8 1019 81 16093 2.1 70 09:43 14.01.2020
808 Haze 8 1019 81 9656 0.29 50 09:24 14.01.2020
809 Clouds 8 1019 75 16093 2.1 70 08:59 14.01.2020
810 Clouds 8 1019 75 16093 2.1 70 08:39 14.01.2020
811 Haze 8 1020 76 9656 0.86 289 08:21 14.01.2020
812 Clouds 9 1019 76 16093 0.97 280 07:51 14.01.2020
813 Clear 9 1020 76 11265 0.97 280 07:18 14.01.2020
814 Clouds 9 1019 81 16093 0.97 280 06:42 14.01.2020
815 Clear 10 1018 81 16093 2.1 330 05:58 14.01.2020
816 Clouds 10 1019 81 16093 2.6 310 04:50 14.01.2020
817 Clouds 11 1019 71 16093 2.6 240 03:46 14.01.2020
818 Clouds 13 1018 62 16093 2.1 270 02:39 14.01.2020
819 Clear 15 1018 51 16093 2.1 250 01:21 14.01.2020
820 Clear 16 1018 51 16093 2.6 220 00:48 14.01.2020
821 Clear 16 1018 48 16093 1.5 250 00:22 14.01.2020
822 Clear 16 1018 51 14484 2.12 242 23:44 13.01.2020
823 Clear 16 1018 48 16093 1.69 243 23:19 13.01.2020
824 Clouds 16 1018 54 14484 1.5 100 22:58 13.01.2020
825 Clouds 16 1019 45 16093 1.5 0 22:39 13.01.2020
826 Clouds 15 1019 45 16093 1.5 0 22:20 13.01.2020
827 Clouds 16 1019 62 14484 2.6 220 21:56 13.01.2020
828 Clouds 16 1019 62 14484 2.6 220 21:56 13.01.2020
829 Clouds 15 1019 62 14484 2.6 220 21:37 13.01.2020
830 Clouds 15 1020 48 16093 1.69 243 21:18 13.01.2020
831 Clouds 15 1020 62 12874 1.5 0 20:56 13.01.2020
832 Clouds 15 1020 62 12874 1.5 0 20:38 13.01.2020
833 Clear 14 1020 55 16093 1.57 223 20:19 13.01.2020
834 Clouds 14 1020 62 14484 2.1 0 19:56 13.01.2020
835 Clouds 14 1020 62 14484 2.1 0 19:37 13.01.2020
836 Clear 13 1021 67 14484 2.1 120 19:18 13.01.2020
837 Clouds 13 1020 71 14484 1.57 223 18:55 13.01.2020
838 Clouds 12 1020 71 14484 1.57 223 18:36 13.01.2020
839 Clouds 12 1020 62 12874 1.57 223 18:18 13.01.2020
840 Haze 10 1020 81 6437 1.5 80 17:40 13.01.2020
841 Haze 9 1020 66 9656 0.99 193 17:21 13.01.2020
842 Clear 8 1020 70 16093 0.99 193 16:56 13.01.2020
843 Mist 7 1019 87 4828 0.99 193 16:37 13.01.2020
844 Clouds 7 1020 76 11265 0.99 193 16:19 13.01.2020
845 Clouds 7 1018 81 11265 0.99 193 15:43 13.01.2020
846 Clouds 8 1018 81 11265 0.99 193 15:23 13.01.2020
847 Clouds 8 1018 81 11265 0.99 193 14:57 13.01.2020
848 Clouds 8 1018 81 11265 0.99 193 14:37 13.01.2020
849 Clouds 8 1018 81 11265 1.08 127 14:18 13.01.2020
850 Mist 8 1019 87 9656 1.5 70 13:41 13.01.2020
851 Mist 8 1019 87 9656 1.5 70 13:23 13.01.2020
852 Clouds 8 1018 81 16093 0.36 164 12:59 13.01.2020
853 Clouds 8 1018 81 16093 0.36 164 12:40 13.01.2020
854 Clouds 8 1018 81 16093 0.36 164 12:22 13.01.2020
855 Clouds 8 1018 81 16093 0.36 164 11:57 13.01.2020
856 Clouds 8 1019 87 11265 2.1 90 11:37 13.01.2020
857 Haze 7 1019 81 8047 0.28 163 11:19 13.01.2020
858 Clouds 7 1019 87 12874 0.28 163 10:56 13.01.2020
859 Haze 7 1018 81 8047 0.28 163 10:37 13.01.2020
860 Haze 7 1018 81 8047 0.28 163 10:19 13.01.2020
861 Clouds 8 1019 87 12874 1.5 20 09:43 13.01.2020
862 Haze 8 1019 81 8047 0.28 163 09:24 13.01.2020
863 Clear 8 1019 76 11265 0.28 163 08:57 13.01.2020
864 Clear 8 1019 76 11265 0.28 163 08:37 13.01.2020
865 Clear 8 1019 76 11265 0.56 196 08:18 13.01.2020
866 Haze 8 1018 76 9656 0.56 196 07:43 13.01.2020
867 Haze 8 1018 76 9656 0.56 196 07:24 13.01.2020
868 Clear 9 1018 76 11265 0.56 196 06:37 13.01.2020
869 Clouds 9 1018 76 12874 0.56 196 05:37 13.01.2020
870 Clouds 9 1018 76 12874 2.48 259 05:18 13.01.2020
871 Clear 11 1017 71 16093 2.48 259 03:41 13.01.2020
872 Clear 12 1017 59 16093 1.5 250 02:50 13.01.2020
873 Clear 13 1017 59 16093 1.5 250 02:30 13.01.2020
874 Clear 14 1017 55 16093 3.6 260 01:33 13.01.2020
875 Clear 15 1016 47 16093 2.6 220 00:48 13.01.2020
876 Clear 16 1016 48 16093 3.1 270 00:26 13.01.2020
877 Clear 16 1016 47 14484 2.6 0 23:59 12.01.2020
878 Clear 16 1016 47 14484 2.6 0 23:40 12.01.2020
879 Clear 16 1016 42 16093 1.5 240 23:22 12.01.2020
880 Clear 16 1016 50 16093 2.1 190 22:57 12.01.2020
881 Clear 16 1016 50 16093 2.1 190 22:39 12.01.2020
882 Clear 16 1017 39 16093 1.5 0 22:19 12.01.2020
883 Clear 16 1017 58 16093 1.5 230 21:54 12.01.2020
884 Clear 15 1017 58 16093 1.5 230 21:36 12.01.2020
885 Clear 15 1018 42 16093 2.53 254 21:18 12.01.2020
886 Clear 15 1018 58 16093 2.53 254 20:54 12.01.2020
887 Clear 15 1018 58 16093 2.53 254 20:36 12.01.2020
888 Clear 14 1019 58 16093 1.48 265 20:18 12.01.2020
889 Clear 14 1019 71 16093 1.48 265 19:54 12.01.2020
890 Clear 14 1019 71 16093 1.48 265 19:54 12.01.2020
891 Clear 13 1020 54 16093 1.48 265 19:36 12.01.2020
892 Clear 13 1020 54 16093 1.48 265 19:18 12.01.2020
893 Clear 12 1020 76 14484 1.48 265 18:56 12.01.2020
894 Clear 12 1020 54 16093 1.5 40 18:38 12.01.2020
895 Clear 11 1020 54 16093 1.5 40 18:19 12.01.2020
896 Clear 10 1019 81 12874 1.48 265 17:42 12.01.2020
897 Clear 8 1019 66 16093 0.59 263 17:21 12.01.2020
898 Clouds 7 1019 93 11265 0.59 263 16:58 12.01.2020
899 Clouds 6 1019 93 11265 0.59 263 16:38 12.01.2020
900 Clear 6 1019 66 16093 0.59 263 16:20 12.01.2020
901 Clouds 7 1019 76 16093 0.59 263 15:55 12.01.2020
902 Clouds 7 1019 76 16093 0.59 263 15:37 12.01.2020
903 Clear 7 1019 66 16093 0.59 263 15:19 12.01.2020
904 Clouds 7 1019 81 16093 0.59 263 14:42 12.01.2020
905 Clouds 7 1019 76 12874 0.52 298 14:23 12.01.2020
906 Clouds 7 1019 65 16093 1.5 330 13:57 12.01.2020
907 Clouds 8 1018 81 16093 0.52 298 13:39 12.01.2020
908 Clouds 8 1019 76 14484 0.5 289 13:20 12.01.2020
909 Clouds 8 1019 87 12874 2.6 240 12:56 12.01.2020
910 Clouds 8 1018 87 12874 1.5 360 12:37 12.01.2020
911 Clouds 8 1018 87 12874 1.5 360 12:18 12.01.2020
912 Clouds 8 1019 76 12874 0.5 289 11:42 12.01.2020
913 Clouds 8 1019 76 12874 0.52 266 11:22 12.01.2020
914 Clouds 8 1019 75 16093 1.5 20 10:57 12.01.2020
915 Clouds 8 1019 75 16093 1.5 20 10:39 12.01.2020
916 Clouds 8 1019 75 16093 1.5 20 10:39 12.01.2020
917 Clear 8 1019 76 16093 0.52 266 10:20 12.01.2020
918 Mist 8 1019 100 6437 0.52 266 09:42 12.01.2020
919 Clear 8 1019 81 11265 0.52 266 09:23 12.01.2020
920 Clouds 9 1020 93 11265 0.52 266 08:48 12.01.2020
921 Clear 8 1019 76 12874 0.87 176 08:25 12.01.2020
922 Clear 9 1019 71 14484 0.87 176 07:58 12.01.2020
923 Clear 9 1019 71 14484 0.87 176 07:38 12.01.2020
924 Clear 9 1019 71 14484 0.87 176 07:19 12.01.2020
925 Clouds 10 1018 71 16093 0.87 176 06:40 12.01.2020
926 Clear 10 1018 71 16093 0.87 176 05:58 12.01.2020
927 Clear 10 1018 66 16093 2.21 193 05:20 12.01.2020
928 Clouds 12 1017 66 16093 2.1 360 03:44 12.01.2020
929 Clouds 12 1017 66 16093 2.6 290 02:55 12.01.2020
930 Clear 13 1018 63 16093 2.1 260 02:30 12.01.2020
931 Clouds 14 1018 63 16093 4.1 260 01:40 12.01.2020
932 Clouds 15 1018 59 16093 2.85 202 01:21 12.01.2020
933 Clouds 15 1018 63 16093 2.85 202 00:40 12.01.2020
934 Clouds 16 1018 52 16093 2.85 202 00:18 12.01.2020
935 Clouds 16 1018 72 16093 1.5 260 23:41 11.01.2020
936 Clear 16 1018 52 16093 2.1 0 23:19 11.01.2020
937 Clouds 16 1019 59 16093 2.1 290 22:57 11.01.2020
938 Clouds 16 1019 59 16093 2.1 290 22:39 11.01.2020
939 Clouds 16 1019 59 16093 2.1 290 22:20 11.01.2020
940 Clouds 16 1019 59 16093 3.1 190 21:55 11.01.2020
941 Clouds 15 1019 59 16093 3.1 190 21:37 11.01.2020
942 Clouds 15 1020 59 16093 2.08 193 21:18 11.01.2020
943 Clouds 15 1021 63 16093 2.6 0 20:40 11.01.2020
944 Clouds 14 1021 63 16093 2.6 0 20:22 11.01.2020
945 Clouds 14 1022 63 12874 2.1 90 19:58 11.01.2020
946 Clouds 13 1023 67 11265 2.1 110 19:38 11.01.2020
947 Clouds 13 1023 67 11265 2.1 110 19:38 11.01.2020
948 Clouds 13 1022 54 16093 2.1 90 19:20 11.01.2020
949 Clear 12 1023 66 16093 1.5 137 18:58 11.01.2020
950 Clear 12 1022 54 16093 1.5 0 18:38 11.01.2020
951 Clouds 11 1023 58 16093 2.1 100 18:19 11.01.2020
952 Haze 10 1022 81 9656 2.1 80 17:57 11.01.2020
953 Haze 10 1022 81 9656 2.1 80 17:57 11.01.2020
954 Clouds 9 1022 61 0 1.5 137 17:39 11.01.2020
955 Clouds 8 1022 61 0 0.42 121 17:19 11.01.2020
956 Clouds 6 1022 70 16093 3.1 110 16:45 11.01.2020
957 Clear 6 1022 75 16093 0.42 121 16:27 11.01.2020
958 Clear 6 1022 75 16093 0.42 121 15:58 11.01.2020
959 Clear 6 1022 75 16093 0.42 121 15:40 11.01.2020
960 Clear 6 1022 75 16093 0.42 121 15:22 11.01.2020
961 Clear 6 1022 56 16093 0.42 121 14:57 11.01.2020
962 Clear 6 1022 56 16093 0.42 121 14:38 11.01.2020
963 Clear 6 1022 81 14484 0.56 114 14:20 11.01.2020
964 Clear 6 1022 80 16093 0.56 114 13:40 11.01.2020
965 Clear 6 1022 76 12874 0.38 84 13:20 11.01.2020
966 Fog 6 1023 93 805 0.38 84 12:58 11.01.2020
967 Fog 7 1023 93 805 0.38 84 12:40 11.01.2020
968 Clear 7 1022 81 16093 0.38 84 12:21 11.01.2020
969 Mist 7 1023 87 4828 0.38 84 11:48 11.01.2020
970 Clear 7 1023 76 16093 0.78 237 11:26 11.01.2020
971 Clear 7 1023 76 12874 0.78 237 10:51 11.01.2020
972 Clear 7 1023 76 12874 0.78 237 10:30 11.01.2020
973 Clear 7 1023 76 12874 0.78 237 09:58 11.01.2020
974 Clear 8 1023 76 12874 0.78 237 09:38 11.01.2020
975 Clear 8 1023 76 12874 0.78 237 09:20 11.01.2020
976 Clear 8 1023 61 16093 2.1 50 08:42 11.01.2020
977 Clear 8 1024 76 16093 1.09 237 08:22 11.01.2020
978 Clear 9 1024 61 16093 2.1 50 07:44 11.01.2020
979 Clear 9 1024 76 16093 0.91 239 07:25 11.01.2020
980 Clear 10 1024 61 16093 2.6 30 06:51 11.01.2020
981 Clear 10 1023 66 16093 1.5 310 05:50 11.01.2020
982 Clear 11 1024 54 16093 2.3 229 04:47 11.01.2020
983 Clear 12 1023 67 16093 2.3 229 04:29 11.01.2020
984 Clear 13 1023 50 14484 1.5 310 02:58 11.01.2020
985 Clear 13 1023 50 14484 1.5 310 02:38 11.01.2020
986 Clear 15 1023 44 16093 3.1 260 01:43 11.01.2020
987 Clear 16 1023 52 16093 2.6 270 01:20 11.01.2020
988 Clear 17 1023 31 16093 2.1 0 00:43 11.01.2020
989 Clear 17 1023 52 16093 2.6 250 00:18 11.01.2020
990 Clear 17 1022 41 16093 2.6 250 23:40 10.01.2020
991 Clear 17 1022 41 16093 2.6 250 23:40 10.01.2020
992 Clear 17 1022 39 16093 1.74 233 23:22 10.01.2020
993 Clear 17 1023 27 16093 1.74 233 22:59 10.01.2020
994 Clear 17 1023 27 16093 1.74 233 22:40 10.01.2020
995 Clear 17 1022 42 16093 2.1 0 22:20 10.01.2020
996 Clear 17 1023 31 16093 1.5 0 21:57 10.01.2020
997 Clear 17 1023 31 16093 1.5 0 21:37 10.01.2020
998 Clear 17 1023 39 16093 1.74 233 21:19 10.01.2020
999 Clear 16 1023 35 16093 1.74 233 20:43 10.01.2020
1000 Clear 15 1024 42 16093 1.5 80 20:25 10.01.2020
1001 Clear 15 1024 42 16093 1.5 80 20:25 10.01.2020
1002 Clear 15 1024 54 16093 3.1 230 19:59 10.01.2020
1003 Clear 14 1024 54 16093 3.1 230 19:38 10.01.2020
1004 Clear 14 1025 51 16093 1.22 132 19:20 10.01.2020
1005 Clear 12 1024 66 16093 2.1 230 18:44 10.01.2020
1006 Clear 11 1024 66 16093 1.22 132 18:20 10.01.2020
1007 Clear 10 1023 46 16093 1.22 132 17:58 10.01.2020
1008 Clear 10 1023 81 14484 1.22 132 17:39 10.01.2020
1009 Clear 9 1023 81 14484 0.43 42 17:21 10.01.2020
1010 Mist 8 1023 87 9656 0.43 42 16:59 10.01.2020
1011 Clear 7 1022 46 16093 3.1 10 16:40 10.01.2020
1012 Clear 7 1022 76 16093 0.43 42 16:21 10.01.2020
1013 Clear 7 1022 76 16093 0.43 42 16:21 10.01.2020
1014 Clear 7 1022 70 16093 2.6 10 15:56 10.01.2020
1015 Clear 7 1022 70 16093 2.6 10 15:37 10.01.2020
1016 Clear 7 1022 76 16093 0.43 42 15:19 10.01.2020
1017 Clouds 7 1022 87 16093 0.43 42 14:56 10.01.2020
1018 Clouds 7 1022 87 16093 0.43 42 14:38 10.01.2020
1019 Clear 7 1021 81 14484 0.69 218 14:19 10.01.2020
1020 Clouds 7 1020 76 16093 0.69 218 13:45 10.01.2020
1021 Clear 7 1020 71 16093 1.5 0 13:27 10.01.2020
1022 Clear 7 1020 65 16093 4.1 50 12:59 10.01.2020
1023 Clear 8 1020 65 16093 4.1 50 12:40 10.01.2020
1024 Clear 8 1020 66 16093 1.5 100 12:21 10.01.2020
1025 Clear 8 1020 66 16093 0.28 199 11:58 10.01.2020
1026 Clear 8 1020 66 16093 0.28 199 11:40 10.01.2020
1027 Clear 8 1020 66 16093 0.86 322 11:19 10.01.2020
1028 Clear 8 1019 61 16093 0.86 322 10:59 10.01.2020
1029 Clear 8 1019 61 16093 0.86 322 10:38 10.01.2020
1030 Clear 9 1019 57 16093 0.86 322 10:19 10.01.2020
1031 Clear 9 1018 87 16093 2.1 360 09:46 10.01.2020
1032 Clear 9 1018 57 16093 0.86 322 09:26 10.01.2020
1033 Clear 9 1018 81 16093 3.1 300 08:58 10.01.2020
1034 Clear 8 1018 81 16093 3.1 300 08:38 10.01.2020
1035 Clear 8 1018 71 16093 1.17 360 08:20 10.01.2020
1036 Clear 9 1017 66 16093 1.17 360 07:41 10.01.2020
1037 Clear 9 1017 66 16093 1.17 360 07:41 10.01.2020
1038 -273 0 0 0 0 0 07:22 10.01.2020
1039 Clear 9 1016 76 16093 2.6 360 06:43 10.01.2020
1040 Clear 10 1016 47 16093 1.17 360 06:24 10.01.2020
1041 Clear 10 1015 44 16093 1.5 360 05:33 10.01.2020
1042 Clear 11 1014 44 16093 2.86 99 03:34 10.01.2020
1043 Clear 12 1014 44 16093 2.86 99 03:34 10.01.2020
1044 Clear 12 1013 44 16093 3.6 350 02:57 10.01.2020
1045 Clear 12 1013 44 16093 3.6 350 02:36 10.01.2020
1046 Clouds 13 1012 54 16093 4.1 230 01:38 10.01.2020
1047 Clouds 14 1012 58 16093 5.1 240 00:57 10.01.2020
1048 Clouds 14 1012 58 16093 5.1 240 00:38 10.01.2020
1049 Clouds 14 1012 54 16093 3.1 240 23:57 09.01.2020
1050 Clouds 14 1012 58 16093 5.1 260 23:38 09.01.2020
1051 Clouds 14 1012 58 16093 5.1 260 23:38 09.01.2020
1052 Clouds 14 1012 58 16093 5.1 260 23:38 09.01.2020
1053 Clouds 14 1012 58 16093 5.1 260 23:38 09.01.2020
1054 Clouds 14 1012 48 16093 3.1 250 23:19 09.01.2020
1055 Clouds 14 1013 47 16093 2.1 220 22:57 09.01.2020
1056 Clouds 15 1013 47 16093 2.1 220 22:37 09.01.2020
1057 Clouds 15 1013 48 16093 2.1 0 22:18 09.01.2020
1058 Clouds 14 1013 62 16093 3.94 267 21:56 09.01.2020
1059 Clouds 15 1013 62 16093 3.94 267 21:37 09.01.2020
1060 Clouds 15 1014 51 16093 2.6 260 21:37 09.01.2020
1061 Clouds 15 1013 62 16093 3.94 267 21:37 09.01.2020
1062 Clouds 15 1014 51 16093 2.6 260 21:18 09.01.2020
1063 Clear 14 1012 41 1200 2.6 0 20:56 09.01.2020
1064 Clear 14 1012 41 1200 2.6 0 20:38 09.01.2020
1065 Clear 14 1012 41 1200 2.6 0 20:19 09.01.2020
1066 Clear 14 1016 65 16093 1.69 215 19:55 09.01.2020
1067 Clouds 13 1016 54 16093 1.5 0 19:36 09.01.2020
1068 Clouds 13 1016 62 16093 1.69 215 19:18 09.01.2020
1069 Clouds 12 1016 62 16093 1.69 215 18:54 09.01.2020
1070 Clear 13 1016 65 16093 1.69 215 18:54 09.01.2020
1071 Clouds 12 1015 81 16093 1.69 215 18:36 09.01.2020
1072 Clouds 12 1016 62 16093 1.69 215 18:18 09.01.2020
1073 Clouds 12 1016 62 16093 1.69 215 18:18 09.01.2020
1074 Haze 11 1016 58 6437 1.69 215 17:40 09.01.2020
1075 Haze 10 1016 58 6437 0.91 183 17:18 09.01.2020
1076 Clouds 9 1016 53 16093 1.5 20 16:47 09.01.2020
1077 Clouds 9 1016 53 16093 1.5 10 16:23 09.01.2020
1078 Clouds 8 1016 53 16093 1.5 10 16:23 09.01.2020
1079 Clouds 8 1015 53 16093 1.5 360 15:56 09.01.2020
1080 Clouds 8 1015 61 16093 0.91 183 15:56 09.01.2020
1081 Clouds 9 1015 53 16093 1.5 360 15:38 09.01.2020
1082 Clouds 8 1015 58 16093 0.91 183 15:18 09.01.2020
1083 Clouds 9 1015 50 16093 1.5 350 14:41 09.01.2020
1084 Clouds 8 1015 50 16093 1.5 350 14:21 09.01.2020
1085 Clouds 8 1015 66 16093 2.06 183 13:57 09.01.2020
1086 Clouds 9 1014 87 16093 1.5 260 13:39 09.01.2020
1087 Clouds 9 1015 62 16093 1.94 184 13:20 09.01.2020
1088 Clouds 9 1015 81 16093 2.6 270 12:58 09.01.2020
1089 Clouds 9 1015 81 16093 2.6 270 12:38 09.01.2020
1090 Clouds 9 1016 76 16093 1.94 184 12:19 09.01.2020
1091 Clouds 9 1015 61 16093 1.94 184 11:55 09.01.2020
1092 Clouds 9 1015 76 16093 2.1 90 11:37 09.01.2020
1093 Clouds 9 1015 71 16093 2.15 174 11:19 09.01.2020
1094 Clouds 9 1016 76 16093 2.15 174 10:42 09.01.2020
1095 Clouds 10 1016 87 14484 1.5 70 10:22 09.01.2020
1096 Clouds 10 1016 57 16093 2.1 350 09:55 09.01.2020
1097 Clouds 10 1015 81 16093 4.1 290 09:37 09.01.2020
1098 Clouds 9 1016 76 14484 2.15 174 09:18 09.01.2020
1099 Clouds 10 1015 66 16093 2.15 174 08:54 09.01.2020
1100 Clouds 9 1015 87 16093 3.1 260 08:36 09.01.2020
1101 Clear 9 1016 76 16093 2.45 175 08:18 09.01.2020
1102 Clouds 9 1016 87 16093 3.1 250 07:41 09.01.2020
1103 Clear 9 1016 76 16093 2.45 175 07:23 09.01.2020
1104 Clouds 10 1016 93 12874 2.1 250 06:38 09.01.2020
1105 Clear 10 1015 76 16093 2.45 175 06:18 09.01.2020
1106 Clouds 11 1015 87 16093 2.6 260 05:43 09.01.2020
1107 Clouds 11 1015 81 16093 3.6 260 04:42 09.01.2020
1108 Clear 12 1015 67 16093 2.77 193 03:30 09.01.2020
1109 Clear 13 1015 63 16093 2.6 270 02:48 09.01.2020
1110 Clear 13 1015 63 16093 2.6 270 02:23 09.01.2020
1111 Clouds 14 1014 59 16093 2.1 260 01:35 09.01.2020
1112 Clear 15 1014 58 16093 4.1 250 00:40 09.01.2020
1113 Clear 15 1014 59 16093 1.5 260 00:20 09.01.2020
1114 Clouds 16 1014 67 16093 3.1 220 23:42 08.01.2020
1115 Clear 16 1014 48 16093 2.3 188 23:24 08.01.2020
1116 Clear 16 1014 51 16093 3.6 130 22:58 08.01.2020
1117 Clear 16 1014 51 16093 2.1 240 22:38 08.01.2020
1118 Clear 16 1015 48 16093 2.3 188 22:20 08.01.2020
1119 Clear 16 1014 51 16093 2.1 0 21:57 08.01.2020
1120 Clear 16 1014 50 16093 3.1 200 21:38 08.01.2020
1121 Clear 16 1015 48 16093 1.5 0 21:19 08.01.2020
1122 Clear 16 1015 48 16093 1.5 0 20:58 08.01.2020
1123 Clouds 16 1016 63 16093 2.6 180 20:38 08.01.2020
1124 Clear 15 1016 55 16093 1.5 100 20:20 08.01.2020
1125 Clear 14 1016 58 16093 1.5 0 19:56 08.01.2020
1126 Clear 14 1016 58 16093 1.5 0 19:56 08.01.2020
1127 Clear 14 1017 50 16093 2.6 190 19:56 08.01.2020
1128 Clouds 14 1017 66 14484 3.1 70 19:37 08.01.2020
1129 Clouds 13 1017 59 16093 1.5 0 19:18 08.01.2020
1130 Clear 13 1017 62 16093 0.91 145 18:55 08.01.2020
1131 Haze 13 1017 67 9656 1.5 0 18:37 08.01.2020
1132 Haze 12 1017 67 9656 1.5 0 18:18 08.01.2020
1133 Clouds 11 1017 67 11265 0.91 145 17:47 08.01.2020
1134 Clouds 10 1016 66 16093 2.1 360 17:24 08.01.2020
1135 Clouds 10 1016 66 16093 2.1 360 17:24 08.01.2020
1136 Clouds 8 1016 66 16093 2.6 330 16:57 08.01.2020
1137 Clouds 8 1016 81 11265 2.1 90 16:39 08.01.2020
1138 Clear 8 1016 62 16093 2.6 40 16:39 08.01.2020
1139 Clouds 8 1016 81 11265 2.1 90 16:19 08.01.2020
1140 Clouds 8 1016 66 16093 0.55 89 15:59 08.01.2020
1141 Mist 8 1016 81 9656 2.1 90 15:40 08.01.2020
1142 Fog 8 1016 87 402 0.55 89 15:20 08.01.2020
1143 Fog 8 1016 87 402 2.1 0 14:56 08.01.2020
1144 Clouds 8 1016 87 11265 1.5 80 14:38 08.01.2020
1145 Mist 8 1016 87 9656 1.5 130 14:19 08.01.2020
1146 Clouds 8 1017 76 11265 2.1 90 13:39 08.01.2020
1147 Clouds 9 1016 62 16093 2.6 60 13:19 08.01.2020
1148 Clouds 9 1016 70 16093 1.5 350 12:42 08.01.2020
1149 Clouds 9 1017 76 16093 1.5 90 12:19 08.01.2020
1150 Clouds 9 1017 76 16093 1.09 116 11:55 08.01.2020
1151 Clear 9 1017 61 16093 2.1 310 11:37 08.01.2020
1152 Clear 9 1017 71 16093 2.1 90 11:19 08.01.2020
1153 Clouds 9 1017 66 16093 2.1 10 10:55 08.01.2020
1154 Clouds 9 1017 62 16093 1.75 121 10:37 08.01.2020
1155 Clouds 9 1017 62 16093 1.75 121 10:18 08.01.2020
1156 Clear 10 1017 34 16093 2.1 10 09:41 08.01.2020
1157 Clear 10 1017 62 16093 1.5 0 09:19 08.01.2020
1158 Clear 11 1017 43 16093 1.75 121 08:56 08.01.2020
1159 Clear 11 1017 62 16093 1.75 121 08:37 08.01.2020
1160 Clear 10 1017 62 16093 1.68 124 08:19 08.01.2020
1161 Clouds 11 1018 34 16093 2.6 40 07:48 08.01.2020
1162 Clear 11 1018 67 16093 1.68 124 07:29 08.01.2020
1163 Clear 12 1018 34 16093 1.68 124 06:45 08.01.2020
1164 Clear 12 1017 59 16093 1.68 124 06:19 08.01.2020
1165 Clear 13 1018 35 14484 2.1 320 05:41 08.01.2020
1166 Clear 13 1018 35 14484 2.1 320 05:41 08.01.2020
1167 Clear 14 1017 35 16093 1.21 209 04:56 08.01.2020
1168 Clear 14 1017 63 16093 1.21 209 04:24 08.01.2020
1169 Clouds 17 1017 27 16093 6.2 250 02:45 08.01.2020
1170 Clear 17 1017 30 16093 1.5 270 02:22 08.01.2020
1171 Clouds 19 1018 18 16093 3.1 270 01:48 08.01.2020
1172 Clear 20 1017 27 16093 1.5 260 01:19 08.01.2020
1173 Clear 21 1016 10 16093 2.37 232 00:28 08.01.2020
1174 Clear 21 1016 10 16093 2.37 232 00:28 08.01.2020
1175 Clear 22 1018 11 14484 2.37 232 23:57 07.01.2020
1176 Clear 22 1018 11 14484 2.37 232 23:39 07.01.2020
1177 Clear 23 1017 11 16093 0.6 183 23:20 07.01.2020
1178 Clear 23 1017 11 16093 0.6 183 23:20 07.01.2020
1179 Clear 23 1018 12 16093 0.6 183 22:40 07.01.2020
1180 Clear 23 1017 13 16093 1.5 30 22:20 07.01.2020
1181 Clear 23 1017 13 16093 1.5 30 21:57 07.01.2020
1182 Clear 23 1019 11 16093 0.6 183 21:38 07.01.2020
1183 Clear 23 1019 13 16093 2.1 0 21:20 07.01.2020
1184 Clear 22 1020 14 16093 0.6 183 20:55 07.01.2020
1185 Clear 22 1021 20 16093 2.1 30 20:37 07.01.2020
1186 Clear 20 1021 20 16093 2.1 30 20:19 07.01.2020
1187 Clear 19 1021 20 16093 3.6 70 19:38 07.01.2020
1188 Clear 19 1021 18 16093 2.1 360 19:20 07.01.2020
1189 Clear 18 1022 25 16093 0.42 111 18:58 07.01.2020
1190 Clear 18 1022 18 16093 0.42 111 18:40 07.01.2020
1191 Clear 17 1021 22 16093 0.42 111 18:19 07.01.2020
1192 Clear 15 1021 28 16093 0.42 111 18:00 07.01.2020
1193 Clear 14 1021 28 16093 2.1 30 17:39 07.01.2020
1194 Clear 13 1021 28 16093 2.1 30 17:21 07.01.2020
1195 Clear 12 1021 34 16093 3.6 320 16:57 07.01.2020
1196 Clear 11 1022 27 16093 1.14 48 16:38 07.01.2020
1197 Clear 11 1021 30 16093 1.5 40 16:19 07.01.2020
1198 Clear 11 1021 30 16093 1.5 40 15:58 07.01.2020
1199 Clear 11 1021 27 16093 1.14 48 15:40 07.01.2020
1200 Clear 11 1021 26 16093 1.5 10 15:22 07.01.2020
1201 Clear 12 1021 34 16093 2.1 10 14:55 07.01.2020
1202 Clear 11 1021 31 16093 1.14 48 14:37 07.01.2020
1203 Clear 12 1021 26 16093 1.5 30 14:18 07.01.2020
1204 Clear 12 1022 26 16093 2.1 20 13:39 07.01.2020
1205 Clear 12 1022 26 16093 2.1 20 13:19 07.01.2020
1206 Clear 12 1022 29 16093 1.37 36 12:41 07.01.2020
1207 Clear 12 1022 24 16093 2.1 0 12:20 07.01.2020
1208 Clear 12 1022 24 16093 2.1 0 11:58 07.01.2020
1209 Clear 12 1022 26 16093 2.1 30 11:38 07.01.2020
1210 Clear 12 1022 26 16093 2.1 30 11:20 07.01.2020
1211 Clear 13 1023 29 16093 2.1 310 10:42 07.01.2020
1212 Clear 13 1023 29 16093 2.1 310 10:42 07.01.2020
1213 Clear 13 1023 26 16093 1.5 40 10:24 07.01.2020
1214 Clear 13 1023 26 16093 1.5 40 09:59 07.01.2020
1215 Clear 13 1024 32 16093 2.1 320 09:38 07.01.2020
1216 Clear 13 1023 25 16093 2.1 50 09:20 07.01.2020
1217 Clear 13 1024 30 16093 1.04 35 08:46 07.01.2020
1218 Clear 14 1023 23 16093 1.5 20 08:26 07.01.2020
1219 Clear 14 1024 32 16093 1.3 29 07:54 07.01.2020
1220 Clear 14 1024 25 16093 1.5 0 07:29 07.01.2020
1221 Clear 15 1024 24 16093 2.1 320 06:54 07.01.2020
1222 Clear 15 1025 30 16093 1.3 29 06:54 07.01.2020
1223 Clear 15 1024 23 16093 2.1 20 06:35 07.01.2020
1224 Clear 15 1024 23 16093 2.1 20 05:57 07.01.2020
1225 Clear 16 1023 25 16093 1.3 29 05:38 07.01.2020
1226 Clear 18 1025 21 16093 2.6 10 03:44 07.01.2020
1227 Clear 20 1023 21 16093 1.57 21 02:25 07.01.2020
1228 Clear 21 1024 14 16093 2.1 300 01:57 07.01.2020
1229 Clear 22 1023 13 16093 0.71 14 01:34 07.01.2020
1230 Clear 23 1025 12 16093 3.1 250 00:51 07.01.2020
1231 Clear 23 1023 11 16093 0.7 77 00:20 07.01.2020
1232 Clear 24 1024 15 16093 2.1 130 23:56 06.01.2020
1233 Clear 23 1024 11 16093 0.7 77 23:37 06.01.2020
1234 Clear 23 1024 11 16093 0.48 149 23:19 06.01.2020
1235 Clear 23 1025 9 16093 2.1 260 22:43 06.01.2020
1236 Clear 23 1024 13 16093 1.5 0 22:24 06.01.2020
1237 Clear 23 1024 13 16093 1.5 0 22:24 06.01.2020
1238 Clear 23 1024 13 16093 1.5 0 21:58 06.01.2020
1239 Clear 23 1024 13 16093 1.5 0 21:58 06.01.2020
1240 Clear 23 1025 8 16093 2.6 290 21:39 06.01.2020
1241 Clear 23 1025 17 16093 0.48 149 21:20 06.01.2020
1242 Clear 23 1025 17 16093 0.48 149 21:20 06.01.2020
1243 Clear 22 1025 15 16093 2.6 150 20:57 06.01.2020
1244 Clear 22 1026 11 16093 2.6 270 20:38 06.01.2020
1245 Clear 22 1026 11 16093 2.6 270 20:38 06.01.2020
1246 Clear 20 1026 21 16093 0.71 120 20:20 06.01.2020
1247 Clear 20 1028 22 16093 2.6 110 19:56 06.01.2020
1248 Clear 20 1026 28 16093 0.8 108 19:38 06.01.2020
1249 Clear 19 1026 28 16093 0.8 108 19:20 06.01.2020
1250 Clear 18 1028 21 16093 0.8 108 18:48 06.01.2020
1251 Clear 17 1026 38 16093 0.8 108 18:23 06.01.2020
1252 Clear 16 1026 33 16093 1.5 30 17:59 06.01.2020
1253 Clear 15 1026 24 14484 2.1 300 17:38 06.01.2020
1254 Clear 12 1025 53 16093 1.38 44 17:18 06.01.2020
1255 Clear 12 1026 26 16093 1.38 44 16:46 06.01.2020
1256 Clear 11 1027 34 16093 1.38 44 16:46 06.01.2020
1257 Clear 11 1025 57 16093 1.38 44 16:27 06.01.2020
1258 Clear 11 1025 57 16093 1.38 44 15:59 06.01.2020
1259 Clear 11 1025 26 16093 2.6 360 15:41 06.01.2020
1260 Clear 11 1024 53 16093 1.38 44 15:20 06.01.2020
1261 Clear 11 1024 52 16093 1.38 44 14:58 06.01.2020
1262 Clear 12 1024 32 16093 2.6 350 14:40 06.01.2020
1263 Clear 12 1024 50 16093 1.34 19 14:20 06.01.2020
1264 Clear 13 1024 49 16093 1.34 19 13:57 06.01.2020
1265 Clear 12 1024 37 16093 3.6 340 13:37 06.01.2020
1266 Clear 12 1024 50 16093 1.74 21 13:19 06.01.2020
1267 Clear 12 1024 34 16093 2.6 320 12:43 06.01.2020
1268 Clear 12 1024 50 16093 1.74 21 12:21 06.01.2020
1269 Clear 12 1024 50 16093 1.74 21 11:58 06.01.2020
1270 Clear 12 1024 62 16093 1.74 21 11:39 06.01.2020
1271 Clear 12 1024 62 16093 1.6 7 11:20 06.01.2020
1272 Clear 12 1024 81 11265 3.1 310 10:54 06.01.2020
1273 Clear 12 1024 62 16093 1.6 7 10:36 06.01.2020
1274 Clear 12 1024 62 16093 1.6 7 10:18 06.01.2020
1275 Clear 12 1024 32 16093 2.1 340 09:38 06.01.2020
1276 Clear 12 1024 50 16093 1.6 7 09:19 06.01.2020
1277 Clear 12 1024 37 16093 4.1 360 08:46 06.01.2020
1278 Clear 13 1024 58 16093 1.27 342 08:26 06.01.2020
1279 Clear 13 1025 33 16093 2.6 350 07:53 06.01.2020
1280 Clear 12 1024 62 16093 1.02 17 07:32 06.01.2020
1281 Clear 13 1024 27 16093 2.1 200 06:45 06.01.2020
1282 Clear 13 1024 62 16093 1.02 17 06:23 06.01.2020
1283 Clear 12 1024 47 16093 2.6 30 05:45 06.01.2020
1284 Clear 13 1023 41 16093 2.6 340 04:38 06.01.2020
1285 Clear 14 1023 62 16093 1.69 13 04:19 06.01.2020
1286 Clear 15 1023 51 16093 1.5 10 02:56 06.01.2020
1287 Clear 16 1022 51 16093 1.67 163 02:24 06.01.2020
1288 Clear 17 1023 31 14484 2.1 270 01:45 06.01.2020
1289 Clear 17 1022 45 16093 1.43 177 01:26 06.01.2020
1290 Clear 18 1023 28 16093 3.1 250 00:42 06.01.2020
1291 Clear 19 1023 42 16093 1.5 250 00:23 06.01.2020
1292 Clear 19 1023 24 16093 2.6 250 23:42 05.01.2020
1293 Clear 20 1023 37 16093 2.1 260 23:23 05.01.2020
1294 Clear 20 1023 17 16093 5.1 300 22:57 05.01.2020
1295 Clear 20 1023 29 16093 2.1 230 22:38 05.01.2020
1296 Clear 19 1023 30 16093 1.02 238 22:20 05.01.2020
1297 Clear 19 1024 34 14484 2.6 220 21:55 05.01.2020
1298 Clear 19 1024 34 14484 2.6 220 21:37 05.01.2020
1299 Clear 19 1024 28 16093 1.5 0 21:37 05.01.2020
1300 Clear 19 1024 28 16093 1.5 0 21:19 05.01.2020
1301 Clear 18 1025 29 16093 3.6 280 20:55 05.01.2020
1302 Clear 18 1025 31 12874 2.1 220 20:37 05.01.2020
1303 Clear 17 1025 32 16093 0.28 211 20:19 05.01.2020
1304 Clear 17 1025 32 16093 0.28 211 19:56 05.01.2020
1305 Clear 16 1026 36 14484 0.28 211 19:37 05.01.2020
1306 Clear 16 1026 39 16093 1.5 100 19:19 05.01.2020
1307 Clear 15 1026 47 16093 1.5 100 18:55 05.01.2020
1308 Clear 14 1027 38 14484 0.28 211 18:36 05.01.2020
1309 Clear 13 1026 58 16093 0.28 211 18:18 05.01.2020
1310 Clear 12 1026 57 16093 0.28 211 17:57 05.01.2020
1311 Clear 11 1026 58 16093 0.28 211 17:37 05.01.2020
1312 Clear 9 1026 58 16093 0.14 99 17:19 05.01.2020
1313 Clear 8 1025 55 16093 0.14 99 16:55 05.01.2020
1314 Clear 8 1025 55 16093 0.14 99 16:37 05.01.2020
1315 Clear 7 1025 57 16093 0.14 99 16:18 05.01.2020
1316 Clear 7 1025 61 16093 2.1 50 15:37 05.01.2020
1317 Clear 8 1025 76 16093 0.14 99 15:18 05.01.2020
1318 Clear 8 1025 65 16093 0.14 99 14:55 05.01.2020
1319 Mist 8 1025 93 4828 0.14 99 14:36 05.01.2020
1320 Clear 8 1025 76 16093 0.72 270 14:18 05.01.2020
1321 Fog 8 1025 100 402 0.72 270 13:40 05.01.2020
1322 Fog 8 1025 100 402 0.37 290 13:21 05.01.2020
1323 Clear 9 1025 70 16093 0.37 290 12:58 05.01.2020
1324 Clear 8 1025 57 16093 1.5 40 12:39 05.01.2020
1325 Clear 8 1025 81 14484 0.37 290 12:39 05.01.2020
1326 Clear 9 1025 81 14484 0.37 290 12:21 05.01.2020
1327 Clear 9 1025 75 16093 0.37 290 11:58 05.01.2020
1328 Clear 9 1025 46 16093 0.37 290 11:39 05.01.2020
1329 Fog 9 1025 100 0 0.37 290 11:39 05.01.2020
1330 Fog 9 1025 100 0 0.3 244 11:19 05.01.2020
1331 Fog 9 1025 100 0 0.3 244 11:19 05.01.2020
1332 Clear 9 1025 75 16093 0.3 244 10:56 05.01.2020
1333 Mist 9 1025 93 1207 0.3 244 10:36 05.01.2020
1334 Haze 9 1025 81 8047 0.3 244 10:18 05.01.2020
1335 Clear 9 1025 50 16093 2.6 70 09:41 05.01.2020
1336 Mist 10 1025 93 1207 0.3 244 09:21 05.01.2020
1337 Clear 10 1026 54 16093 2.6 50 08:49 05.01.2020
1338 Mist 10 1026 87 8047 0.3 244 08:30 05.01.2020
1339 Clear 10 1026 66 16093 1.5 250 07:56 05.01.2020
1340 Clear 10 1026 44 16093 1.5 20 07:37 05.01.2020
1341 Haze 10 1026 87 6437 0.48 278 07:19 05.01.2020
1342 Clear 11 1026 58 16093 1.5 360 05:59 05.01.2020
1343 Haze 12 1026 82 9656 0.48 278 05:32 05.01.2020
1344 Clear 12 1026 58 16093 1.16 263 04:43 05.01.2020
1345 Clear 13 1026 87 12874 2.1 290 04:18 05.01.2020
1346 Clear 13 1026 87 12874 2.1 290 04:18 05.01.2020
1347 Clear 13 1026 87 12874 2.1 290 04:18 05.01.2020
1348 Clouds 15 1025 48 16093 2.6 330 02:46 05.01.2020
1349 Clear 15 1025 55 16093 1.16 263 02:24 05.01.2020
1350 Clear 17 1026 34 16093 1.5 220 01:48 05.01.2020
1351 Clear 18 1025 45 16093 1.5 0 01:19 05.01.2020
1352 Clear 19 1025 36 16093 4.1 250 00:42 05.01.2020
1353 Clear 19 1025 43 16093 1.5 0 00:23 05.01.2020
1354 Clear 19 1025 43 16093 1.5 0 23:59 04.01.2020
1355 Clear 19 1025 28 16093 3.1 230 23:40 04.01.2020
1356 Clear 19 1025 43 16093 1.5 0 23:19 04.01.2020
1357 Clear 19 1025 43 16093 1.5 0 23:19 04.01.2020
1358 Clear 19 1025 34 14484 2.1 0 22:40 04.01.2020
1359 Clear 19 1025 37 12874 1.33 200 22:22 04.01.2020
1360 Clouds 19 1026 63 16093 3.1 280 21:58 04.01.2020
1361 Clear 19 1026 36 16093 1.33 200 21:40 04.01.2020
1362 Clear 19 1026 37 14484 1.33 200 21:20 04.01.2020
1363 Clear 18 1026 39 16093 1.33 200 20:59 04.01.2020
1364 Clear 18 1027 34 16093 1.5 130 20:40 04.01.2020
1365 Clear 17 1027 42 16093 1.15 149 20:22 04.01.2020
1366 Clear 17 1027 42 16093 1.15 149 19:57 04.01.2020
1367 Clear 16 1028 44 16093 1.15 149 19:38 04.01.2020
1368 Clear 16 1028 39 16093 1.5 140 19:20 04.01.2020
1369 Clear 15 1029 38 16093 1.15 149 18:56 04.01.2020
1370 Clear 15 1028 44 16093 2.1 120 18:37 04.01.2020
1371 Clear 14 1028 48 16093 1.15 149 18:19 04.01.2020
1372 Clear 12 1028 44 16093 1.15 149 17:41 04.01.2020
1373 Clear 10 1027 66 16093 0.37 107 17:23 04.01.2020
1374 Clear 9 1027 66 16093 0.37 107 16:59 04.01.2020
1375 Clear 8 1027 50 16093 2.6 360 16:40 04.01.2020
1376 Clear 8 1027 66 16093 0.37 107 16:21 04.01.2020
1377 Clear 8 1027 75 16093 0.37 107 15:56 04.01.2020
1378 Clear 8 1027 53 16093 0.37 107 15:38 04.01.2020
1379 Clear 8 1026 71 16093 0.37 107 15:18 04.01.2020
1380 Clear 8 1026 53 16093 2.1 50 14:42 04.01.2020
1381 Clear 8 1026 71 16093 0.34 222 14:20 04.01.2020
1382 Clear 8 1025 75 16093 0.34 222 13:59 04.01.2020
1383 Clear 8 1026 53 16093 2.6 40 13:39 04.01.2020
1384 Clear 8 1026 71 16093 0.28 276 13:20 04.01.2020
1385 Clear 9 1026 71 16093 0.28 276 12:59 04.01.2020
1386 Clear 9 1026 50 16093 0.28 276 12:40 04.01.2020
1387 Clear 9 1026 50 16093 0.28 276 12:40 04.01.2020
1388 Clear 9 1026 71 16093 0.28 276 12:19 04.01.2020
1389 Clear 9 1026 70 16093 0.28 276 11:57 04.01.2020
1390 Clear 9 1026 46 16093 2.1 40 11:38 04.01.2020
1391 Clear 9 1026 76 12874 0.31 224 11:19 04.01.2020
1392 Clear 10 1026 46 16093 2.1 30 10:41 04.01.2020
1393 Clear 10 1026 71 12874 0.31 224 10:22 04.01.2020
1394 Clear 10 1026 70 16093 0.31 224 09:57 04.01.2020
1395 Clear 10 1026 46 16093 0.31 224 09:39 04.01.2020
1396 Clear 10 1026 76 12874 0.31 224 09:20 04.01.2020
1397 Clear 10 1026 46 16093 2.1 30 08:40 04.01.2020
1398 Clear 11 1026 66 14484 0.53 183 08:20 04.01.2020
1399 Clear 11 1027 43 16093 2.1 50 07:42 04.01.2020
1400 Clear 11 1026 67 16093 0.53 183 07:20 04.01.2020
1401 Clear 12 1026 62 16093 0.53 183 06:33 04.01.2020
1402 Clear 13 1025 55 16093 0.95 236 05:20 04.01.2020
1403 Clear 14 1025 48 16093 0.95 236 04:42 04.01.2020
1404 Clear 14 1025 48 16093 0.95 236 04:24 04.01.2020
1405 Clear 15 1024 45 16093 0.95 236 03:18 04.01.2020
1406 Clear 17 1024 42 16093 1.5 270 02:21 04.01.2020
1407 Clear 19 1025 30 16093 2.6 150 01:55 04.01.2020
1408 Clear 19 1023 35 16093 1.5 260 01:32 04.01.2020
1409 Clear 20 1024 26 16093 3.1 260 00:46 04.01.2020
1410 Clear 20 1023 33 16093 2.1 260 00:26 04.01.2020
1411 Clear 21 1024 26 16093 3.6 230 23:48 03.01.2020
1412 Clear 21 1023 30 16093 2.29 205 23:25 03.01.2020
1413 Clear 21 1024 23 16093 2.6 120 22:54 03.01.2020
1414 Clear 21 1023 25 16093 2.2 205 22:36 03.01.2020
1415 Clear 21 1023 25 16093 2.2 205 22:18 03.01.2020
1416 Clear 21 1024 19 16093 2.2 205 21:54 03.01.2020
1417 Clear 21 1024 19 16093 2.2 205 21:36 03.01.2020
1418 Clear 21 1023 25 16093 2.2 205 21:18 03.01.2020
1419 Clear 20 1024 19 16093 2.6 220 20:43 03.01.2020
1420 Clear 19 1024 28 16093 0.7 167 20:19 03.01.2020
1421 Clear 19 1024 29 16093 1.5 200 19:59 03.01.2020
1422 Clear 18 1025 22 16093 0.7 167 19:40 03.01.2020
1423 Clear 18 1024 34 16093 0.7 167 19:22 03.01.2020
1424 Clear 16 1025 29 16093 1.5 180 18:46 03.01.2020
1425 Clear 15 1023 39 16093 1.5 350 18:26 03.01.2020
1426 Clear 15 1023 39 16093 1.5 350 18:26 03.01.2020
1427 Clear 14 1023 39 16093 1.5 350 17:58 03.01.2020
1428 Clear 13 1024 25 16093 2.6 270 17:39 03.01.2020
1429 Clear 11 1023 50 16093 2.1 20 17:21 03.01.2020
1430 Clear 10 1023 31 16093 1.13 50 16:44 03.01.2020
1431 Clear 9 1022 62 16093 1.13 50 16:24 03.01.2020
1432 Clear 9 1022 62 16093 1.13 50 15:59 03.01.2020
1433 Clear 10 1022 43 16093 1.13 50 15:41 03.01.2020
1434 Clear 9 1021 66 16093 1.13 50 15:19 03.01.2020
1435 Clear 10 1021 40 16093 1.13 50 14:40 03.01.2020
1436 Clear 9 1020 71 16093 1.17 62 14:20 03.01.2020
1437 Clear 10 1021 65 16093 2.1 360 13:57 03.01.2020
1438 Clear 10 1021 33 16093 3.1 10 13:39 03.01.2020
1439 Clear 10 1020 71 16093 0.97 48 13:20 03.01.2020
1440 Clear 10 1021 40 16093 2.6 20 12:41 03.01.2020
1441 Clear 10 1020 71 16093 0.97 48 12:22 03.01.2020
1442 Clear 10 1020 40 16093 1.5 10 11:53 03.01.2020
1443 Clear 11 1020 76 16093 0.97 48 11:34 03.01.2020
1444 Clear 10 1020 40 16093 2.1 20 10:58 03.01.2020
1445 Clear 11 1019 71 16093 0.71 37 10:39 03.01.2020
1446 Clear 10 1019 71 16093 0.71 37 10:21 03.01.2020
1447 Clear 11 1020 35 16093 2.1 10 09:55 03.01.2020
1448 Clear 11 1020 35 16093 2.1 10 09:37 03.01.2020
1449 Clear 11 1019 76 14484 0.71 37 09:19 03.01.2020
1450 Clear 11 1019 33 16093 1.5 340 08:45 03.01.2020
1451 Clear 11 1019 76 11265 0.71 37 08:23 03.01.2020
1452 Clear 11 1019 76 11265 0.95 16 07:56 03.01.2020
1453 Clear 11 1019 42 16093 3.1 360 07:37 03.01.2020
1454 Clear 11 1018 76 11265 0.95 16 07:18 03.01.2020
1455 Clear 11 1019 43 16093 2.1 10 06:42 03.01.2020
1456 Clear 12 1018 82 11265 0.95 16 06:22 03.01.2020
1457 Clear 13 1017 82 11265 0.62 296 04:59 03.01.2020
1458 Clear 14 1016 72 16093 0.62 296 03:38 03.01.2020
1459 Clear 15 1016 51 16093 0.62 296 02:53 03.01.2020
1460 Clear 15 1016 51 16093 0.62 296 02:53 03.01.2020
1461 Clear 16 1017 48 16093 1.73 252 01:51 03.01.2020
1462 Clear 16 1015 63 16093 3.1 270 01:33 03.01.2020
1463 Clear 17 1015 36 16093 3.1 270 00:43 03.01.2020
1464 Clear 18 1014 56 16093 1.45 264 00:24 03.01.2020
1465 Clear 18 1014 34 16093 2.6 0 23:39 02.01.2020
1466 Clear 18 1014 49 16093 2.1 260 23:21 02.01.2020
1467 Clear 18 1014 49 16093 2.1 260 22:59 02.01.2020
1468 Clear 18 1015 34 16093 2.1 120 22:41 02.01.2020
1469 Clear 18 1014 40 16093 0.63 160 22:20 02.01.2020
1470 Clear 18 1014 40 16093 0.63 160 22:20 02.01.2020
1471 Clear 18 1014 37 16093 0.63 160 21:57 02.01.2020
1472 Clear 18 1015 45 16093 0.63 160 21:38 02.01.2020
1473 Clear 18 1015 45 16093 0.63 160 21:20 02.01.2020
1474 Clear 18 1015 45 16093 0.63 160 20:56 02.01.2020
1475 Clear 17 1015 44 16093 4.6 270 20:38 02.01.2020
1476 Clear 17 1016 55 16093 0.59 262 20:20 02.01.2020
1477 Clear 16 1017 39 16093 5.1 120 19:55 02.01.2020
1478 Clear 15 1016 59 16093 2.6 90 19:36 02.01.2020
1479 Clear 15 1016 59 16093 2.6 90 19:18 02.01.2020
1480 Clear 15 1015 62 16093 3.1 140 18:54 02.01.2020
1481 Clear 14 1016 66 16093 0.59 262 18:36 02.01.2020
1482 Clear 13 1015 62 16093 2.6 90 18:18 02.01.2020
1483 Clear 12 1015 76 16093 4.1 150 17:55 02.01.2020
1484 Clear 12 1015 76 14484 3.1 100 17:36 02.01.2020
1485 Clear 10 1015 76 14484 3.1 100 17:18 02.01.2020
1486 Clear 9 1014 87 16093 0.83 131 16:42 02.01.2020
1487 Clear 9 1014 87 16093 0.83 131 16:42 02.01.2020
1488 Clear 9 1013 76 12874 0.83 131 16:22 02.01.2020
1489 Clear 9 1013 76 12874 0.83 131 15:59 02.01.2020
1490 Clear 8 1013 87 16093 2.6 330 15:41 02.01.2020
1491 Clouds 8 1013 81 12874 0.83 131 15:23 02.01.2020
1492 Clouds 8 1013 76 14484 2.6 70 14:57 02.01.2020
1493 Clear 9 1013 87 16093 2.1 300 14:37 02.01.2020
1494 Clear 9 1013 76 14484 0.88 171 14:19 02.01.2020
1495 Clouds 9 1013 81 11265 1.5 80 13:58 02.01.2020
1496 Clouds 9 1013 87 11265 1.5 60 13:38 02.01.2020
1497 Clouds 9 1013 81 12874 2.1 60 12:59 02.01.2020
1498 Clouds 9 1013 81 12874 0.66 234 12:40 02.01.2020
1499 Clouds 9 1013 87 16093 1.5 80 12:20 02.01.2020
1500 Clouds 9 1013 87 11265 0.66 234 11:41 02.01.2020
1501 Clouds 9 1013 76 12874 1.5 90 11:21 02.01.2020
1502 Clouds 9 1013 81 11265 1.23 224 10:46 02.01.2020
1503 Mist 9 1013 93 4828 1.23 224 10:27 02.01.2020
1504 Mist 10 1013 93 8047 1.23 224 09:56 02.01.2020
1505 Clouds 10 1013 76 11265 1.23 224 09:35 02.01.2020
1506 Clear 10 1013 76 12874 1.23 224 08:58 02.01.2020
1507 Clear 10 1013 71 16093 2.1 310 08:39 02.01.2020
1508 Clear 10 1013 82 12874 1.5 80 08:19 02.01.2020
1509 Clear 11 1014 76 16093 2.6 310 07:47 02.01.2020
1510 Clear 11 1013 72 11265 1.5 100 07:26 02.01.2020
1511 Clear 11 1013 76 16093 2.1 310 06:41 02.01.2020
1512 Clear 11 1013 76 16093 2.1 310 06:41 02.01.2020
1513 Clear 12 1014 76 16093 1.63 132 05:40 02.01.2020
1514 Clear 13 1013 76 16093 2.1 290 04:34 02.01.2020
1515 Clear 14 1013 59 16093 2.73 227 03:29 02.01.2020
1516 Clear 14 1013 59 16093 2.73 227 03:29 02.01.2020
1517 Clear 15 1014 55 16093 2.79 205 02:21 02.01.2020
1518 Clear 16 1013 45 16093 4.1 160 01:53 02.01.2020
1519 Clear 17 1014 52 16093 3.1 260 01:25 02.01.2020
1520 Clear 17 1014 29 16093 2.1 270 00:45 02.01.2020
1521 Clear 17 1014 37 16093 2.55 221 00:26 02.01.2020
1522 Clear 18 1014 25 16093 4.1 230 23:43 01.01.2020
1523 Clear 18 1015 28 16093 2.06 231 23:23 01.01.2020
1524 Clear 18 1015 23 16093 3.6 240 22:39 01.01.2020
1525 Clear 18 1015 23 16093 3.6 240 22:39 01.01.2020
1526 Clear 18 1015 30 16093 1.5 0 22:20 01.01.2020
1527 Clear 18 1015 25 16093 1.5 150 21:58 01.01.2020
1528 Clear 18 1015 25 16093 1.5 150 21:58 01.01.2020
1529 Clear 18 1016 26 16093 2.1 210 21:40 01.01.2020
1530 Clear 18 1017 24 16093 2.06 231 21:20 01.01.2020
1531 Clear 18 1017 24 16093 2.06 231 21:20 01.01.2020
1532 Clear 17 1017 24 16093 2.06 231 20:58 01.01.2020
1533 Clear 17 1017 30 16093 2.6 230 20:38 01.01.2020
1534 Clear 17 1018 25 16093 0.86 94 20:20 01.01.2020
1535 Clear 17 1018 25 16093 0.86 94 20:20 01.01.2020
1536 Clear 16 1018 25 16093 0.86 94 19:57 01.01.2020
1537 Clear 16 1018 26 16093 0.86 94 19:38 01.01.2020
1538 Clear 15 1019 27 16093 1.5 100 19:20 01.01.2020
1539 Clear 15 1019 27 16093 1.5 100 18:57 01.01.2020
1540 Clear 14 1019 33 16093 0.86 94 18:38 01.01.2020
1541 Clear 13 1019 47 16093 0.86 94 18:20 01.01.2020
1542 Clear 12 1019 40 16093 2.6 240 17:58 01.01.2020
1543 Clear 11 1018 35 16093 0.86 94 17:39 01.01.2020
1544 Clear 10 1018 37 16093 1.5 0 17:19 01.01.2020
1545 Clear 8 1019 42 16093 2.1 0 16:57 01.01.2020
1546 Clear 8 1018 45 16093 2.6 60 16:38 01.01.2020
1547 Clear 7 1018 24 16093 1.06 78 16:19 01.01.2020
1548 Clear 7 1018 56 16093 1.5 240 15:56 01.01.2020
1549 Clear 8 1018 53 16093 1.06 78 15:37 01.01.2020
1550 Clear 8 1018 53 16093 1.06 78 15:19 01.01.2020
1551 Clear 8 1018 56 16093 1.06 78 14:55 01.01.2020
1552 Clear 8 1018 45 16093 1.06 78 14:37 01.01.2020
1553 Clear 8 1018 24 16093 1.5 0 14:19 01.01.2020
1554 Clear 9 1018 56 16093 1.35 70 13:55 01.01.2020
1555 Clear 9 1018 43 16093 1.35 70 13:36 01.01.2020
1556 Clear 9 1017 37 16093 1.5 80 13:18 01.01.2020
1557 Clear 9 1018 61 16093 2.6 100 12:40 01.01.2020
1558 Clear 9 1018 23 16093 1.34 78 12:19 01.01.2020
1559 Clear 9 1018 42 16093 1.34 78 11:56 01.01.2020
1560 Clouds 10 1019 46 16093 1.34 78 11:38 01.01.2020
1561 Clear 10 1018 46 16093 1.5 360 11:19 01.01.2020
1562 Haze 10 1018 61 9656 1.5 320 10:55 01.01.2020
1563 Clear 10 1017 46 16093 1.51 32 10:36 01.01.2020
1564 Clear 10 1017 46 16093 1.51 32 10:18 01.01.2020
1565 Clear 10 1018 23 16093 1.51 32 09:40 01.01.2020
1566 Clear 11 1018 41 16093 1.5 10 09:20 01.01.2020
1567 Clear 11 1018 49 16093 1.51 32 08:57 01.01.2020
1568 Clear 11 1019 43 16093 1.51 32 08:37 01.01.2020
1569 Clear 11 1019 23 16093 1.5 360 08:19 01.01.2020
1570 Clear 11 1019 23 16093 2.1 340 07:57 01.01.2020
1571 Clear 11 1019 23 16093 2.1 340 07:38 01.01.2020
1572 Clear 12 1019 40 16093 3.6 310 06:50 01.01.2020
1573 Clear 12 1018 36 16093 1.24 62 06:32 01.01.2020
1574 Clear 13 1018 40 16093 2.6 320 05:48 01.01.2020
1575 Clear 14 1017 33 16093 1.15 329 04:20 01.01.2020
1576 Clear 15 1016 28 16093 1.15 329 03:39 01.01.2020
1577 Clear 15 1016 28 16093 1.15 329 03:21 01.01.2020
1578 Clear 16 1017 36 16093 2.1 320 02:41 01.01.2020
1579 -273 0 0 0 0 0 02:22 01.01.2020
1580 Clear 18 1017 27 16093 2.1 250 01:41 01.01.2020
1581 Clear 19 1015 25 16093 1.32 211 01:22 01.01.2020
1582 Clear 20 1017 22 16093 5.1 320 00:45 01.01.2020
1583 Clear 20 1017 22 16093 5.1 320 00:45 01.01.2020
1584 Clear 20 1015 23 16093 1.32 211 00:26 01.01.2020
1585 Clear 20 1016 20 16093 2.1 330 23:56 31.12.2019
1586 Clear 20 1016 20 16093 2.1 330 23:36 31.12.2019
1587 Clear 20 1015 23 16093 1.68 277 23:18 31.12.2019
1588 Clear 20 1016 19 16093 2.1 280 22:55 31.12.2019
1589 Clear 20 1015 26 16093 1.68 277 22:36 31.12.2019
1590 Clear 20 1015 26 16093 1.68 277 22:18 31.12.2019
1591 Clear 20 1016 25 16093 2.1 260 21:43 31.12.2019
1592 Clear 20 1016 24 16093 1.5 280 21:25 31.12.2019
1593 Clear 19 1016 24 16093 1.5 280 20:57 31.12.2019
1594 Clear 19 1017 25 16093 3.1 250 20:39 31.12.2019
1595 Clear 18 1017 26 16093 1.38 295 20:21 31.12.2019
1596 Clear 18 1017 26 16093 1.38 295 19:58 31.12.2019
1597 Clear 18 1017 31 16093 4.1 230 19:40 31.12.2019
1598 Clear 17 1017 29 16093 1.38 295 19:21 31.12.2019
1599 Clear 17 1017 22 16093 1.5 0 18:57 31.12.2019
1600 Clear 17 1017 29 16093 2.6 210 18:38 31.12.2019
1601 Clear 17 1017 29 16093 2.6 210 18:38 31.12.2019
1602 Clear 17 1017 38 16093 1.38 295 18:19 31.12.2019
1603 Clear 16 1016 23 16093 2.6 10 17:56 31.12.2019
1604 Clear 15 1016 33 16093 2.6 290 17:37 31.12.2019
1605 Clear 13 1016 57 16093 1.35 22 17:18 31.12.2019
1606 Clear 13 1016 57 16093 1.35 22 17:18 31.12.2019
1607 Clear 13 1015 23 16093 1.35 22 16:56 31.12.2019
1608 Clear 13 1015 32 16093 3.1 250 16:37 31.12.2019
1609 Clear 13 1015 61 16093 1.35 22 16:19 31.12.2019
1610 Clear 13 1015 23 16093 13.4 40 15:56 31.12.2019
1611 Clear 13 1015 30 16093 3.1 260 15:38 31.12.2019
1612 Clear 13 1015 61 16093 1.35 22 15:20 31.12.2019
1613 Clouds 13 1015 23 16093 10.8 40 14:56 31.12.2019
1614 Clouds 13 1015 26 16093 4.1 360 14:37 31.12.2019
1615 Clear 13 1015 62 16093 1.5 260 14:19 31.12.2019
1616 Clouds 13 1014 25 16093 12.9 40 13:56 31.12.2019
1617 Clouds 13 1015 26 16093 6.2 360 13:38 31.12.2019
1618 Clear 13 1014 66 16093 1.44 8 13:20 31.12.2019
1619 Clouds 13 1014 33 16093 1.44 8 12:56 31.12.2019
1620 Clouds 13 1014 33 16093 1.44 8 12:38 31.12.2019
1621 Clear 13 1015 66 16093 1.44 8 12:19 31.12.2019
1622 Clouds 13 1015 25 16093 9.8 40 11:56 31.12.2019
1623 Clouds 13 1015 37 16093 3.1 310 11:37 31.12.2019
1624 Clouds 13 1015 57 16093 1.46 24 11:19 31.12.2019
1625 Clouds 13 1014 37 16093 3.1 40 10:56 31.12.2019
1626 Clouds 13 1014 37 16093 3.1 40 10:37 31.12.2019
1627 Clear 13 1015 58 16093 1.46 24 10:19 31.12.2019
1628 Clear 13 1015 58 16093 1.46 24 09:58 31.12.2019
1629 Clear 13 1015 58 16093 1.46 24 09:38 31.12.2019
1630 Clear 13 1015 58 16093 1.46 24 09:19 31.12.2019
1631 Clear 13 1015 58 16093 1.46 24 08:57 31.12.2019
1632 Clouds 13 1015 28 16093 7.2 20 08:37 31.12.2019
1633 Clear 13 1015 50 16093 1.55 12 08:18 31.12.2019
1634 Clouds 13 1015 37 16093 2.6 0 07:41 31.12.2019
1635 Clear 13 1015 47 16093 1.55 12 07:19 31.12.2019
1636 Clouds 13 1015 35 16093 2.1 230 06:48 31.12.2019
1637 Clouds 13 1015 26 16093 6.7 30 05:55 31.12.2019
1638 Clear 13 1014 44 16093 2.45 345 04:27 31.12.2019
1639 Clear 13 1014 38 16093 2.45 345 03:27 31.12.2019
1640 Clear 14 1016 28 16093 3.1 340 02:49 31.12.2019
1641 Clouds 14 1014 23 16093 4.1 50 01:55 31.12.2019
1642 Clear 15 1014 31 16093 1.13 255 01:34 31.12.2019
1643 Clouds 15 1014 23 16093 5.7 80 00:59 31.12.2019
1644 Clouds 15 1014 34 16093 4.6 260 00:41 31.12.2019
1645 Clear 15 1014 31 16093 1.5 250 00:21 31.12.2019
1646 Clouds 15 1014 36 16093 2.1 0 23:56 30.12.2019
1647 Clouds 15 1014 34 16093 3.1 260 23:38 30.12.2019
1648 Clear 15 1014 31 16093 1.92 351 23:19 30.12.2019
1649 Clouds 15 1015 30 16093 7.2 330 22:57 30.12.2019
1650 Clouds 15 1014 34 16093 3.1 230 22:37 30.12.2019
1651 Clouds 15 1014 31 16093 1.92 351 22:19 30.12.2019
1652 Clear 15 1014 36 16093 1.5 260 21:56 30.12.2019
1653 Clear 15 1014 43 16093 2.6 230 21:38 30.12.2019
1654 Clouds 14 1015 36 16093 1.92 351 21:18 30.12.2019
1655 Clouds 14 1015 36 16093 1.92 351 21:18 30.12.2019
1656 Clouds 14 1015 50 16093 2.6 260 20:56 30.12.2019
1657 Clouds 14 1015 50 16093 2.6 260 20:38 30.12.2019
1658 Clear 13 1016 36 16093 2.1 20 20:19 30.12.2019
1659 Clouds 13 1016 50 16093 2.1 110 19:56 30.12.2019
1660 Clouds 13 1016 34 16093 4.6 260 19:37 30.12.2019
1661 Clear 13 1017 36 16093 1.5 0 19:37 30.12.2019
1662 Clear 12 1017 36 16093 1.5 0 19:19 30.12.2019
1663 Clouds 12 1017 57 16093 2.1 0 18:56 30.12.2019
1664 Clear 12 1017 41 16093 1.5 0 18:37 30.12.2019
1665 Clear 11 1017 41 16093 1.5 0 18:19 30.12.2019
1666 Clouds 11 1016 34 16093 1.5 350 17:54 30.12.2019
1667 Clouds 11 1016 34 16093 1.5 350 17:36 30.12.2019
1668 Clouds 10 1016 41 16093 1.5 0 17:18 30.12.2019
1669 Clouds 10 1016 76 16093 1.5 71 16:55 30.12.2019
1670 Clouds 10 1016 43 16093 1.5 71 16:36 30.12.2019
1671 Clear 10 1016 41 16093 2.1 0 16:18 30.12.2019
1672 Clouds 10 1015 52 16093 2.1 310 15:54 30.12.2019
1673 Clear 10 1015 43 16093 2.1 70 15:36 30.12.2019
1674 Clear 10 1015 43 16093 2.1 70 15:18 30.12.2019
1675 Clouds 10 1016 43 16093 1.5 71 14:42 30.12.2019
1676 Clear 10 1016 43 16093 2.6 60 14:19 30.12.2019
1677 Clouds 9 1016 70 16093 1.5 310 13:55 30.12.2019
1678 Clouds 9 1015 57 16093 1.66 84 13:37 30.12.2019
1679 Clouds 10 1016 47 16093 2.6 70 13:18 30.12.2019
1680 Clouds 10 1016 59 16093 1.5 110 12:42 30.12.2019
1681 Clouds 10 1016 62 16093 2.1 60 12:20 30.12.2019
1682 Clouds 10 1016 81 16093 1.59 83 11:59 30.12.2019
1683 Clouds 10 1017 66 16093 1.59 83 11:40 30.12.2019
1684 Clouds 10 1017 66 16093 1.5 0 11:19 30.12.2019
1685 Clouds 9 1017 66 16093 0.06 82 10:44 30.12.2019
1686 Clouds 9 1017 71 16093 0.06 82 10:22 30.12.2019
1687 Clouds 9 1017 71 16093 0.06 82 10:22 30.12.2019
1688 Clouds 9 1017 81 16093 0.06 82 09:58 30.12.2019
1689 Clouds 9 1017 57 16093 0.06 82 09:40 30.12.2019
1690 Clouds 9 1017 76 14484 0.06 82 09:20 30.12.2019
1691 Clouds 9 1018 70 16093 1.5 80 08:54 30.12.2019
1692 Clouds 9 1018 70 16093 1.5 80 08:36 30.12.2019
1693 Clear 9 1018 76 16093 1.13 244 08:18 30.12.2019
1694 Clear 9 1018 71 16093 1.13 244 07:39 30.12.2019
1695 Clear 10 1018 71 16093 1.13 244 06:52 30.12.2019
1696 Clear 10 1018 71 16093 1.55 217 04:58 30.12.2019
1697 Clear 11 1018 62 16093 1.55 217 03:58 30.12.2019
1698 Clear 12 1019 62 16093 1.55 217 03:19 30.12.2019
1699 Clouds 12 1019 62 16093 1.55 217 02:40 30.12.2019
1700 Clear 13 1019 54 16093 2.6 220 01:55 30.12.2019
1701 Clear 14 1019 55 16093 2.66 210 01:23 30.12.2019
1702 Clear 14 1020 47 16093 1.5 130 00:45 30.12.2019
1703 Clear 14 1019 48 16093 2.66 210 00:23 30.12.2019
1704 Clear 15 1020 53 16093 2.66 210 23:40 29.12.2019
1705 Clear 15 1020 48 16093 2.05 219 23:21 29.12.2019
1706 Clear 15 1021 47 16093 2.1 130 22:56 29.12.2019
1707 Clear 15 1020 37 16093 2.05 219 22:37 29.12.2019
1708 Clear 15 1020 48 16093 2.05 219 22:18 29.12.2019
1709 Clear 15 1020 40 16093 2.05 219 21:43 29.12.2019
1710 Clear 14 1021 44 16093 2.05 219 21:21 29.12.2019
1711 Clear 14 1021 44 16093 2.05 219 21:21 29.12.2019
1712 Clear 14 1021 54 16093 2.1 110 20:59 29.12.2019
1713 Clear 14 1021 40 16093 2.05 219 20:39 29.12.2019
1714 Clear 14 1021 40 16093 2.05 219 20:39 29.12.2019
1715 Clear 13 1023 44 16093 1.5 0 20:21 29.12.2019
1716 Clear 13 1023 44 16093 1.5 0 19:59 29.12.2019
1717 Clear 12 1022 37 16093 2.6 120 19:40 29.12.2019
1718 Clear 11 1023 50 16093 2.6 50 19:21 29.12.2019
1719 Clear 11 1023 50 16093 2.6 50 18:59 29.12.2019
1720 Clear 10 1023 37 16093 2.6 100 18:40 29.12.2019
1721 Clear 10 1023 54 16093 2.04 109 18:21 29.12.2019
1722 Clear 9 1023 75 16093 1.5 240 17:58 29.12.2019
1723 Clear 8 1022 37 16093 2.1 80 17:39 29.12.2019
1724 Clear 8 1022 70 16093 0.48 52 17:20 29.12.2019
1725 Clear 6 1023 64 16093 1.5 50 16:57 29.12.2019
1726 Clear 6 1022 65 16093 2.1 70 16:39 29.12.2019
1727 Clear 6 1022 65 16093 2.1 70 16:39 29.12.2019
1728 Clear 6 1022 70 16093 0.48 52 16:21 29.12.2019
1729 Clear 6 1022 70 16093 0.48 52 15:59 29.12.2019
1730 Clouds 6 1022 65 16093 2.1 30 15:40 29.12.2019
1731 Clear 6 1022 75 16093 0.48 52 15:20 29.12.2019
1732 Clear 6 1022 75 16093 0.48 52 14:59 29.12.2019
1733 Clear 6 1021 75 16093 2.6 20 14:41 29.12.2019
1734 Clear 6 1022 70 16093 1.5 360 14:19 29.12.2019
1735 Clear 6 1022 70 16093 1.5 360 13:59 29.12.2019
1736 Clear 6 1021 75 16093 2.1 40 13:40 29.12.2019
1737 Clear 6 1022 76 16093 0.25 279 13:22 29.12.2019
1738 Clear 6 1022 76 16093 0.25 279 12:57 29.12.2019
1739 Clear 7 1021 70 16093 1.5 50 12:38 29.12.2019
1740 Clear 7 1022 76 14484 1.5 20 12:20 29.12.2019
1741 Clear 7 1021 75 16093 2.1 60 11:41 29.12.2019
1742 Clear 7 1021 87 12874 0.33 97 11:22 29.12.2019
1743 Clear 7 1021 81 16093 0.33 97 10:57 29.12.2019
1744 Clear 7 1021 81 16093 2.1 60 10:39 29.12.2019
1745 Clear 7 1021 81 12874 0.33 97 10:18 29.12.2019
1746 Clear 7 1021 81 16093 2.6 360 09:47 29.12.2019
1747 Clear 8 1021 81 14484 0.33 97 09:28 29.12.2019
1748 Clear 8 1021 81 14484 0.33 97 09:28 29.12.2019
1749 Clear 8 1021 81 14484 0.33 97 08:59 29.12.2019
1750 Clear 8 1021 75 16093 2.1 50 08:40 29.12.2019
1751 Clear 8 1021 75 16093 2.1 50 08:40 29.12.2019
1752 Clear 8 1021 76 16093 0.67 181 08:21 29.12.2019
1753 Clear 8 1021 75 16093 0.71 215 07:45 29.12.2019
1754 Clear 8 1021 76 16093 0.71 215 07:26 29.12.2019
1755 Clouds 9 1020 81 16093 0.71 215 06:52 29.12.2019
1756 Clear 9 1020 76 16093 0.71 215 06:22 29.12.2019
1757 Clear 9 1020 81 16093 0.71 215 05:45 29.12.2019
1758 Clear 10 1019 71 16093 2.31 206 04:33 29.12.2019
1759 Clear 11 1019 71 16093 2.31 206 03:39 29.12.2019
1760 Clouds 12 1018 59 16093 2.31 206 02:36 29.12.2019
1761 Clouds 12 1018 59 16093 2.41 200 02:18 29.12.2019
1762 Clear 14 1018 51 16093 2.41 200 01:31 29.12.2019
1763 Clouds 15 1018 63 16093 2.6 210 00:51 29.12.2019
1764 Clear 15 1017 45 16093 2.15 206 00:25 29.12.2019
1765 Clear 15 1017 47 16093 2.1 140 23:56 28.12.2019
1766 Clear 15 1017 50 16093 2.15 206 23:37 28.12.2019
1767 Clear 15 1017 51 16093 1.39 188 23:18 28.12.2019
1768 Clear 15 1017 50 16093 1.39 188 22:39 28.12.2019
1769 Clear 15 1018 48 16093 1.39 188 22:19 28.12.2019
1770 Clear 15 1018 47 16093 2.1 0 21:57 28.12.2019
1771 Clear 15 1018 58 16093 3.1 250 21:38 28.12.2019
1772 Clear 15 1019 51 16093 1.5 0 21:20 28.12.2019
1773 Clear 14 1018 58 16093 1.39 188 20:55 28.12.2019
1774 Clear 14 1020 51 16093 1.53 186 20:37 28.12.2019
1775 Clear 13 1020 51 16093 1.43 102 20:18 28.12.2019
1776 Clear 13 1019 58 16093 1.43 102 19:55 28.12.2019
1777 Clouds 13 1020 50 16093 2.1 0 19:36 28.12.2019
1778 Clouds 12 1020 44 16093 1.43 102 19:18 28.12.2019
1779 Clouds 11 1020 57 16093 1.43 102 18:56 28.12.2019
1780 Clear 11 1020 57 16093 1.43 102 18:38 28.12.2019
1781 Clear 10 1020 54 16093 1.43 102 18:18 28.12.2019
1782 Clouds 8 1019 70 16093 1.43 102 17:42 28.12.2019
1783 Clouds 8 1019 70 16093 1.43 102 17:42 28.12.2019
1784 Clouds 7 1020 57 16093 2.1 0 17:21 28.12.2019
1785 Clear 6 1020 56 16093 0.7 72 16:58 28.12.2019
1786 Clear 5 1019 40 16093 2.1 10 16:40 28.12.2019
1787 Clear 5 1019 61 0 0.7 72 16:21 28.12.2019
1788 Clear 5 1018 65 16093 0.7 72 15:43 28.12.2019
1789 Clear 5 1018 65 16093 0.7 72 15:23 28.12.2019
1790 Clear 5 1018 74 16093 0.7 72 14:56 28.12.2019
1791 Clouds 5 1018 65 16093 2.1 360 14:37 28.12.2019
1792 Clear 5 1018 61 16093 1.17 68 14:19 28.12.2019
1793 Clear 5 1017 60 16093 1.17 68 13:42 28.12.2019
1794 Clear 5 1018 61 16093 1.33 63 13:21 28.12.2019
1795 Clear 5 1018 61 16093 1.33 63 12:59 28.12.2019
1796 Clear 5 1017 60 16093 2.1 20 12:40 28.12.2019
1797 Clear 6 1018 65 16093 1.33 63 12:21 28.12.2019
1798 Clear 6 1017 80 16093 1.33 63 11:54 28.12.2019
1799 Clear 6 1017 60 16093 2.1 80 11:36 28.12.2019
1800 Clear 6 1017 57 16093 0.47 35 11:18 28.12.2019
1801 Clear 7 1017 56 16093 0.47 35 10:41 28.12.2019
1802 Clear 7 1017 53 16093 1.5 20 10:20 28.12.2019
1803 Clear 7 1016 52 16093 2.1 360 09:56 28.12.2019
1804 Clear 7 1016 52 16093 2.1 360 09:38 28.12.2019
1805 Clear 7 1017 57 16093 0.47 35 09:18 28.12.2019
1806 Clear 8 1016 61 16093 2.1 340 08:43 28.12.2019
1807 Clear 8 1017 50 16093 0.18 68 08:25 28.12.2019
1808 Clear 8 1016 57 16093 2.6 10 07:49 28.12.2019
1809 Clear 8 1016 50 16093 0.23 36 07:27 28.12.2019
1810 Clear 9 1015 65 16093 2.6 20 05:53 28.12.2019
1811 Clear 10 1015 43 16093 1.5 340 03:59 28.12.2019
1812 Clear 11 1015 61 16093 2.1 300 03:38 28.12.2019
1813 Clear 12 1014 53 16093 1.5 340 02:48 28.12.2019
1814 Clear 13 1013 48 16093 3 197 01:59 28.12.2019
1815 Clear 14 1013 39 16093 1.5 0 01:29 28.12.2019
1816 Clear 15 1013 26 16093 2.6 0 00:55 28.12.2019
1817 Clear 15 1013 34 16093 2.6 240 00:37 28.12.2019
1818 Clear 15 1013 34 16093 2.1 260 00:19 28.12.2019
1819 Clear 15 1013 34 16093 2.1 210 23:43 27.12.2019
1820 Clear 15 1012 36 16093 1.5 250 23:19 27.12.2019
1821 Clear 15 1012 36 16093 1.5 250 23:19 27.12.2019
1822 Clear 15 1014 33 16093 5.7 320 22:57 27.12.2019
1823 Clouds 15 1013 34 16093 3.1 240 22:38 27.12.2019
1824 Clear 15 1013 39 16093 1.76 210 22:20 27.12.2019
1825 Clear 15 1012 29 16093 1.5 120 21:55 27.12.2019
1826 Clear 15 1014 58 16093 2.1 220 21:37 27.12.2019
1827 Clear 14 1014 58 16093 2.1 220 21:18 27.12.2019
1828 Clear 14 1014 38 16093 1.76 210 20:41 27.12.2019
1829 Clear 14 1014 38 16093 1.18 115 20:22 27.12.2019
1830 Clear 13 1015 38 16093 1.25 125 19:43 27.12.2019
1831 Clear 12 1015 38 16093 1.25 125 19:21 27.12.2019
1832 Clear 12 1015 38 16093 1.25 125 19:21 27.12.2019
1833 Clear 12 1014 37 16093 3.1 320 18:59 27.12.2019
1834 Clear 11 1014 50 16093 1.25 125 18:40 27.12.2019
1835 Clear 11 1014 50 16093 1.25 125 18:21 27.12.2019
1836 Clear 9 1014 47 16093 2.1 350 17:58 27.12.2019
1837 Clear 8 1014 57 16093 1.25 125 17:40 27.12.2019
1838 Clear 7 1014 70 16093 0.82 293 17:19 27.12.2019
1839 Clear 6 1015 57 16093 4.1 240 16:59 27.12.2019
1840 Clear 5 1013 70 16093 0.82 293 16:39 27.12.2019
1841 Clear 5 1014 70 16093 0.82 293 16:20 27.12.2019
1842 Clear 5 1013 57 16093 2.1 0 15:45 27.12.2019
1843 Clear 5 1013 81 0 0.82 293 15:23 27.12.2019
1844 Clear 5 1013 81 0 0.82 293 14:58 27.12.2019
1845 Clear 6 1012 65 16093 2.1 360 14:40 27.12.2019
1846 Clear 5 1013 81 16093 0.36 317 14:21 27.12.2019
1847 Clear 6 1013 65 16093 1.5 300 13:57 27.12.2019
1848 Clear 6 1012 70 16093 2.6 360 13:39 27.12.2019
1849 Clear 6 1012 70 16093 2.6 360 13:39 27.12.2019
1850 Clear 6 1012 70 16093 2.6 360 13:39 27.12.2019
1851 Clear 6 1013 75 16093 0.36 317 13:21 27.12.2019
1852 Clear 6 1012 80 16093 2.1 300 12:44 27.12.2019
1853 Clear 6 1013 70 16093 1.5 100 12:25 27.12.2019
1854 Clear 7 1012 61 16093 5.7 350 11:55 27.12.2019
1855 Clear 7 1012 75 16093 0.2 277 11:37 27.12.2019
1856 Clear 7 1012 66 16093 1.5 90 11:18 27.12.2019
1857 Clouds 7 1012 81 16093 2.1 10 10:41 27.12.2019
1858 Clear 7 1012 53 16093 2.1 0 10:23 27.12.2019
1859 Clouds 7 1012 81 16093 0.45 74 09:49 27.12.2019
1860 Clear 7 1012 70 16093 0.45 74 09:22 27.12.2019
1861 Clear 7 1012 70 16093 0.45 74 09:22 27.12.2019
1862 Clear 7 1012 70 16093 0.45 74 08:59 27.12.2019
1863 Clouds 7 1011 70 16093 2.6 310 08:40 27.12.2019
1864 Clouds 8 1012 66 16093 1.45 294 08:18 27.12.2019
1865 Clouds 8 1011 81 16093 3.6 310 07:38 27.12.2019
1866 Clear 7 1012 70 16093 1.45 294 06:59 27.12.2019
1867 Clear 8 1011 66 16093 1.45 294 06:23 27.12.2019
1868 Clear 8 1009 81 16093 1.4 42 04:37 27.12.2019
1869 Clear 9 1009 58 16093 1.4 42 02:28 27.12.2019
1870 Clouds 10 1011 56 16093 5.1 320 01:44 27.12.2019
1871 Clouds 10 1009 54 16093 1.5 100 01:21 27.12.2019
1872 Clouds 11 1009 58 16093 1.67 35 00:47 27.12.2019
1873 Clouds 11 1009 54 16093 1.5 30 00:25 27.12.2019
1874 Rain 11 1008 66 16093 4.1 100 23:56 26.12.2019
1875 Rain 11 1008 81 16093 3.6 90 23:37 26.12.2019
1876 Rain 11 1008 54 16093 0.43 110 23:19 26.12.2019
1877 Rain 10 1008 81 16093 3.6 90 22:40 26.12.2019
1878 Rain 10 1009 54 16093 2.1 40 22:18 26.12.2019
1879 Rain 10 1008 62 16093 3.6 360 21:40 26.12.2019
1880 Rain 10 1009 62 16093 2.6 0 21:21 26.12.2019
1881 Rain 10 1009 50 16093 1.5 0 20:59 26.12.2019
1882 Rain 10 1009 93 8047 3.6 90 20:40 26.12.2019
1883 Rain 9 1010 54 16093 2.6 0 20:22 26.12.2019
1884 Clouds 9 1009 75 16093 2.6 330 19:57 26.12.2019
1885 Clouds 9 1010 70 16093 2.6 340 19:38 26.12.2019
1886 Clouds 9 1010 57 16093 4.1 80 19:20 26.12.2019
1887 Rain 8 1010 75 16093 2.1 290 18:57 26.12.2019
1888 Rain 8 1009 87 16093 4.6 80 18:37 26.12.2019
1889 Rain 8 1010 61 16093 4.6 80 18:19 26.12.2019
1890 Rain 7 1009 81 16093 1.5 290 17:42 26.12.2019
1891 Rain 7 1009 66 16093 3.6 80 17:22 26.12.2019
1892 Rain 6 1009 81 16093 2.1 350 16:58 26.12.2019
1893 Rain 6 1009 86 8047 5.1 80 16:39 26.12.2019
1894 Rain 6 1009 66 16093 4.6 90 16:20 26.12.2019
1895 Rain 6 1008 93 11265 8.7 60 15:41 26.12.2019
1896 Rain 6 1008 93 11265 8.7 60 15:41 26.12.2019
1897 Rain 6 1008 70 16093 5.7 70 15:20 26.12.2019
1898 Rain 6 1008 81 16093 2.6 80 14:58 26.12.2019
1899 Rain 6 1010 100 8047 4.6 60 14:38 26.12.2019
1900 Rain 6 1008 70 16093 3.6 80 14:20 26.12.2019
1901 Rain 6 1009 93 4023 6.2 70 13:43 26.12.2019
1902 Rain 6 1007 70 12874 5.7 90 13:21 26.12.2019
1903 Rain 7 1009 93 4828 4.1 90 12:58 26.12.2019
1904 Rain 7 1009 93 4828 4.1 90 12:38 26.12.2019
1905 Rain 7 1009 87 4828 4.6 320 12:19 26.12.2019
1906 Rain 7 1008 75 9656 5.1 80 11:57 26.12.2019
1907 Rain 8 1009 81 4828 3.6 90 11:38 26.12.2019
1908 Rain 8 1009 93 6437 5.7 10 11:19 26.12.2019
1909 Rain 8 1009 87 4023 2.6 110 10:42 26.12.2019
1910 Rain 8 1009 81 9656 1.5 0 10:19 26.12.2019
1911 Rain 9 1009 87 4828 1.5 100 09:50 26.12.2019
1912 Rain 9 1009 87 4828 1.5 100 09:31 26.12.2019
1913 Rain 9 1009 81 4828 5.1 80 08:43 26.12.2019
1914 Thunderstorm 9 1009 87 4828 3.6 80 08:24 26.12.2019
1915 Rain 9 1010 87 4828 2.6 0 07:53 26.12.2019
1916 Rain 9 1010 76 4023 3.6 90 07:28 26.12.2019
1917 Rain 10 1009 87 4828 7.2 120 06:54 26.12.2019
1918 Rain 10 1011 81 11265 5.7 120 06:32 26.12.2019
1919 Rain 10 1010 81 6437 6.2 120 05:46 26.12.2019
1920 Clouds 11 1012 81 16093 7.7 100 04:59 26.12.2019
1921 Clouds 11 1012 62 16093 2.6 0 04:30 26.12.2019
1922 Clouds 11 1012 62 16093 3.6 130 03:18 26.12.2019
1923 Clouds 11 1013 81 16093 4.63 137 02:40 26.12.2019
1924 Clouds 11 1012 58 16093 3.97 186 02:19 26.12.2019
1925 Clouds 11 1013 76 16093 3.1 120 01:41 26.12.2019
1926 Clouds 12 1013 58 16093 1.5 160 01:22 26.12.2019
1927 Rain 12 1013 66 16093 3.6 160 00:41 26.12.2019
1928 Rain 12 1013 54 16093 1.5 250 00:22 26.12.2019
1929 Rain 12 1013 62 16093 3.1 230 23:42 25.12.2019
1930 Rain 12 1014 48 16093 2.1 270 23:21 25.12.2019
1931 Rain 13 1013 66 16093 3.6 120 22:59 25.12.2019
1932 Rain 13 1014 76 16093 3.08 243 22:40 25.12.2019
1933 Rain 12 1014 54 16093 2.6 0 22:22 25.12.2019
1934 Rain 12 1014 71 14484 4.1 150 21:59 25.12.2019
1935 Rain 12 1014 66 16093 3.1 230 21:40 25.12.2019
1936 Rain 12 1015 51 16093 1.5 0 21:21 25.12.2019
1937 Clouds 12 1014 71 16093 3.6 120 20:57 25.12.2019
1938 Clouds 12 1015 58 16093 3.08 243 20:39 25.12.2019
1939 Clouds 12 1015 58 16093 1.78 185 20:18 25.12.2019
1940 Clouds 12 1015 71 16093 3.1 170 19:44 25.12.2019
1941 Clouds 12 1016 62 16093 1.5 80 19:25 25.12.2019
1942 Clouds 11 1016 62 16093 1.5 80 18:59 25.12.2019
1943 Clouds 11 1015 62 16093 2.6 100 18:39 25.12.2019
1944 Clouds 10 1015 62 16093 2.1 100 18:20 25.12.2019
1945 Clouds 9 1015 76 16093 2.1 70 17:43 25.12.2019
1946 Clouds 9 1015 66 16093 1.5 80 17:21 25.12.2019
1947 Clouds 8 1014 81 16093 1.5 340 16:59 25.12.2019
1948 Clouds 7 1014 71 16093 2.1 90 16:39 25.12.2019
1949 Clouds 7 1014 81 16093 1.74 153 16:19 25.12.2019
1950 Clouds 7 1014 87 16093 1.74 153 15:57 25.12.2019
1951 Clouds 7 1014 87 16093 1.74 153 15:57 25.12.2019
1952 Clouds 7 1014 87 16093 1.74 153 15:39 25.12.2019
1953 Clouds 7 1014 87 16093 1.74 153 15:39 25.12.2019
1954 Clear 7 1013 71 16093 2.1 90 15:21 25.12.2019
1955 Clear 7 1013 81 16093 1.74 153 14:58 25.12.2019
1956 Clouds 7 1013 93 16093 2.1 60 14:40 25.12.2019
1957 Rain 8 1013 71 16093 1.5 90 14:21 25.12.2019
1958 Rain 8 1013 71 16093 1.5 90 14:21 25.12.2019
1959 Rain 8 1013 71 16093 1.5 90 14:21 25.12.2019
1960 Rain 8 1013 71 16093 1.5 90 14:21 25.12.2019
1961 Rain 8 1013 71 16093 1.5 90 14:21 25.12.2019
1962 Clear 8 1013 71 16093 1.5 90 13:57 25.12.2019
1963 Rain 8 1013 93 14484 1.86 203 13:38 25.12.2019
1964 Clouds 8 1013 71 16093 1.5 80 13:19 25.12.2019
1965 Clouds 8 1012 87 12874 2.43 179 12:42 25.12.2019
1966 Clouds 9 1013 66 16093 2.1 90 12:20 25.12.2019
1967 Clear 9 1012 76 16093 3.6 140 11:56 25.12.2019
1968 Clear 9 1012 76 16093 3.6 140 11:56 25.12.2019
1969 Clouds 9 1013 87 16093 2.43 179 11:38 25.12.2019
1970 Clouds 9 1013 71 16093 2.1 100 11:18 25.12.2019
1971 Clouds 9 1013 100 16093 1.9 200 10:38 25.12.2019
1972 Clear 9 1012 71 16093 1.5 90 10:20 25.12.2019
1973 Rain 9 1012 81 16093 1.9 200 09:51 25.12.2019
1974 Rain 9 1012 71 16093 1.5 0 09:32 25.12.2019
1975 Rain 9 1012 75 16093 1.9 200 08:51 25.12.2019
1976 Rain 9 1012 71 16093 2.1 100 08:31 25.12.2019
1977 Clouds 9 1013 87 16093 2.36 186 07:53 25.12.2019
1978 Clear 9 1012 71 16093 1.5 100 07:34 25.12.2019
1979 Clouds 9 1012 87 16093 1.5 360 06:58 25.12.2019
1980 Clear 9 1012 71 16093 1.5 90 06:23 25.12.2019
1981 Clouds 10 1012 81 16093 2.36 186 05:43 25.12.2019
1982 Clouds 10 1012 87 16093 2.1 280 04:39 25.12.2019
1983 Clear 10 1011 62 16093 2.1 220 04:20 25.12.2019
1984 Clouds 11 1011 87 16093 1.5 240 03:43 25.12.2019
1985 Clear 11 1011 62 16093 2.6 160 02:57 25.12.2019
1986 Clear 11 1011 62 16093 2.1 220 02:28 25.12.2019
1987 Clouds 12 1011 71 16093 6.2 240 01:36 25.12.2019
1988 Clear 13 1011 58 16093 3.1 260 01:18 25.12.2019
1989 Clouds 13 1011 66 16093 4.6 230 00:40 25.12.2019
1990 Clear 13 1011 51 16093 1.5 250 00:22 25.12.2019
1991 Clear 13 1011 51 16093 1.5 250 00:22 25.12.2019
1992 Clouds 14 1010 50 16093 4.1 290 23:39 24.12.2019
1993 Clear 14 1011 59 16093 3.1 0 23:20 24.12.2019
1994 Clouds 14 1010 58 16093 4.6 240 22:42 24.12.2019
1995 Clouds 15 1010 51 16093 2.6 250 22:24 24.12.2019
1996 Clouds 15 1010 51 16093 2.6 250 21:59 24.12.2019
1997 Clouds 15 1011 62 16093 3.6 290 21:40 24.12.2019
1998 Clouds 14 1011 62 16093 3.6 290 21:19 24.12.2019
1999 Clouds 14 1011 71 16093 4.1 210 20:42 24.12.2019
2000 Clear 13 1012 51 16093 1.96 202 20:22 24.12.2019
2001 Clear 13 1012 47 16093 2.6 250 19:55 24.12.2019
2002 Clouds 13 1012 76 14484 3.1 200 19:37 24.12.2019
2003 Clear 12 1013 58 16093 1.96 202 19:18 24.12.2019
2004 Clear 11 1012 71 16093 1.96 202 18:42 24.12.2019
2005 Clear 11 1012 71 16093 1.96 202 18:18 24.12.2019
2006 Clear 9 1012 81 16093 2.1 80 17:44 24.12.2019
2007 Clear 8 1012 81 16093 1.96 202 17:22 24.12.2019
2008 Clear 8 1012 81 16093 0.41 233 17:22 24.12.2019
2009 Clear 7 1012 81 16093 0.41 233 16:58 24.12.2019
2010 Rain 7 1011 87 16093 0.41 233 16:40 24.12.2019
2011 Rain 6 1011 81 14484 0.41 233 16:21 24.12.2019
2012 Rain 6 1011 75 16093 3.1 300 15:57 24.12.2019
2013 Clear 7 1010 87 16093 1.5 30 15:37 24.12.2019
2014 Rain 7 1011 87 16093 0.41 233 15:19 24.12.2019
2015 Clear 7 1011 87 16093 0.41 233 14:58 24.12.2019
2016 Rain 7 1010 87 16093 2.1 350 14:40 24.12.2019
2017 Rain 7 1010 87 16093 2.1 350 14:40 24.12.2019
2018 Clear 7 1011 87 12874 1.36 282 14:21 24.12.2019
2019 Clear 7 1011 81 16093 1.5 260 13:56 24.12.2019
2020 Clear 7 1010 87 16093 2.1 20 13:38 24.12.2019
2021 Mist 7 1010 93 3219 0.56 268 13:20 24.12.2019
2022 Rain 7 1010 93 16093 2.6 10 12:56 24.12.2019
2023 Rain 7 1010 93 16093 2.6 10 12:38 24.12.2019
2024 Rain 7 1011 87 4023 0.56 268 12:19 24.12.2019
2025 Rain 8 1011 87 16093 0.56 268 11:56 24.12.2019
2026 Rain 8 1010 100 16093 2.1 20 11:37 24.12.2019
2027 Clear 8 1011 87 14484 0.66 23 11:19 24.12.2019
2028 Mist 8 1011 93 8047 1.5 310 10:56 24.12.2019
2029 Clear 8 1011 100 16093 2.1 40 10:38 24.12.2019
2030 Clear 8 1011 81 14484 0.66 23 10:20 24.12.2019
2031 Clear 8 1011 81 14484 0.66 23 10:20 24.12.2019
2032 Clouds 8 1011 87 16093 2.1 300 09:56 24.12.2019
2033 Clouds 8 1011 100 16093 2.6 40 09:38 24.12.2019
2034 Clear 8 1011 81 16093 0.66 23 09:20 24.12.2019
2035 Mist 9 1011 93 3219 0.66 23 08:47 24.12.2019
2036 Clear 9 1011 81 14484 0.83 3 08:24 24.12.2019
2037 Clear 9 1011 81 14484 1.2 41 07:59 24.12.2019
2038 Clouds 9 1011 100 16093 2.1 80 07:39 24.12.2019
2039 Clear 9 1011 81 16093 1.2 41 07:21 24.12.2019
2040 Clouds 10 1011 87 16093 1.2 41 06:40 24.12.2019
2041 Clear 10 1011 76 16093 1.2 41 06:19 24.12.2019
2042 Rain 10 1011 87 16093 1.2 41 05:51 24.12.2019
2043 Rain 10 1011 76 16093 2.09 40 05:19 24.12.2019
2044 Rain 10 1011 76 16093 2.09 40 05:19 24.12.2019
2045 Rain 10 1010 76 16093 2.09 40 04:21 24.12.2019
2046 Rain 10 1011 76 16093 2.09 40 03:48 24.12.2019
2047 Rain 11 1009 71 16093 2.6 0 02:29 24.12.2019
2048 Rain 11 1009 76 8047 1.78 351 01:55 24.12.2019
2049 Rain 11 1009 67 16093 2.6 100 01:26 24.12.2019
2050 Rain 12 1009 67 16093 2.6 100 00:58 24.12.2019
2051 Drizzle 12 1009 100 3219 2.6 60 00:39 24.12.2019
2052 Rain 12 1009 67 16093 2.6 140 00:20 24.12.2019
2053 Rain 12 1008 76 14484 3.1 100 23:43 23.12.2019
2054 Rain 12 1009 71 16093 2.1 0 23:24 23.12.2019
2055 Clouds 12 1008 58 16093 4.6 110 22:57 23.12.2019
2056 Clouds 12 1008 66 16093 2.6 90 22:38 23.12.2019
2057 Rain 12 1009 58 16093 2.1 0 22:20 23.12.2019
2058 Rain 12 1009 66 16093 2.6 0 21:57 23.12.2019
2059 Rain 12 1009 66 16093 2.6 0 21:57 23.12.2019
2060 Rain 12 1009 66 16093 3.6 80 21:37 23.12.2019
2061 Rain 12 1009 62 16093 5.1 100 21:19 23.12.2019
2062 Rain 12 1009 62 16093 5.1 100 20:59 23.12.2019
2063 Rain 12 1010 66 16093 6.2 70 20:41 23.12.2019
2064 Rain 12 1011 58 16093 2.6 0 20:19 23.12.2019
2065 Rain 12 1011 58 16093 2.6 0 20:19 23.12.2019
2066 Rain 11 1011 58 16093 2.6 0 19:59 23.12.2019
2067 Rain 11 1012 81 8047 4.1 100 19:40 23.12.2019
2068 Rain 11 1012 81 8047 4.1 100 19:40 23.12.2019
2069 Rain 11 1011 62 16093 3.1 90 19:21 23.12.2019
2070 Rain 11 1011 62 16093 3.1 90 18:58 23.12.2019
2071 Drizzle 11 1011 81 11265 6.7 80 18:39 23.12.2019
2072 Rain 11 1011 66 16093 4.1 90 18:21 23.12.2019
2073 Rain 10 1011 71 16093 2.6 110 17:59 23.12.2019
2074 Rain 10 1012 87 6437 2.6 80 17:40 23.12.2019
2075 Rain 10 1009 66 16093 5.7 70 17:19 23.12.2019
2076 Rain 10 1009 66 16093 5.7 70 17:19 23.12.2019
2077 Rain 10 1009 66 16093 5.7 70 16:58 23.12.2019
2078 Rain 10 1012 81 9656 6.2 70 16:40 23.12.2019
2079 Rain 9 1011 71 9656 5.1 90 16:19 23.12.2019
2080 Rain 9 1011 71 9656 5.1 90 15:58 23.12.2019
2081 Rain 10 1010 66 16093 5.1 80 15:37 23.12.2019
2082 Rain 10 1010 66 16093 5.1 80 15:19 23.12.2019
2083 Rain 9 1010 93 9656 2.6 360 14:57 23.12.2019
2084 Rain 9 1010 71 16093 6.2 90 14:39 23.12.2019
2085 Rain 9 1010 71 16093 6.2 90 14:19 23.12.2019
2086 Rain 9 1010 71 16093 6.2 90 14:19 23.12.2019
2087 Rain 9 1010 71 16093 6.2 90 13:57 23.12.2019
2088 Rain 9 1013 71 4828 1.5 0 13:39 23.12.2019
2089 Rain 9 1010 71 14484 3.6 90 13:39 23.12.2019
2090 Rain 9 1010 71 14484 3.6 90 13:20 23.12.2019
2091 Rain 9 1010 71 14484 3.6 90 13:20 23.12.2019
2092 Rain 9 1010 87 16093 4.6 40 12:55 23.12.2019
2093 Rain 10 1011 76 4828 6.2 90 12:37 23.12.2019
2094 Rain 10 1010 81 6437 5.1 80 12:18 23.12.2019
2095 Rain 10 1011 81 4828 3.6 80 11:42 23.12.2019
2096 Rain 10 1011 81 4828 3.6 70 11:24 23.12.2019
2097 Rain 10 1011 87 4828 2.6 330 10:56 23.12.2019
2098 Rain 10 1011 81 6437 4.1 80 10:38 23.12.2019
2099 Rain 10 1010 81 6437 5.7 80 10:20 23.12.2019
2100 Rain 10 1010 66 14484 4.6 90 09:58 23.12.2019
2101 Rain 10 1012 76 8047 4.1 50 09:39 23.12.2019
2102 Rain 11 1011 93 6437 6.7 50 09:20 23.12.2019
2103 Rain 11 1011 76 9656 7.7 90 08:55 23.12.2019
2104 Rain 12 1012 71 4828 4.1 70 08:37 23.12.2019
2105 Rain 12 1012 81 4023 4.28 128 08:18 23.12.2019
2106 Rain 13 1012 76 2816 2.6 0 07:43 23.12.2019
2107 Rain 13 1012 87 2414 2.6 70 07:19 23.12.2019
2108 Rain 13 1012 77 4023 3.1 90 06:50 23.12.2019
2109 Rain 13 1012 63 6437 1.5 0 06:23 23.12.2019
2110 Rain 14 1012 72 12874 4.1 100 05:49 23.12.2019
2111 Rain 14 1012 67 16093 3.1 130 05:22 23.12.2019
2112 Clouds 15 1011 52 16093 2.6 0 04:20 23.12.2019
2113 Clouds 15 1011 44 16093 5.1 130 02:55 23.12.2019
2114 Clouds 15 1012 55 16093 2.1 120 02:25 23.12.2019
2115 Clouds 15 1011 38 16093 7.2 140 01:55 23.12.2019
2116 Clouds 16 1013 29 16093 4.01 152 01:36 23.12.2019
2117 Clear 16 1012 55 16093 2.6 0 01:18 23.12.2019
2118 Clouds 16 1013 67 16093 4.6 130 00:35 23.12.2019
2119 Clear 17 1012 45 16093 2.6 0 23:58 22.12.2019
2120 Clear 17 1013 22 16093 2.6 250 23:39 22.12.2019
2121 Clear 17 1012 42 16093 2.1 0 23:20 22.12.2019
2122 Clear 17 1012 42 16093 2.1 0 23:20 22.12.2019
2123 Clear 18 1012 42 16093 2.1 0 22:58 22.12.2019
2124 Clouds 18 1013 18 16093 3.1 220 22:39 22.12.2019
2125 Clouds 18 1013 55 16093 4.6 120 22:19 22.12.2019
2126 Clouds 18 1013 40 16093 4.86 152 21:57 22.12.2019
2127 Clouds 18 1014 14 16093 2.6 0 21:39 22.12.2019
2128 Clouds 18 1014 42 16093 2.1 0 21:20 22.12.2019
2129 Clouds 17 1014 42 16093 2.1 0 20:57 22.12.2019
2130 Clear 17 1015 37 16093 2.6 110 20:38 22.12.2019
2131 Clear 17 1015 37 16093 2.6 110 20:18 22.12.2019
2132 Clouds 17 1015 23 16093 4.1 200 19:55 22.12.2019
2133 Clear 16 1016 18 16093 3.6 70 19:37 22.12.2019
2134 Clear 16 1016 31 16093 2.6 0 19:19 22.12.2019
2135 Clear 15 1017 17 16093 2.6 80 18:40 22.12.2019
2136 Clear 14 1015 29 16093 2.49 132 18:22 22.12.2019
2137 Clear 14 1015 30 16093 3.1 140 17:55 22.12.2019
2138 Clear 13 1016 19 16093 3.1 70 17:37 22.12.2019
2139 Clear 12 1014 26 16093 2.6 0 17:18 22.12.2019
2140 Clear 12 1014 28 16093 4.1 140 16:56 22.12.2019
2141 Clear 12 1014 28 16093 4.1 140 16:56 22.12.2019
2142 Clear 11 1016 18 16093 3.6 60 16:38 22.12.2019
2143 Clear 11 1014 28 16093 2.6 90 16:19 22.12.2019
2144 Clear 12 1014 32 16093 2.1 80 15:56 22.12.2019
2145 Clear 11 1016 18 16093 2.6 60 15:37 22.12.2019
2146 Clear 11 1015 37 16093 0.34 134 15:19 22.12.2019
2147 Clear 11 1015 43 16093 1.5 360 14:54 22.12.2019
2148 Clear 11 1014 26 16093 2.6 90 14:36 22.12.2019
2149 Clear 11 1014 26 16093 2.6 90 14:18 22.12.2019
2150 Clear 11 1015 19 16093 2.6 50 13:55 22.12.2019
2151 Clear 11 1015 19 16093 2.6 50 13:36 22.12.2019
2152 Clear 11 1014 26 16093 2.1 90 13:18 22.12.2019
2153 Clear 11 1014 46 16093 1.5 40 12:55 22.12.2019
2154 Clear 11 1016 20 16093 2.1 40 12:37 22.12.2019
2155 Clear 10 1015 43 16093 1.76 78 12:18 22.12.2019
2156 Clear 11 1016 16 16093 1.76 78 11:54 22.12.2019
2157 Clear 11 1016 16 16093 1.76 78 11:36 22.12.2019
2158 Clear 11 1015 43 16093 1.25 176 11:18 22.12.2019
2159 Clear 11 1015 18 16093 3.1 60 10:54 22.12.2019
2160 Clear 11 1015 18 16093 3.1 60 10:36 22.12.2019
2161 Clear 11 1015 47 16093 1.25 176 10:18 22.12.2019
2162 Clear 12 1015 50 16093 1.25 176 09:41 22.12.2019
2163 Clear 12 1015 50 16093 1.25 176 09:22 22.12.2019
2164 Clear 12 1015 50 16093 1.25 176 08:59 22.12.2019
2165 Clear 12 1016 21 16093 2.1 50 08:38 22.12.2019
2166 Clear 12 1015 44 16093 0.95 190 08:20 22.12.2019
2167 Clear 12 1016 24 16093 2.1 30 07:39 22.12.2019
2168 Clear 12 1015 29 16093 0.95 190 07:20 22.12.2019
2169 Clear 13 1017 19 16093 1.5 70 06:41 22.12.2019
2170 Clear 13 1016 40 16093 0.95 190 05:54 22.12.2019
2171 Clear 13 1016 20 16093 0.4 138 05:23 22.12.2019
2172 Clear 14 1016 20 16093 0.4 138 04:30 22.12.2019
2173 Clear 14 1016 37 16093 1.5 350 03:56 22.12.2019
2174 Clear 16 1017 21 16093 3.1 50 02:42 22.12.2019
2175 Clear 17 1018 23 16093 1.55 219 01:54 22.12.2019
2176 Clear 18 1016 19 16093 1.55 219 01:30 22.12.2019
2177 Clear 20 1017 15 16093 2.1 120 00:48 22.12.2019
2178 Clear 20 1016 16 16093 1.53 227 00:26 22.12.2019
2179 Clear 21 1017 18 16093 1.5 190 23:57 21.12.2019
2180 Clear 21 1018 13 16093 2.1 110 23:39 21.12.2019
2181 Clear 21 1017 18 16093 1.5 130 23:20 21.12.2019
2182 Clear 21 1019 16 16093 1.5 160 22:46 21.12.2019
2183 Clear 21 1018 11 16093 1.5 0 22:46 21.12.2019
2184 Clear 21 1018 20 16093 1.62 175 22:20 21.12.2019
2185 Clear 21 1018 20 16093 1.62 175 21:58 21.12.2019
2186 Clear 21 1019 13 16093 1.62 175 21:40 21.12.2019
2187 Clear 20 1019 21 16093 1.62 175 21:21 21.12.2019
2188 Clear 20 1019 21 16093 1.62 175 20:59 21.12.2019
2189 Clear 19 1020 19 16093 1.34 155 20:41 21.12.2019
2190 Clear 18 1020 19 16093 2.1 90 20:22 21.12.2019
2191 Clear 17 1021 18 16093 2.6 110 19:59 21.12.2019
2192 Clear 17 1021 18 16093 2.6 110 19:41 21.12.2019
2193 Clear 16 1020 22 16093 0.82 114 19:20 21.12.2019
2194 Clear 15 1021 29 16093 0.82 114 18:56 21.12.2019
2195 Clear 15 1021 25 16093 3.1 100 18:38 21.12.2019
2196 Clear 14 1020 23 16093 1.5 0 18:20 21.12.2019
2197 Clear 13 1021 21 16093 2.6 80 17:55 21.12.2019
2198 Clear 13 1021 21 16093 2.6 80 17:37 21.12.2019
2199 Clear 11 1020 30 16093 1.5 30 17:18 21.12.2019
2200 Clear 10 1022 20 16093 3.1 50 16:54 21.12.2019
2201 Clear 10 1021 46 16093 0.71 61 16:36 21.12.2019
2202 Clear 10 1021 46 16093 0.71 61 16:36 21.12.2019
2203 Clear 10 1021 46 16093 0.71 61 16:18 21.12.2019
2204 Clear 10 1021 49 16093 0.71 61 15:54 21.12.2019
2205 Clear 10 1021 22 16093 3.1 70 15:36 21.12.2019
2206 Clear 10 1021 20 16093 0.71 61 15:18 21.12.2019
2207 Clear 10 1021 26 16093 2.1 70 14:40 21.12.2019
2208 Clear 10 1020 46 16093 0.46 335 14:22 21.12.2019
2209 Clear 11 1021 49 16093 2.6 340 13:58 21.12.2019
2210 Clear 11 1021 24 16093 2.1 60 13:39 21.12.2019
2211 Clear 11 1020 33 16093 0.26 7 13:19 21.12.2019
2212 Clear 11 1021 49 16093 0.26 7 12:56 21.12.2019
2213 Clear 11 1021 26 16093 2.6 80 12:38 21.12.2019
2214 Clear 11 1021 30 16093 1.5 20 12:19 21.12.2019
2215 Clear 11 1022 26 16093 2.6 50 11:46 21.12.2019
2216 Clear 12 1021 30 16093 1.26 71 11:27 21.12.2019
2217 Clear 12 1021 37 16093 4.1 330 10:59 21.12.2019
2218 Clear 12 1022 30 16093 2.1 90 10:40 21.12.2019
2219 Clear 12 1021 22 16093 1.26 71 10:21 21.12.2019
2220 Clear 13 1021 43 16093 3.1 320 09:57 21.12.2019
2221 Clear 13 1022 30 16093 2.6 60 09:39 21.12.2019
2222 Clear 13 1021 35 16093 1.26 71 09:19 21.12.2019
2223 Clear 13 1022 34 16093 1.26 71 08:47 21.12.2019
2224 Clear 13 1021 29 16093 0.76 54 08:27 21.12.2019
2225 Clear 13 1023 35 16093 0.76 54 07:47 21.12.2019
2226 Clear 14 1021 27 16093 0.76 54 07:23 21.12.2019
2227 Clear 14 1021 27 16093 0.76 54 06:58 21.12.2019
2228 Clear 14 1023 35 16093 2.6 70 06:40 21.12.2019
2229 Clear 14 1022 23 16093 2.1 10 06:21 21.12.2019
2230 Clear 15 1021 25 16093 0.76 54 05:25 21.12.2019
2231 Clear 15 1022 30 16093 0.69 13 04:34 21.12.2019
2232 Clear 16 1022 30 16093 1.5 10 03:56 21.12.2019
2233 Clear 18 1021 18 16093 0.69 13 02:25 21.12.2019
2234 Clear 18 1021 18 16093 0.69 13 02:25 21.12.2019
2235 Clear 19 1022 19 14484 2.6 300 01:48 21.12.2019
2236 Clear 20 1021 16 16093 0.92 356 01:25 21.12.2019
2237 Clear 20 1023 18 16093 5.1 320 00:45 21.12.2019
2238 Clear 21 1020 15 16093 1.5 30 00:26 21.12.2019
2239 Clear 22 1021 15 16093 1.5 250 23:39 20.12.2019
2240 Clear 22 1020 15 16093 1.5 95 23:21 20.12.2019
2241 Clear 22 1020 15 16093 1.5 95 22:59 20.12.2019
2242 Clear 22 1021 14 16093 1.5 0 22:39 20.12.2019
2243 Clear 22 1021 16 16093 1.5 0 22:19 20.12.2019
2244 Clear 22 1021 13 16093 1.5 0 21:54 20.12.2019
2245 Clear 22 1022 16 16093 1.5 95 21:36 20.12.2019
2246 Clear 22 1022 16 16093 1.5 95 21:18 20.12.2019
2247 Clear 22 1022 16 16093 1.5 95 21:18 20.12.2019
2248 Clear 21 1023 19 16093 1.5 95 20:38 20.12.2019
2249 Clear 20 1023 19 16093 2.6 90 20:19 20.12.2019
2250 Clear 19 1024 17 16093 1.5 0 19:57 20.12.2019
2251 Clear 19 1024 18 16093 2.1 0 19:38 20.12.2019
2252 Clear 18 1024 22 16093 2.1 100 19:19 20.12.2019
2253 Clear 17 1025 19 16093 1.5 0 18:42 20.12.2019
2254 Clear 16 1025 19 16093 1.5 0 18:42 20.12.2019
2255 Clear 16 1024 26 16093 1.33 95 18:23 20.12.2019
2256 Clear 14 1024 26 16093 1.33 95 17:58 20.12.2019
2257 Clear 13 1024 21 16093 1.33 95 17:40 20.12.2019
2258 Clear 11 1023 32 16093 0.83 11 17:21 20.12.2019
2259 Clear 10 1024 30 16093 2.6 360 16:59 20.12.2019
2260 Clear 11 1024 30 16093 2.6 360 16:59 20.12.2019
2261 Clear 9 1023 32 16093 1.5 360 16:38 20.12.2019
2262 Clear 9 1023 32 16093 1.5 360 16:20 20.12.2019
2263 Clear 9 1023 39 16093 3.6 10 15:56 20.12.2019
2264 Clear 9 1023 39 16093 3.6 10 15:38 20.12.2019
2265 Clear 9 1023 37 16093 0.83 11 15:19 20.12.2019
2266 Clear 9 1023 34 16093 2.1 320 14:43 20.12.2019
2267 Clear 9 1023 34 16093 1.02 51 14:25 20.12.2019
2268 Clear 9 1022 34 16093 3.1 360 13:59 20.12.2019
2269 Clear 9 1022 34 16093 3.1 360 13:41 20.12.2019
2270 Clear 9 1022 37 16093 0.84 43 13:20 20.12.2019
2271 Clear 9 1022 32 16093 1.5 280 12:57 20.12.2019
2272 Clear 9 1022 32 16093 1.5 280 12:38 20.12.2019
2273 Clear 9 1022 32 16093 1.5 20 12:19 20.12.2019
2274 Clear 9 1022 42 16093 2.6 310 11:58 20.12.2019
2275 Clear 9 1022 42 16093 2.6 310 11:39 20.12.2019
2276 Clear 9 1022 30 16093 1.5 20 11:19 20.12.2019
2277 Clear 9 1022 34 16093 3.1 360 10:57 20.12.2019
2278 Clear 9 1022 34 16093 3.1 360 10:39 20.12.2019
2279 Clear 9 1022 34 16093 3.1 360 10:39 20.12.2019
2280 Clear 9 1022 20 16093 1.23 66 10:20 20.12.2019
2281 Clear 9 1022 34 16093 2.6 330 09:54 20.12.2019
2282 Clear 9 1022 34 16093 2.6 330 09:36 20.12.2019
2283 Clear 10 1022 50 16093 1.23 66 09:18 20.12.2019
2284 Clear 10 1022 34 16093 3.1 340 08:42 20.12.2019
2285 Clear 10 1022 46 16093 0.87 31 08:22 20.12.2019
2286 Clear 10 1023 37 16093 2.6 330 07:58 20.12.2019
2287 Clear 10 1023 37 16093 2.6 330 07:40 20.12.2019
2288 Clear 10 1022 46 16093 0.87 31 07:19 20.12.2019
2289 Clear 10 1022 37 16093 1.5 320 06:50 20.12.2019
2290 Clear 11 1022 50 16093 0.87 31 06:31 20.12.2019
2291 Clear 11 1022 32 16093 2.1 350 05:52 20.12.2019
2292 Clear 11 1022 32 16093 2.1 350 05:34 20.12.2019
2293 Clear 11 1021 44 16093 1.21 306 04:30 20.12.2019
2294 Clear 13 1020 38 16093 1.21 306 03:30 20.12.2019
2295 Clear 14 1021 35 16093 2.1 350 02:42 20.12.2019
2296 Clear 16 1021 21 16093 1.19 235 01:47 20.12.2019
2297 Clear 16 1019 29 16093 2.6 270 01:29 20.12.2019
2298 Clear 18 1019 21 16093 2.6 260 00:42 20.12.2019
2299 Clear 18 1019 22 16093 0.96 242 00:20 20.12.2019
2300 Clear 18 1019 20 16093 2.1 280 23:43 19.12.2019
2301 Clear 18 1018 22 16093 0.9 244 23:24 19.12.2019
2302 Clear 18 1020 21 16093 0.9 244 22:59 19.12.2019
2303 Clear 18 1019 20 16093 0.9 244 22:36 19.12.2019
2304 Clear 18 1019 20 16093 0.9 244 22:18 19.12.2019
2305 Clear 18 1019 20 16093 0.9 244 22:18 19.12.2019
2306 Clear 17 1019 19 14484 3.1 230 21:55 19.12.2019
2307 Clear 17 1019 23 16093 0.9 244 21:37 19.12.2019
2308 Clear 17 1019 23 16093 0.9 244 21:18 19.12.2019
2309 Clear 16 1019 26 16093 2.6 260 20:55 19.12.2019
2310 Clear 16 1019 26 16093 2.6 260 20:36 19.12.2019
2311 Clear 16 1020 25 16093 1.5 0 20:18 19.12.2019
2312 Clear 15 1020 32 16093 2.6 220 19:54 19.12.2019
2313 Clear 14 1021 26 16093 0.53 122 19:36 19.12.2019
2314 Clear 14 1021 26 16093 0.53 122 19:18 19.12.2019
2315 Clear 13 1020 37 16093 2.6 210 18:41 19.12.2019
2316 Clear 12 1020 32 0 1.5 90 18:22 19.12.2019
2317 Clear 10 1020 34 16093 0.53 122 17:57 19.12.2019
2318 Clear 10 1020 34 16093 0.53 122 17:39 19.12.2019
2319 Clear 8 1019 46 16093 1.5 100 17:19 19.12.2019
2320 Clear 7 1019 33 16093 0.5 38 16:57 19.12.2019
2321 Clear 6 1019 33 16093 0.5 38 16:39 19.12.2019
2322 Clear 6 1019 36 16093 0.5 38 16:21 19.12.2019
2323 Clear 5 1019 36 16093 2.1 340 15:59 19.12.2019
2324 Clear 5 1019 36 16093 2.1 340 15:39 19.12.2019
2325 Clear 5 1019 56 16093 0.5 38 15:20 19.12.2019
2326 Clear 5 1019 56 16093 0.5 38 15:20 19.12.2019
2327 Clear 6 1018 33 16093 1.5 350 14:59 19.12.2019
2328 Clear 5 1018 33 16093 1.5 350 14:41 19.12.2019
2329 Clear 6 1018 49 16093 0.82 57 14:19 19.12.2019
2330 Clear 6 1018 29 16093 3.1 10 13:57 19.12.2019
2331 Clear 6 1018 29 16093 3.1 10 13:37 19.12.2019
2332 Clear 6 1018 49 16093 0.6 68 13:18 19.12.2019
2333 Clear 6 1018 33 16093 0.6 68 12:55 19.12.2019
2334 Clear 6 1018 33 16093 0.6 68 12:55 19.12.2019
2335 Clear 6 1019 45 16093 0.6 68 12:37 19.12.2019
2336 Clear 6 1019 45 16093 0.6 68 12:18 19.12.2019
2337 Clear 6 1018 28 16093 2.1 20 11:57 19.12.2019
2338 Clear 6 1018 28 16093 2.1 20 11:39 19.12.2019
2339 Clear 6 1019 42 16093 0.92 61 11:18 19.12.2019
2340 Clear 6 1018 33 16093 3.1 70 10:55 19.12.2019
2341 Clear 6 1018 45 16093 0.92 61 10:36 19.12.2019
2342 Clear 6 1018 45 16093 0.92 61 10:18 19.12.2019
2343 Clear 6 1018 45 16093 0.92 61 10:18 19.12.2019
2344 Clear 6 1018 45 16093 0.92 61 10:18 19.12.2019
2345 Clear 6 1018 30 16093 0.92 61 09:38 19.12.2019
2346 Clear 6 1018 30 16093 0.92 61 09:38 19.12.2019
2347 Clear 7 1018 40 16093 0.92 61 09:20 19.12.2019
2348 Clear 7 1018 40 16093 0.92 61 09:20 19.12.2019
2349 Clear 7 1018 40 16093 0.92 61 09:20 19.12.2019
2350 Clouds 7 1019 21 16093 3.1 10 08:58 19.12.2019
2351 Clouds 7 1019 21 16093 3.1 10 08:40 19.12.2019
2352 Clear 7 1018 37 16093 1.5 10 08:19 19.12.2019
2353 Clear 7 1018 24 16093 2.6 20 07:57 19.12.2019
2354 Clear 7 1018 24 16093 2.6 20 07:38 19.12.2019
2355 Clear 7 1018 40 16093 0.13 282 07:19 19.12.2019
2356 Clear 8 1018 26 16093 2.1 10 06:49 19.12.2019
2357 Clear 8 1018 62 16093 0.13 282 06:29 19.12.2019
2358 Clear 9 1018 29 16093 2.6 340 05:55 19.12.2019
2359 Clear 9 1017 62 16093 0.13 282 05:34 19.12.2019
2360 Clear 9 1018 39 16093 1.95 259 04:51 19.12.2019
2361 Clear 11 1016 50 16093 1.95 259 03:21 19.12.2019
2362 Clear 12 1016 38 16093 1.5 250 02:22 19.12.2019
2363 Clear 15 1016 23 16093 2.13 246 01:22 19.12.2019
2364 Clouds 16 1016 12 16093 4.6 280 00:43 19.12.2019
2365 Clouds 16 1016 27 16093 2.13 246 00:24 19.12.2019
2366 Clouds 16 1016 14 16093 4.6 260 23:57 18.12.2019
2367 Clouds 16 1016 14 16093 4.6 260 23:38 18.12.2019
2368 Clouds 16 1017 17 16093 2.1 0 23:18 18.12.2019
2369 Clouds 16 1018 11 16093 1.56 196 22:55 18.12.2019
2370 Clouds 16 1016 11 16093 2.1 210 22:37 18.12.2019
2371 Clouds 16 1017 15 16093 3.1 0 22:19 18.12.2019
2372 Clear 16 1016 10 16093 1.56 196 21:56 18.12.2019
2373 Clouds 16 1017 12 16093 1.56 196 21:38 18.12.2019
2374 Clouds 16 1017 12 16093 1.56 196 21:19 18.12.2019
2375 Clear 15 1017 17 16093 3.1 90 20:55 18.12.2019
2376 Clear 15 1017 17 16093 3.1 90 20:37 18.12.2019
2377 Clear 13 1018 17 16093 1.24 108 20:19 18.12.2019
2378 Clear 12 1019 16 16093 2.6 80 19:55 18.12.2019
2379 Clear 12 1019 16 16093 2.6 80 19:37 18.12.2019
2380 Clear 12 1019 19 16093 2.1 90 19:18 18.12.2019
2381 Clear 12 1019 19 16093 2.1 90 19:18 18.12.2019
2382 Clear 11 1019 23 0 1.5 10 18:44 18.12.2019
2383 Clear 10 1019 23 0 1.5 10 18:25 18.12.2019
2384 Clear 10 1019 18 16093 2.6 80 17:57 18.12.2019
2385 Clear 9 1019 18 16093 2.6 80 17:39 18.12.2019
2386 Clear 8 1019 25 0 2.1 10 17:20 18.12.2019
2387 Clear 8 1019 25 0 2.1 10 17:20 18.12.2019
2388 Clear 7 1018 16 16093 2.1 80 16:57 18.12.2019
2389 Clear 7 1018 16 16093 2.1 80 16:39 18.12.2019
2390 Clear 6 1018 29 16093 2.1 10 16:20 18.12.2019
2391 Clear 6 1019 48 16093 0.75 50 15:56 18.12.2019
2392 Clear 6 1018 19 16093 3.1 70 15:37 18.12.2019
2393 Clear 6 1018 31 16093 0.75 50 15:19 18.12.2019
2394 Clear 6 1018 15 16093 3.1 70 14:43 18.12.2019
2395 Clear 6 1018 33 14484 2.15 75 14:22 18.12.2019
2396 Clear 6 1018 44 16093 1.5 260 13:58 18.12.2019
2397 Clear 6 1018 14 16093 2.6 50 13:39 18.12.2019
2398 Clear 6 1018 27 16093 2.1 20 13:21 18.12.2019
2399 Clear 6 1018 27 16093 2.1 20 12:59 18.12.2019
2400 Clear 6 1018 17 16093 2.6 40 12:40 18.12.2019
2401 Clear 6 1019 27 16093 1.5 30 12:21 18.12.2019
2402 Clouds 7 1019 20 16093 3.1 50 11:57 18.12.2019
2403 Clear 7 1019 13 16093 2.6 60 11:39 18.12.2019
2404 Clear 7 1019 27 16093 1.28 64 11:20 18.12.2019
2405 Clouds 7 1019 18 16093 1.5 30 10:57 18.12.2019
2406 Clear 8 1019 13 16093 3.1 70 10:39 18.12.2019
2407 Clear 8 1020 25 16093 1.28 64 10:20 18.12.2019
2408 Clear 8 1020 25 16093 1.28 64 10:20 18.12.2019
2409 Clear 9 1019 12 16093 1.5 70 09:57 18.12.2019
2410 Clear 9 1019 13 16093 1.28 64 09:20 18.12.2019
2411 Clear 10 1020 5 16093 6.2 90 08:43 18.12.2019
2412 Clear 10 1020 14 16093 0.58 354 08:24 18.12.2019
2413 Clear 10 1020 14 16093 2.49 81 07:57 18.12.2019
2414 Clear 10 1021 8 16093 5.1 70 07:39 18.12.2019
2415 Clear 11 1020 17 16093 2.49 81 07:20 18.12.2019
2416 Clear 11 1020 18 16093 3.6 60 06:52 18.12.2019
2417 Clear 12 1020 13 16093 2.1 0 06:24 18.12.2019
2418 Clear 13 1021 21 16093 4.1 90 05:35 18.12.2019
2419 Clear 13 1020 12 16093 1.59 85 05:35 18.12.2019
2420 Clear 13 1020 11 16093 1.5 60 04:31 18.12.2019
2421 Clear 14 1021 24 16093 1.59 85 02:47 18.12.2019
2422 Clear 15 1020 11 16093 2.6 0 02:28 18.12.2019
2423 Clear 16 1022 15 16093 2.6 340 01:45 18.12.2019
2424 Clear 16 1021 9 16093 2.1 0 01:27 18.12.2019
2425 Clear 17 1021 10 16093 4.6 70 00:55 18.12.2019
2426 Clear 17 1021 8 16093 2.04 109 00:37 18.12.2019
2427 Clear 18 1021 8 16093 1.5 0 00:19 18.12.2019
2428 Clear 18 1021 10 16093 2.6 0 23:43 17.12.2019
2429 Clear 18 1021 9 16093 2.1 50 23:24 17.12.2019
2430 Clouds 18 1021 11 16093 3.1 60 22:57 17.12.2019
2431 Clear 18 1022 9 16093 2.23 115 22:39 17.12.2019
2432 Clear 17 1022 11 16093 1.5 0 22:20 17.12.2019
2433 Clear 17 1022 11 16093 2.23 115 21:57 17.12.2019
2434 Clear 18 1022 9 16093 2.23 115 21:39 17.12.2019
2435 Clear 17 1023 11 16093 2.6 0 21:20 17.12.2019
2436 Clear 17 1024 13 16093 2.1 0 20:59 17.12.2019
2437 Clear 16 1024 10 16093 2.1 0 20:40 17.12.2019
2438 Clear 16 1024 16 16093 2.45 97 20:19 17.12.2019
2439 Clear 15 1024 16 16093 2.45 97 19:59 17.12.2019
2440 Clear 15 1024 11 16093 2.6 0 19:41 17.12.2019
2441 Clear 14 1025 19 16093 2.1 40 19:20 17.12.2019
2442 Clouds 14 1025 14 16093 4.6 70 18:58 17.12.2019
2443 Clear 14 1025 16 16093 4.1 270 18:39 17.12.2019
2444 Clear 13 1025 24 0 2.45 97 18:21 17.12.2019
2445 Clouds 13 1025 18 16093 4.6 40 17:56 17.12.2019
2446 Clear 12 1025 39 16093 2.45 97 17:38 17.12.2019
2447 Clear 11 1025 39 16093 1.43 42 17:18 17.12.2019
2448 Clear 10 1025 13 16093 7.2 70 16:56 17.12.2019
2449 Clear 9 1024 24 16093 1.5 300 16:37 17.12.2019
2450 Clear 9 1024 24 16093 1.5 300 16:37 17.12.2019
2451 Clear 9 1025 48 16093 1.43 42 16:18 17.12.2019
2452 Clear 9 1025 44 16093 1.43 42 15:54 17.12.2019
2453 Clear 9 1024 22 16093 2.6 340 15:36 17.12.2019
2454 Clear 9 1025 48 16093 1.43 42 15:18 17.12.2019
2455 Clear 9 1024 28 16093 2.1 330 14:54 17.12.2019
2456 Clear 9 1024 48 16093 1.43 42 14:36 17.12.2019
2457 Clear 10 1024 48 16093 1.83 33 14:18 17.12.2019
2458 Clear 9 1024 33 16093 2.1 60 13:54 17.12.2019
2459 Clear 10 1024 24 16093 2.6 340 13:36 17.12.2019
2460 Clear 10 1024 39 16093 1.15 44 13:18 17.12.2019
2461 Clear 10 1024 20 16093 2.6 360 12:40 17.12.2019
2462 Clear 10 1025 42 16093 1.15 44 12:19 17.12.2019
2463 Clouds 10 1025 29 16093 3.1 40 11:59 17.12.2019
2464 Clear 10 1025 42 16093 1.15 44 11:37 17.12.2019
2465 Clear 10 1025 42 16093 1.15 44 11:37 17.12.2019
2466 Clear 10 1025 42 16093 2.41 39 11:19 17.12.2019
2467 Clouds 10 1025 31 16093 1.5 30 10:59 17.12.2019
2468 Clear 11 1025 42 16093 2.41 39 10:40 17.12.2019
2469 Clear 11 1025 42 16093 2.41 39 10:21 17.12.2019
2470 Clear 11 1025 42 16093 2.41 39 09:59 17.12.2019
2471 Clear 11 1024 20 16093 3.1 310 09:41 17.12.2019
2472 Clear 11 1025 42 16093 2.41 39 09:20 17.12.2019
2473 Clear 11 1025 15 16093 4.1 80 08:56 17.12.2019
2474 Clear 11 1025 24 16093 2.6 320 08:38 17.12.2019
2475 Clear 11 1025 31 16093 2.13 31 08:19 17.12.2019
2476 Clear 12 1025 26 16093 2.13 31 07:46 17.12.2019
2477 Clear 12 1025 25 16093 2.13 31 07:26 17.12.2019
2478 Clouds 12 1025 16 16093 2.1 210 06:56 17.12.2019
2479 Clear 12 1024 22 16093 2.13 31 06:35 17.12.2019
2480 Clouds 13 1024 11 16093 2.13 31 05:53 17.12.2019
2481 Clear 13 1024 19 16093 2.13 31 05:35 17.12.2019
2482 Clear 14 1023 18 16093 1.5 270 04:30 17.12.2019
2483 Clear 15 1022 22 16093 3.71 48 02:34 17.12.2019
2484 Clear 16 1023 7 16093 2.1 30 01:55 17.12.2019
2485 Clear 17 1022 12 16093 2.6 80 00:59 17.12.2019
2486 Clear 18 1023 17 16093 1.5 260 00:38 17.12.2019
2487 Clear 18 1022 18 16093 1.1 81 00:19 17.12.2019
2488 Clear 18 1022 18 16093 2.6 270 23:42 16.12.2019
2489 Clear 18 1022 19 16093 1.5 0 23:19 16.12.2019
2490 Clear 18 1022 19 16093 1.5 0 23:19 16.12.2019
2491 Clear 18 1022 19 16093 1.5 0 23:19 16.12.2019
2492 Clear 18 1022 19 16093 1.5 0 23:19 16.12.2019
2493 Clouds 18 1022 20 16093 4.1 240 22:58 16.12.2019
2494 Clear 18 1022 18 16093 4.1 240 22:37 16.12.2019
2495 Clear 18 1022 17 16093 1.41 323 22:19 16.12.2019
2496 Clear 18 1022 17 16093 1.41 323 22:19 16.12.2019
2497 Clear 18 1022 17 16093 1.41 323 22:19 16.12.2019
2498 Clear 18 1022 17 16093 1.5 210 21:55 16.12.2019
2499 Haze 18 1023 18 2816 1.41 323 21:37 16.12.2019
2500 Haze 18 1023 18 2816 1.41 323 21:19 16.12.2019
2501 Clear 17 1023 23 16093 1.41 323 20:57 16.12.2019
2502 Clear 17 1023 21 16093 1.5 0 20:38 16.12.2019
2503 Clear 17 1024 23 16093 1.6 307 20:38 16.12.2019
2504 Clear 16 1024 23 16093 1.44 80 20:19 16.12.2019
2505 Clear 16 1024 16 16093 6.7 70 19:56 16.12.2019
2506 Clear 16 1024 29 16093 1.44 80 19:37 16.12.2019
2507 Clear 15 1024 29 16093 1.44 80 19:19 16.12.2019
2508 Clear 15 1024 26 16093 1.44 80 18:56 16.12.2019
2509 Clear 15 1024 30 16093 1.5 320 18:38 16.12.2019
2510 Clear 14 1024 33 16093 1.5 100 18:19 16.12.2019
2511 Clouds 12 1024 30 16093 1.44 80 17:57 16.12.2019
2512 Clear 12 1024 34 16093 2.1 230 17:38 16.12.2019
2513 Clear 11 1024 40 14484 1.5 0 17:20 16.12.2019
2514 Clear 11 1024 40 14484 1.5 0 17:20 16.12.2019
2515 Clouds 9 1024 35 16093 2.6 30 16:57 16.12.2019
2516 Clear 9 1023 36 16093 2.1 350 16:38 16.12.2019
2517 Clear 8 1023 43 16093 1.48 22 16:19 16.12.2019
2518 Clear 8 1022 60 16093 1.48 22 15:58 16.12.2019
2519 Clear 8 1022 31 16093 1.48 22 15:38 16.12.2019
2520 Clear 8 1022 39 16093 2.1 10 15:20 16.12.2019
2521 Clear 8 1022 60 16093 1.5 20 14:55 16.12.2019
2522 Clear 8 1022 26 16093 3.1 20 14:37 16.12.2019
2523 Clear 8 1021 37 16093 1.5 20 14:19 16.12.2019
2524 Clear 8 1021 20 16093 1.01 44 13:56 16.12.2019
2525 Clear 8 1021 20 16093 1.01 44 13:56 16.12.2019
2526 Clear 8 1021 20 16093 1.01 44 13:56 16.12.2019
2527 Clear 8 1021 45 16093 2.6 340 13:37 16.12.2019
2528 Clear 8 1021 45 16093 2.6 340 13:37 16.12.2019
2529 Clear 8 1021 43 16093 1.5 0 13:19 16.12.2019
2530 Clear 8 1021 34 16093 2.6 20 12:57 16.12.2019
2531 Clear 8 1021 34 16093 2.6 20 12:39 16.12.2019
2532 Clear 8 1021 40 16093 1 54 12:19 16.12.2019
2533 Clouds 8 1021 43 16093 2.6 70 11:58 16.12.2019
2534 Clear 8 1021 49 16093 2.1 350 11:40 16.12.2019
2535 Clear 7 1021 40 16093 1.5 30 11:20 16.12.2019
2536 Clouds 7 1021 43 16093 1.5 80 10:56 16.12.2019
2537 Clear 8 1021 49 16093 2.1 320 10:38 16.12.2019
2538 Clear 8 1020 37 16093 1.5 30 10:19 16.12.2019
2539 Clear 8 1020 49 16093 1.5 310 09:45 16.12.2019
2540 Clear 8 1020 37 16093 1.5 30 09:27 16.12.2019
2541 Clear 8 1020 49 16093 0.77 55 08:55 16.12.2019
2542 Clear 9 1020 61 16093 1.5 310 08:37 16.12.2019
2543 Clear 9 1020 40 16093 1.35 359 08:18 16.12.2019
2544 Clear 9 1020 25 16093 2.6 310 07:42 16.12.2019
2545 Clear 9 1020 35 16093 1.5 20 07:21 16.12.2019
2546 Clear 10 1019 57 16093 1.35 359 06:45 16.12.2019
2547 Clear 10 1019 35 16093 1.35 359 06:22 16.12.2019
2548 Clear 11 1019 50 16093 2.6 360 05:49 16.12.2019
2549 Clear 11 1018 37 16093 1.35 359 05:30 16.12.2019
2550 Clear 11 1018 33 16093 1.5 0 04:21 16.12.2019
2551 Clear 13 1018 33 16093 1.4 207 01:59 16.12.2019
2552 Clear 14 1017 21 16093 1.4 207 01:40 16.12.2019
2553 Clear 16 1017 21 16093 4.1 320 00:42 16.12.2019
2554 Clear 16 1017 21 16093 4.1 320 00:24 16.12.2019
2555 Clouds 16 1017 23 16093 7.7 320 23:58 15.12.2019
2556 Clear 16 1016 41 16093 1.5 280 23:38 15.12.2019
2557 Clouds 16 1016 25 16093 7.7 320 23:20 15.12.2019
2558 Clouds 16 1016 25 16093 7.7 320 22:56 15.12.2019
2559 Clouds 16 1016 54 16093 2.03 206 22:37 15.12.2019
2560 Clear 16 1017 27 16093 3.1 0 22:18 15.12.2019
2561 Clear 16 1017 27 16093 3.1 0 22:18 15.12.2019
2562 Clear 16 1016 58 16093 3.6 280 21:56 15.12.2019
2563 Clear 16 1016 58 16093 3.6 280 21:37 15.12.2019
2564 Clear 16 1017 27 16093 4.6 310 21:19 15.12.2019
2565 Clear 15 1017 33 16093 8.7 320 20:56 15.12.2019
2566 Clouds 15 1017 62 16093 2.03 206 20:37 15.12.2019
2567 Clear 15 1018 32 16093 3.1 0 20:18 15.12.2019
2568 Clear 14 1018 33 16093 6.7 320 19:57 15.12.2019
2569 Clear 14 1018 33 16093 6.7 320 19:57 15.12.2019
2570 Clouds 14 1017 71 16093 0.94 26 19:38 15.12.2019
2571 Clear 14 1018 36 16093 1.5 0 19:18 15.12.2019
2572 Clear 13 1018 32 16093 8.7 320 18:56 15.12.2019
2573 Clear 13 1018 32 16093 8.7 320 18:56 15.12.2019
2574 Clouds 13 1017 87 12874 0.94 26 18:38 15.12.2019
2575 Clear 13 1017 41 16093 1.5 0 18:18 15.12.2019
2576 Clear 13 1017 41 16093 1.5 0 18:18 15.12.2019
2577 Clouds 12 1018 37 16093 4.6 340 17:56 15.12.2019
2578 Clouds 12 1016 81 16093 1.5 0 17:37 15.12.2019
2579 Clear 11 1016 41 16093 3.1 0 17:18 15.12.2019
2580 Clouds 10 1017 35 16093 5.7 330 16:55 15.12.2019
2581 Clouds 10 1017 35 16093 5.7 330 16:55 15.12.2019
2582 Clear 10 1016 76 16093 2.1 50 16:37 15.12.2019
2583 Clear 9 1016 37 16093 3.35 328 16:19 15.12.2019
2584 Clear 9 1016 40 16093 5.1 300 15:54 15.12.2019
2585 Clear 9 1015 40 16093 2.57 329 15:36 15.12.2019
2586 Clear 9 1015 40 16093 2.57 329 15:18 15.12.2019
2587 Clouds 9 1014 100 16093 2.6 90 14:55 15.12.2019
2588 Clouds 9 1014 100 16093 2.6 90 14:36 15.12.2019
2589 Clear 9 1014 41 16093 1.25 342 14:18 15.12.2019
2590 Clear 9 1014 40 16093 10.8 350 13:55 15.12.2019
2591 Clouds 9 1014 100 16093 3.6 260 13:36 15.12.2019
2592 Clear 9 1014 44 16093 0.66 295 13:18 15.12.2019
2593 Clear 9 1014 44 16093 0.66 295 13:18 15.12.2019
2594 Clouds 10 1014 41 16093 3.1 330 12:55 15.12.2019
2595 Clouds 10 1014 93 16093 1.5 320 12:37 15.12.2019
2596 Clouds 10 1014 93 16093 1.5 320 12:37 15.12.2019
2597 Clear 10 1014 41 16093 1.5 0 12:19 15.12.2019
2598 Clear 10 1014 100 16093 4.6 240 11:38 15.12.2019
2599 Clear 10 1014 54 16093 0.77 217 11:19 15.12.2019
2600 Clouds 10 1014 41 16093 3.1 350 10:58 15.12.2019
2601 Clouds 11 1014 100 16093 3.1 260 10:40 15.12.2019
2602 Clear 11 1014 50 16093 0.77 217 10:19 15.12.2019
2603 Clear 11 1014 40 16093 3.1 350 09:59 15.12.2019
2604 Clouds 11 1013 81 16093 0.77 217 09:38 15.12.2019
2605 Clear 11 1014 71 16093 0.77 217 09:20 15.12.2019
2606 Clouds 12 1014 87 11265 0.77 217 08:55 15.12.2019
2607 Clouds 12 1014 100 14484 3.1 280 08:37 15.12.2019
2608 Clear 11 1014 76 16093 2.01 135 08:19 15.12.2019
2609 Clear 11 1014 81 12874 2.01 135 07:53 15.12.2019
2610 Clear 12 1013 72 16093 2.01 135 07:31 15.12.2019
2611 Clear 12 1013 72 16093 2.01 135 06:30 15.12.2019
2612 Clouds 13 1013 100 12874 2.6 230 05:49 15.12.2019
2613 Clear 13 1012 77 16093 2.61 203 05:22 15.12.2019
2614 Clouds 13 1012 72 16093 2.61 203 04:24 15.12.2019
2615 Clear 14 1012 72 16093 2.61 203 02:59 15.12.2019
2616 Clouds 14 1012 72 16093 2.61 203 02:32 15.12.2019
2617 Rain 15 1013 100 8047 1.5 280 01:42 15.12.2019
2618 Rain 15 1012 68 16093 2.1 260 01:19 15.12.2019
2619 Rain 16 1012 63 16093 2.46 192 00:51 15.12.2019
2620 Rain 16 1013 63 14484 1.5 250 00:33 15.12.2019
2621 Rain 16 1013 68 16093 5.7 250 23:56 14.12.2019
2622 Rain 16 1013 60 14484 1.5 250 23:38 14.12.2019
2623 Rain 17 1013 60 14484 2.1 0 23:18 14.12.2019
2624 Clouds 17 1013 68 14484 5.1 240 22:56 14.12.2019
2625 Clouds 16 1013 63 12874 3.6 140 22:37 14.12.2019
2626 Haze 16 1013 59 9656 2.58 202 22:19 14.12.2019
2627 Clouds 17 1014 68 16093 2.6 210 21:55 14.12.2019
2628 Haze 17 1014 68 9656 2.58 202 21:37 14.12.2019
2629 Haze 16 1014 68 9656 2.58 202 21:18 14.12.2019
2630 Rain 16 1015 100 1207 1.5 0 20:42 14.12.2019
2631 Rain 15 1015 72 6437 1.31 196 20:21 14.12.2019
2632 Haze 15 1015 72 6437 1.31 196 19:59 14.12.2019
2633 Haze 15 1016 72 4828 1.31 196 19:40 14.12.2019
2634 Haze 15 1016 72 4828 1.31 196 19:21 14.12.2019
2635 Haze 15 1016 72 4828 1.31 196 19:21 14.12.2019
2636 Haze 14 1016 82 8047 1.31 196 18:57 14.12.2019
2637 Haze 14 1016 82 4828 1.31 196 18:39 14.12.2019
2638 Haze 14 1016 82 4023 1.31 196 18:21 14.12.2019
2639 Rain 14 1016 82 4023 2.6 90 17:59 14.12.2019
2640 Rain 14 1016 87 3219 1.5 110 17:41 14.12.2019
2641 Rain 13 1016 82 3219 1.5 110 17:22 14.12.2019
2642 Haze 13 1016 82 2816 1.19 157 16:41 14.12.2019
2643 Rain 13 1016 82 2816 1.19 157 16:19 14.12.2019
2644 Mist 13 1016 93 2816 1.19 157 15:57 14.12.2019
2645 Rain 13 1016 87 4828 2.1 30 15:38 14.12.2019
2646 Rain 13 1015 87 4828 2.1 90 15:19 14.12.2019
2647 Rain 13 1015 93 3219 1.5 160 14:57 14.12.2019
2648 Haze 13 1015 77 4828 1.19 157 14:38 14.12.2019
2649 Haze 13 1015 82 4828 0.7 184 14:18 14.12.2019
2650 Haze 13 1015 77 4828 0.7 184 13:44 14.12.2019
2651 Haze 13 1015 77 4828 0.56 238 13:20 14.12.2019
2652 Mist 13 1015 87 9656 0.56 238 12:58 14.12.2019
2653 Mist 13 1015 87 4828 2.1 90 12:40 14.12.2019
2654 Haze 13 1016 82 4828 0.56 238 12:40 14.12.2019
2655 Haze 13 1016 82 4828 0.56 238 12:20 14.12.2019
2656 Mist 13 1016 87 6437 1.5 90 11:58 14.12.2019
2657 Mist 13 1016 87 4828 0.56 238 11:58 14.12.2019
2658 Mist 13 1016 87 4828 0.56 238 11:39 14.12.2019
2659 Haze 13 1016 82 4828 0.85 204 11:19 14.12.2019
2660 Haze 13 1016 82 4828 0.85 204 11:19 14.12.2019
2661 Mist 13 1016 87 8047 1.5 130 10:57 14.12.2019
2662 Mist 13 1016 93 1609 0.85 204 10:39 14.12.2019
2663 Haze 13 1016 82 4023 0.85 204 10:20 14.12.2019
2664 Fog 13 1016 100 805 2.1 170 09:55 14.12.2019
2665 Mist 13 1016 93 1207 1.5 150 09:37 14.12.2019
2666 Mist 13 1016 93 1609 0.85 204 09:18 14.12.2019
2667 Haze 13 1017 82 4023 1.5 100 08:42 14.12.2019
2668 Haze 13 1017 82 4023 1.5 100 08:42 14.12.2019
2669 Haze 13 1017 77 8047 1.06 199 08:19 14.12.2019
2670 Haze 13 1017 77 8047 1.06 199 07:44 14.12.2019
2671 Haze 13 1017 82 6437 1.06 199 07:23 14.12.2019
2672 Clouds 13 1017 82 11265 1.06 199 06:56 14.12.2019
2673 Clouds 13 1017 76 11265 1.06 199 06:37 14.12.2019
2674 Clouds 14 1017 82 11265 1.06 199 05:57 14.12.2019
2675 Mist 14 1017 82 6437 2.1 120 04:47 14.12.2019
2676 Haze 16 1017 77 4828 1.5 270 02:31 14.12.2019
2677 Haze 16 1017 72 8047 2.1 160 01:56 14.12.2019
2678 Haze 17 1018 63 8047 3.1 270 01:37 14.12.2019
2679 Haze 18 1018 49 9656 4.1 260 00:47 14.12.2019
2680 Haze 19 1018 77 8047 2.6 290 00:27 14.12.2019
2681 Haze 19 1018 77 9656 4.6 270 23:56 13.12.2019
2682 Haze 20 1018 56 8047 2.6 270 23:37 13.12.2019
2683 Haze 20 1018 56 8047 2.6 270 23:18 13.12.2019
2684 Clear 20 1018 43 11265 4.6 260 22:40 13.12.2019
2685 Haze 20 1018 60 6437 1.74 232 22:19 13.12.2019
2686 Haze 20 1019 72 4828 1.5 200 21:56 13.12.2019
2687 Haze 20 1019 56 8047 1.5 260 21:38 13.12.2019
2688 Haze 20 1019 56 8047 1.5 260 21:20 13.12.2019
2689 Haze 19 1020 77 4828 2.6 220 20:43 13.12.2019
2690 Mist 18 1020 82 4828 1.5 190 20:24 13.12.2019
2691 Clear 18 1021 42 12874 0.1 223 19:59 13.12.2019
2692 Clear 17 1021 42 12874 0.1 223 19:41 13.12.2019
2693 Haze 17 1021 63 8047 0.1 223 19:23 13.12.2019
2694 Fog 16 1021 93 402 0.1 223 18:59 13.12.2019
2695 Fog 16 1021 93 402 0.1 223 18:41 13.12.2019
2696 Haze 16 1021 67 9656 0.1 223 18:19 13.12.2019
2697 Clear 15 1022 66 16093 2.6 0 17:57 13.12.2019
2698 Clear 14 1021 55 16093 0.1 223 17:39 13.12.2019
2699 Haze 13 1021 76 8047 0.53 209 17:18 13.12.2019
2700 Clear 12 1021 81 16093 0.53 209 16:54 13.12.2019
2701 Mist 11 1021 93 4828 0.53 209 16:36 13.12.2019
2702 Haze 11 1021 81 9656 0.53 209 16:18 13.12.2019
2703 Haze 11 1020 81 8047 0.53 209 15:40 13.12.2019
2704 Haze 11 1020 81 8047 0.53 209 15:20 13.12.2019
2705 Mist 11 1021 93 6437 1.5 110 14:56 13.12.2019
2706 Mist 11 1021 93 4828 0.53 209 14:36 13.12.2019
2707 Mist 11 1021 93 4828 0.43 264 14:18 13.12.2019
2708 Mist 11 1021 93 4828 1.5 60 13:43 13.12.2019
2709 Mist 11 1021 93 3219 0.43 264 13:23 13.12.2019
2710 Fog 11 1021 93 805 1.5 80 12:54 13.12.2019
2711 Clear 11 1021 62 16093 0.49 279 12:36 13.12.2019
2712 Mist 11 1021 93 2414 1.5 90 12:18 13.12.2019
2713 Mist 11 1021 93 2414 1.5 90 12:18 13.12.2019
2714 Mist 12 1021 87 4023 2.1 90 11:42 13.12.2019
2715 Mist 12 1021 93 4828 0.64 167 11:24 13.12.2019
2716 Mist 12 1022 93 8047 0.64 167 10:56 13.12.2019
2717 Mist 12 1022 93 8047 0.64 167 10:38 13.12.2019
2718 Haze 12 1021 82 8047 0.64 167 10:19 13.12.2019
2719 Clear 13 1021 54 16093 2.6 50 09:42 13.12.2019
2720 Mist 13 1021 87 9656 0.64 167 09:21 13.12.2019
2721 Clear 13 1022 58 16093 2.1 40 08:45 13.12.2019
2722 Clear 13 1022 58 16093 2.1 40 08:45 13.12.2019
2723 Clear 13 1021 71 16093 0.64 167 08:26 13.12.2019
2724 Clear 13 1022 54 16093 2.6 60 07:50 13.12.2019
2725 Clear 13 1022 77 11265 2.1 100 07:26 13.12.2019
2726 Clear 13 1022 77 11265 0.22 353 06:57 13.12.2019
2727 Clear 13 1021 72 11265 0.22 353 06:32 13.12.2019
2728 Haze 14 1022 55 6437 1.5 40 05:52 13.12.2019
2729 Haze 14 1022 55 6437 1.5 40 05:33 13.12.2019
2730 Clear 14 1022 55 16093 1.5 360 04:54 13.12.2019
2731 Clear 15 1022 51 12874 1.5 320 03:52 13.12.2019
2732 Clear 16 1021 51 14484 1.5 330 02:35 13.12.2019
2733 Clear 18 1021 40 14484 1.5 250 01:54 13.12.2019
2734 Clear 19 1020 56 16093 1.56 211 01:27 13.12.2019
2735 Clear 20 1021 35 12874 2.1 220 00:47 13.12.2019
2736 Clear 20 1020 46 14484 1.56 211 00:26 13.12.2019
2737 Clear 21 1021 32 12874 1.56 211 23:42 12.12.2019
2738 Clear 21 1021 35 12874 1.56 211 23:24 12.12.2019
2739 Clear 21 1022 37 16093 1.41 204 22:56 12.12.2019
2740 Clear 21 1022 34 12874 1.41 204 22:38 12.12.2019
2741 Clear 21 1022 34 12874 1.41 204 22:38 12.12.2019
2742 Clear 20 1021 37 14484 1.41 204 22:20 12.12.2019
2743 Clear 21 1022 37 14484 1.41 204 21:56 12.12.2019
2744 Clear 20 1022 37 14484 1.41 204 21:37 12.12.2019
2745 Clear 20 1022 37 14484 1.41 204 21:19 12.12.2019
2746 Clear 20 1023 36 14484 2.1 0 20:59 12.12.2019
2747 Clear 19 1023 36 14484 2.1 0 20:40 12.12.2019
2748 Clear 19 1023 42 14484 0.66 104 20:21 12.12.2019
2749 Clear 18 1024 39 16093 2.1 190 19:56 12.12.2019
2750 Clear 18 1024 39 16093 2.1 190 19:37 12.12.2019
2751 Clear 17 1024 55 12874 1.5 90 19:18 12.12.2019
2752 Clear 16 1024 48 16093 2.6 130 18:56 12.12.2019
2753 Clear 16 1024 48 16093 2.6 130 18:37 12.12.2019
2754 Clear 16 1024 48 16093 2.6 130 18:37 12.12.2019
2755 Clear 15 1024 51 16093 0.66 104 18:19 12.12.2019
2756 Clear 14 1024 47 16093 0.66 104 17:56 12.12.2019
2757 Clear 13 1024 47 16093 0.66 104 17:38 12.12.2019
2758 Clear 12 1023 76 16093 0.42 138 17:19 12.12.2019
2759 Clear 11 1024 76 16093 0.42 138 16:55 12.12.2019
2760 Clear 10 1023 58 16093 0.42 138 16:36 12.12.2019
2761 Clear 10 1023 76 16093 0.42 138 16:18 12.12.2019
2762 Clear 10 1023 62 16093 2.6 60 15:54 12.12.2019
2763 Clear 10 1022 81 16093 0.42 138 15:36 12.12.2019
2764 Clear 10 1022 81 16093 0.42 138 15:18 12.12.2019
2765 Clear 10 1023 62 16093 0.42 138 14:38 12.12.2019
2766 Clear 10 1022 81 16093 0.86 125 14:19 12.12.2019
2767 Clear 10 1022 62 16093 2.1 20 13:57 12.12.2019
2768 Clear 10 1022 62 16093 2.1 20 13:38 12.12.2019
2769 Clear 10 1022 76 16093 0.05 246 13:20 12.12.2019
2770 Clear 10 1022 62 16093 0.05 246 12:57 12.12.2019
2771 Clear 11 1022 76 16093 0.05 246 12:38 12.12.2019
2772 Clear 11 1022 62 16093 0.05 246 12:38 12.12.2019
2773 Clear 11 1022 76 16093 0.05 246 12:19 12.12.2019
2774 Clear 11 1022 76 16093 0.05 246 12:19 12.12.2019
2775 Clear 11 1022 58 16093 0.05 246 11:55 12.12.2019
2776 Clear 11 1022 76 16093 0.05 246 11:37 12.12.2019
2777 Clear 11 1022 76 16093 0.31 99 11:19 12.12.2019
2778 Clear 11 1022 58 16093 0.31 99 10:42 12.12.2019
2779 Clear 11 1022 71 16093 0.31 99 10:24 12.12.2019
2780 Clear 11 1022 58 16093 0.31 99 09:59 12.12.2019
2781 Clear 11 1022 58 16093 0.31 99 09:41 12.12.2019
2782 Clear 11 1022 71 16093 0.31 99 09:23 12.12.2019
2783 Clear 11 1022 54 16093 2.1 10 08:56 12.12.2019
2784 Clear 12 1022 54 16093 2.1 10 08:38 12.12.2019
2785 Clear 12 1022 82 16093 0.79 114 08:20 12.12.2019
2786 Clear 12 1023 58 16093 0.79 114 07:43 12.12.2019
2787 Clouds 12 1022 82 16093 2.6 100 07:24 12.12.2019
2788 Clear 12 1022 50 16093 1.5 30 06:50 12.12.2019
2789 Clear 12 1022 77 16093 2.1 100 06:32 12.12.2019
2790 Clear 12 1022 58 16093 2.1 10 05:39 12.12.2019
2791 Clear 13 1022 58 16093 1.06 227 04:52 12.12.2019
2792 Clear 14 1021 67 16093 1.06 227 03:31 12.12.2019
2793 Clear 15 1021 54 16093 2.1 330 02:38 12.12.2019
2794 Clear 15 1021 67 16093 1.5 280 02:20 12.12.2019
2795 Clear 17 1021 41 16093 1.5 270 01:40 12.12.2019
2796 Clear 17 1021 55 16093 1.5 250 01:22 12.12.2019
2797 Clear 18 1021 39 16093 2.1 240 00:46 12.12.2019
2798 Clear 18 1020 45 16093 2.1 260 00:20 12.12.2019
2799 Clear 18 1021 39 16093 2.81 243 23:44 11.12.2019
2800 Clear 19 1020 45 16093 2.01 235 23:21 11.12.2019
2801 Clear 19 1021 36 16093 2.6 260 22:57 11.12.2019
2802 Clear 18 1021 45 16093 1.5 0 22:39 11.12.2019
2803 Clear 18 1022 52 16093 2.6 290 22:20 11.12.2019
2804 Clear 18 1022 39 16093 2.6 250 21:57 11.12.2019
2805 Clear 18 1022 36 16093 3.1 250 21:38 11.12.2019
2806 Clear 18 1022 52 16093 2.1 290 21:20 11.12.2019
2807 Clear 18 1022 41 16093 2.6 190 20:56 11.12.2019
2808 Clear 18 1023 45 16093 2.01 235 20:37 11.12.2019
2809 Clear 17 1023 45 16093 0.52 183 20:19 11.12.2019
2810 Clear 17 1023 38 16093 0.52 183 19:58 11.12.2019
2811 Clear 16 1023 45 16093 0.52 183 19:39 11.12.2019
2812 Clear 16 1023 45 16093 0.52 183 19:19 11.12.2019
2813 Clear 15 1023 44 16093 2.1 120 18:42 11.12.2019
2814 Clear 14 1023 62 16093 0.52 183 18:22 11.12.2019
2815 Clear 12 1023 43 16093 0.52 183 17:57 11.12.2019
2816 Clear 11 1023 43 16093 0.52 183 17:39 11.12.2019
2817 Clear 10 1023 66 16093 0.32 270 17:19 11.12.2019
2818 Clear 9 1022 53 16093 2.1 80 16:58 11.12.2019
2819 Clear 9 1022 53 16093 2.1 80 16:40 11.12.2019
2820 Clear 8 1022 71 16093 0.32 270 16:22 11.12.2019
2821 Clear 8 1022 52 16093 0.32 270 15:59 11.12.2019
2822 Clear 8 1022 52 16093 0.32 270 15:41 11.12.2019
2823 Clear 8 1022 71 16093 0.32 270 15:23 11.12.2019
2824 Clear 8 1022 49 16093 0.32 270 14:57 11.12.2019
2825 Clear 8 1022 71 16093 0.32 270 14:39 11.12.2019
2826 Clear 8 1022 71 16093 0.21 313 14:20 11.12.2019
2827 Clear 8 1022 43 16093 2.6 360 13:56 11.12.2019
2828 Clear 8 1022 43 16093 2.6 360 13:38 11.12.2019
2829 Clear 8 1022 76 16093 0.14 227 13:19 11.12.2019
2830 Clear 9 1022 37 16093 2.1 10 12:56 11.12.2019
2831 Clear 8 1022 37 16093 2.1 10 12:38 11.12.2019
2832 Mist 9 1022 93 6437 0.14 227 12:19 11.12.2019
2833 Mist 9 1022 93 6437 0.14 227 12:19 11.12.2019
2834 Fog 9 1022 100 402 0.14 227 11:57 11.12.2019
2835 Clear 9 1022 43 16093 3.1 10 11:38 11.12.2019
2836 Clear 9 1022 43 16093 3.1 10 11:38 11.12.2019
2837 Mist 9 1022 93 1207 0.55 296 11:18 11.12.2019
2838 Mist 9 1022 93 1207 0.55 296 11:18 11.12.2019
2839 Mist 9 1022 93 1207 0.55 296 10:55 11.12.2019
2840 Mist 9 1022 81 2816 0.55 296 10:37 11.12.2019
2841 Mist 9 1022 81 2816 0.55 296 10:19 11.12.2019
2842 Clear 9 1023 43 16093 1.5 50 09:40 11.12.2019
2843 Clear 10 1023 81 12874 0.55 296 09:21 11.12.2019
2844 Clear 10 1023 32 16093 3.6 10 08:58 11.12.2019
2845 Clear 10 1023 32 16093 3.6 10 08:38 11.12.2019
2846 Clear 10 1023 82 11265 1.35 282 08:19 11.12.2019
2847 Clear 10 1023 62 16093 2.6 30 07:56 11.12.2019
2848 Clear 10 1023 62 16093 2.6 30 07:38 11.12.2019
2849 Clear 10 1023 82 11265 0.84 295 07:19 11.12.2019
2850 Clear 11 1023 37 16093 2.6 200 06:44 11.12.2019
2851 Haze 11 1022 82 9656 0.84 295 06:22 11.12.2019
2852 Clear 12 1023 43 16093 2.6 40 05:41 11.12.2019
2853 Clear 12 1022 82 11265 1.45 249 05:21 11.12.2019
2854 Clear 13 1023 87 16093 1.45 249 04:38 11.12.2019
2855 Clear 14 1023 62 16093 1.45 249 02:49 11.12.2019
2856 Clear 16 1022 63 16093 2.1 270 01:26 11.12.2019
2857 Clear 17 1022 31 16093 1.4 251 00:49 11.12.2019
2858 Clear 18 1022 43 16093 1.4 251 00:23 11.12.2019
2859 Clear 18 1022 34 16093 1.4 251 23:58 10.12.2019
2860 Clear 18 1022 34 16093 1.4 251 23:39 10.12.2019
2861 Clear 18 1022 35 16093 1.11 202 23:21 10.12.2019
2862 Clear 18 1022 36 16093 1.11 202 22:41 10.12.2019
2863 Clear 18 1022 37 16093 1.11 202 22:22 10.12.2019
2864 Clear 18 1023 44 14484 1.11 202 21:57 10.12.2019
2865 Clear 18 1023 44 14484 1.11 202 21:39 10.12.2019
2866 Clear 18 1023 42 16093 1.5 100 21:21 10.12.2019
2867 Clear 17 1024 41 16093 1.11 202 20:57 10.12.2019
2868 Clear 17 1024 41 16093 1.25 238 20:38 10.12.2019
2869 Clear 16 1024 42 16093 1.5 0 20:19 10.12.2019
2870 Clear 16 1024 42 16093 1.5 0 20:19 10.12.2019
2871 Clear 16 1024 42 16093 1.5 0 20:19 10.12.2019
2872 Clear 16 1024 50 16093 2.1 170 19:55 10.12.2019
2873 Clear 15 1024 50 16093 2.1 170 19:37 10.12.2019
2874 Clear 15 1024 51 16093 0.35 72 19:19 10.12.2019
2875 Clear 14 1024 58 16093 0.35 72 18:42 10.12.2019
2876 Clear 13 1024 58 16093 0.35 72 18:21 10.12.2019
2877 Clear 13 1024 54 16093 2.1 90 17:59 10.12.2019
2878 Clear 13 1024 54 16093 2.1 90 17:41 10.12.2019
2879 Clear 11 1023 58 16093 0.72 69 17:22 10.12.2019
2880 Clear 10 1023 57 16093 0.72 69 16:57 10.12.2019
2881 Clear 9 1023 57 16093 0.72 69 16:39 10.12.2019
2882 Clouds 9 1023 71 16093 1.5 20 16:19 10.12.2019
2883 Clear 9 1022 61 16093 1.5 60 15:39 10.12.2019
2884 Clear 9 1022 71 16093 0.72 69 15:18 10.12.2019
2885 Clear 9 1022 61 16093 2.1 20 14:56 10.12.2019
2886 Clear 9 1022 61 16093 2.1 20 14:38 10.12.2019
2887 Clear 9 1022 66 16093 0.86 267 14:20 10.12.2019
2888 Clouds 9 1022 87 14484 0.86 267 13:58 10.12.2019
2889 Clouds 9 1022 87 14484 0.86 267 13:40 10.12.2019
2890 Clear 9 1022 71 16093 0.48 268 13:20 10.12.2019
2891 Clear 9 1022 71 16093 0.48 268 13:20 10.12.2019
2892 Clouds 9 1022 87 16093 0.48 268 12:49 10.12.2019
2893 Clouds 9 1022 87 16093 0.48 268 12:28 10.12.2019
2894 Clouds 9 1022 81 16093 0.48 268 11:59 10.12.2019
2895 Clouds 9 1022 81 16093 0.48 268 11:40 10.12.2019
2896 Clear 9 1021 71 16093 1.5 30 11:21 10.12.2019
2897 Clouds 10 1021 76 16093 0.4 212 10:43 10.12.2019
2898 Clouds 10 1021 76 16093 0.4 212 10:25 10.12.2019
2899 Clear 10 1021 62 16093 0.4 212 09:58 10.12.2019
2900 Clear 10 1021 62 16093 0.4 212 09:40 10.12.2019
2901 Clear 10 1021 76 16093 0.4 212 09:22 10.12.2019
2902 Clear 10 1021 62 16093 1.5 60 08:59 10.12.2019
2903 Clear 11 1021 62 16093 1.5 60 08:40 10.12.2019
2904 Clear 10 1021 82 16093 0.85 167 08:22 10.12.2019
2905 Clear 11 1021 66 16093 3.1 70 07:57 10.12.2019
2906 Clear 11 1021 66 16093 3.1 70 07:39 10.12.2019
2907 Clear 11 1020 82 16093 3.1 100 07:20 10.12.2019
2908 Clear 11 1020 62 16093 2.6 20 06:46 10.12.2019
2909 Clear 12 1020 71 16093 0.93 175 06:19 10.12.2019
2910 Clear 12 1020 71 16093 0.93 175 06:19 10.12.2019
2911 Clear 12 1020 66 16093 2.1 330 05:52 10.12.2019
2912 Clear 13 1019 66 16093 1.5 20 04:50 10.12.2019
2913 Clear 14 1018 67 16093 1.51 219 03:32 10.12.2019
2914 Clear 15 1018 71 16093 2.1 340 02:40 10.12.2019
2915 Clear 16 1018 63 16093 2.1 250 01:44 10.12.2019
2916 Clouds 17 1017 63 16093 6.7 260 01:20 10.12.2019
2917 Clear 18 1017 51 16093 2.66 210 00:40 10.12.2019
2918 Clouds 19 1017 59 16093 3.6 230 00:19 10.12.2019
2919 Clear 19 1017 51 16093 4.1 240 23:41 09.12.2019
2920 Clear 19 1017 51 16093 4.1 240 23:41 09.12.2019
2921 Clear 19 1017 49 16093 2.38 218 23:22 09.12.2019
2922 Clear 19 1018 59 16093 3.6 240 22:58 09.12.2019
2923 Clear 19 1018 59 16093 3.6 240 22:39 09.12.2019
2924 Clear 18 1017 52 16093 2.38 218 22:19 09.12.2019
2925 Clear 18 1018 63 16093 3.1 260 21:56 09.12.2019
2926 Clear 18 1018 63 16093 3.1 260 21:38 09.12.2019
2927 Clear 18 1018 59 14484 2.38 218 21:18 09.12.2019
2928 Clear 17 1019 63 16093 3.6 260 20:56 09.12.2019
2929 Clear 17 1019 67 12874 1.5 0 20:38 09.12.2019
2930 Clear 17 1019 67 12874 1.5 0 20:20 09.12.2019
2931 Clear 16 1019 62 16093 1.81 197 19:55 09.12.2019
2932 Clear 16 1019 62 16093 1.81 197 19:55 09.12.2019
2933 Clear 16 1019 62 16093 1.81 197 19:37 09.12.2019
2934 Clear 15 1019 63 16093 2.1 90 19:19 09.12.2019
2935 Mist 15 1019 93 6437 1.81 197 18:56 09.12.2019
2936 Mist 14 1019 100 6437 1.81 197 18:37 09.12.2019
2937 Clear 13 1019 71 16093 1.81 197 18:19 09.12.2019
2938 Fog 13 1019 100 402 1.81 197 17:57 09.12.2019
2939 Fog 12 1019 100 402 1.81 197 17:38 09.12.2019
2940 Clouds 11 1018 81 16093 0.54 230 17:20 09.12.2019
2941 Clouds 11 1018 76 16093 0.54 230 16:56 09.12.2019
2942 Clouds 10 1018 81 16093 0.54 230 16:37 09.12.2019
2943 Clouds 9 1018 81 16093 0.54 230 16:19 09.12.2019
2944 Mist 9 1017 100 6437 0.54 230 15:55 09.12.2019
2945 Mist 9 1017 100 6437 0.54 230 15:37 09.12.2019
2946 Clear 9 1017 76 16093 0.54 230 15:19 09.12.2019
2947 Mist 10 1017 100 4828 0.54 230 14:42 09.12.2019
2948 Clear 10 1017 81 16093 0.63 98 14:19 09.12.2019
2949 Mist 10 1016 81 8047 0.63 98 13:59 09.12.2019
2950 Mist 10 1016 81 8047 0.63 98 13:39 09.12.2019
2951 Rain 10 1017 93 8047 0.7 126 13:20 09.12.2019
2952 Rain 10 1016 87 16093 2.1 30 12:58 09.12.2019
2953 Rain 10 1016 87 16093 2.1 30 12:39 09.12.2019
2954 Rain 10 1016 81 16093 0.7 126 12:21 09.12.2019
2955 Rain 10 1017 76 16093 2.6 10 11:59 09.12.2019
2956 Rain 11 1017 76 16093 2.6 10 11:39 09.12.2019
2957 Rain 11 1017 76 16093 2.6 10 11:39 09.12.2019
2958 Clear 10 1017 82 16093 0.63 175 11:21 09.12.2019
2959 Clear 11 1016 81 16093 2.1 20 10:56 09.12.2019
2960 Clear 11 1016 81 16093 2.1 20 10:38 09.12.2019
2961 Clear 11 1016 87 16093 0.63 175 10:19 09.12.2019
2962 Rain 11 1017 76 16093 2.1 10 09:41 09.12.2019
2963 Clear 12 1017 82 16093 0.63 175 09:23 09.12.2019
2964 Clouds 12 1017 93 16093 0.63 175 08:55 09.12.2019
2965 Clouds 12 1017 93 16093 0.63 175 08:37 09.12.2019
2966 Rain 12 1017 87 16093 1.5 210 08:19 09.12.2019
2967 Clouds 12 1017 87 16093 1.62 239 07:48 09.12.2019
2968 Clouds 12 1016 81 16093 2.1 60 07:30 09.12.2019
2969 Rain 12 1016 100 11265 1.62 239 06:55 09.12.2019
2970 Rain 12 1016 82 16093 1.62 239 06:29 09.12.2019
2971 Rain 12 1016 82 16093 1.62 239 05:31 09.12.2019
2972 Clouds 13 1016 87 16093 3.77 251 04:58 09.12.2019
2973 Clouds 13 1016 77 16093 3.77 251 04:25 09.12.2019
2974 Rain 14 1015 72 16093 3.77 251 02:28 09.12.2019
2975 Rain 15 1016 100 16093 4.1 240 01:46 09.12.2019
2976 Rain 15 1016 93 16093 4.1 260 00:57 09.12.2019
2977 Rain 16 1015 72 16093 3.1 260 00:33 09.12.2019
2978 Rain 16 1015 72 16093 3.6 260 23:55 08.12.2019
2979 Rain 16 1016 100 16093 3.6 230 23:37 08.12.2019
2980 Rain 16 1016 82 16093 7.2 250 23:19 08.12.2019
2981 Rain 16 1016 82 8047 2.1 280 22:56 08.12.2019
2982 Rain 16 1016 87 8047 4.1 240 22:38 08.12.2019
2983 Rain 16 1016 82 2012 2.6 230 22:18 08.12.2019
2984 Rain 16 1016 77 9656 5.34 248 21:56 08.12.2019
2985 Rain 16 1016 82 16093 2.1 270 21:37 08.12.2019
2986 Rain 16 1016 87 4828 2.6 190 21:19 08.12.2019
2987 Rain 16 1016 87 4828 2.6 190 21:19 08.12.2019
2988 Rain 16 1018 77 16093 5.1 240 20:56 08.12.2019
2989 Rain 16 1018 77 16093 5.1 240 20:37 08.12.2019
2990 Rain 16 1018 72 12874 3 255 20:19 08.12.2019
2991 Rain 16 1018 72 16093 3 255 19:55 08.12.2019
2992 Rain 16 1018 93 6437 2.1 190 19:37 08.12.2019
2993 Clouds 16 1019 82 16093 3 255 19:18 08.12.2019
2994 Clouds 15 1019 82 16093 2.6 140 18:54 08.12.2019
2995 Clouds 15 1019 82 16093 3 255 18:36 08.12.2019
2996 Clouds 15 1019 82 16093 3 255 18:36 08.12.2019
2997 Clouds 15 1019 82 16093 3 255 18:18 08.12.2019
2998 Clouds 15 1019 82 16093 3 255 17:55 08.12.2019
2999 Mist 14 1018 87 6437 3 255 17:36 08.12.2019
3000 Clouds 14 1018 93 11265 2.1 130 17:18 08.12.2019
3001 Clouds 14 1018 93 11265 2.1 150 16:55 08.12.2019
3002 Mist 14 1018 93 1609 0.44 180 16:37 08.12.2019
3003 Mist 14 1018 87 8047 0.44 180 16:18 08.12.2019
3004 Clouds 14 1018 93 11265 0.44 180 15:38 08.12.2019
3005 Clouds 14 1018 93 11265 0.44 180 15:19 08.12.2019
3006 Clouds 14 1018 93 11265 0.44 180 15:19 08.12.2019
3007 Rain 14 1018 87 11265 0.44 180 14:58 08.12.2019
3008 Rain 14 1018 87 11265 0.44 180 14:39 08.12.2019
3009 Rain 14 1018 87 11265 0.44 180 14:39 08.12.2019
3010 Rain 14 1018 87 11265 0.98 194 14:21 08.12.2019
3011 Rain 14 1018 87 8047 0.98 194 13:56 08.12.2019
3012 Rain 14 1018 87 8047 0.98 194 13:56 08.12.2019
3013 Rain 14 1017 93 16093 1.5 130 13:38 08.12.2019
3014 Rain 14 1018 87 9656 0.22 198 13:19 08.12.2019
3015 Rain 14 1018 87 4828 0.22 198 12:54 08.12.2019
3016 Rain 14 1018 93 11265 0.22 198 12:36 08.12.2019
3017 Rain 14 1018 93 11265 0.22 198 12:18 08.12.2019
3018 Rain 14 1018 93 9656 0.22 198 11:38 08.12.2019
3019 Rain 14 1018 82 12874 1.93 212 11:20 08.12.2019
3020 Rain 14 1018 82 4828 1.93 212 10:58 08.12.2019
3021 Rain 14 1019 100 8047 1.93 212 10:38 08.12.2019
3022 Rain 14 1019 82 6437 1.93 212 10:20 08.12.2019
3023 Rain 14 1019 93 16093 2.6 230 09:56 08.12.2019
3024 Rain 14 1019 93 4828 2.1 150 09:37 08.12.2019
3025 Rain 14 1019 93 4828 2.1 150 09:19 08.12.2019
3026 Rain 15 1019 87 16093 3.1 200 08:57 08.12.2019
3027 Rain 15 1019 87 16093 3.1 200 08:37 08.12.2019
3028 Rain 15 1019 87 16093 1.09 180 08:19 08.12.2019
3029 Rain 15 1019 100 4828 2.1 280 07:43 08.12.2019
3030 Clouds 15 1019 87 16093 1.09 180 07:20 08.12.2019
3031 Clouds 15 1019 77 16093 1.09 180 06:50 08.12.2019
3032 Rain 15 1019 82 16093 1.09 180 06:22 08.12.2019
3033 Rain 15 1019 82 9656 2.6 180 05:48 08.12.2019
3034 Rain 15 1019 77 16093 2.1 210 05:18 08.12.2019
3035 Clouds 15 1018 82 16093 2.6 140 03:50 08.12.2019
3036 Clouds 15 1018 72 16093 1.23 185 03:23 08.12.2019
3037 Clouds 15 1019 100 14484 2.1 280 02:39 08.12.2019
3038 Mist 16 1019 100 6437 2.1 230 01:56 08.12.2019
3039 Clouds 16 1018 72 16093 1.5 290 01:27 08.12.2019
3040 Clouds 16 1018 82 16093 2.17 198 00:40 08.12.2019
3041 Rain 16 1019 68 16093 1.5 0 00:21 08.12.2019
3042 Rain 16 1019 82 12874 2.1 260 23:42 07.12.2019
3043 Rain 16 1019 77 16093 1.5 160 23:21 07.12.2019
3044 Rain 17 1019 100 14484 2.51 184 22:58 07.12.2019
3045 Rain 17 1019 100 14484 2.51 184 22:40 07.12.2019
3046 Rain 17 1019 68 16093 2.51 184 22:22 07.12.2019
3047 Rain 17 1020 72 16093 3.1 230 21:56 07.12.2019
3048 Rain 17 1020 72 16093 3.1 230 21:38 07.12.2019
3049 Rain 17 1019 77 14484 5.7 130 21:20 07.12.2019
3050 Clouds 17 1021 100 11265 1.5 260 20:59 07.12.2019
3051 Clouds 17 1021 100 11265 1.5 260 20:37 07.12.2019
3052 Clouds 17 1021 68 16093 1.5 0 20:19 07.12.2019
3053 Clouds 17 1022 82 16093 1.63 86 19:57 07.12.2019
3054 Clouds 17 1022 82 16093 1.63 86 19:38 07.12.2019
3055 Clouds 17 1021 68 16093 1.5 60 19:20 07.12.2019
3056 Rain 16 1022 93 14484 1.63 86 18:55 07.12.2019
3057 Rain 16 1021 72 16093 1.5 90 18:36 07.12.2019
3058 Clouds 15 1021 82 16093 1.5 80 18:18 07.12.2019
3059 Rain 15 1021 93 14484 1.63 86 17:55 07.12.2019
3060 Rain 15 1021 93 14484 1.63 86 17:36 07.12.2019
3061 Rain 15 1021 93 6437 2.63 259 17:18 07.12.2019
3062 Rain 15 1021 100 14484 1.5 80 16:54 07.12.2019
3063 Rain 14 1020 77 16093 1.5 0 16:36 07.12.2019
3064 Rain 14 1020 77 16093 1.5 0 16:18 07.12.2019
3065 Rain 14 1020 87 4023 2.63 259 15:40 07.12.2019
3066 Rain 14 1020 93 4828 2.63 259 15:22 07.12.2019
3067 Rain 14 1020 93 3219 2.63 259 14:43 07.12.2019
3068 Rain 14 1020 93 8047 0.57 146 14:19 07.12.2019
3069 Rain 14 1020 100 6437 3.1 70 13:59 07.12.2019
3070 Rain 14 1020 100 6437 3.1 70 13:39 07.12.2019
3071 Rain 14 1019 77 16093 0.94 196 13:19 07.12.2019
3072 Drizzle 14 1020 100 11265 2.6 70 12:55 07.12.2019
3073 Drizzle 14 1020 100 11265 2.6 70 12:36 07.12.2019
3074 Rain 14 1020 77 16093 1.5 0 12:18 07.12.2019
3075 Rain 14 1021 100 9656 2.6 360 11:41 07.12.2019
3076 Rain 14 1021 100 9656 2.6 360 11:41 07.12.2019
3077 Rain 14 1020 72 16093 2.1 0 11:23 07.12.2019
3078 Rain 14 1021 77 16093 0.7 344 10:56 07.12.2019
3079 Rain 14 1021 77 16093 1.5 50 10:36 07.12.2019
3080 Rain 14 1021 77 16093 1.5 50 10:18 07.12.2019
3081 Rain 14 1021 82 14484 0.7 344 09:39 07.12.2019
3082 Rain 14 1020 77 9656 0.7 344 09:21 07.12.2019
3083 Clouds 14 1021 100 14484 0.7 344 08:46 07.12.2019
3084 Clouds 14 1021 100 14484 0.7 344 08:46 07.12.2019
3085 Clouds 14 1021 77 16093 1.15 246 08:25 07.12.2019
3086 Clouds 14 1021 77 16093 1.15 246 08:25 07.12.2019
3087 Clouds 14 1021 77 16093 1.15 246 08:25 07.12.2019
3088 Rain 14 1022 87 16093 2.1 70 07:53 07.12.2019
3089 Rain 14 1022 87 16093 2.1 70 07:53 07.12.2019
3090 Rain 14 1021 72 16093 1.15 246 07:29 07.12.2019
3091 Rain 14 1022 87 14484 1.15 246 06:53 07.12.2019
3092 Rain 14 1021 77 16093 1.15 246 06:28 07.12.2019
3093 Rain 14 1021 72 16093 1.5 0 05:50 07.12.2019
3094 Clouds 14 1021 100 16093 1.5 350 04:48 07.12.2019
3095 Rain 14 1021 100 16093 2.6 230 03:52 07.12.2019
3096 Rain 14 1021 87 16093 2.1 260 02:47 07.12.2019
3097 Rain 15 1021 77 16093 2.6 180 02:18 07.12.2019
3098 Rain 15 1020 72 16093 2.1 180 01:25 07.12.2019
3099 Rain 15 1021 87 8047 3.6 90 00:42 07.12.2019
3100 Rain 15 1020 72 16093 3.54 199 00:18 07.12.2019
3101 Rain 16 1020 87 16093 3.6 100 23:45 06.12.2019
3102 Rain 16 1020 72 8047 1.97 153 23:23 06.12.2019
3103 Clouds 17 1021 45 16093 4.1 260 22:58 06.12.2019
3104 Clouds 17 1021 45 16093 4.1 260 22:58 06.12.2019
3105 Clouds 17 1021 45 16093 4.1 260 22:37 06.12.2019
3106 Clouds 18 1021 52 16093 2.6 260 22:18 06.12.2019
3107 Clear 18 1021 45 16093 1.97 153 21:56 06.12.2019
3108 Clear 18 1021 49 16093 1.97 153 21:37 06.12.2019
3109 Clear 19 1021 49 16093 1.97 153 21:19 06.12.2019
3110 Clear 19 1021 42 16093 1.97 153 20:42 06.12.2019
3111 Clear 18 1021 49 16093 1.31 134 20:22 06.12.2019
3112 Clear 18 1021 52 16093 2.1 110 19:57 06.12.2019
3113 Clear 18 1021 52 16093 2.1 110 19:39 06.12.2019
3114 Clear 18 1020 48 16093 1.5 0 19:20 06.12.2019
3115 Clear 17 1021 45 16093 3.6 70 18:44 06.12.2019
3116 Clear 16 1020 52 16093 2.6 0 18:23 06.12.2019
3117 Clear 15 1021 51 16093 2.6 110 17:58 06.12.2019
3118 Clear 15 1021 51 16093 2.6 110 17:40 06.12.2019
3119 Clear 14 1020 59 16093 0.35 84 17:22 06.12.2019
3120 Clear 14 1020 59 16093 0.35 84 17:22 06.12.2019
3121 Clear 12 1021 71 16093 2.6 30 16:59 06.12.2019
3122 Clear 12 1021 71 16093 2.6 30 16:40 06.12.2019
3123 Clear 11 1020 71 16093 1.5 30 16:21 06.12.2019
3124 Clear 11 1020 81 16093 0.35 84 15:56 06.12.2019
3125 Clear 11 1019 67 16093 0.35 84 15:38 06.12.2019
3126 Clear 11 1019 67 16093 0.35 84 15:18 06.12.2019
3127 Clear 12 1019 58 16093 0.35 84 14:41 06.12.2019
3128 Clear 12 1019 71 16093 0.47 88 14:20 06.12.2019
3129 Clear 12 1019 71 16093 3.6 50 13:58 06.12.2019
3130 Clear 12 1019 71 16093 3.6 50 13:40 06.12.2019
3131 Clear 12 1018 71 16093 0.51 119 13:22 06.12.2019
3132 Clear 12 1020 71 16093 0.51 119 12:41 06.12.2019
3133 Clear 12 1019 71 16093 0.51 119 12:22 06.12.2019
3134 Clear 12 1020 71 16093 0.51 119 11:56 06.12.2019
3135 Clear 12 1020 71 16093 0.51 119 11:37 06.12.2019
3136 Clear 12 1020 76 16093 0.76 272 11:19 06.12.2019
3137 Clear 12 1020 66 16093 0.76 272 10:42 06.12.2019
3138 Clear 12 1019 72 16093 0.76 272 10:21 06.12.2019
3139 Clear 12 1020 76 16093 2.1 90 09:57 06.12.2019
3140 Clear 12 1020 76 16093 2.1 90 09:37 06.12.2019
3141 Clear 12 1019 67 16093 0.76 272 09:19 06.12.2019
3142 Clear 12 1020 76 16093 2.1 360 08:45 06.12.2019
3143 Clear 13 1020 87 16093 1.5 330 08:26 06.12.2019
3144 Clear 13 1020 66 16093 0.62 103 07:44 06.12.2019
3145 Clear 13 1019 82 16093 0.62 103 07:24 06.12.2019
3146 Clear 13 1020 71 16093 2.1 50 06:59 06.12.2019
3147 Clear 13 1019 76 16093 1.5 60 06:28 06.12.2019
3148 Clear 13 1020 67 16093 0.62 103 05:53 06.12.2019
3149 Clear 13 1019 77 16093 1.06 228 05:21 06.12.2019
3150 Clear 15 1019 68 16093 1.5 250 02:19 06.12.2019
3151 Clear 16 1019 59 16093 1.5 260 01:29 06.12.2019
3152 Clear 17 1019 55 16093 1.07 186 00:40 06.12.2019
3153 Clear 16 1019 49 16093 1.07 186 00:20 06.12.2019
3154 Clear 17 1019 55 16093 1.07 186 23:45 05.12.2019
3155 Clear 18 1018 45 16093 1.79 151 23:19 05.12.2019
3156 Clouds 18 1020 52 16093 1.79 151 22:57 05.12.2019
3157 Clouds 17 1020 52 16093 1.79 151 22:37 05.12.2019
3158 Clouds 18 1019 52 16093 1.79 151 22:18 05.12.2019
3159 Clouds 17 1020 67 16093 1.79 151 21:44 05.12.2019
3160 Clouds 17 1020 63 16093 1.5 110 21:25 05.12.2019
3161 Clouds 17 1021 63 16093 1.79 151 20:59 05.12.2019
3162 Clouds 17 1021 67 16093 1.54 142 20:40 05.12.2019
3163 Clear 16 1021 59 16093 1.5 170 20:21 05.12.2019
3164 Rain 16 1021 59 16093 1.5 170 19:58 05.12.2019
3165 Rain 16 1021 63 16093 2.6 160 19:58 05.12.2019
3166 Rain 16 1021 72 16093 2.1 0 19:40 05.12.2019
3167 Rain 15 1021 59 16093 2.1 80 19:20 05.12.2019
3168 Clear 15 1021 77 16093 2.1 170 18:57 05.12.2019
3169 Clear 15 1022 82 16093 2.1 100 18:38 05.12.2019
3170 Clear 14 1021 67 16093 1.5 100 18:20 05.12.2019
3171 Clouds 13 1021 87 16093 1.92 94 17:40 05.12.2019
3172 Clear 12 1020 82 11265 1.02 82 17:20 05.12.2019
3173 Mist 11 1020 87 4828 1.5 40 16:58 05.12.2019
3174 Mist 11 1020 100 6437 1.02 82 16:39 05.12.2019
3175 Mist 10 1020 93 8047 1.02 82 16:21 05.12.2019
3176 Fog 10 1019 93 805 1.02 82 15:58 05.12.2019
3177 Fog 10 1019 87 805 1.02 82 15:39 05.12.2019
3178 Rain 10 1019 93 11265 1.02 82 15:20 05.12.2019
3179 Rain 10 1019 93 16093 1.02 82 14:56 05.12.2019
3180 Rain 10 1018 87 9656 1.02 82 14:38 05.12.2019
3181 Mist 11 1018 87 2012 0.86 75 14:19 05.12.2019
3182 Mist 11 1018 87 8047 0.86 75 13:57 05.12.2019
3183 Mist 11 1018 100 9656 1.5 60 13:39 05.12.2019
3184 Clouds 11 1018 87 11265 0.92 64 13:19 05.12.2019
3185 Clouds 11 1017 93 16093 2.1 220 12:57 05.12.2019
3186 Mist 11 1018 100 1609 0.92 64 12:38 05.12.2019
3187 Mist 11 1017 87 1609 0.92 64 12:20 05.12.2019
3188 Fog 11 1018 100 0 2.1 60 11:40 05.12.2019
3189 Mist 11 1018 93 9656 1.3 81 11:22 05.12.2019
3190 Clouds 11 1017 93 16093 1.3 81 10:58 05.12.2019
3191 Clouds 12 1017 100 11265 1.5 80 10:40 05.12.2019
3192 Mist 12 1017 93 2414 1.3 81 10:19 05.12.2019
3193 Clouds 12 1017 93 16093 1.3 81 09:56 05.12.2019
3194 Fog 12 1017 100 0 1.3 81 09:38 05.12.2019
3195 Clouds 12 1017 87 16093 1.3 81 09:19 05.12.2019
3196 Clouds 12 1017 87 16093 1.3 81 08:56 05.12.2019
3197 Clouds 12 1017 87 14484 1.3 81 08:37 05.12.2019
3198 Rain 12 1017 87 16093 1.53 114 08:18 05.12.2019
3199 Rain 12 1017 87 16093 1.53 114 08:18 05.12.2019
3200 Rain 12 1017 93 6437 1.53 114 07:41 05.12.2019
3201 Rain 12 1017 87 16093 1.53 114 07:22 05.12.2019
3202 Clouds 13 1017 87 16093 1.53 114 06:48 05.12.2019
3203 Clouds 13 1017 77 16093 2.6 270 06:24 05.12.2019
3204 Clouds 13 1016 87 16093 2.1 140 05:54 05.12.2019
3205 Rain 13 1015 82 16093 1.53 114 05:24 05.12.2019
3206 Rain 13 1015 77 16093 1.5 220 04:40 05.12.2019
3207 Rain 14 1015 82 16093 4.1 270 03:40 05.12.2019
3208 Rain 14 1014 87 16093 1.5 150 02:42 05.12.2019
3209 Rain 14 1013 77 16093 1.5 250 02:22 05.12.2019
3210 Rain 15 1014 82 16093 2.1 220 01:51 05.12.2019
3211 Rain 15 1013 82 16093 2.62 166 01:23 05.12.2019
3212 Rain 15 1013 77 16093 1.5 0 00:44 05.12.2019
3213 Rain 15 1013 77 16093 1.5 180 00:21 05.12.2019
3214 Rain 15 1013 87 16093 5.1 130 23:56 04.12.2019
3215 Rain 15 1013 77 14484 2.1 0 23:37 04.12.2019
3216 Rain 15 1013 77 16093 1.5 0 23:18 04.12.2019
3217 Rain 15 1013 82 11265 3.1 80 22:39 04.12.2019
3218 Rain 15 1013 82 11265 3.1 80 22:20 04.12.2019
3219 Rain 14 1012 82 16093 4.6 140 21:58 04.12.2019
3220 Rain 14 1013 93 16093 3.1 130 21:39 04.12.2019
3221 Rain 14 1013 93 8047 2.6 80 21:20 04.12.2019
3222 Rain 14 1014 82 6437 3.1 80 20:58 04.12.2019
3223 Rain 14 1014 87 4828 2.67 75 20:40 04.12.2019
3224 Rain 14 1014 87 4828 2.67 75 20:40 04.12.2019
3225 Rain 13 1014 100 16093 1.5 70 20:21 04.12.2019
3226 Rain 13 1014 93 4828 2.1 340 19:59 04.12.2019
3227 Rain 13 1015 87 4828 2.89 92 19:38 04.12.2019
3228 Rain 13 1015 87 2414 2.1 50 19:20 04.12.2019
3229 Rain 13 1015 93 2816 3.6 170 18:57 04.12.2019
3230 Rain 12 1014 87 2414 2.6 90 18:38 04.12.2019
3231 Rain 12 1014 87 9656 3.1 100 18:20 04.12.2019
3232 Rain 12 1015 100 4828 5.1 80 17:40 04.12.2019
3233 Rain 12 1014 82 16093 4.1 110 17:21 04.12.2019
3234 Rain 12 1012 82 16093 3.6 90 16:59 04.12.2019
3235 Rain 12 1015 100 4828 4.1 100 16:40 04.12.2019
3236 Rain 12 1014 82 12874 2.6 0 16:20 04.12.2019
3237 Rain 12 1016 93 6437 2.6 60 15:55 04.12.2019
3238 Rain 12 1015 100 4828 1.5 330 15:37 04.12.2019
3239 Rain 12 1014 87 8047 3.1 80 15:19 04.12.2019
3240 Rain 12 1014 87 8047 3.1 80 15:19 04.12.2019
3241 Rain 12 1014 87 3219 3.1 100 14:44 04.12.2019
3242 Rain 12 1014 87 3219 5.7 80 14:24 04.12.2019
3243 Rain 12 1015 93 4828 3.6 280 13:59 04.12.2019
3244 Rain 12 1014 87 8047 1.5 280 13:38 04.12.2019
3245 Rain 12 1014 87 8047 1.5 280 13:20 04.12.2019
3246 Rain 13 1014 62 16093 2.49 81 12:45 04.12.2019
3247 Rain 13 1014 77 8047 2.49 81 12:25 04.12.2019
3248 Rain 13 1014 77 8047 2.49 81 12:25 04.12.2019
3249 Rain 13 1014 82 11265 2.6 270 11:59 04.12.2019
3250 Rain 13 1014 67 16093 2.6 110 11:41 04.12.2019
3251 Rain 14 1014 63 16093 2.75 97 11:22 04.12.2019
3252 Rain 14 1015 54 16093 2.1 40 10:44 04.12.2019
3253 Rain 14 1015 67 16093 2.75 97 10:24 04.12.2019
3254 Rain 14 1015 67 16093 2.75 97 09:58 04.12.2019
3255 Clouds 14 1016 67 16093 2.75 97 09:39 04.12.2019
3256 Clouds 14 1016 63 16093 1.5 100 09:20 04.12.2019
3257 Clouds 14 1016 54 16093 2.75 97 08:43 04.12.2019
3258 Clouds 15 1016 63 16093 2.1 100 08:24 04.12.2019
3259 Clouds 15 1017 58 16093 2.1 360 07:51 04.12.2019
3260 Clouds 15 1017 59 16093 1.76 229 07:31 04.12.2019
3261 Clouds 15 1017 58 16093 2.6 230 06:57 04.12.2019
3262 Rain 15 1017 55 16093 1.76 229 06:31 04.12.2019
3263 Rain 16 1018 55 16093 2.6 270 05:43 04.12.2019
3264 Clouds 16 1015 55 14484 1.5 40 04:33 04.12.2019
3265 Clouds 16 1015 48 16093 3.6 185 03:29 04.12.2019
3266 Clouds 16 1015 48 16093 2.09 162 01:34 04.12.2019
3267 Clear 18 1017 36 16093 3.1 280 00:47 04.12.2019
3268 Clear 18 1015 42 16093 2.09 162 00:21 04.12.2019
3269 Clear 19 1016 40 16093 1.5 100 23:43 03.12.2019
3270 Clear 19 1016 40 16093 1.5 100 23:43 03.12.2019
3271 Clear 18 1015 42 16093 1.15 185 23:20 03.12.2019
3272 Clear 18 1015 42 16093 1.15 185 22:59 03.12.2019
3273 Clear 18 1016 37 16093 1.5 110 22:38 03.12.2019
3274 Clear 18 1016 45 16093 1.15 185 22:18 03.12.2019
3275 Clear 18 1016 37 16093 1.15 185 21:57 03.12.2019
3276 Clear 18 1017 42 16093 1.15 185 21:37 03.12.2019
3277 Clear 18 1017 42 16093 1.15 185 21:18 03.12.2019
3278 Rain 17 1018 48 16093 1.15 185 20:54 03.12.2019
3279 Rain 17 1018 48 16093 1.15 185 20:36 03.12.2019
3280 Rain 17 1018 45 16093 0.69 194 20:18 03.12.2019
3281 Clear 16 1020 39 16093 5.1 280 19:54 03.12.2019
3282 Clear 16 1019 45 16093 1.5 220 19:36 03.12.2019
3283 Clear 16 1019 45 16093 0.69 194 19:18 03.12.2019
3284 Clouds 15 1019 48 16093 0.69 194 18:54 03.12.2019
3285 Clear 15 1019 51 16093 0.69 194 18:36 03.12.2019
3286 Clear 14 1019 51 16093 0.69 194 18:18 03.12.2019
3287 Clear 13 1019 47 16093 1.5 360 17:39 03.12.2019
3288 Clear 12 1019 62 16093 0.59 271 17:18 03.12.2019
3289 Clear 12 1019 66 16093 0.59 271 16:58 03.12.2019
3290 Clear 12 1019 58 16093 0.59 271 16:39 03.12.2019
3291 Clear 11 1018 66 16093 0.59 271 16:21 03.12.2019
3292 Clear 12 1018 66 16093 0.59 271 16:21 03.12.2019
3293 Clear 11 1018 66 16093 0.59 271 15:58 03.12.2019
3294 Clear 11 1018 54 16093 0.59 271 15:38 03.12.2019
3295 Clear 11 1018 66 16093 0.59 271 15:19 03.12.2019
3296 Clear 11 1019 62 16093 1.5 110 14:44 03.12.2019
3297 Clear 11 1018 62 16093 0.2 105 14:21 03.12.2019
3298 Clear 11 1018 81 16093 1.5 10 13:59 03.12.2019
3299 Clear 11 1018 71 16093 0.2 105 13:38 03.12.2019
3300 Clear 11 1018 71 16093 0.3 167 13:20 03.12.2019
3301 Clear 11 1018 76 16093 0.3 167 12:57 03.12.2019
3302 Clear 11 1019 54 16093 0.3 167 12:37 03.12.2019
3303 Clear 11 1019 62 16093 0.3 167 12:18 03.12.2019
3304 Clear 11 1019 71 16093 0.3 167 11:56 03.12.2019
3305 Clear 11 1019 71 16093 0.3 167 11:56 03.12.2019
3306 Clear 11 1019 54 16093 2.1 360 11:37 03.12.2019
3307 Clear 11 1019 66 16093 0.86 228 11:18 03.12.2019
3308 Clear 11 1020 62 16093 0.86 228 10:54 03.12.2019
3309 Clear 11 1019 71 16093 0.86 228 10:36 03.12.2019
3310 Clear 11 1019 71 16093 0.86 228 10:18 03.12.2019
3311 Clear 11 1020 54 16093 0.86 228 09:42 03.12.2019
3312 Clear 11 1019 76 16093 0.86 228 09:23 03.12.2019
3313 Clear 11 1019 62 16093 0.86 228 08:56 03.12.2019
3314 Clear 11 1019 62 16093 0.86 228 08:56 03.12.2019
3315 Clear 12 1020 47 16093 1.5 50 08:38 03.12.2019
3316 Clear 12 1020 71 16093 0.95 213 08:19 03.12.2019
3317 Clear 12 1020 50 16093 2.1 60 07:51 03.12.2019
3318 Clear 12 1020 76 16093 0.85 174 07:25 03.12.2019
3319 Clear 12 1021 50 16093 2.6 40 06:38 03.12.2019
3320 Clear 12 1020 67 16093 0.85 174 06:19 03.12.2019
3321 Clear 13 1020 58 16093 2.1 300 04:59 03.12.2019
3322 Clear 14 1020 44 16093 2.1 270 03:42 03.12.2019
3323 Clear 14 1020 59 16093 0.88 221 03:21 03.12.2019
3324 Clear 15 1020 42 16093 3.1 300 02:52 03.12.2019
3325 Clear 15 1019 48 16093 1.5 260 02:32 03.12.2019
3326 Clear 16 1019 48 16093 1.5 260 01:58 03.12.2019
3327 Clear 17 1019 32 16093 3.1 260 01:38 03.12.2019
3328 Clear 18 1018 42 16093 2.1 260 01:18 03.12.2019
3329 Clouds 19 1018 28 16093 2.1 240 00:41 03.12.2019
3330 Clouds 18 1018 28 16093 2.1 240 00:41 03.12.2019
3331 Clear 19 1018 35 16093 1.5 250 00:23 03.12.2019
3332 Clear 19 1018 28 16093 2.1 220 23:44 02.12.2019
3333 Clear 19 1017 28 16093 1.64 167 23:22 02.12.2019
3334 Clear 19 1017 30 16093 1.5 0 22:56 02.12.2019
3335 Clear 19 1018 28 16093 1.64 167 22:37 02.12.2019
3336 Clear 19 1018 30 16093 1.64 167 22:19 02.12.2019
3337 Haze 19 1019 29 4828 1.64 167 21:39 02.12.2019
3338 Clear 19 1019 32 16093 1.64 167 21:20 02.12.2019
3339 Clear 19 1019 31 16093 1.64 167 20:58 02.12.2019
3340 Clear 19 1020 34 16093 1.5 0 20:39 02.12.2019
3341 Clear 18 1020 36 16093 1 251 20:20 02.12.2019
3342 Clear 17 1020 36 16093 1 251 19:59 02.12.2019
3343 Clear 17 1021 36 16093 3.1 110 19:41 02.12.2019
3344 Clear 17 1021 39 16093 1 251 19:21 02.12.2019
3345 Clear 16 1022 41 16093 4.1 290 18:55 02.12.2019
3346 Clear 16 1020 41 16093 1 251 18:36 02.12.2019
3347 Clear 15 1020 41 16093 1 251 18:18 02.12.2019
3348 Clear 13 1021 41 16093 2.6 170 17:41 02.12.2019
3349 Clear 12 1020 50 16093 0.44 280 17:21 02.12.2019
3350 Clear 10 1020 61 16093 0.44 280 16:59 02.12.2019
3351 Clear 9 1020 36 16093 2.6 360 16:39 02.12.2019
3352 Clear 9 1020 36 16093 2.6 360 16:39 02.12.2019
3353 Clear 9 1020 54 16093 0.44 280 16:18 02.12.2019
3354 Clear 9 1020 61 16093 0.44 280 15:57 02.12.2019
3355 Clear 9 1020 36 16093 2.1 350 15:38 02.12.2019
3356 Clear 9 1020 57 16093 0.44 280 15:20 02.12.2019
3357 -273 0 0 0 0 0 14:55 02.12.2019
3358 Clear 9 1019 53 16093 2.1 320 14:37 02.12.2019
3359 Clear 9 1019 57 16093 0.22 40 14:19 02.12.2019
3360 Clear 9 1020 70 16093 0.22 40 13:55 02.12.2019
3361 Clouds 9 1019 53 16093 0.22 40 13:36 02.12.2019
3362 Clear 9 1019 54 16093 0.12 47 13:18 02.12.2019
3363 Clouds 9 1019 53 16093 0.12 47 12:42 02.12.2019
3364 Clear 9 1019 50 16093 1.5 360 12:21 02.12.2019
3365 Clear 10 1019 50 16093 1.5 360 11:57 02.12.2019
3366 Clear 10 1019 53 16093 1.5 60 11:37 02.12.2019
3367 Clear 10 1019 53 16093 1.5 60 11:37 02.12.2019
3368 Clear 10 1019 50 16093 2.1 360 11:19 02.12.2019
3369 Clear 10 1019 61 16093 1.5 280 10:57 02.12.2019
3370 Clear 10 1019 57 16093 0.57 29 10:38 02.12.2019
3371 Clear 10 1019 54 16093 0.57 29 10:20 02.12.2019
3372 Clear 10 1019 66 16093 1.5 360 09:55 02.12.2019
3373 Clear 10 1019 53 16093 1.5 350 09:37 02.12.2019
3374 Clear 10 1019 54 16093 0.57 29 09:18 02.12.2019
3375 Clear 10 1020 54 16093 0.57 29 08:41 02.12.2019
3376 Clear 10 1020 54 16093 0.96 122 08:23 02.12.2019
3377 Clear 11 1020 61 16093 0.96 122 07:59 02.12.2019
3378 Clear 11 1019 50 16093 0.96 122 07:37 02.12.2019
3379 Clear 11 1019 50 16093 0.96 122 07:18 02.12.2019
3380 Clear 11 1020 46 16093 0.96 122 06:40 02.12.2019
3381 Clear 11 1020 46 16093 1.5 50 05:45 02.12.2019
3382 Clear 11 1019 50 16093 2.04 257 05:18 02.12.2019
3383 Clear 13 1019 44 16093 2.04 257 03:19 02.12.2019
3384 Clear 13 1019 54 16093 6.2 10 02:47 02.12.2019
3385 Clear 14 1019 41 16093 1.5 30 01:47 02.12.2019
3386 Clear 15 1018 42 16093 1.5 212 01:21 02.12.2019
3387 Clear 16 1018 34 16093 1.5 212 00:37 02.12.2019
3388 Clear 16 1018 34 16093 1.5 212 00:19 02.12.2019
3389 Clear 16 1019 30 16093 2.1 100 23:42 01.12.2019
3390 Clear 16 1019 33 16093 1.74 142 23:21 01.12.2019
3391 Clear 16 1019 33 16093 1.74 142 22:56 01.12.2019
3392 Clear 16 1019 39 16093 1.74 142 22:38 01.12.2019
3393 Clear 15 1019 39 16093 1.74 142 22:19 01.12.2019
3394 Clear 16 1019 30 16093 1.5 140 21:56 01.12.2019
3395 Clear 16 1019 30 16093 1.5 140 21:38 01.12.2019
3396 Clear 16 1019 30 16093 1.5 140 21:38 01.12.2019
3397 Clear 15 1020 39 16093 1.74 142 21:20 01.12.2019
3398 Clear 15 1020 39 16093 1.74 142 20:58 01.12.2019
3399 Clear 15 1020 47 16093 1.5 110 20:39 01.12.2019
3400 Clear 14 1021 38 16093 1.25 111 20:21 01.12.2019
3401 Clear 14 1020 47 16093 1.5 310 19:57 01.12.2019
3402 Clear 14 1020 50 16093 1.25 111 19:39 01.12.2019
3403 Clear 13 1020 44 16093 1.25 111 19:20 01.12.2019
3404 Clear 13 1021 62 16093 1.25 111 18:56 01.12.2019
3405 Clear 12 1020 50 16093 1.25 111 18:38 01.12.2019
3406 Clear 12 1020 50 16093 1.25 111 18:38 01.12.2019
3407 Clear 12 1020 50 16093 1.25 111 18:19 01.12.2019
3408 Clear 11 1020 70 16093 1.25 111 17:56 01.12.2019
3409 Rain 11 1020 50 16093 1.5 130 17:38 01.12.2019
3410 Rain 10 1020 54 16093 1.5 0 17:20 01.12.2019
3411 Clear 9 1020 57 16093 1.5 60 16:54 01.12.2019
3412 Clear 9 1020 57 16093 1.5 60 16:36 01.12.2019
3413 Clear 9 1020 57 16093 0.62 112 16:18 01.12.2019
3414 Clear 9 1019 61 16093 2.1 50 15:44 01.12.2019
3415 Clear 9 1019 57 16093 0.62 112 15:25 01.12.2019
3416 Clear 9 1019 57 16093 0.62 112 15:24 01.12.2019
3417 Clear 9 1019 57 16093 0.62 112 15:23 01.12.2019
3418 Clear 9 1019 57 16093 0.62 112 15:23 01.12.2019
3419 Clear 9 1019 57 16093 0.62 112 14:38 01.12.2019
3420 Clear 9 1019 57 16093 0.88 54 14:19 01.12.2019
3421 Clouds 9 1019 66 16093 0.88 54 13:43 01.12.2019
3422 Clouds 9 1019 58 16093 1.5 360 13:25 01.12.2019
3423 Clouds 9 1019 58 16093 1.5 360 13:25 01.12.2019
3424 Clouds 9 1019 58 16093 1.5 360 13:25 01.12.2019
3425 Clouds 9 1019 58 16093 1.5 360 13:25 01.12.2019
3426 Clouds 9 1019 58 16093 1.5 360 12:59 01.12.2019
3427 Clouds 9 1019 53 16093 0.62 60 12:41 01.12.2019
3428 Clouds 9 1019 70 16093 1.5 310 11:55 01.12.2019
3429 Clear 9 1019 66 16093 0.62 60 11:37 01.12.2019
3430 Clear 9 1019 58 16093 1.23 86 11:18 01.12.2019
3431 Clouds 9 1019 53 16093 1.5 60 10:43 01.12.2019
3432 Clouds 10 1019 58 16093 1.23 86 10:20 01.12.2019
3433 Clouds 10 1020 58 16093 1.23 86 09:42 01.12.2019
3434 Clouds 10 1020 58 16093 1.23 86 09:23 01.12.2019
3435 Clouds 10 1020 61 16093 1.23 86 08:58 01.12.2019
3436 Clouds 10 1020 58 16093 0.89 57 08:38 01.12.2019
3437 Clouds 10 1020 58 16093 3.67 64 08:19 01.12.2019
3438 Clouds 10 1020 61 16093 3.1 40 07:49 01.12.2019
3439 Clouds 10 1020 62 16093 3.67 64 07:29 01.12.2019
3440 Rain 11 1020 62 16093 3.67 64 06:53 01.12.2019
3441 Rain 11 1020 62 16093 1.5 0 06:21 01.12.2019
3442 Clouds 11 1020 61 16093 2.6 20 05:45 01.12.2019
3443 Rain 11 1020 71 16093 4.26 54 04:30 01.12.2019
3444 Rain 11 1021 66 16093 2.6 360 02:47 01.12.2019
3445 Rain 11 1020 58 16093 4.26 54 02:28 01.12.2019
3446 Rain 12 1020 62 16093 3.1 20 01:56 01.12.2019
3447 Rain 12 1020 62 16093 3.1 20 01:38 01.12.2019
3448 Rain 12 1021 41 16093 0.65 333 00:59 01.12.2019
3449 Clouds 13 1020 38 16093 0.65 333 00:39 01.12.2019
3450 Rain 12 1020 38 16093 0.65 333 00:20 01.12.2019
3451 Rain 13 1020 38 16093 2.6 120 23:41 30.11.2019
3452 Rain 13 1020 38 16093 1.4 115 23:22 30.11.2019
3453 Clouds 13 1020 39 16093 3.1 100 22:49 30.11.2019
3454 Clouds 13 1021 38 16093 1.4 115 22:30 30.11.2019
3455 Clouds 13 1020 50 16093 3.1 170 21:57 30.11.2019
3456 Clear 13 1020 39 16093 3.6 100 21:39 30.11.2019
3457 Clouds 13 1021 41 16093 2.1 0 21:20 30.11.2019
3458 Clear 13 1021 53 16093 3.6 100 20:55 30.11.2019
3459 Clear 13 1021 53 16093 3.6 100 20:37 30.11.2019
3460 Clear 13 1022 47 16093 2.1 0 20:18 30.11.2019
3461 Clear 12 1023 57 16093 2.83 97 19:55 30.11.2019
3462 Clouds 12 1023 50 16093 1.5 0 19:36 30.11.2019
3463 Clouds 11 1023 50 16093 1.5 0 19:18 30.11.2019
3464 Clear 10 1022 66 16093 2.83 97 18:54 30.11.2019
3465 Clear 10 1022 66 16093 2.6 100 18:36 30.11.2019
3466 Clouds 10 1022 54 16093 2.1 0 18:18 30.11.2019
3467 Clouds 10 1022 54 16093 2.1 0 18:18 30.11.2019
3468 Clouds 9 1022 70 16093 2.83 97 17:56 30.11.2019
3469 Clear 8 1022 66 16093 3.6 90 17:37 30.11.2019
3470 Clear 8 1021 57 16093 2.1 100 17:19 30.11.2019
3471 Clear 7 1021 70 16093 2.6 70 16:42 30.11.2019
3472 Clear 6 1020 66 16093 1.5 90 16:22 30.11.2019
3473 Rain 5 1020 86 16093 1.5 240 15:58 30.11.2019
3474 Rain 5 1020 70 16093 2.6 50 15:40 30.11.2019
3475 Clouds 5 1020 75 16093 1.5 0 15:19 30.11.2019
3476 Clear 5 1020 86 16093 2.49 69 14:56 30.11.2019
3477 Clouds 5 1020 75 16093 2.49 69 14:37 30.11.2019
3478 Clear 5 1020 75 16093 2.1 20 14:37 30.11.2019
3479 Clouds 5 1020 75 16093 2.73 80 14:18 30.11.2019
3480 Clear 6 1019 86 16093 2.73 80 13:56 30.11.2019
3481 Clear 6 1019 70 16093 1.5 80 13:36 30.11.2019
3482 Clear 6 1019 70 16093 1.5 80 13:18 30.11.2019
3483 Clear 6 1019 70 16093 1.5 80 13:18 30.11.2019
3484 Clear 6 1019 66 16093 1.5 0 12:42 30.11.2019
3485 Clear 6 1019 66 16093 1.5 0 12:24 30.11.2019
3486 Clear 6 1018 87 16093 2.6 20 11:43 30.11.2019
3487 Rain 6 1019 66 16093 2.1 100 11:20 30.11.2019
3488 Rain 6 1019 66 16093 2.1 100 11:20 30.11.2019
3489 Rain 6 1018 87 16093 2.1 70 10:56 30.11.2019
3490 Rain 7 1018 87 16093 2.1 70 10:38 30.11.2019
3491 Rain 7 1018 76 16093 0.94 46 10:19 30.11.2019
3492 Rain 7 1019 86 16093 0.94 46 09:46 30.11.2019
3493 Rain 7 1019 66 16093 0.94 46 09:27 30.11.2019
3494 Rain 7 1018 87 16093 2.1 10 08:44 30.11.2019
3495 Rain 7 1018 62 16093 1.5 0 08:22 30.11.2019
3496 Rain 7 1018 75 16093 1.5 269 07:58 30.11.2019
3497 Rain 8 1018 100 16093 1.5 269 07:39 30.11.2019
3498 Rain 8 1018 62 16093 1.5 269 07:20 30.11.2019
3499 Rain 8 1017 58 16093 1.5 269 06:30 30.11.2019
3500 Clouds 8 1017 75 16093 2.6 250 05:53 30.11.2019
3501 Clouds 9 1015 75 16093 2.6 270 03:54 30.11.2019
3502 Clear 9 1015 61 16093 3.94 261 02:53 30.11.2019
3503 Clouds 10 1015 50 16093 3.1 260 02:22 30.11.2019
3504 Clouds 11 1014 66 14484 5.1 240 01:46 30.11.2019
3505 Clear 11 1014 50 16093 2.6 250 01:24 30.11.2019
3506 Rain 12 1013 61 16093 3.1 290 00:38 30.11.2019
3507 Rain 12 1013 47 16093 3.1 250 00:18 30.11.2019
3508 Clouds 12 1013 44 16093 2.1 250 23:43 29.11.2019
3509 Rain 12 1013 44 16093 2.1 250 23:23 29.11.2019
3510 Rain 12 1013 47 16093 9.3 260 22:47 29.11.2019
3511 Clouds 13 1013 47 16093 9.3 260 22:26 29.11.2019
3512 Clear 12 1012 57 16093 6.7 260 21:45 29.11.2019
3513 Clouds 12 1012 47 16093 7.29 251 21:26 29.11.2019
3514 Clouds 12 1012 50 16093 4.6 220 20:59 29.11.2019
3515 Clouds 12 1012 61 16093 4.6 260 20:40 29.11.2019
3516 Clear 11 1012 58 16093 1.5 0 20:21 29.11.2019
3517 Clear 11 1012 58 16093 1.5 0 19:59 29.11.2019
3518 Clouds 10 1011 66 16093 5.1 270 19:41 29.11.2019
3519 Clear 10 1012 58 16093 4.23 271 19:21 29.11.2019
3520 Rain 9 1011 66 16093 2.1 230 18:58 29.11.2019
3521 Rain 8 1011 87 16093 2.6 230 18:40 29.11.2019
3522 Rain 8 1011 71 16093 1.5 90 18:22 29.11.2019
3523 Rain 6 1009 100 16093 2.1 260 17:47 29.11.2019
3524 Rain 6 1010 81 0 4.23 271 17:28 29.11.2019
3525 Rain 5 1009 86 16093 2.06 267 16:59 29.11.2019
3526 Rain 5 1010 81 0 2.06 267 16:59 29.11.2019
3527 Rain 4 1008 100 16093 2.1 300 16:41 29.11.2019
3528 Rain 4 1009 87 2816 2.06 267 16:20 29.11.2019
3529 Clear 4 1007 100 16093 2.06 267 15:43 29.11.2019
3530 Mist 4 1007 87 9656 2.06 267 15:24 29.11.2019
3531 Mist 4 1006 86 1609 2.06 267 14:58 29.11.2019
3532 Mist 4 1006 86 1609 2.06 267 14:40 29.11.2019
3533 Mist 3 1006 86 3219 2.45 267 14:21 29.11.2019
3534 Clouds 3 1005 93 16093 2.45 267 13:55 29.11.2019
3535 Clouds 4 1005 93 16093 2.45 267 13:37 29.11.2019
3536 Clear 4 1005 81 11265 2.32 258 13:19 29.11.2019
3537 Fog 4 1004 100 0 2.32 258 12:41 29.11.2019
3538 Clear 4 1005 81 16093 2.32 258 12:23 29.11.2019
3539 Clouds 4 1004 86 16093 2.32 258 11:55 29.11.2019
3540 Rain 4 1004 100 402 2.32 258 11:37 29.11.2019
3541 Rain 4 1005 87 12874 0.6 129 11:18 29.11.2019
3542 Rain 5 1004 93 16093 1.5 290 10:57 29.11.2019
3543 Rain 5 1003 100 16093 0.6 129 10:38 29.11.2019
3544 Rain 5 1004 81 16093 0.6 129 10:19 29.11.2019
3545 Rain 5 1004 86 16093 0.6 129 09:57 29.11.2019
3546 Rain 5 1003 100 16093 0.6 129 09:38 29.11.2019
3547 Rain 5 1004 81 16093 0.6 129 09:19 29.11.2019
3548 Rain 6 1004 81 16093 2.1 0 08:54 29.11.2019
3549 Rain 6 1004 87 16093 3.6 350 08:36 29.11.2019
3550 Rain 6 1004 87 16093 3.6 350 08:36 29.11.2019
3551 Rain 6 1004 81 16093 2.49 110 08:18 29.11.2019
3552 Rain 6 1004 81 4828 1.5 340 07:41 29.11.2019
3553 Rain 6 1004 81 4023 2.1 0 07:23 29.11.2019
3554 Thunderstorm 7 1004 93 16093 2.6 320 06:46 29.11.2019
3555 Rain 6 1003 81 16093 3.6 70 06:27 29.11.2019
3556 Rain 6 1002 81 11265 3.6 350 05:32 29.11.2019
3557 Rain 6 1002 93 16093 4.6 40 04:49 29.11.2019
3558 Rain 7 1002 87 16093 3.1 80 03:37 29.11.2019
3559 Rain 7 1002 75 16093 2.1 0 03:18 29.11.2019
3560 Rain 7 1001 70 16093 3.1 90 02:22 29.11.2019
3561 Rain 7 1002 81 14484 4.6 80 01:40 29.11.2019
3562 Rain 7 1002 76 14484 3.1 0 01:20 29.11.2019
3563 Rain 8 1001 76 16093 7.2 80 00:26 29.11.2019
3564 Rain 8 1001 81 16093 2.6 320 23:59 28.11.2019
3565 Rain 8 1001 81 16093 4.1 80 23:41 28.11.2019
3566 Rain 8 1001 76 16093 3.6 90 23:21 28.11.2019
3567 Rain 8 1000 76 16093 5.7 130 22:57 28.11.2019
3568 Rain 8 1002 100 4828 6.2 60 22:37 28.11.2019
3569 Rain 8 1001 76 16093 3.1 90 22:19 28.11.2019
3570 Rain 8 1000 87 16093 5.7 120 21:55 28.11.2019
3571 Rain 8 1001 93 4828 5.7 80 21:36 28.11.2019
3572 Rain 8 1001 93 4828 5.7 80 21:36 28.11.2019
3573 Rain 9 1002 87 16093 2.1 0 21:18 28.11.2019
3574 Rain 9 1002 81 4828 5.7 90 20:42 28.11.2019
3575 Rain 9 1001 81 16093 5.1 90 20:22 28.11.2019
3576 Rain 9 1001 81 16093 2.6 0 19:58 28.11.2019
3577 Rain 9 1002 87 4828 2.6 40 19:40 28.11.2019
3578 Rain 9 1002 81 11265 4.6 90 19:22 28.11.2019
3579 Rain 9 1002 81 8047 3.1 0 18:59 28.11.2019
3580 Rain 9 1002 87 16093 3.1 130 18:59 28.11.2019
3581 Rain 9 1002 81 16093 2.6 90 18:39 28.11.2019
3582 Rain 8 1002 81 16093 2.6 90 18:18 28.11.2019
3583 Rain 8 1002 81 16093 2.6 90 17:59 28.11.2019
3584 Rain 8 1002 81 16093 2.6 90 17:59 28.11.2019
3585 Rain 8 1002 81 8047 3.1 50 17:41 28.11.2019
3586 Rain 9 1002 81 8047 3.1 50 17:21 28.11.2019
3587 Rain 9 1002 87 9656 3.6 90 16:57 28.11.2019
3588 Rain 9 1002 87 9656 3.6 90 16:56 28.11.2019
3589 Rain 9 1002 81 2816 3.1 280 16:38 28.11.2019
3590 Rain 9 1003 93 4023 6.06 125 16:18 28.11.2019
3591 Rain 9 1003 93 4023 6.06 125 16:18 28.11.2019
3592 Rain 8 1002 81 4023 6.06 125 15:41 28.11.2019
3593 Rain 8 1003 87 4828 1.5 80 15:20 28.11.2019
3594 Rain 8 1002 76 6437 3.6 70 14:59 28.11.2019
3595 Rain 8 1002 81 16093 3.6 90 14:41 28.11.2019
3596 Rain 8 1002 81 16093 3.6 90 14:22 28.11.2019
3597 Rain 8 1003 100 14484 4.1 50 13:57 28.11.2019
3598 Rain 8 1003 100 14484 4.1 50 13:39 28.11.2019
3599 Rain 8 1003 71 16093 3.6 90 13:21 28.11.2019
3600 Rain 8 1004 81 16093 2.6 0 12:45 28.11.2019
3601 Rain 8 1004 81 16093 2.6 0 12:27 28.11.2019
3602 Rain 8 1003 93 16093 3.1 140 11:58 28.11.2019
3603 Rain 8 1004 71 16093 1.5 80 11:40 28.11.2019
3604 Rain 8 1004 71 16093 1.5 80 11:20 28.11.2019
3605 Rain 8 1004 93 16093 2.1 140 10:56 28.11.2019
3606 Rain 8 1004 93 16093 3.1 100 10:38 28.11.2019
3607 Rain 8 1004 71 16093 2.1 0 10:18 28.11.2019
3608 Rain 8 1004 100 9656 3.6 30 09:41 28.11.2019
3609 Rain 8 1004 100 9656 3.6 30 09:41 28.11.2019
3610 Rain 8 1005 81 14484 1.17 116 09:23 28.11.2019
3611 Rain 8 1005 93 6437 1.17 116 08:58 28.11.2019
3612 -273 0 0 0 0 0 08:38 28.11.2019
3613 Rain 8 1005 76 16093 2.1 90 08:20 28.11.2019
3614 Rain 8 1005 71 16093 2.35 230 07:42 28.11.2019
3615 -273 0 0 0 0 0 07:24 28.11.2019
3616 Rain 8 1005 71 16093 2.35 230 07:23 28.11.2019
3617 Clouds 8 1004 87 16093 3.6 320 06:44 28.11.2019
3618 Rain 8 1004 71 16093 2.35 230 06:22 28.11.2019
3619 Rain 8 1004 100 9656 4.6 340 05:46 28.11.2019
3620 Rain 8 1004 76 16093 3.66 250 05:18 28.11.2019
3621 Clear 10 1003 62 16093 1.5 260 02:37 28.11.2019
3622 Clouds 11 1003 100 16093 5.48 245 01:47 28.11.2019
3623 Rain 11 1003 100 16093 2.1 270 00:47 28.11.2019
3624 Rain 11 1002 71 16093 5.9 240 00:22 28.11.2019
3625 Rain 11 1002 81 16093 5.1 110 23:55 27.11.2019
3626 Rain 11 1003 81 16093 1.5 0 23:36 27.11.2019
3627 Rain 11 1003 81 16093 1.5 0 23:18 27.11.2019
3628 Rain 11 1003 81 2012 4.16 246 22:39 27.11.2019
3629 Rain 11 1003 71 4828 5.7 250 22:20 27.11.2019
3630 Rain 11 1002 76 14484 2.6 150 21:56 27.11.2019
3631 Rain 10 1003 76 16093 4.16 246 21:37 27.11.2019
3632 Rain 10 1004 81 14484 4.16 246 21:19 27.11.2019
3633 Rain 10 1004 81 14484 4.16 246 21:19 27.11.2019
3634 Rain 10 1004 81 14484 4.16 246 21:19 27.11.2019
3635 Rain 10 1005 81 3219 1.5 270 20:58 27.11.2019
3636 Rain 10 1005 81 3219 1.5 270 20:39 27.11.2019
3637 Rain 10 1004 81 8047 7.03 196 20:21 27.11.2019
3638 Rain 10 1004 81 14484 7.03 196 19:57 27.11.2019
3639 Rain 10 1005 81 11265 7.03 196 19:39 27.11.2019
3640 Rain 10 1005 87 4023 4.6 280 19:21 27.11.2019
3641 Rain 10 1004 87 4828 7.03 196 18:59 27.11.2019
3642 Rain 11 1004 82 3219 2.6 250 18:37 27.11.2019
3643 Rain 11 1005 76 3219 7.2 260 18:19 27.11.2019
3644 Rain 11 1004 93 2012 7.2 140 17:57 27.11.2019
3645 Rain 11 1005 76 2012 4.1 250 17:39 27.11.2019
3646 Rain 11 1004 67 11265 5.7 160 17:20 27.11.2019
3647 Rain 11 1004 87 4828 5.1 120 16:56 27.11.2019
3648 Rain 11 1003 81 4023 5.1 120 16:38 27.11.2019
3649 Rain 11 1004 58 16093 2.6 100 16:20 27.11.2019
3650 Rain 11 1004 58 16093 2.6 100 15:57 27.11.2019
3651 Rain 11 1005 71 16093 5.72 180 15:38 27.11.2019
3652 Rain 11 1005 50 16093 5.72 180 15:20 27.11.2019
3653 Clouds 11 1004 54 16093 6.2 140 14:57 27.11.2019
3654 Rain 11 1006 57 8047 5.72 180 14:39 27.11.2019
3655 Clouds 11 1006 50 16093 1.5 0 14:21 27.11.2019
3656 Clouds 11 1005 50 16093 4.6 130 13:57 27.11.2019
3657 Clouds 11 1006 45 16093 3.8 169 13:38 27.11.2019
3658 Clouds 11 1006 44 16093 2.1 0 13:19 27.11.2019
3659 Clouds 11 1006 50 16093 3.1 140 12:55 27.11.2019
3660 Clouds 11 1007 46 16093 4.18 163 12:37 27.11.2019
3661 Clouds 11 1007 41 16093 1.5 100 12:18 27.11.2019
3662 Clouds 10 1008 43 16093 4.18 163 11:38 27.11.2019
3663 Clouds 10 1007 41 16093 2.1 90 11:19 27.11.2019
3664 Clouds 10 1007 50 16093 2.1 130 10:57 27.11.2019
3665 Clouds 10 1008 39 16093 1.5 30 10:39 27.11.2019
3666 Clouds 10 1008 41 16093 1.5 100 10:21 27.11.2019
3667 Clouds 10 1009 42 16093 1.5 60 09:43 27.11.2019
3668 Clouds 10 1009 42 16093 1.5 60 09:43 27.11.2019
3669 Clouds 10 1009 54 16093 2.76 163 09:25 27.11.2019
3670 Clear 10 1009 54 16093 2.76 163 08:56 27.11.2019
3671 Clouds 10 1009 43 16093 2.1 20 08:38 27.11.2019
3672 Clear 10 1009 47 16093 2.1 197 08:19 27.11.2019
3673 Clear 10 1010 43 16093 1.5 60 07:45 27.11.2019
3674 Clear 11 1010 44 16093 1.89 193 07:27 27.11.2019
3675 Clear 11 1010 40 16093 2.1 340 06:46 27.11.2019
3676 Clear 12 1010 38 16093 1.89 193 06:26 27.11.2019
3677 Clear 13 1011 36 16093 1.89 193 05:27 27.11.2019
3678 Clouds 13 1011 39 16093 5.7 270 04:59 27.11.2019
3679 Clear 13 1011 28 16093 3.1 280 04:39 27.11.2019
3680 Clear 13 1011 26 16093 1.5 290 03:51 27.11.2019
3681 Clear 14 1010 36 16093 2.1 260 03:22 27.11.2019
3682 Clear 14 1010 35 16093 2.82 256 02:54 27.11.2019
3683 Clear 15 1011 25 16093 3.1 270 01:35 27.11.2019
3684 Clear 16 1011 18 16093 3.1 280 00:44 27.11.2019
3685 Clear 17 1011 22 16093 2.75 211 00:25 27.11.2019
3686 Clear 17 1011 18 16093 2.75 211 23:48 26.11.2019
3687 Clear 18 1011 20 16093 2.75 211 23:26 26.11.2019
3688 Clouds 18 1011 24 16093 3.6 220 22:57 26.11.2019
3689 Clear 18 1011 18 16093 2.6 0 22:38 26.11.2019
3690 Clear 18 1012 22 16093 0.7 155 22:19 26.11.2019
3691 Clear 18 1012 25 16093 3.6 80 21:58 26.11.2019
3692 Clear 18 1012 18 16093 1.5 260 21:37 26.11.2019
3693 Clear 18 1013 25 16093 0.7 155 21:19 26.11.2019
3694 Clear 17 1013 25 16093 3.6 130 20:54 26.11.2019
3695 Clear 17 1013 13 16093 0.7 155 20:36 26.11.2019
3696 Clear 17 1013 13 16093 1.91 43 20:18 26.11.2019
3697 Clear 17 1013 25 16093 1.5 0 19:54 26.11.2019
3698 Clear 16 1013 35 16093 2.6 260 19:36 26.11.2019
3699 Clear 16 1014 25 16093 1.91 43 19:18 26.11.2019
3700 Clear 16 1014 25 16093 1.91 43 19:18 26.11.2019
3701 Clouds 15 1014 20 16093 1.5 0 18:56 26.11.2019
3702 Clear 15 1014 13 16093 2.1 0 18:38 26.11.2019
3703 Clear 14 1015 25 16093 1.91 43 18:19 26.11.2019
3704 Clouds 13 1015 21 16093 4.1 10 17:54 26.11.2019
3705 Clear 13 1014 13 16093 1.91 43 17:36 26.11.2019
3706 Clear 12 1014 21 16093 1.06 22 17:18 26.11.2019
3707 Clouds 11 1014 23 16093 3.1 40 16:54 26.11.2019
3708 Clear 11 1014 21 16093 2.6 330 16:36 26.11.2019
3709 Clear 10 1014 37 16093 1.06 22 16:18 26.11.2019
3710 Clear 10 1014 25 16093 4.6 330 15:56 26.11.2019
3711 Clouds 10 1015 31 16093 4.6 350 15:56 26.11.2019
3712 Clouds 10 1015 31 16093 4.6 350 15:37 26.11.2019
3713 Clear 10 1013 30 16093 1.06 22 15:18 26.11.2019
3714 Clouds 10 1013 61 16093 1.06 22 14:43 26.11.2019
3715 Clear 10 1012 32 16093 0.77 7 14:24 26.11.2019
3716 Clouds 10 1012 81 16093 0.77 7 13:43 26.11.2019
3717 Clouds 10 1012 28 16093 0.49 26 13:24 26.11.2019
3718 Clouds 11 1012 22 14484 2.1 0 12:58 26.11.2019
3719 Clouds 12 1012 62 16093 0.49 26 12:37 26.11.2019
3720 Clouds 11 1011 50 16093 0.49 26 12:19 26.11.2019
3721 Clouds 11 1011 21 14484 4.1 340 11:55 26.11.2019
3722 Clouds 11 1011 47 16093 0.49 26 11:37 26.11.2019
3723 Clouds 11 1011 47 16093 0.75 96 11:18 26.11.2019
3724 Clouds 11 1011 21 14484 4.1 360 10:56 26.11.2019
3725 Clouds 11 1011 54 16093 0.75 96 10:37 26.11.2019
3726 Clouds 11 1011 76 16093 0.75 96 10:19 26.11.2019
3727 Clouds 11 1010 82 14484 1.5 0 09:42 26.11.2019
3728 Clouds 11 1010 82 14484 1.5 0 09:23 26.11.2019
3729 Clouds 12 1011 66 16093 0.75 96 08:50 26.11.2019
3730 Clouds 12 1010 77 14484 0.75 96 08:31 26.11.2019
3731 Clouds 12 1010 15 16093 5.7 10 07:58 26.11.2019
3732 Clouds 12 1011 15 14484 6.2 360 07:40 26.11.2019
3733 Clear 13 1009 77 16093 0.36 223 07:21 26.11.2019
3734 Clear 13 1009 77 16093 3.6 40 06:50 26.11.2019
3735 Clear 14 1009 36 16093 3.6 50 05:59 26.11.2019
3736 Clear 14 1008 63 16093 0.36 223 05:26 26.11.2019
3737 Clear 15 1008 39 16093 2.1 280 03:22 26.11.2019
3738 Clear 15 1008 39 16093 2.1 280 03:22 26.11.2019
3739 Clouds 16 1008 67 16093 3.6 240 01:42 26.11.2019
3740 Clouds 16 1008 67 16093 3.6 240 01:42 26.11.2019
3741 Clouds 17 1008 72 16093 3.1 170 01:22 26.11.2019
3742 Clear 18 1008 21 16093 7.2 340 00:41 26.11.2019
3743 Clear 18 1008 56 16093 4.15 189 00:18 26.11.2019
3744 Clear 19 1009 48 16093 3.1 250 23:39 25.11.2019
3745 Clear 19 1009 49 16093 3.1 202 23:19 25.11.2019
3746 Clouds 19 1009 63 16093 5.1 250 22:54 25.11.2019
3747 Clouds 19 1010 72 16093 2.6 210 22:36 25.11.2019
3748 Clear 19 1009 34 16093 4.1 260 22:36 25.11.2019
3749 Clouds 19 1009 56 16093 3.1 202 22:18 25.11.2019
3750 Clouds 19 1010 68 16093 3.1 160 21:54 25.11.2019
3751 Clear 19 1010 34 16093 2.1 0 21:36 25.11.2019
3752 Clear 19 1011 49 16093 2.6 120 21:18 25.11.2019
3753 Clouds 19 1011 68 16093 5.1 140 20:54 25.11.2019
3754 Clear 19 1012 33 16093 2.6 210 20:36 25.11.2019
3755 Clear 18 1012 59 16093 3.32 147 20:18 25.11.2019
3756 Clouds 18 1013 68 16093 3.6 160 19:54 25.11.2019
3757 Clear 18 1013 38 16093 2.1 210 19:36 25.11.2019
3758 Clear 17 1014 52 16093 2.1 140 19:18 25.11.2019
3759 Clouds 17 1014 63 16093 3.1 0 18:54 25.11.2019
3760 Clouds 16 1014 42 14484 2.1 100 18:36 25.11.2019
3761 Clouds 16 1014 42 14484 2.1 100 18:18 25.11.2019
3762 Clouds 15 1014 48 16093 3.6 80 17:55 25.11.2019
3763 Clouds 14 1014 50 16093 1.5 90 17:36 25.11.2019
3764 Clouds 14 1014 50 16093 1.5 90 17:36 25.11.2019
3765 Clouds 13 1014 50 16093 1.5 90 17:18 25.11.2019
3766 Clear 9 1014 54 16093 1.94 137 16:41 25.11.2019
3767 Clear 9 1014 54 16093 1.94 137 16:23 25.11.2019
3768 Clear 8 1014 39 16093 2.1 350 15:57 25.11.2019
3769 Clear 8 1014 39 16093 2.1 350 15:38 25.11.2019
3770 Clear 8 1013 62 16093 1.94 137 15:19 25.11.2019
3771 Clear 8 1014 70 16093 1.5 30 14:56 25.11.2019
3772 Clear 8 1013 49 16093 1.94 137 14:56 25.11.2019
3773 Clear 8 1013 62 16093 1.94 137 14:37 25.11.2019
3774 Clear 9 1013 62 16093 1.26 131 14:19 25.11.2019
3775 Clear 9 1013 37 16093 2.6 20 13:39 25.11.2019
3776 Clear 9 1014 62 16093 1.08 108 13:20 25.11.2019
3777 Clouds 9 1014 66 16093 1.5 80 12:59 25.11.2019
3778 Clear 9 1014 40 16093 1.08 108 12:40 25.11.2019
3779 Clear 9 1014 40 16093 1.08 108 12:40 25.11.2019
3780 Clear 9 1014 62 16093 1.08 108 12:20 25.11.2019
3781 Clouds 10 1014 66 16093 1.5 60 11:56 25.11.2019
3782 Clouds 10 1014 66 16093 1.5 60 11:56 25.11.2019
3783 Clear 10 1014 37 16093 2.6 50 11:38 25.11.2019
3784 Clear 10 1014 37 16093 2.6 50 11:38 25.11.2019
3785 Clear 10 1014 62 16093 0.95 168 11:19 25.11.2019
3786 Clear 10 1015 37 16093 2.1 40 10:42 25.11.2019
3787 Clear 10 1015 71 16093 0.95 168 10:23 25.11.2019
3788 Clear 10 1015 76 14484 0.95 168 09:56 25.11.2019
3789 Clear 10 1015 37 16093 2.1 70 09:38 25.11.2019
3790 Clear 11 1015 66 16093 0.95 168 09:20 25.11.2019
3791 Clear 11 1015 71 16093 0.95 168 08:40 25.11.2019
3792 Clear 11 1015 71 16093 1.51 160 08:21 25.11.2019
3793 Clear 12 1016 33 16093 2.1 70 07:42 25.11.2019
3794 Clear 12 1016 77 16093 1.51 160 07:24 25.11.2019
3795 Clear 13 1017 35 16093 2.6 70 06:49 25.11.2019
3796 Clear 13 1016 67 16093 1.51 160 06:21 25.11.2019
3797 Clear 14 1017 33 16093 2.1 360 05:39 25.11.2019
3798 Clear 15 1017 63 16093 4.1 240 04:52 25.11.2019
3799 Clear 17 1016 42 16093 1.5 260 03:18 25.11.2019
3800 Clear 18 1015 34 16093 1.5 260 02:28 25.11.2019
3801 Clear 19 1016 18 16093 2.6 290 01:41 25.11.2019
3802 Clear 20 1015 24 16093 3.52 263 01:22 25.11.2019
3803 Clear 22 1015 22 16093 2.1 270 00:24 25.11.2019
3804 Clouds 23 1016 28 16093 4.6 260 00:00 25.11.2019
3805 Clear 23 1016 17 16093 3.1 260 23:41 24.11.2019
3806 Clear 23 1016 16 16093 3.1 260 23:20 24.11.2019
3807 Clouds 23 1016 27 16093 5.7 270 22:56 24.11.2019
3808 Clear 23 1017 17 16093 2.6 260 22:37 24.11.2019
3809 Clear 23 1016 17 16093 2.19 248 22:18 24.11.2019
3810 Clear 23 1017 28 16093 3.1 220 21:54 24.11.2019
3811 Clear 23 1018 18 16093 2.6 0 21:36 24.11.2019
3812 Clear 23 1017 22 16093 2.19 248 21:18 24.11.2019
3813 Clear 23 1018 16 16093 1.5 290 20:54 24.11.2019
3814 Clear 22 1019 20 16093 3.1 230 20:36 24.11.2019
3815 Clear 22 1019 24 16093 0.64 114 20:18 24.11.2019
3816 Clouds 21 1019 20 16093 1.5 0 19:54 24.11.2019
3817 Clear 21 1020 24 16093 0.64 114 19:36 24.11.2019
3818 Clear 20 1020 24 16093 0.64 114 19:18 24.11.2019
3819 Clouds 19 1020 24 16093 2.6 30 18:54 24.11.2019
3820 Clear 19 1021 25 16093 0.64 114 18:36 24.11.2019
3821 Clear 18 1020 31 16093 0.64 114 18:18 24.11.2019
3822 Clear 16 1021 26 16093 1.5 320 17:54 24.11.2019
3823 Clear 16 1020 33 16093 2.1 260 17:36 24.11.2019
3824 Clear 14 1019 41 16093 0.73 42 17:18 24.11.2019
3825 Clear 12 1020 35 16093 2.6 350 16:41 24.11.2019
3826 Clear 11 1019 53 16093 0.73 42 16:23 24.11.2019
3827 Clear 11 1019 56 16093 0.73 42 15:59 24.11.2019
3828 Clear 11 1019 32 16093 1.5 320 15:41 24.11.2019
3829 Clear 11 1018 54 16093 0.73 42 15:22 24.11.2019
3830 Clear 12 1018 52 16093 0.73 42 14:55 24.11.2019
3831 Clear 12 1019 40 16093 2.6 310 14:37 24.11.2019
3832 Clear 12 1018 41 16093 0.9 12 14:18 24.11.2019
3833 Clear 12 1018 32 16093 2.6 340 13:39 24.11.2019
3834 Clear 12 1018 54 16093 0.74 359 13:20 24.11.2019
3835 Clouds 12 1018 47 16093 1.5 60 12:57 24.11.2019
3836 Clear 12 1018 34 16093 3.1 320 12:39 24.11.2019
3837 Clear 12 1018 54 16093 0.74 359 12:18 24.11.2019
3838 Clear 13 1019 31 16093 4.1 120 11:55 24.11.2019
3839 Clear 13 1018 58 16093 0.74 359 11:36 24.11.2019
3840 Clear 13 1018 58 16093 1.4 33 11:18 24.11.2019
3841 Clear 13 1019 35 16093 1.4 33 10:46 24.11.2019
3842 Clear 13 1019 50 16093 1.4 33 10:28 24.11.2019
3843 Clear 13 1019 33 16093 1.4 33 09:55 24.11.2019
3844 Clear 13 1019 33 16093 1.4 33 09:36 24.11.2019
3845 Clear 14 1019 54 16093 1.4 33 09:18 24.11.2019
3846 Clear 14 1019 30 16093 2.1 350 08:43 24.11.2019
3847 Clear 14 1019 58 14484 0.86 20 08:21 24.11.2019
3848 Clear 14 1019 54 14484 0.86 20 07:57 24.11.2019
3849 Clear 15 1019 48 16093 0.86 20 07:37 24.11.2019
3850 Clear 15 1019 48 16093 0.86 20 07:18 24.11.2019
3851 Clear 15 1018 51 16093 0.86 20 06:19 24.11.2019
3852 Clear 15 1018 51 16093 0.86 20 06:19 24.11.2019
3853 Clear 15 1018 51 16093 0.86 20 06:19 24.11.2019
3854 Clear 16 1020 22 16093 1.52 353 04:48 24.11.2019
3855 Clear 17 1017 39 16093 1.52 353 03:33 24.11.2019
3856 Clear 17 1017 39 16093 1.52 353 03:33 24.11.2019
3857 Clear 19 1017 30 16093 2.24 286 01:59 24.11.2019
3858 Clear 20 1018 24 16093 1.5 290 01:40 24.11.2019
3859 Clear 20 1016 28 16093 2.65 282 01:21 24.11.2019
3860 Clear 21 1017 22 16093 2.6 280 00:47 24.11.2019
3861 Clear 21 1017 25 16093 1.5 0 00:23 24.11.2019
3862 Clear 21 1017 25 16093 1.5 0 00:23 24.11.2019
3863 Clear 22 1018 22 16093 2.6 0 23:45 23.11.2019
3864 Clear 22 1017 25 16093 1.2 218 23:23 23.11.2019
3865 Clouds 22 1017 28 16093 3.6 260 22:59 23.11.2019
3866 Clear 22 1018 25 16093 3.1 250 22:40 23.11.2019
3867 Clear 22 1018 28 16093 1.2 218 22:22 23.11.2019
3868 Clear 22 1018 24 16093 2.6 170 21:59 23.11.2019
3869 Clear 22 1019 28 16093 3.6 0 21:41 23.11.2019
3870 Clear 22 1019 28 16093 1.5 0 21:22 23.11.2019
3871 Clear 22 1019 28 16093 1.5 0 20:58 23.11.2019
3872 Clear 21 1020 29 16093 3.1 260 20:37 23.11.2019
3873 Clear 21 1020 29 16093 3.1 260 20:37 23.11.2019
3874 Clear 21 1020 35 16093 0.39 290 20:18 23.11.2019
3875 Clear 20 1020 40 16093 0.26 242 19:55 23.11.2019
3876 Clear 20 1021 32 16093 0.26 242 19:37 23.11.2019
3877 Clear 19 1021 32 16093 0.26 242 19:18 23.11.2019
3878 Clear 18 1021 41 16093 0.26 242 18:40 23.11.2019
3879 Clear 18 1021 39 16093 0.26 242 18:21 23.11.2019
3880 Clouds 17 1021 39 16093 2.1 0 17:58 23.11.2019
3881 Clear 16 1021 50 16093 0.26 242 17:40 23.11.2019
3882 Clear 15 1021 54 16093 0.62 42 17:20 23.11.2019
3883 Clouds 13 1021 45 16093 0.62 42 16:56 23.11.2019
3884 Clear 12 1020 62 16093 0.62 42 16:38 23.11.2019
3885 Clear 12 1020 62 16093 0.62 42 16:20 23.11.2019
3886 Clear 11 1020 66 16093 0.62 42 15:57 23.11.2019
3887 Clear 11 1020 57 16093 0.62 42 15:38 23.11.2019
3888 Clear 11 1020 58 16093 0.62 42 15:18 23.11.2019
3889 Clear 11 1020 58 16093 0.62 42 15:18 23.11.2019
3890 Clear 11 1020 66 16093 1.5 300 14:55 23.11.2019
3891 Clear 11 1020 62 16093 0.62 42 14:37 23.11.2019
3892 Clear 11 1020 62 16093 0.74 24 14:18 23.11.2019
3893 Clear 12 1020 66 16093 2.1 360 13:42 23.11.2019
3894 Clear 12 1020 58 16093 1.06 37 13:19 23.11.2019
3895 Clear 12 1020 62 16093 3.1 350 12:55 23.11.2019
3896 Clear 12 1020 51 16093 1.06 37 12:37 23.11.2019
3897 Clear 12 1020 51 16093 1.06 37 12:19 23.11.2019
3898 Clear 12 1020 58 16093 2.1 360 11:42 23.11.2019
3899 Clear 12 1020 55 16093 1.81 54 11:20 23.11.2019
3900 Clear 12 1020 58 16093 2.1 340 10:45 23.11.2019
3901 Clear 12 1020 62 16093 1.5 20 10:22 23.11.2019
3902 Clear 13 1020 62 16093 2.1 360 09:42 23.11.2019
3903 Clear 13 1020 59 16093 1.81 54 09:21 23.11.2019
3904 Clear 13 1020 76 16093 1.81 54 08:55 23.11.2019
3905 Clear 13 1021 58 16093 2.1 350 08:36 23.11.2019
3906 Clear 13 1020 63 16093 0.46 113 08:18 23.11.2019
3907 Clear 14 1020 54 16093 2.1 350 07:39 23.11.2019
3908 Clear 14 1021 54 16093 2.6 350 06:48 23.11.2019
3909 Clear 14 1019 59 16093 2.1 100 06:21 23.11.2019
3910 Clear 14 1021 76 16093 0.46 113 05:53 23.11.2019
3911 Clear 14 1019 59 16093 0.46 113 05:30 23.11.2019
3912 Clear 14 1021 41 16093 2.1 50 04:50 23.11.2019
3913 Clear 14 1019 59 16093 2.68 281 04:29 23.11.2019
3914 Clear 16 1019 55 16093 2.68 281 03:20 23.11.2019
3915 Clear 16 1018 52 16093 2.6 270 02:27 23.11.2019
3916 Clear 18 1019 39 16093 2.1 290 01:38 23.11.2019
3917 Clear 19 1019 34 14484 1.5 320 00:45 23.11.2019
3918 Clear 20 1018 40 16093 3.14 256 00:19 23.11.2019
3919 Clear 20 1019 34 16093 2.1 0 23:42 22.11.2019
3920 Clear 20 1018 35 16093 2.1 0 23:21 22.11.2019
3921 Clouds 20 1019 49 16093 4.6 240 22:59 22.11.2019
3922 Clear 20 1019 34 16093 0.58 191 22:41 22.11.2019
3923 Clear 20 1019 37 16093 0.58 191 22:23 22.11.2019
3924 Clear 20 1019 37 16093 0.58 191 21:59 22.11.2019
3925 Clear 20 1020 39 16093 2.1 0 21:40 22.11.2019
3926 Clear 20 1020 43 16093 0.58 191 21:20 22.11.2019
3927 Clear 19 1021 45 16093 2.6 0 20:44 22.11.2019
3928 Clear 18 1021 42 16093 1.5 90 20:22 22.11.2019
3929 Clear 18 1021 48 16093 1.5 170 19:58 22.11.2019
3930 Clear 18 1021 51 16093 0.21 233 19:39 22.11.2019
3931 Clear 17 1021 48 16093 0.21 233 19:19 22.11.2019
3932 Clear 17 1021 48 16093 0.21 233 18:59 22.11.2019
3933 Clear 16 1021 55 16093 2.1 90 18:37 22.11.2019
3934 Clear 15 1021 55 16093 2.1 90 18:18 22.11.2019
3935 Clear 14 1021 71 16093 0.21 233 17:41 22.11.2019
3936 Clear 13 1021 67 16093 0.34 262 17:22 22.11.2019
3937 Clear 11 1022 62 16093 0.34 262 16:48 22.11.2019
3938 Clear 10 1020 71 16093 0.34 262 16:29 22.11.2019
3939 Clear 9 1020 81 16093 0.34 262 15:55 22.11.2019
3940 Clear 9 1020 81 16093 2.1 40 15:37 22.11.2019
3941 Clear 9 1020 76 16093 0.34 262 15:19 22.11.2019
3942 -273 0 0 0 0 0 14:54 22.11.2019
3943 Clear 10 1020 87 16093 1.5 50 14:36 22.11.2019
3944 Clear 9 1019 81 16093 0.62 346 14:18 22.11.2019
3945 Clear 10 1019 87 16093 2.1 70 13:38 22.11.2019
3946 Clear 10 1019 81 16093 0.24 3 13:19 22.11.2019
3947 Clear 10 1019 76 16093 0.24 3 12:58 22.11.2019
3948 Clouds 10 1019 81 16093 0.24 3 12:40 22.11.2019
3949 Clouds 10 1019 81 16093 0.24 3 12:40 22.11.2019
3950 Clear 10 1019 76 16093 0.24 3 12:19 22.11.2019
3951 Clear 11 1019 76 16093 2.1 330 11:57 22.11.2019
3952 Clouds 11 1019 81 16093 2.1 20 11:37 22.11.2019
3953 Clear 11 1019 76 16093 1.03 189 11:18 22.11.2019
3954 Clouds 11 1019 76 16093 1.03 189 10:54 22.11.2019
3955 Clouds 11 1019 76 16093 1.5 60 10:36 22.11.2019
3956 Clear 11 1019 76 16093 1.03 189 10:18 22.11.2019
3957 Clouds 11 1019 76 16093 1.03 189 09:41 22.11.2019
3958 Clear 12 1019 82 16093 1.03 189 09:21 22.11.2019
3959 Clouds 12 1018 76 16093 1.03 189 08:58 22.11.2019
3960 Clouds 12 1019 81 16093 2.1 350 08:39 22.11.2019
3961 Clouds 12 1018 76 16093 1.77 172 08:21 22.11.2019
3962 Clouds 12 1018 81 16093 2.1 340 07:43 22.11.2019
3963 Clear 12 1018 72 16093 1.77 172 07:21 22.11.2019
3964 Clouds 12 1018 81 16093 1.77 172 06:48 22.11.2019
3965 Clear 12 1017 72 16093 1.77 172 06:27 22.11.2019
3966 Clouds 12 1017 87 16093 1.5 280 05:37 22.11.2019
3967 Clear 14 1015 67 16093 3.36 196 03:34 22.11.2019
3968 Clouds 15 1015 71 16093 1.5 270 02:46 22.11.2019
3969 Clear 15 1014 59 16093 2.1 260 02:27 22.11.2019
3970 Clouds 16 1014 62 16093 4.1 230 01:43 22.11.2019
3971 Clouds 16 1013 52 16093 2.96 197 01:18 22.11.2019
3972 Clouds 17 1014 45 16093 2.96 197 00:49 22.11.2019
3973 Clouds 17 1013 49 16093 2.96 197 00:23 22.11.2019
3974 Clouds 17 1013 48 16093 2.1 0 23:44 21.11.2019
3975 Clear 17 1013 55 16093 2.6 160 23:25 21.11.2019
3976 Clouds 17 1012 48 16093 3.1 200 22:58 21.11.2019
3977 Clouds 17 1013 51 16093 2.1 290 22:38 21.11.2019
3978 Clouds 17 1013 51 16093 2.1 290 22:38 21.11.2019
3979 Clouds 17 1012 52 16093 2.68 189 22:20 21.11.2019
3980 Clouds 17 1012 48 16093 3.1 190 21:56 21.11.2019
3981 Clouds 17 1013 54 16093 2.68 189 21:37 21.11.2019
3982 Clouds 17 1012 48 16093 2.68 189 21:19 21.11.2019
3983 Clouds 17 1012 48 16093 2.68 189 20:57 21.11.2019
3984 Clear 17 1012 52 16093 1.5 100 20:38 21.11.2019
3985 Clear 17 1012 52 16093 1.5 100 20:19 21.11.2019
3986 Clear 16 1012 52 16093 1.5 100 19:59 21.11.2019
3987 Clear 16 1012 71 16093 3.1 120 19:39 21.11.2019
3988 Clear 15 1012 55 16093 1.5 0 19:21 21.11.2019
3989 Clear 15 1012 71 16093 3.1 90 18:56 21.11.2019
3990 Clear 15 1012 71 16093 3.1 90 18:37 21.11.2019
3991 Clear 14 1012 59 16093 2.1 0 18:18 21.11.2019
3992 Clouds 13 1012 71 16093 3.1 80 17:57 21.11.2019
3993 Clear 13 1012 71 16093 2.1 90 17:38 21.11.2019
3994 Clear 12 1011 58 16093 0.99 104 17:19 21.11.2019
3995 Clouds 10 1011 71 16093 1.5 0 16:41 21.11.2019
3996 Clouds 10 1011 76 16093 0.99 104 16:21 21.11.2019
3997 Haze 9 1010 81 4023 1.5 70 15:57 21.11.2019
3998 Haze 10 1010 81 4023 1.5 70 15:38 21.11.2019
3999 Clouds 10 1010 71 16093 0.99 104 15:19 21.11.2019
4000 Clouds 10 1010 81 16093 0.99 104 14:55 21.11.2019
4001 Clouds 10 1009 71 16093 0.99 104 14:36 21.11.2019
4002 Clear 10 1009 71 16093 3.01 90 14:18 21.11.2019
4003 Clouds 10 1009 87 16093 2.1 50 13:39 21.11.2019
4004 Clouds 10 1009 81 16093 2.6 96 13:20 21.11.2019
4005 Clouds 10 1008 76 16093 1.5 100 12:57 21.11.2019
4006 Clouds 10 1008 87 16093 2.1 80 12:38 21.11.2019
4007 Clouds 10 1008 58 16093 1.5 100 12:19 21.11.2019
4008 Clouds 10 1008 81 16093 2.6 80 11:41 21.11.2019
4009 Clouds 11 1008 76 16093 2.93 103 11:21 21.11.2019
4010 Rain 11 1007 71 16093 1.5 290 10:59 21.11.2019
4011 Rain 11 1008 81 16093 2.1 50 10:41 21.11.2019
4012 Rain 11 1007 62 16093 2.6 90 10:22 21.11.2019
4013 Rain 11 1007 71 16093 2.93 103 09:56 21.11.2019
4014 Rain 11 1008 58 16093 2.1 50 09:38 21.11.2019
4015 Rain 11 1008 58 16093 2.1 50 09:19 21.11.2019
4016 Rain 11 1008 58 16093 2.1 50 09:19 21.11.2019
4017 Rain 11 1007 76 16093 2.1 60 08:41 21.11.2019
4018 Rain 11 1007 62 16093 3.6 90 08:20 21.11.2019
4019 Rain 11 1007 87 16093 4.1 50 07:42 21.11.2019
4020 Rain 11 1007 62 16093 2.6 90 07:18 21.11.2019
4021 Rain 11 1007 62 16093 3.1 0 06:57 21.11.2019
4022 Rain 11 1006 67 16093 2.1 0 06:34 21.11.2019
4023 Rain 11 1006 76 16093 3.6 50 05:37 21.11.2019
4024 Clouds 11 1004 81 16093 3.1 70 03:34 21.11.2019
4025 Clouds 11 1003 81 16093 3.1 80 02:42 21.11.2019
4026 Clouds 11 1003 58 16093 3.27 114 02:20 21.11.2019
4027 Rain 11 1003 81 16093 2.6 70 01:42 21.11.2019
4028 Rain 12 1003 58 16093 2.1 0 01:19 21.11.2019
4029 Rain 12 1002 81 16093 4.1 70 00:37 21.11.2019
4030 Rain 12 1002 58 16093 2.6 0 00:18 21.11.2019
4031 Rain 12 1002 71 16093 3.6 90 23:41 20.11.2019
4032 Rain 12 1002 71 16093 4.1 70 23:21 20.11.2019
4033 Rain 12 1001 66 16093 6.2 140 22:56 20.11.2019
4034 Rain 12 1001 81 4828 2.6 80 22:37 20.11.2019
4035 Rain 12 1002 76 4828 2.6 0 22:19 20.11.2019
4036 Rain 12 1001 81 16093 6.2 130 21:57 20.11.2019
4037 Thunderstorm 13 1002 87 12874 4.1 100 21:38 20.11.2019
4038 Rain 13 1002 76 16093 3.61 107 21:19 20.11.2019
4039 Rain 13 1002 87 16093 3.1 30 20:55 20.11.2019
4040 Rain 13 1001 71 16093 3.1 130 20:55 20.11.2019
4041 Rain 12 1002 81 16093 4.43 109 20:37 20.11.2019
4042 Rain 12 1002 81 16093 4.43 109 20:37 20.11.2019
4043 Rain 12 1002 82 16093 3.15 228 20:19 20.11.2019
4044 Rain 12 1002 71 8047 2.6 70 19:55 20.11.2019
4045 Rain 13 1002 82 16093 3.15 228 19:36 20.11.2019
4046 Rain 13 1002 76 16093 1.5 40 19:18 20.11.2019
4047 Rain 13 1002 71 8047 2.6 0 18:57 20.11.2019
4048 Rain 13 1002 71 11265 2.6 40 18:38 20.11.2019
4049 Rain 13 1002 71 8047 3.15 228 18:20 20.11.2019
4050 Rain 13 1001 62 16093 1.5 80 17:55 20.11.2019
4051 Rain 13 1001 59 14484 3.15 228 17:37 20.11.2019
4052 Rain 13 1001 59 14484 5.89 252 17:18 20.11.2019
4053 Rain 12 1002 100 14484 3.1 230 16:41 20.11.2019
4054 Rain 12 1001 55 16093 2.1 250 16:20 20.11.2019
4055 Rain 12 1000 71 16093 2.1 0 15:58 20.11.2019
4056 Rain 12 1001 87 16093 3.6 230 15:40 20.11.2019
4057 Rain 12 1000 59 16093 3.6 260 15:20 20.11.2019
4058 Rain 13 999 76 4828 3.6 260 14:58 20.11.2019
4059 Rain 13 999 76 16093 3.6 270 14:39 20.11.2019
4060 Rain 13 999 67 16093 6.2 240 14:21 20.11.2019
4061 Clouds 13 999 76 16093 4.1 140 13:57 20.11.2019
4062 Rain 13 1000 87 16093 4.1 200 13:38 20.11.2019
4063 Rain 14 1000 72 16093 6.2 240 13:19 20.11.2019
4064 Rain 14 1000 87 16093 4.1 220 12:43 20.11.2019
4065 Clouds 14 999 67 16093 5.26 208 12:24 20.11.2019
4066 Clouds 14 1000 82 16093 4.1 230 11:58 20.11.2019
4067 Clouds 14 1000 72 16093 3.6 240 11:38 20.11.2019
4068 Clouds 14 1000 67 16093 1.5 0 11:20 20.11.2019
4069 Clouds 15 999 67 16093 4.1 160 10:55 20.11.2019
4070 Clouds 15 999 67 16093 4.1 160 10:37 20.11.2019
4071 Clouds 15 1000 72 16093 5.66 162 10:19 20.11.2019
4072 Clouds 15 1000 67 16093 4.6 270 09:43 20.11.2019
4073 Clouds 15 1000 68 16093 5.66 162 09:21 20.11.2019
4074 Clouds 15 1000 68 16093 5.66 162 09:21 20.11.2019
4075 Clouds 15 1000 82 16093 3.1 170 08:56 20.11.2019
4076 Clouds 15 1000 72 16093 5.66 162 08:38 20.11.2019
4077 Clouds 15 1000 72 16093 3.81 152 08:20 20.11.2019
4078 Clouds 16 1001 77 16093 3.92 148 07:45 20.11.2019
4079 Clouds 16 1001 72 16093 2.6 280 07:25 20.11.2019
4080 Clouds 16 1002 72 16093 5.1 270 06:49 20.11.2019
4081 Clouds 16 1001 72 16093 3.92 148 06:22 20.11.2019
4082 Clouds 17 1002 72 16093 3.92 148 05:39 20.11.2019
4083 Clouds 18 1003 82 16093 3.07 147 03:36 20.11.2019
4084 Clouds 19 1003 68 16093 4.66 174 02:21 20.11.2019
4085 Clouds 20 1003 56 16093 4.66 174 01:33 20.11.2019
4086 Clouds 21 1004 53 16093 4.6 220 00:42 20.11.2019
4087 Clouds 21 1004 18 16093 4.1 130 23:57 19.11.2019
4088 Clouds 22 1004 38 16093 4.31 181 23:27 19.11.2019
4089 Clouds 23 1004 28 16093 4.6 160 22:59 19.11.2019
4090 Clouds 23 1006 16 16093 5.7 270 22:41 19.11.2019
4091 Clouds 23 1005 36 16093 2.1 260 22:19 19.11.2019
4092 Clouds 24 1005 22 16093 4.1 170 21:57 19.11.2019
4093 Clouds 24 1006 13 16093 5.1 260 21:38 19.11.2019
4094 Clear 24 1006 36 16093 1.5 0 21:20 19.11.2019
4095 Clear 24 1006 36 16093 1.5 0 20:57 19.11.2019
4096 Clear 24 1007 11 16093 2.1 0 20:39 19.11.2019
4097 Clouds 24 1007 46 14484 6.7 250 20:20 19.11.2019
4098 Clear 23 1006 21 16093 1.57 169 19:59 19.11.2019
4099 Clear 23 1008 14 16093 2.1 60 19:41 19.11.2019
4100 Clear 23 1007 22 16093 1.5 0 19:19 19.11.2019
4101 Clear 22 1007 23 16093 1.57 169 18:56 19.11.2019
4102 Clear 22 1009 18 16093 2.6 100 18:38 19.11.2019
4103 Clear 21 1007 39 16093 1.57 169 18:18 19.11.2019
4104 Clear 20 1008 34 16093 1.5 320 17:56 19.11.2019
4105 Clear 19 1008 39 16093 1.57 169 17:37 19.11.2019
4106 Clear 18 1008 39 16093 0.95 204 17:18 19.11.2019
4107 Clouds 17 1008 48 16093 0.95 204 16:55 19.11.2019
4108 Clouds 16 1008 48 16093 0.95 204 16:37 19.11.2019
4109 Clouds 16 1008 48 16093 0.95 204 16:18 19.11.2019
4110 Clear 16 1008 48 16093 0.95 204 15:42 19.11.2019
4111 Clear 16 1008 48 16093 0.95 204 15:23 19.11.2019
4112 Clear 16 1008 38 16093 2.1 240 14:57 19.11.2019
4113 Clear 15 1007 39 16093 0.95 204 14:38 19.11.2019
4114 Clear 15 1007 39 16093 0.94 294 14:20 19.11.2019
4115 Clear 15 1007 45 16093 0.94 294 13:41 19.11.2019
4116 Clear 15 1007 45 16093 0.63 253 13:20 19.11.2019
4117 Clear 15 1008 48 16093 0.63 253 12:42 19.11.2019
4118 Clear 16 1008 48 16093 0.63 253 12:23 19.11.2019
4119 Clear 16 1008 36 16093 2.1 280 11:59 19.11.2019
4120 Clear 16 1009 19 16093 2.1 60 11:39 19.11.2019
4121 Clear 16 1008 45 16093 0.92 190 11:20 19.11.2019
4122 Clear 16 1009 27 16093 0.92 190 10:58 19.11.2019
4123 Clear 16 1009 20 16093 2.1 50 10:40 19.11.2019
4124 Clear 16 1009 48 16093 0.92 190 10:20 19.11.2019
4125 Clear 17 1011 22 16093 3.1 40 09:42 19.11.2019
4126 Clear 17 1010 48 16093 0.92 190 09:20 19.11.2019
4127 Clear 17 1011 34 16093 2.6 100 08:56 19.11.2019
4128 Clouds 17 1011 20 16093 3.1 40 08:38 19.11.2019
4129 Clear 17 1010 45 16093 1.13 83 08:20 19.11.2019
4130 Clear 18 1010 46 16093 2.1 90 07:42 19.11.2019
4131 Clear 18 1010 46 16093 2.1 90 07:23 19.11.2019
4132 Clouds 19 1012 19 16093 2.1 10 06:55 19.11.2019
4133 Clear 19 1009 46 16093 1.13 83 06:36 19.11.2019
4134 Clouds 20 1011 15 16093 4.1 60 05:51 19.11.2019
4135 Clear 20 1012 16 16093 0.45 259 04:48 19.11.2019
4136 Clear 22 1012 17 16093 3.6 300 03:35 19.11.2019
4137 Clear 23 1010 33 16093 0.45 259 02:59 19.11.2019
4138 Clear 24 1009 19 16093 1.5 270 02:33 19.11.2019
4139 Clear 26 1011 7 14484 2.1 280 01:46 19.11.2019
4140 Clear 28 1011 4 16093 2.33 264 00:41 19.11.2019
4141 Clear 29 1008 11 16093 2.6 270 00:19 19.11.2019
4142 Clear 29 1011 4 16093 2.33 264 23:38 18.11.2019
4143 Clear 31 1008 7 16093 1.89 286 23:19 18.11.2019
4144 Clear 31 1011 5 16093 1.5 0 22:46 18.11.2019
4145 Clear 31 1009 9 16093 1.89 286 22:24 18.11.2019
4146 Clear 31 1012 5 16093 1.5 0 21:57 18.11.2019
4147 Clear 31 1012 5 16093 1.5 0 21:39 18.11.2019
4148 Clear 31 1011 8 16093 1.89 286 21:20 18.11.2019
4149 Haze 30 1012 7 9656 1.5 0 20:57 18.11.2019
4150 Clear 30 1011 9 16093 1.89 286 20:57 18.11.2019
4151 Clear 30 1013 8 16093 2.6 120 20:39 18.11.2019
4152 Haze 29 1012 7 1207 0.27 177 20:18 18.11.2019
4153 Clear 28 1015 8 16093 1.5 160 19:56 18.11.2019
4154 Clear 27 1015 10 16093 1.5 0 19:37 18.11.2019
4155 Clear 27 1013 10 16093 1.5 80 19:19 18.11.2019
4156 Clear 26 1015 9 16093 0.27 177 18:55 18.11.2019
4157 Clear 25 1015 11 16093 1.5 140 18:37 18.11.2019
4158 Clear 24 1013 15 16093 0.27 177 18:19 18.11.2019
4159 Clear 22 1013 18 16093 1.5 330 17:55 18.11.2019
4160 Clear 23 1013 18 16093 1.5 330 17:55 18.11.2019
4161 Clear 22 1015 12 16093 0.27 177 17:36 18.11.2019
4162 Clear 22 1015 12 16093 0.27 177 17:36 18.11.2019
4163 Clear 20 1013 19 16093 0.93 68 17:18 18.11.2019
4164 Clear 16 1015 18 16093 2.1 100 16:42 18.11.2019
4165 Clear 16 1013 22 16093 1.5 10 16:23 18.11.2019
4166 Clear 16 1015 17 16093 0.93 68 15:56 18.11.2019
4167 Clear 16 1015 17 16093 0.93 68 15:56 18.11.2019
4168 Clear 16 1013 20 16093 2.1 20 15:38 18.11.2019
4169 Clear 16 1013 20 16093 2.1 20 15:20 18.11.2019
4170 Clear 16 1014 12 16093 0.93 68 14:43 18.11.2019
4171 Clear 16 1013 20 16093 2.1 20 14:24 18.11.2019
4172 Clear 16 1013 26 16093 2.1 340 13:57 18.11.2019
4173 Clear 16 1014 16 16093 2.1 30 13:39 18.11.2019
4174 Clear 16 1013 18 16093 2.1 20 13:21 18.11.2019
4175 Clear 17 1015 16 16093 1.5 20 12:40 18.11.2019
4176 Clear 17 1013 19 16093 1.46 35 12:20 18.11.2019
4177 Clear 17 1014 28 16093 1.46 35 11:55 18.11.2019
4178 Clear 17 1015 16 16093 1.5 60 11:37 18.11.2019
4179 Clear 17 1013 18 16093 1.57 36 11:19 18.11.2019
4180 Clear 18 1015 15 16093 3.1 350 10:42 18.11.2019
4181 Clear 18 1013 19 16093 1.5 30 10:23 18.11.2019
4182 Clear 18 1014 21 16093 1.5 200 09:57 18.11.2019
4183 Clear 18 1014 19 16093 1.5 360 09:38 18.11.2019
4184 Clear 18 1014 19 16093 1.5 360 09:19 18.11.2019
4185 Clear 18 1014 19 16093 1.5 360 09:19 18.11.2019
4186 Clear 18 1016 15 16093 2.1 10 08:47 18.11.2019
4187 Clear 18 1014 10 16093 1.5 20 08:24 18.11.2019
4188 Clear 19 1016 13 16093 2.6 310 07:55 18.11.2019
4189 Clear 19 1014 18 16093 1.57 50 07:37 18.11.2019
4190 Clear 19 1014 18 16093 1.57 50 07:19 18.11.2019
4191 Clear 20 1016 11 16093 2.1 350 06:41 18.11.2019
4192 Clear 20 1014 26 16093 1.57 50 06:21 18.11.2019
4193 Clear 21 1013 30 16093 1.57 50 05:26 18.11.2019
4194 Clear 23 1015 11 16093 2.6 10 03:53 18.11.2019
4195 Clear 27 1015 9 16093 2.62 302 01:40 18.11.2019
4196 Clear 30 1015 9 16093 2.1 120 00:53 18.11.2019
4197 Clear 30 1013 11 16093 2.1 250 00:18 18.11.2019
4198 Clear 31 1015 8 16093 4.1 230 23:40 17.11.2019
4199 Clear 31 1013 10 16093 1.44 349 23:21 17.11.2019
4200 Clear 31 1015 11 16093 4.6 140 22:57 17.11.2019
4201 Clear 31 1015 8 16093 4.1 260 22:39 17.11.2019
4202 Clear 31 1015 8 16093 4.1 260 22:39 17.11.2019
4203 Clear 31 1013 13 16093 1.44 349 22:20 17.11.2019
4204 Clear 31 1014 10 16093 3.1 150 21:55 17.11.2019
4205 Clear 31 1015 8 16093 4.1 270 21:36 17.11.2019
4206 Clear 30 1013 9 16093 1.44 349 21:18 17.11.2019
4207 Clear 30 1013 9 16093 1.44 349 21:18 17.11.2019
4208 Clear 30 1014 12 16093 3.6 120 20:54 17.11.2019
4209 Clear 30 1014 16 16093 1.33 302 20:36 17.11.2019
4210 Clear 28 1014 16 16093 0.82 129 20:18 17.11.2019
4211 Clear 28 1015 13 16093 2.6 150 19:55 17.11.2019
4212 Clear 28 1017 9 16093 3.1 280 19:36 17.11.2019
4213 Clear 27 1015 21 16093 0.82 129 19:18 17.11.2019
4214 Clear 27 1017 11 16093 3.1 270 18:54 17.11.2019
4215 Clear 27 1017 11 16093 3.1 270 18:54 17.11.2019
4216 Clear 26 1017 11 16093 4.1 300 18:36 17.11.2019
4217 Clear 25 1015 33 16093 0.82 129 18:18 17.11.2019
4218 Clear 23 1018 11 16093 4.1 280 17:56 17.11.2019
4219 Clear 23 1017 14 16093 3.6 270 17:38 17.11.2019
4220 Clear 19 1015 42 16093 1.21 33 17:18 17.11.2019
4221 Clear 17 1017 14 16093 1.5 280 16:42 17.11.2019
4222 Clear 16 1015 71 16093 1.21 33 16:22 17.11.2019
4223 Clear 17 1016 43 16093 1.5 320 15:59 17.11.2019
4224 Clear 17 1016 16 16093 1.21 33 15:41 17.11.2019
4225 Clear 17 1015 71 16093 1.21 33 15:19 17.11.2019
4226 Clear 16 1016 18 16093 1.21 33 14:57 17.11.2019
4227 Clear 16 1016 15 16093 1.21 33 14:39 17.11.2019
4228 Clear 14 1015 62 16093 0.93 15 14:20 17.11.2019
4229 Clear 14 1015 62 16093 0.93 15 13:59 17.11.2019
4230 Clear 14 1016 16 16093 3.1 10 13:40 17.11.2019
4231 Clear 14 1015 62 16093 1.01 21 13:20 17.11.2019
4232 Clear 14 1016 24 16093 1.01 21 12:45 17.11.2019
4233 Clear 14 1015 67 16093 1.01 21 12:24 17.11.2019
4234 Clear 14 1015 67 16093 1.01 21 11:59 17.11.2019
4235 Clear 15 1016 22 16093 1.01 21 11:40 17.11.2019
4236 Clear 15 1015 67 14484 1.5 350 11:21 17.11.2019
4237 Clear 15 1015 67 14484 1.5 350 11:21 17.11.2019
4238 Clear 15 1016 29 16093 2.6 240 10:59 17.11.2019
4239 Clear 15 1015 77 14484 0.75 332 10:40 17.11.2019
4240 Clear 15 1015 77 14484 0.75 332 10:21 17.11.2019
4241 Clear 15 1017 20 16093 1.5 30 09:42 17.11.2019
4242 Clear 15 1015 77 14484 0.75 332 09:24 17.11.2019
4243 Clear 15 1016 19 16093 3.6 360 08:44 17.11.2019
4244 Clear 15 1016 19 16093 3.6 360 08:44 17.11.2019
4245 Mist 15 1016 93 6437 0.79 136 08:26 17.11.2019
4246 Clear 16 1015 77 14484 0.79 136 07:58 17.11.2019
4247 Clear 15 1016 44 16093 0.79 136 07:58 17.11.2019
4248 -273 0 0 0 0 0 07:40 17.11.2019
4249 Clear 16 1015 82 12874 0.79 136 07:20 17.11.2019
4250 Clear 16 1016 18 16093 2.6 360 06:53 17.11.2019
4251 Clear 16 1015 77 11265 0.79 136 06:29 17.11.2019
4252 Clear 17 1015 77 12874 0.99 267 05:24 17.11.2019
4253 Clear 18 1015 77 14484 0.99 267 04:00 17.11.2019
4254 Haze 19 1016 32 6437 2.1 310 03:39 17.11.2019
4255 Clear 19 1014 77 16093 0.99 267 03:20 17.11.2019
4256 Clear 22 1014 36 16093 2.1 130 01:59 17.11.2019
4257 Clear 24 1013 47 16093 2.26 265 01:22 17.11.2019
4258 Clear 25 1015 20 16093 4.6 260 00:41 17.11.2019
4259 Clear 26 1013 41 16093 2.26 265 00:21 17.11.2019
4260 Clear 26 1014 13 16093 5.7 280 23:42 16.11.2019
4261 Clear 26 1013 41 16093 1.5 270 23:19 16.11.2019
4262 Clear 26 1014 15 16093 4.6 260 22:56 16.11.2019
4263 Clear 26 1014 15 16093 4.6 260 22:38 16.11.2019
4264 Clear 26 1013 44 16093 2.1 0 22:18 16.11.2019
4265 Clear 26 1015 13 16093 4.6 250 21:41 16.11.2019
4266 Clear 26 1014 44 14484 1.9 261 21:23 16.11.2019
4267 Clear 25 1014 22 16093 3.6 110 20:58 16.11.2019
4268 Clear 25 1015 16 14484 5.1 270 20:39 16.11.2019
4269 Clear 24 1015 47 11265 0.56 236 20:19 16.11.2019
4270 Clear 23 1015 25 16093 3.6 110 19:56 16.11.2019
4271 Clear 22 1016 16 16093 3.6 260 19:38 16.11.2019
4272 Haze 21 1016 60 8047 0.56 236 19:19 16.11.2019
4273 Clear 21 1017 19 16093 3.1 280 18:43 16.11.2019
4274 Haze 19 1016 72 6437 0.56 236 18:25 16.11.2019
4275 Haze 18 1016 77 6437 2.6 320 17:56 16.11.2019
4276 Clear 18 1016 37 14484 0.56 236 17:37 16.11.2019
4277 Haze 14 1015 72 8047 0.71 296 17:18 16.11.2019
4278 Clouds 13 1016 93 1609 3.6 290 16:46 16.11.2019
4279 Haze 12 1015 81 8047 0.71 296 16:28 16.11.2019
4280 Clear 12 1015 66 16093 0.71 296 15:56 16.11.2019
4281 Clear 11 1016 54 14484 0.71 296 15:38 16.11.2019
4282 Haze 11 1015 81 9656 0.71 296 15:20 16.11.2019
4283 Clear 12 1015 54 16093 0.71 296 14:41 16.11.2019
4284 Haze 11 1015 82 9656 0.61 289 14:22 16.11.2019
4285 Haze 12 1015 82 9656 0.61 289 13:58 16.11.2019
4286 Clouds 11 1015 50 16093 0.61 289 13:39 16.11.2019
4287 Clouds 11 1015 50 16093 0.61 289 13:39 16.11.2019
4288 Haze 11 1014 87 9656 0.81 289 13:19 16.11.2019
4289 Haze 12 1014 87 9656 0.81 289 12:59 16.11.2019
4290 Clear 12 1015 62 11265 2.1 60 12:41 16.11.2019
4291 Haze 12 1015 82 9656 0.81 289 12:20 16.11.2019
4292 Haze 12 1015 82 9656 0.81 289 12:20 16.11.2019
4293 Clear 12 1016 66 14484 1.5 90 11:47 16.11.2019
4294 Rain 12 1015 82 9656 0.81 289 11:28 16.11.2019
4295 Rain 12 1015 82 9656 1.09 244 10:59 16.11.2019
4296 Rain 12 1016 82 9656 1.09 244 10:41 16.11.2019
4297 Haze 12 1016 82 9656 1.09 244 10:22 16.11.2019
4298 Clear 12 1016 54 16093 1.09 244 09:56 16.11.2019
4299 Clear 12 1016 54 16093 1.09 244 09:38 16.11.2019
4300 Clear 12 1016 82 11265 1.09 244 09:19 16.11.2019
4301 Clear 12 1016 62 16093 1.5 30 08:40 16.11.2019
4302 Clear 13 1016 82 12874 1 206 08:20 16.11.2019
4303 Clouds 13 1017 62 16093 1 206 07:44 16.11.2019
4304 Clear 13 1016 77 12874 1 206 07:22 16.11.2019
4305 Clear 13 1016 77 12874 1 206 06:59 16.11.2019
4306 Clouds 13 1016 76 11265 1 206 06:41 16.11.2019
4307 Clear 13 1016 82 14484 1 206 06:19 16.11.2019
4308 Clear 15 1016 77 16093 1.34 226 04:21 16.11.2019
4309 Clear 15 1016 77 16093 1.34 226 04:21 16.11.2019
4310 Clear 16 1015 72 16093 1.34 226 03:26 16.11.2019
4311 Clear 17 1016 68 16093 1.34 226 02:36 16.11.2019
4312 Haze 18 1016 55 8047 3.6 270 01:38 16.11.2019
4313 Clear 19 1017 49 16093 2.77 237 00:49 16.11.2019
4314 Clear 19 1016 64 16093 2.1 260 00:29 16.11.2019
4315 Clear 20 1016 63 16093 4.1 210 23:56 15.11.2019
4316 Haze 20 1016 53 4828 2.77 237 23:38 15.11.2019
4317 Haze 20 1016 53 4828 1.82 211 23:20 15.11.2019
4318 Haze 20 1017 46 8047 2.1 0 22:40 15.11.2019
4319 Haze 20 1017 56 6437 1.82 211 22:20 15.11.2019
4320 Clear 20 1018 45 16093 1.82 211 21:57 15.11.2019
4321 Haze 20 1018 60 8047 1.82 211 21:38 15.11.2019
4322 Haze 19 1018 60 8047 1.82 211 21:20 15.11.2019
4323 Haze 19 1018 59 9656 1.82 211 20:56 15.11.2019
4324 Clouds 19 1019 72 0 1.5 220 20:38 15.11.2019
4325 Clouds 18 1020 68 11265 1.5 250 20:20 15.11.2019
4326 Clouds 18 1020 68 11265 3.1 210 19:57 15.11.2019
4327 Clouds 17 1020 68 11265 2.6 230 19:38 15.11.2019
4328 Clouds 17 1020 68 11265 2.6 230 19:19 15.11.2019
4329 Haze 17 1021 82 6437 2.1 300 18:55 15.11.2019
4330 Haze 17 1020 72 6437 1.04 161 18:37 15.11.2019
4331 Haze 16 1020 72 6437 1.04 161 18:19 15.11.2019
4332 Haze 15 1020 82 8047 2.1 50 17:41 15.11.2019
4333 Haze 14 1020 77 6437 1.5 0 17:23 15.11.2019
4334 Haze 13 1020 67 4023 1.41 193 16:56 15.11.2019
4335 Haze 13 1020 67 4023 1.41 193 16:37 15.11.2019
4336 Haze 13 1020 82 6437 1.41 193 16:19 15.11.2019
4337 Haze 12 1019 76 3219 1.41 193 15:38 15.11.2019
4338 Haze 12 1019 76 3219 1.41 193 15:38 15.11.2019
4339 Haze 12 1019 77 9656 1.41 193 15:20 15.11.2019
4340 Haze 12 1019 81 8047 1.41 193 14:57 15.11.2019
4341 Clouds 12 1019 62 12874 1.41 193 14:38 15.11.2019
4342 Haze 12 1019 82 9656 1.45 235 14:19 15.11.2019
4343 Mist 12 1019 87 8047 1.45 235 13:57 15.11.2019
4344 Clouds 12 1019 66 12874 3.1 290 13:39 15.11.2019
4345 Clouds 12 1020 87 14484 1.33 224 13:20 15.11.2019
4346 Rain 12 1020 81 9656 1.33 224 12:57 15.11.2019
4347 Rain 12 1020 87 14484 1.33 224 12:39 15.11.2019
4348 Rain 12 1019 87 16093 1.33 224 12:20 15.11.2019
4349 Mist 12 1019 87 9656 1.33 224 11:56 15.11.2019
4350 Clear 12 1019 66 12874 2.6 70 11:38 15.11.2019
4351 Clear 12 1019 82 16093 1.5 90 11:19 15.11.2019
4352 Haze 12 1020 67 9656 2.1 360 10:41 15.11.2019
4353 Clear 13 1020 82 16093 1.12 195 10:22 15.11.2019
4354 Haze 13 1020 82 11265 2.1 350 09:58 15.11.2019
4355 Haze 13 1020 76 6437 2.6 280 09:40 15.11.2019
4356 Clear 13 1020 82 16093 1.5 100 09:19 15.11.2019
4357 Haze 13 1020 77 6437 1.5 70 08:44 15.11.2019
4358 Clear 13 1020 82 16093 1.64 185 08:23 15.11.2019
4359 Haze 13 1020 77 8047 2.6 80 07:49 15.11.2019
4360 Haze 13 1020 82 8047 2.1 120 07:28 15.11.2019
4361 Haze 14 1020 82 8047 1.5 100 06:50 15.11.2019
4362 Haze 14 1020 82 8047 1.5 100 06:31 15.11.2019
4363 Haze 15 1020 87 9656 1.5 280 05:48 15.11.2019
4364 Clear 15 1020 82 16093 1.64 185 05:26 15.11.2019
4365 Haze 16 1019 77 9656 4.6 260 03:56 15.11.2019
4366 Clear 16 1019 72 16093 2.41 235 03:24 15.11.2019
4367 Clear 17 1018 68 16093 1.5 250 02:21 15.11.2019
4368 Clear 18 1018 68 16093 2.1 250 01:33 15.11.2019
4369 Clouds 19 1018 68 16093 7.2 260 00:54 15.11.2019
4370 Clear 20 1018 60 11265 4.05 248 00:33 15.11.2019
4371 Clouds 21 1018 68 16093 6.2 280 23:57 14.11.2019
4372 Haze 21 1018 46 4828 4.1 260 23:38 14.11.2019
4373 Clear 21 1018 56 11265 1.5 0 23:18 14.11.2019
4374 Clear 21 1018 56 11265 1.5 0 23:18 14.11.2019
4375 Haze 21 1018 43 4828 4.1 260 22:40 14.11.2019
4376 Haze 21 1018 56 6437 2.12 215 22:21 14.11.2019
4377 Haze 21 1018 60 8047 3.1 200 21:57 14.11.2019
4378 Haze 21 1018 40 6437 3.1 220 21:38 14.11.2019
4379 Haze 21 1018 40 6437 3.1 220 21:38 14.11.2019
4380 Haze 21 1018 56 4828 2.12 215 21:20 14.11.2019
4381 Haze 20 1019 49 4828 2.1 0 20:42 14.11.2019
4382 Haze 19 1019 64 4828 1.9 226 20:24 14.11.2019
4383 Haze 19 1019 68 8047 3.1 250 19:59 14.11.2019
4384 Haze 18 1019 68 4828 1.9 226 19:41 14.11.2019
4385 Haze 18 1020 72 6437 1.9 226 19:18 14.11.2019
4386 Haze 17 1020 72 6437 1.9 226 18:56 14.11.2019
4387 Haze 17 1020 72 6437 1.9 226 18:56 14.11.2019
4388 Haze 17 1020 72 6437 1.5 0 18:38 14.11.2019
4389 Haze 17 1020 77 4828 1.5 150 18:20 14.11.2019
4390 Haze 16 1021 72 8047 1.9 226 17:56 14.11.2019
4391 Haze 16 1020 77 6437 1.9 226 17:37 14.11.2019
4392 Haze 14 1020 77 6437 2.1 120 17:19 14.11.2019
4393 Haze 14 1020 82 6437 1.5 70 16:57 14.11.2019
4394 Mist 13 1019 93 2414 2.1 250 16:37 14.11.2019
4395 Mist 13 1019 93 2414 2.1 250 16:37 14.11.2019
4396 Mist 13 1019 77 6437 1.09 198 16:18 14.11.2019
4397 Clouds 12 1019 100 16093 1.09 198 15:56 14.11.2019
4398 Clouds 12 1019 100 16093 1.09 198 15:56 14.11.2019
4399 Haze 12 1019 66 8047 1.09 198 15:38 14.11.2019
4400 Haze 12 1019 66 8047 1.09 198 15:38 14.11.2019
4401 Haze 12 1018 87 6437 1.09 198 15:19 14.11.2019
4402 Haze 12 1018 82 8047 1.5 0 14:44 14.11.2019
4403 Rain 12 1018 87 8047 1.26 195 14:22 14.11.2019
4404 Haze 12 1018 81 9656 1.5 270 13:57 14.11.2019
4405 Mist 12 1018 87 8047 1.5 300 13:38 14.11.2019
4406 Haze 12 1017 82 6437 1.26 193 13:19 14.11.2019
4407 Haze 12 1017 81 8047 1.26 193 12:56 14.11.2019
4408 Haze 12 1018 87 8047 1.26 193 12:37 14.11.2019
4409 Haze 12 1018 87 8047 1.26 193 12:18 14.11.2019
4410 Haze 13 1018 82 8047 1.26 193 11:39 14.11.2019
4411 Haze 13 1018 82 8047 1.74 199 11:20 14.11.2019
4412 Haze 13 1018 82 8047 1.74 199 11:20 14.11.2019
4413 Haze 13 1018 82 8047 1.74 199 11:20 14.11.2019
4414 Haze 13 1018 82 9656 1.74 199 10:59 14.11.2019
4415 Haze 13 1018 62 9656 1.74 199 10:40 14.11.2019
4416 Haze 13 1017 82 9656 1.74 199 10:20 14.11.2019
4417 Haze 12 1017 82 9656 1.74 199 09:56 14.11.2019
4418 Haze 12 1017 82 9656 1.74 199 09:38 14.11.2019
4419 Clouds 14 1018 82 14484 1.5 240 09:19 14.11.2019
4420 Clouds 14 1017 87 12874 1.74 199 08:47 14.11.2019
4421 Clear 14 1017 77 11265 1.74 199 08:26 14.11.2019
4422 Haze 15 1017 87 9656 1.46 196 07:57 14.11.2019
4423 Clouds 15 1017 82 12874 1.46 196 07:38 14.11.2019
4424 Clear 15 1017 77 12874 1.46 196 07:19 14.11.2019
4425 Clouds 15 1017 82 12874 1.46 196 06:43 14.11.2019
4426 Clouds 15 1017 77 16093 1.46 196 06:19 14.11.2019
4427 Clouds 16 1017 87 16093 2.1 250 04:48 14.11.2019
4428 Clouds 16 1016 72 16093 2.1 270 04:26 14.11.2019
4429 Clouds 18 1016 72 16093 1.5 250 02:49 14.11.2019
4430 Clouds 18 1016 72 16093 1.5 250 02:28 14.11.2019
4431 Clear 20 1015 68 12874 1.5 0 01:33 14.11.2019
4432 Clouds 22 1016 72 16093 6.7 270 00:55 14.11.2019
4433 Clouds 22 1016 72 16093 6.7 270 00:33 14.11.2019
4434 Clear 22 1015 52 12874 4.1 180 23:58 13.11.2019
4435 Haze 22 1015 33 9656 3.1 260 23:37 13.11.2019
4436 Haze 22 1015 60 8047 2.6 0 23:18 13.11.2019
4437 Haze 22 1015 56 6437 2.1 260 22:41 13.11.2019
4438 Haze 22 1015 56 6437 2.1 260 22:22 13.11.2019
4439 Haze 22 1015 64 4828 2.34 233 21:57 13.11.2019
4440 Haze 22 1015 64 4828 2.34 233 21:39 13.11.2019
4441 Haze 22 1016 68 4828 3.1 0 21:20 13.11.2019
4442 Haze 21 1015 56 4828 2.34 233 20:58 13.11.2019
4443 Clear 21 1015 38 14484 2.1 170 20:58 13.11.2019
4444 Clear 21 1016 23 12874 3.1 250 20:38 13.11.2019
4445 Haze 20 1016 56 4828 1.39 243 20:19 13.11.2019
4446 Clear 20 1018 30 16093 1.5 140 19:59 13.11.2019
4447 Haze 19 1017 82 4828 2.6 0 19:40 13.11.2019
4448 Haze 19 1017 72 4828 2.6 0 19:18 13.11.2019
4449 Haze 18 1017 82 2816 1.39 243 18:55 13.11.2019
4450 Clear 18 1017 48 16093 1.39 243 18:37 13.11.2019
4451 Mist 17 1017 77 4023 1.39 243 18:18 13.11.2019
4452 Mist 16 1017 87 2414 1.39 243 17:56 13.11.2019
4453 Haze 16 1017 72 3219 1.39 243 17:38 13.11.2019
4454 Haze 15 1017 82 3219 0.86 205 17:19 13.11.2019
4455 Haze 14 1017 82 9656 0.86 205 16:56 13.11.2019
4456 Haze 13 1016 82 3219 0.95 217 16:37 13.11.2019
4457 Rain 13 1016 82 3219 0.86 205 16:19 13.11.2019
4458 Clear 13 1016 76 16093 0.86 205 15:57 13.11.2019
4459 Haze 13 1016 82 4023 0.86 205 15:38 13.11.2019
4460 Mist 13 1016 87 4023 0.86 205 15:18 13.11.2019
4461 Haze 13 1016 38 9656 0.86 205 14:41 13.11.2019
4462 Haze 13 1016 71 6437 1.5 350 14:21 13.11.2019
4463 Mist 13 1016 82 4828 0.84 231 13:56 13.11.2019
4464 Rain 13 1016 66 16093 1.02 232 13:36 13.11.2019
4465 Rain 13 1016 93 4023 1.02 232 13:18 13.11.2019
4466 Clear 13 1016 38 16093 2.6 30 12:42 13.11.2019
4467 Haze 13 1016 82 4828 1.02 232 12:24 13.11.2019
4468 Haze 13 1016 81 402 1.02 232 11:59 13.11.2019
4469 Clear 13 1016 66 16093 1.02 232 11:38 13.11.2019
4470 Haze 13 1016 82 6437 0.74 214 11:19 13.11.2019
4471 Mist 14 1016 87 6437 0.74 214 10:57 13.11.2019
4472 Clear 14 1016 33 16093 1.5 40 10:39 13.11.2019
4473 Haze 14 1016 77 6437 0.74 214 10:19 13.11.2019
4474 Mist 14 1016 82 3219 0.74 214 09:43 13.11.2019
4475 Haze 14 1017 77 8047 0.74 214 09:21 13.11.2019
4476 Mist 14 1016 87 8047 2.6 350 09:21 13.11.2019
4477 Mist 14 1016 87 8047 2.6 350 09:21 13.11.2019
4478 Mist 14 1016 87 8047 2.6 350 09:21 13.11.2019
4479 Clouds 14 1017 77 14484 0.74 214 08:55 13.11.2019
4480 Haze 14 1017 82 9656 0.74 214 08:36 13.11.2019
4481 Haze 14 1017 82 9656 0.81 195 08:18 13.11.2019
4482 Clear 15 1017 42 16093 0.97 201 07:42 13.11.2019
4483 Clouds 15 1017 82 11265 0.97 201 07:20 13.11.2019
4484 Clouds 15 1017 82 11265 2.1 310 06:43 13.11.2019
4485 Clouds 15 1016 82 11265 0.97 201 06:19 13.11.2019
4486 Clouds 15 1016 82 11265 0.97 201 06:19 13.11.2019
4487 Clouds 15 1016 82 11265 0.97 201 06:19 13.11.2019
4488 Clouds 15 1016 82 11265 0.97 201 06:19 13.11.2019
4489 Clouds 15 1016 82 11265 0.97 201 06:19 13.11.2019
4490 Clouds 16 1016 77 11265 0.97 201 05:52 13.11.2019
4491 Clouds 16 1016 77 11265 1.5 0 05:30 13.11.2019
4492 Clouds 17 1017 82 14484 2.1 270 04:21 13.11.2019
4493 Haze 20 1015 72 9656 2.1 260 02:18 13.11.2019
4494 Clear 21 1016 27 16093 4.1 260 01:41 13.11.2019
4495 Clear 22 1016 19 16093 4.1 260 00:44 13.11.2019
4496 Clear 24 1015 56 11265 1.5 0 00:19 13.11.2019
4497 Clear 24 1016 12 16093 4.1 270 23:41 12.11.2019
4498 Clear 24 1016 12 16093 4.1 270 23:41 12.11.2019
4499 Clear 25 1015 50 12874 2.6 250 23:21 12.11.2019
4500 Clear 25 1015 50 12874 2.6 250 23:21 12.11.2019
4501 Clear 25 1015 26 16093 3.1 130 22:54 12.11.2019
4502 Clear 25 1016 14 16093 4.1 250 22:36 12.11.2019
4503 Haze 25 1016 50 9656 2.47 248 22:18 12.11.2019
4504 Clear 25 1017 17 16093 3.1 240 21:43 12.11.2019
4505 Haze 25 1017 50 8047 2.47 248 21:24 12.11.2019
4506 Clear 24 1017 24 16093 2.1 150 20:57 12.11.2019
4507 Haze 24 1017 56 4828 2.47 248 20:37 12.11.2019
4508 Haze 22 1018 60 6437 0.91 231 20:19 12.11.2019
4509 Haze 21 1018 60 6437 0.91 231 19:57 12.11.2019
4510 Haze 21 1018 68 4828 0.91 231 19:39 12.11.2019
4511 Haze 20 1018 68 4828 0.91 231 19:19 12.11.2019
4512 Haze 19 1018 68 4828 0.91 231 18:58 12.11.2019
4513 Haze 18 1019 72 4828 0.91 231 18:39 12.11.2019
4514 Mist 17 1019 72 4828 1.5 310 18:21 12.11.2019
4515 Clear 16 1020 52 16093 0.91 231 17:57 12.11.2019
4516 Haze 15 1019 82 3219 0.91 231 17:39 12.11.2019
4517 Haze 15 1019 82 2414 0.93 261 17:21 12.11.2019
4518 Haze 14 1019 76 9656 0.93 261 16:57 12.11.2019
4519 Mist 14 1018 82 2414 0.93 261 16:39 12.11.2019
4520 Mist 13 1018 82 2414 0.93 261 16:20 12.11.2019
4521 Clear 13 1018 25 16093 2.6 30 15:41 12.11.2019
4522 Haze 13 1018 82 2816 0.93 261 15:21 12.11.2019
4523 Mist 13 1018 87 4023 0.93 261 14:56 12.11.2019
4524 Mist 13 1018 66 4828 0.93 261 14:37 12.11.2019
4525 Mist 13 1017 82 3219 1.02 245 14:18 12.11.2019
4526 Mist 13 1018 82 3219 2.1 290 13:56 12.11.2019
4527 Mist 13 1017 82 2816 1.02 245 13:37 12.11.2019
4528 Mist 13 1017 49 2012 0.98 272 13:18 12.11.2019
4529 Mist 13 1017 82 3219 0.98 272 12:42 12.11.2019
4530 Mist 13 1017 82 3219 0.98 272 12:42 12.11.2019
4531 Mist 13 1017 82 3219 0.98 272 12:19 12.11.2019
4532 Mist 13 1017 82 3219 1.04 263 11:58 12.11.2019
4533 Mist 13 1018 82 8047 2.1 320 11:40 12.11.2019
4534 Mist 13 1018 82 8047 2.1 320 11:21 12.11.2019
4535 Clouds 13 1018 77 11265 3.1 280 10:56 12.11.2019
4536 Mist 13 1018 100 2816 2.1 300 10:37 12.11.2019
4537 Haze 13 1018 82 6437 0.15 234 10:19 12.11.2019
4538 Clear 13 1018 59 16093 0.15 234 09:42 12.11.2019
4539 Clear 13 1018 87 11265 0.3 162 09:21 12.11.2019
4540 Mist 13 1018 93 6437 0.15 234 08:54 12.11.2019
4541 Clear 14 1018 58 16093 0.15 234 08:36 12.11.2019
4542 Mist 14 1018 87 9656 1.13 255 08:18 12.11.2019
4543 Clear 14 1018 59 16093 1.13 255 07:40 12.11.2019
4544 Haze 14 1018 82 8047 1.13 255 07:20 12.11.2019
4545 Clouds 15 1018 82 11265 2.6 250 06:42 12.11.2019
4546 Clouds 15 1018 82 11265 2.6 250 06:22 12.11.2019
4547 Clouds 15 1017 82 14484 3.6 270 05:46 12.11.2019
4548 Clear 16 1017 77 11265 1.5 200 04:44 12.11.2019
4549 Clear 17 1017 63 14484 2.1 300 03:39 12.11.2019
4550 Clear 20 1016 46 11265 4.1 260 01:47 12.11.2019
4551 Haze 21 1016 60 9656 2.1 0 01:22 12.11.2019
4552 Clouds 21 1016 72 16093 5.7 270 00:47 12.11.2019
4553 Clear 22 1016 56 11265 2.1 280 00:24 12.11.2019
4554 Clear 22 1016 38 12874 4.1 260 23:44 11.11.2019
4555 Haze 23 1016 64 8047 3.6 280 23:23 11.11.2019
4556 Clear 23 1015 47 12874 3.6 160 22:57 11.11.2019
4557 Clear 23 1016 27 16093 4.6 250 22:36 11.11.2019
4558 Clear 23 1016 27 16093 4.6 250 22:36 11.11.2019
4559 Haze 23 1016 56 9656 2.1 260 22:18 11.11.2019
4560 Haze 23 1016 56 9656 2.1 260 22:18 11.11.2019
4561 Clear 22 1016 44 11265 2.1 0 21:56 11.11.2019
4562 Haze 22 1016 53 8047 1.5 250 21:38 11.11.2019
4563 Haze 22 1016 53 8047 1.5 250 21:19 11.11.2019
4564 Clear 20 1017 40 14484 2.6 250 20:42 11.11.2019
4565 Haze 20 1017 56 6437 1.51 245 20:20 11.11.2019
4566 Haze 19 1017 55 8047 1.51 245 19:58 11.11.2019
4567 Haze 19 1018 52 8047 1.5 270 19:40 11.11.2019
4568 Haze 18 1017 60 6437 1.51 245 19:18 11.11.2019
4569 Haze 18 1018 67 6437 1.51 245 18:55 11.11.2019
4570 Haze 17 1017 68 6437 1.51 245 18:37 11.11.2019
4571 Haze 17 1017 68 4828 1.51 245 18:19 11.11.2019
4572 Haze 16 1018 72 8047 1.5 260 17:42 11.11.2019
4573 Haze 15 1017 68 4828 1.21 213 17:24 11.11.2019
4574 Clear 14 1017 66 16093 2.6 120 16:42 11.11.2019
4575 Haze 14 1016 72 4828 1.21 213 16:24 11.11.2019
4576 -273 0 0 0 0 0 15:59 11.11.2019
4577 Mist 14 1016 87 3219 1.21 213 15:40 11.11.2019
4578 Haze 14 1016 77 8047 1.21 213 15:19 11.11.2019
4579 Haze 14 1016 77 8047 1.21 213 15:19 11.11.2019
4580 Haze 14 1016 77 8047 1.21 213 15:19 11.11.2019
4581 Haze 14 1016 77 8047 1.21 213 15:19 11.11.2019
4582 Clear 14 1016 66 16093 1.21 213 14:44 11.11.2019
4583 Mist 14 1016 87 4828 1.21 213 14:25 11.11.2019
4584 Haze 14 1015 77 8047 1.5 0 13:58 11.11.2019
4585 Clear 14 1016 66 16093 1.65 204 13:38 11.11.2019
4586 Haze 14 1015 77 6437 1.44 212 13:19 11.11.2019
4587 Haze 14 1015 77 6437 1.44 212 12:57 11.11.2019
4588 Clear 14 1016 76 11265 1.5 340 12:39 11.11.2019
4589 Clear 14 1016 76 11265 1.5 340 12:39 11.11.2019
4590 Haze 14 1016 82 8047 1.44 212 12:21 11.11.2019
4591 Clear 14 1016 62 16093 1.44 212 11:43 11.11.2019
4592 Haze 14 1016 82 6437 1.5 150 11:22 11.11.2019
4593 Haze 14 1015 82 4828 1.16 209 10:58 11.11.2019
4594 Clear 14 1016 54 16093 1.16 209 10:39 11.11.2019
4595 Haze 15 1016 82 4828 1.16 209 10:18 11.11.2019
4596 Mist 14 1016 93 6437 1.16 209 09:56 11.11.2019
4597 Mist 15 1016 93 4828 2.6 160 09:36 11.11.2019
4598 Haze 15 1016 82 6437 1.16 209 09:18 11.11.2019
4599 Mist 14 1016 93 2816 2.6 130 08:39 11.11.2019
4600 Haze 15 1016 82 6437 1.5 120 08:20 11.11.2019
4601 Mist 15 1016 100 2414 2.1 140 07:56 11.11.2019
4602 Clear 15 1016 62 16093 1.64 212 07:37 11.11.2019
4603 Clear 15 1016 62 16093 1.64 212 07:37 11.11.2019
4604 Haze 15 1016 82 4828 1.64 212 07:18 11.11.2019
4605 Haze 15 1015 82 6437 1.64 212 06:46 11.11.2019
4606 Haze 15 1015 82 6437 1.64 212 06:22 11.11.2019
4607 Clear 15 1015 67 16093 1.64 212 05:50 11.11.2019
4608 Haze 16 1015 82 9656 2.08 202 04:29 11.11.2019
4609 Clear 17 1014 77 12874 2.08 202 03:23 11.11.2019
4610 Clear 18 1014 72 12874 2.08 202 02:24 11.11.2019
4611 Clear 19 1014 72 12874 3.39 221 01:55 11.11.2019
4612 Clear 20 1014 60 14484 1.5 260 01:34 11.11.2019
4613 Clear 22 1015 41 16093 2.6 130 00:48 11.11.2019
4614 Clear 22 1014 56 14484 3.24 205 00:20 11.11.2019
4615 Clear 23 1014 53 12874 2.1 250 23:39 10.11.2019
4616 Clear 23 1014 53 12874 2.1 250 23:20 10.11.2019
4617 Clear 24 1014 33 16093 4.1 130 22:58 10.11.2019
4618 Clear 24 1015 27 16093 4.1 280 22:38 10.11.2019
4619 Clouds 23 1015 60 16093 2.6 280 22:20 10.11.2019
4620 Clear 23 1014 33 16093 2.6 130 21:58 10.11.2019
4621 Clear 23 1014 33 16093 2.6 130 21:58 10.11.2019
4622 Clear 23 1014 33 16093 2.6 130 21:58 10.11.2019
4623 Clear 23 1015 23 16093 4.1 250 21:40 10.11.2019
4624 Haze 23 1015 53 9656 1.5 0 21:21 10.11.2019
4625 Haze 23 1015 53 9656 1.5 0 20:58 10.11.2019
4626 Haze 22 1016 60 8047 2.5 225 20:38 10.11.2019
4627 Haze 22 1016 60 8047 1.33 207 20:20 10.11.2019
4628 Haze 22 1016 60 8047 1.33 207 20:20 10.11.2019
4629 Haze 21 1016 60 8047 1.33 207 19:55 10.11.2019
4630 Haze 21 1017 77 6437 1.33 207 19:37 10.11.2019
4631 Haze 21 1017 77 8047 1.5 0 19:18 10.11.2019
4632 Clear 20 1018 30 16093 2.1 120 18:54 10.11.2019
4633 Haze 19 1017 82 4828 1.33 207 18:36 10.11.2019
4634 Haze 19 1017 77 9656 2.1 150 18:18 10.11.2019
4635 Clear 18 1017 33 16093 1.33 207 17:55 10.11.2019
4636 Mist 18 1017 82 3219 1.33 207 17:37 10.11.2019
4637 Mist 16 1017 87 2816 0.71 184 17:19 10.11.2019
4638 Clear 15 1018 25 16093 0.71 184 16:44 10.11.2019
4639 Mist 14 1017 87 1609 1.5 0 16:25 10.11.2019
4640 Clear 14 1016 43 16093 0.71 184 15:57 10.11.2019
4641 Fog 13 1016 93 402 1.5 40 15:38 10.11.2019
4642 Mist 13 1016 87 1609 4.1 90 15:19 10.11.2019
4643 Mist 13 1016 87 1609 4.1 90 15:19 10.11.2019
4644 Mist 13 1016 87 1609 4.1 90 15:19 10.11.2019
4645 Mist 13 1016 87 1609 4.1 90 15:19 10.11.2019
4646 Fog 14 1016 87 402 0.71 184 14:59 10.11.2019
4647 Fog 14 1016 82 805 1.5 100 14:39 10.11.2019
4648 Clouds 14 1016 71 16093 1.5 80 14:21 10.11.2019
4649 Clear 14 1015 72 16093 1.5 90 13:56 10.11.2019
4650 Fog 14 1016 87 805 3.6 110 13:38 10.11.2019
4651 Fog 14 1016 87 805 3.6 110 13:19 10.11.2019
4652 Haze 14 1016 82 9656 1.5 150 12:41 10.11.2019
4653 Clouds 14 1016 77 14484 1.11 207 12:20 10.11.2019
4654 Haze 15 1016 82 9656 1.11 207 11:57 10.11.2019
4655 Clear 15 1016 15 16093 1.11 207 11:38 10.11.2019
4656 Clouds 15 1016 82 11265 1.5 100 11:20 10.11.2019
4657 Clear 15 1016 30 16093 0.94 165 10:55 10.11.2019
4658 Clear 15 1016 59 16093 1.5 80 10:37 10.11.2019
4659 Clear 16 1016 59 16093 1.5 80 10:18 10.11.2019
4660 Clear 16 1017 13 16093 2.1 70 09:41 10.11.2019
4661 Clear 16 1016 52 16093 1.5 100 09:22 10.11.2019
4662 Clear 17 1017 15 16093 0.94 165 08:40 10.11.2019
4663 Clear 17 1015 68 16093 1.15 146 08:21 10.11.2019
4664 Clear 17 1015 68 16093 1.15 146 07:56 10.11.2019
4665 Clear 17 1017 13 16093 2.1 50 07:37 10.11.2019
4666 Clear 18 1015 63 16093 1.15 146 07:18 10.11.2019
4667 Clear 17 1015 64 16093 1.15 146 06:25 10.11.2019
4668 Clear 19 1017 15 16093 0.4 190 04:46 10.11.2019
4669 Clear 23 1014 49 16093 0.4 190 02:59 10.11.2019
4670 Clear 25 1015 8 16093 2.1 270 01:44 10.11.2019
4671 Clear 27 1014 18 16093 1.5 0 01:19 10.11.2019
4672 Clear 28 1015 6 16093 3.6 270 00:39 10.11.2019
4673 Clear 29 1015 6 16093 4.1 250 23:43 09.11.2019
4674 Clear 30 1014 15 16093 1.5 270 23:21 09.11.2019
4675 Clear 30 1014 15 16093 1.5 270 22:59 09.11.2019
4676 Clear 30 1016 7 16093 3.6 260 22:40 09.11.2019
4677 Clear 30 1014 11 16093 1.5 0 22:20 09.11.2019
4678 Clear 31 1015 8 16093 3.6 240 21:55 09.11.2019
4679 Clear 31 1016 6 16093 3.1 0 21:37 09.11.2019
4680 Clear 30 1015 9 16093 2 266 21:19 09.11.2019
4681 Clear 30 1017 8 16093 3.1 240 20:41 09.11.2019
4682 Clear 29 1016 14 16093 0.62 164 20:22 09.11.2019
4683 Clear 28 1017 9 16093 0.62 164 19:58 09.11.2019
4684 Clear 28 1018 9 16093 0.62 164 19:39 09.11.2019
4685 Clear 27 1017 14 16093 0.62 164 19:21 09.11.2019
4686 Clear 27 1017 14 16093 0.62 164 19:21 09.11.2019
4687 Clear 26 1017 14 16093 0.62 164 18:55 09.11.2019
4688 Clear 26 1019 10 16093 0.62 164 18:36 09.11.2019
4689 Clear 24 1017 22 16093 0.62 164 18:18 09.11.2019
4690 Clear 23 1019 11 16093 2.1 80 17:41 09.11.2019
4691 Clear 19 1017 26 16093 1.32 32 17:22 09.11.2019
4692 Clear 18 1018 23 16093 1.5 270 16:55 09.11.2019
4693 Clear 16 1018 14 16093 1.5 60 16:36 09.11.2019
4694 Clear 15 1016 25 16093 1.32 32 16:18 09.11.2019
4695 Clear 15 1018 18 16093 1.5 90 15:41 09.11.2019
4696 Clear 15 1016 27 16093 2.6 20 15:23 09.11.2019
4697 Clear 15 1018 12 16093 1.5 140 14:46 09.11.2019
4698 Clear 15 1016 44 16093 0.88 24 14:22 09.11.2019
4699 Clear 15 1016 44 16093 0.88 24 13:58 09.11.2019
4700 Clear 15 1017 13 16093 3.1 350 13:39 09.11.2019
4701 Clear 15 1015 38 16093 0.88 24 13:21 09.11.2019
4702 Clear 15 1015 38 16093 0.95 38 12:57 09.11.2019
4703 Clear 14 1017 15 16093 0.95 38 12:39 09.11.2019
4704 Clear 15 1016 44 16093 0.95 38 12:21 09.11.2019
4705 Clear 15 1018 20 16093 2.6 350 11:48 09.11.2019
4706 Clear 15 1016 36 16093 1.66 25 11:22 09.11.2019
4707 Clear 15 1017 12 16093 1.66 25 10:57 09.11.2019
4708 Clear 15 1018 16 16093 1.66 25 10:39 09.11.2019
4709 Clear 16 1016 51 16093 1.66 25 10:18 09.11.2019
4710 Clear 16 1018 14 16093 2.1 310 09:44 09.11.2019
4711 Clear 16 1017 63 16093 1.66 25 09:21 09.11.2019
4712 Clear 16 1017 33 16093 1.66 25 08:57 09.11.2019
4713 Clear 17 1019 16 16093 1.5 330 08:38 09.11.2019
4714 Clear 17 1017 72 14484 1.12 42 08:19 09.11.2019
4715 Clear 17 1019 15 16093 1.12 42 07:44 09.11.2019
4716 Clear 18 1017 63 16093 1.12 42 07:22 09.11.2019
4717 Clear 19 1019 14 16093 1.12 42 06:49 09.11.2019
4718 Clear 18 1017 56 16093 1.12 42 06:30 09.11.2019
4719 Clear 19 1019 12 16093 1.12 42 05:42 09.11.2019
4720 Clear 19 1019 17 16093 3.1 360 04:56 09.11.2019
4721 Clear 22 1019 22 16093 1.42 139 03:37 09.11.2019
4722 Clear 24 1018 16 16093 1.42 139 02:42 09.11.2019
4723 Clear 26 1018 9 16093 3.1 10 01:55 09.11.2019
4724 Clear 28 1017 10 16093 3.6 270 00:51 09.11.2019
4725 Clear 28 1016 18 16093 2.1 250 00:31 09.11.2019
4726 Clear 28 1017 8 16093 3.1 270 23:57 08.11.2019
4727 Clear 28 1016 23 16093 2.1 270 23:38 08.11.2019
4728 Clear 29 1016 23 16093 2.1 270 23:19 08.11.2019
4729 Clear 29 1019 9 16093 2.6 220 22:47 08.11.2019
4730 Clear 29 1017 26 16093 3.1 260 22:22 08.11.2019
4731 Clear 29 1018 10 16093 1.5 0 21:56 08.11.2019
4732 Clear 29 1018 37 14484 1.5 0 21:38 08.11.2019
4733 Clear 29 1018 37 14484 1.5 0 21:18 08.11.2019
4734 Clear 28 1020 12 16093 2.1 0 20:42 08.11.2019
4735 Clear 26 1019 23 16093 0.99 223 20:22 08.11.2019
4736 Clear 26 1019 21 11265 2.1 310 19:59 08.11.2019
4737 Clear 26 1021 13 16093 0.99 223 19:39 08.11.2019
4738 Clear 25 1019 36 12874 0.99 223 19:18 08.11.2019
4739 Clear 24 1021 11 16093 0.99 223 18:56 08.11.2019
4740 Clear 24 1021 11 16093 0.99 223 18:56 08.11.2019
4741 Clear 24 1021 14 16093 0.99 223 18:38 08.11.2019
4742 Clear 24 1021 14 16093 0.99 223 18:38 08.11.2019
4743 Clear 23 1019 43 16093 0.99 223 18:19 08.11.2019
4744 Clear 22 1020 42 14484 0.99 223 17:56 08.11.2019
4745 Haze 20 1020 93 4828 1.5 270 17:37 08.11.2019
4746 Haze 20 1020 93 4828 1.5 270 17:37 08.11.2019
4747 Haze 17 1020 93 4828 1.5 270 17:19 08.11.2019
4748 Clear 15 1022 19 16093 0.73 5 16:58 08.11.2019
4749 Clear 15 1022 19 16093 0.73 5 16:58 08.11.2019
4750 Haze 14 1019 82 8047 0.73 5 16:39 08.11.2019
4751 Haze 13 1019 82 8047 0.73 5 16:20 08.11.2019
4752 Clear 13 1020 50 16093 0.73 5 15:58 08.11.2019
4753 Mist 13 1019 87 4828 0.73 5 15:40 08.11.2019
4754 Haze 13 1019 82 8047 0.73 5 15:21 08.11.2019
4755 Clear 13 1020 50 16093 0.73 5 14:56 08.11.2019
4756 Mist 13 1019 87 6437 0.73 5 14:37 08.11.2019
4757 Mist 13 1019 87 6437 0.66 360 14:18 08.11.2019
4758 Mist 13 1019 87 6437 0.66 360 14:18 08.11.2019
4759 Mist 13 1019 87 4828 0.66 360 13:57 08.11.2019
4760 Haze 13 1018 81 4023 0.66 360 13:38 08.11.2019
4761 Mist 13 1019 87 4828 0.96 2 13:19 08.11.2019
4762 Mist 13 1018 87 3219 0.96 2 12:43 08.11.2019
4763 Mist 13 1018 87 4828 0.96 2 12:24 08.11.2019
4764 Mist 13 1018 87 4828 0.96 2 12:24 08.11.2019
4765 Clear 13 1019 47 16093 2.1 260 11:57 08.11.2019
4766 Mist 13 1019 87 4023 0.96 2 11:39 08.11.2019
4767 Mist 13 1019 87 2816 0.82 236 11:20 08.11.2019
4768 Clear 14 1019 58 16093 0.82 236 10:57 08.11.2019
4769 Haze 14 1019 82 4828 0.82 236 10:39 08.11.2019
4770 Mist 14 1019 82 4828 0.82 236 10:20 08.11.2019
4771 Mist 15 1019 93 3219 0.82 236 09:42 08.11.2019
4772 Mist 15 1019 93 4828 0.82 236 09:24 08.11.2019
4773 Clear 16 1020 54 16093 0.82 236 08:59 08.11.2019
4774 Clear 16 1020 37 11265 3.1 30 08:38 08.11.2019
4775 Haze 16 1020 82 6437 0.21 251 08:19 08.11.2019
4776 Haze 16 1019 82 6437 0.21 251 07:41 08.11.2019
4777 Haze 16 1019 82 6437 0.21 251 07:22 08.11.2019
4778 Haze 16 1019 82 6437 0.21 251 07:22 08.11.2019
4779 Clear 17 1020 25 16093 2.6 60 06:43 08.11.2019
4780 Haze 17 1019 77 8047 0.21 251 06:24 08.11.2019
4781 Mist 17 1019 87 8047 0.21 251 05:56 08.11.2019
4782 Haze 17 1018 77 8047 0.21 251 05:25 08.11.2019
4783 Haze 18 1018 77 9656 1.4 239 04:18 08.11.2019
4784 Clear 19 1019 45 11265 1.4 239 03:41 08.11.2019
4785 Clear 21 1018 60 11265 2.1 0 02:54 08.11.2019
4786 Clear 23 1019 41 16093 2.29 251 01:49 08.11.2019
4787 Haze 23 1017 60 6437 1.5 0 01:31 08.11.2019
4788 Clear 24 1018 26 14484 5.1 270 00:38 08.11.2019
4789 Haze 24 1017 56 4828 2.24 255 00:20 08.11.2019
4790 Clear 24 1017 21 14484 3.6 280 23:44 07.11.2019
4791 Haze 24 1017 56 4828 2.1 260 23:25 07.11.2019
4792 Clear 24 1017 23 16093 1.5 160 22:55 07.11.2019
4793 Clear 24 1018 18 16093 3.1 240 22:37 07.11.2019
4794 Haze 24 1017 53 4828 2.1 0 22:19 07.11.2019
4795 Clear 24 1018 21 14484 2.6 260 21:38 07.11.2019
4796 Haze 23 1018 50 4828 2.6 260 21:20 07.11.2019
4797 Clear 23 1018 33 16093 2.1 150 20:58 07.11.2019
4798 Clear 22 1019 29 11265 2.1 220 20:40 07.11.2019
4799 Haze 22 1019 56 4828 0.83 246 20:21 07.11.2019
4800 Haze 22 1019 56 4828 0.83 246 20:21 07.11.2019
4801 Haze 21 1019 60 4828 1.5 0 19:57 07.11.2019
4802 Clear 20 1020 22 16093 0.83 246 19:39 07.11.2019
4803 Haze 20 1019 60 4023 0.83 246 19:20 07.11.2019
4804 Haze 20 1019 60 4023 0.83 246 19:20 07.11.2019
4805 Haze 18 1019 52 9656 2.1 250 18:57 07.11.2019
4806 Haze 17 1020 77 4828 0.83 246 18:38 07.11.2019
4807 Haze 17 1020 77 4828 0.83 246 18:19 07.11.2019
4808 Mist 16 1020 93 4828 0.83 246 17:56 07.11.2019
4809 Haze 15 1020 77 3219 1.5 0 17:37 07.11.2019
4810 Haze 14 1020 77 3219 1.5 0 17:19 07.11.2019
4811 Clear 14 1020 82 11265 1.07 254 16:55 07.11.2019
4812 Mist 14 1019 93 3219 1.5 290 16:37 07.11.2019
4813 Haze 13 1019 77 4828 1.07 254 16:18 07.11.2019
4814 Mist 13 1018 73 3219 1.07 254 15:40 07.11.2019
4815 Mist 13 1018 87 3219 1.5 20 15:20 07.11.2019
4816 Haze 13 1018 82 3219 1.07 254 14:58 07.11.2019
4817 Mist 13 1018 93 4828 1.07 254 14:38 07.11.2019
4818 Haze 13 1017 77 4828 0.75 216 14:20 07.11.2019
4819 Fog 14 1017 87 805 2.1 350 13:55 07.11.2019
4820 Clear 14 1017 54 16093 2.1 50 13:37 07.11.2019
4821 Haze 14 1017 77 4828 0.7 241 13:18 07.11.2019
4822 Fog 14 1017 87 805 2.1 360 12:56 07.11.2019
4823 Clear 14 1017 66 16093 1.5 30 12:38 07.11.2019
4824 Mist 14 1017 87 2012 1.5 360 12:18 07.11.2019
4825 Mist 14 1017 93 1609 0.7 241 11:41 07.11.2019
4826 Haze 14 1017 77 4828 0.64 222 11:22 07.11.2019
4827 Mist 14 1017 93 1609 1.5 80 10:42 07.11.2019
4828 Haze 14 1017 77 4023 0.64 222 10:19 07.11.2019
4829 Haze 14 1017 77 4023 0.64 222 10:19 07.11.2019
4830 Haze 14 1017 77 4023 0.64 222 10:19 07.11.2019
4831 Fog 14 1017 93 805 2.1 130 09:56 07.11.2019
4832 Fog 14 1017 93 805 2.1 130 09:38 07.11.2019
4833 Haze 14 1017 82 6437 0.64 222 09:20 07.11.2019
4834 Haze 14 1017 82 6437 0.64 222 09:20 07.11.2019
4835 Mist 14 1017 93 3219 0.64 222 08:45 07.11.2019
4836 -273 0 0 0 0 0 08:25 07.11.2019
4837 Mist 15 1017 93 4828 1.5 70 07:59 07.11.2019
4838 Clear 15 1017 62 16093 1.7 191 07:40 07.11.2019
4839 Haze 15 1017 77 6437 1.7 191 07:21 07.11.2019
4840 Clouds 15 1017 63 16093 1.7 191 06:48 07.11.2019
4841 Haze 15 1017 82 9656 1.7 191 06:28 07.11.2019
4842 Clear 15 1017 87 16093 1.5 270 05:57 07.11.2019
4843 Clear 15 1017 77 14484 1.5 330 05:37 07.11.2019
4844 Haze 15 1017 82 9656 2.55 201 05:19 07.11.2019
4845 -273 0 0 0 0 0 04:41 07.11.2019
4846 Haze 17 1015 82 14484 2.6 280 02:58 07.11.2019
4847 Clear 20 1015 49 16093 3.1 280 00:57 07.11.2019
4848 -273 0 0 0 0 0 00:22 07.11.2019
4849 Haze 21 1014 72 16093 3.6 260 00:21 07.11.2019
4850 Clear 21 1014 56 16093 1.5 0 00:21 07.11.2019
4851 Clear 22 1014 33 12874 5.1 270 23:48 06.11.2019
4852 Clear 23 1014 56 16093 3.01 222 23:22 06.11.2019
4853 Clear 23 1014 46 16093 4.1 240 22:57 06.11.2019
4854 Clear 23 1014 33 14484 5.1 250 22:38 06.11.2019
4855 Clear 23 1014 56 14484 3.01 222 22:19 06.11.2019
4856 Clear 22 1015 49 16093 4.6 250 21:56 06.11.2019
4857 Clear 22 1015 35 12874 5.7 260 21:38 06.11.2019
4858 Haze 22 1015 60 9656 3.01 222 21:18 06.11.2019
4859 Haze 22 1016 68 9656 3.1 0 20:41 06.11.2019
4860 Haze 21 1016 68 9656 3.1 0 20:23 06.11.2019
4861 Haze 21 1016 77 6437 1.5 0 19:59 06.11.2019
4862 Haze 21 1016 77 6437 1.5 0 19:40 06.11.2019
4863 Haze 20 1016 72 6437 1.5 0 19:21 06.11.2019
4864 Haze 20 1016 68 4828 1.5 250 18:59 06.11.2019
4865 Haze 19 1016 77 4023 1.51 202 18:39 06.11.2019
4866 Mist 19 1016 82 4828 1.51 202 18:19 06.11.2019
4867 Mist 17 1016 87 2414 2.1 0 17:58 06.11.2019
4868 Haze 17 1016 37 6437 1.5 260 17:40 06.11.2019
4869 Mist 15 1016 87 1609 1.09 204 17:21 06.11.2019
4870 Haze 15 1016 82 6437 1.09 204 17:21 06.11.2019
4871 Fog 14 1016 100 402 1.09 204 16:56 06.11.2019
4872 Fog 13 1016 93 402 1.09 204 16:38 06.11.2019
4873 Clear 13 1015 82 12874 1.09 204 16:19 06.11.2019
4874 Clear 13 1015 50 16093 1.09 204 15:56 06.11.2019
4875 Clear 13 1015 50 16093 1.09 204 15:56 06.11.2019
4876 Clear 13 1016 41 11265 1.09 204 15:37 06.11.2019
4877 Clear 12 1015 82 14484 1.09 204 15:19 06.11.2019
4878 Mist 12 1015 87 8047 1.09 204 14:56 06.11.2019
4879 Clouds 12 1015 76 16093 1.09 204 14:38 06.11.2019
4880 Fog 12 1015 93 101 1.14 196 14:20 06.11.2019
4881 Clear 12 1015 50 16093 1.14 196 13:54 06.11.2019
4882 Fog 12 1015 93 402 1.14 196 13:36 06.11.2019
4883 Clear 13 1015 82 14484 0.99 183 13:18 06.11.2019
4884 Clouds 13 1015 76 14484 1.5 90 12:43 06.11.2019
4885 Mist 13 1015 87 9656 0.99 183 12:23 06.11.2019
4886 Clear 13 1015 82 14484 0.99 183 11:59 06.11.2019
4887 Clear 13 1015 50 16093 0.99 183 11:59 06.11.2019
4888 Clear 13 1015 82 12874 0.99 183 11:38 06.11.2019
4889 Clear 13 1015 82 12874 1.06 201 11:19 06.11.2019
4890 Mist 13 1015 87 9656 1.06 201 10:57 06.11.2019
4891 Fog 13 1015 87 402 1.5 40 10:39 06.11.2019
4892 Clear 13 1015 77 12874 1.06 201 10:21 06.11.2019
4893 Clear 13 1015 71 16093 1.5 300 09:58 06.11.2019
4894 Clear 13 1015 77 11265 1.06 201 09:38 06.11.2019
4895 Clear 13 1015 77 11265 1.06 201 09:20 06.11.2019
4896 Clear 14 1015 77 14484 1.06 201 08:55 06.11.2019
4897 Clear 14 1015 77 14484 1.06 201 08:37 06.11.2019
4898 Clear 14 1015 77 14484 1.43 198 08:18 06.11.2019
4899 Clear 14 1016 39 16093 3.6 40 07:43 06.11.2019
4900 Clear 15 1016 77 16093 1.43 198 07:24 06.11.2019
4901 Clear 15 1016 39 16093 3.1 70 06:48 06.11.2019
4902 Clear 15 1015 72 16093 1.43 198 06:30 06.11.2019
4903 Clear 16 1016 37 16093 1.5 360 05:37 06.11.2019
4904 Clear 19 1014 64 16093 1.5 250 03:22 06.11.2019
4905 Clear 23 1015 24 11265 4.6 270 01:42 06.11.2019
4906 Clear 24 1014 13 16093 5.1 270 00:46 06.11.2019
4907 Clear 25 1013 29 16093 2.6 270 00:00 06.11.2019
4908 Clear 25 1015 12 16093 3.6 250 23:41 05.11.2019
4909 Clear 26 1013 30 16093 2.59 248 23:22 05.11.2019
4910 Clear 26 1014 16 16093 3.1 160 22:58 05.11.2019
4911 Clear 26 1015 10 16093 4.6 250 22:40 05.11.2019
4912 Clear 26 1014 34 16093 1.5 0 22:18 05.11.2019
4913 Clear 26 1014 11 16093 2.59 248 21:55 05.11.2019
4914 Clear 26 1015 41 14484 2.1 250 21:37 05.11.2019
4915 Clear 26 1015 41 14484 2.1 250 21:18 05.11.2019
4916 Clear 25 1016 10 16093 2.1 270 20:55 05.11.2019
4917 Clear 25 1016 10 16093 2.1 270 20:36 05.11.2019
4918 Clear 24 1016 33 11265 1.01 257 20:18 05.11.2019
4919 Clear 23 1017 11 16093 1.01 257 19:42 05.11.2019
4920 Haze 22 1017 60 8047 3.1 260 19:22 05.11.2019
4921 Clear 21 1017 18 16093 1.01 257 18:58 05.11.2019
4922 Clear 21 1017 15 16093 3.6 130 18:39 05.11.2019
4923 Mist 20 1017 68 4828 3.1 260 18:21 05.11.2019
4924 Clear 19 1016 49 11265 1.01 257 17:59 05.11.2019
4925 Clear 17 1017 19 16093 2.1 80 17:39 05.11.2019
4926 Mist 16 1017 93 3219 0.52 230 17:20 05.11.2019
4927 Haze 14 1017 27 8047 0.52 230 16:56 05.11.2019
4928 Fog 13 1016 87 6437 0.52 230 16:38 05.11.2019
4929 Clear 13 1016 76 12874 0.52 230 16:19 05.11.2019
4930 Clear 13 1016 76 12874 0.52 230 16:19 05.11.2019
4931 Fog 13 1016 87 6437 0.52 230 16:19 05.11.2019
4932 Mist 12 1016 87 4828 0.52 230 15:39 05.11.2019
4933 Mist 11 1016 93 4828 0.52 230 15:20 05.11.2019
4934 Clear 11 1016 76 14484 0.52 230 14:59 05.11.2019
4935 Mist 11 1016 93 2012 0.52 230 14:40 05.11.2019
4936 Haze 11 1016 82 8047 0.94 209 14:22 05.11.2019
4937 Clear 12 1015 39 16093 0.94 209 13:58 05.11.2019
4938 Clouds 12 1016 76 16093 2.1 70 13:40 05.11.2019
4939 Clouds 12 1015 71 16093 1.5 90 13:22 05.11.2019
4940 Mist 12 1016 93 1207 0.72 234 12:40 05.11.2019
4941 Mist 12 1015 87 4828 0.72 234 12:21 05.11.2019
4942 Clear 12 1016 21 16093 2.1 50 11:56 05.11.2019
4943 Clear 12 1016 21 16093 2.1 50 11:38 05.11.2019
4944 Haze 12 1015 82 9656 0.3 223 11:19 05.11.2019
4945 Clear 12 1016 20 16093 1.5 40 10:48 05.11.2019
4946 Haze 13 1015 87 9656 0.3 223 10:27 05.11.2019
4947 Haze 13 1015 87 9656 0.3 223 09:59 05.11.2019
4948 Clear 13 1016 23 16093 2.1 50 09:41 05.11.2019
4949 Haze 13 1015 82 8047 0.3 223 09:21 05.11.2019
4950 Haze 13 1015 82 8047 0.3 223 08:59 05.11.2019
4951 Clear 13 1016 35 16093 0.3 223 08:59 05.11.2019
4952 Clear 13 1016 82 11265 0.3 223 08:37 05.11.2019
4953 Clear 13 1016 82 11265 0.74 185 08:19 05.11.2019
4954 Clouds 14 1016 82 16093 1.5 80 07:55 05.11.2019
4955 Clear 14 1016 77 11265 0.74 185 07:36 05.11.2019
4956 Clear 14 1016 77 11265 0.74 185 07:18 05.11.2019
4957 Clear 15 1016 23 16093 2.1 70 06:40 05.11.2019
4958 Clear 15 1016 39 16093 2.6 90 05:51 05.11.2019
4959 Clear 16 1014 72 14484 1.49 220 05:21 05.11.2019
4960 Clear 17 1014 72 16093 1.49 220 04:24 05.11.2019
4961 Clear 18 1014 59 16093 1.5 260 03:33 05.11.2019
4962 Clear 19 1014 28 16093 3.6 280 02:43 05.11.2019
4963 Clear 22 1013 77 16093 6.7 280 01:57 05.11.2019
4964 Clear 22 1013 77 16093 6.7 280 01:57 05.11.2019
4965 Clear 24 1013 33 16093 3.9 249 00:49 05.11.2019
4966 Clear 24 1013 33 16093 3.9 249 00:27 05.11.2019
4967 Clear 25 1013 31 14484 2.1 0 23:55 04.11.2019
4968 Clear 25 1013 31 14484 2.1 0 23:36 04.11.2019
4969 Clear 26 1013 31 14484 2.1 0 23:18 04.11.2019
4970 Clear 26 1013 31 14484 2.1 0 23:18 04.11.2019
4971 Clear 26 1013 26 14484 2.34 255 22:41 04.11.2019
4972 Clear 26 1013 26 14484 2.34 255 22:23 04.11.2019
4973 Clear 26 1013 26 14484 2.34 255 22:23 04.11.2019
4974 Clear 27 1013 8 16093 1.5 230 21:56 04.11.2019
4975 Clear 26 1014 8 16093 2.6 230 21:37 04.11.2019
4976 Clear 26 1013 14 14484 2.34 255 21:19 04.11.2019
4977 Clear 26 1013 14 14484 2.34 255 20:58 04.11.2019
4978 Clear 25 1015 9 16093 2.34 255 20:39 04.11.2019
4979 Clear 24 1014 15 16093 0.42 247 20:21 04.11.2019
4980 Clear 24 1015 12 16093 1.5 150 19:59 04.11.2019
4981 Clear 23 1015 17 16093 0.42 247 19:40 04.11.2019
4982 Clear 23 1015 17 16093 0.42 247 19:21 04.11.2019
4983 Clear 22 1015 18 16093 0.42 247 18:57 04.11.2019
4984 Clear 21 1015 19 14484 0.42 247 18:38 04.11.2019
4985 Clear 19 1015 19 14484 0.42 247 18:19 04.11.2019
4986 Clear 18 1016 19 16093 2.6 100 17:40 04.11.2019
4987 Clear 16 1015 44 12874 0.42 259 17:21 04.11.2019
4988 Clear 14 1016 33 16093 0.42 259 16:59 04.11.2019
4989 Clear 13 1015 57 16093 0.42 259 16:40 04.11.2019
4990 Clear 12 1015 57 16093 0.42 259 16:22 04.11.2019
4991 Clear 10 1015 21 16093 0.42 259 15:56 04.11.2019
4992 Clear 10 1015 21 16093 0.42 259 15:38 04.11.2019
4993 Clear 10 1014 58 16093 0.42 259 15:19 04.11.2019
4994 Clear 10 1014 58 16093 0.42 259 15:19 04.11.2019
4995 Clear 10 1014 39 16093 0.42 259 14:56 04.11.2019
4996 Clear 10 1014 58 16093 0.42 259 14:37 04.11.2019
4997 Clear 10 1014 58 16093 0.23 186 14:18 04.11.2019
4998 Mist 11 1014 87 4828 0.23 186 13:54 04.11.2019
4999 Mist 11 1014 93 4828 0.3 230 13:36 04.11.2019
5000 Mist 11 1014 93 4828 0.3 230 13:18 04.11.2019
5001 Clear 12 1015 26 16093 2.1 20 12:41 04.11.2019
5002 Clear 12 1014 62 16093 0.3 230 12:23 04.11.2019
5003 Fog 12 1014 93 402 0.3 230 11:57 04.11.2019
5004 Clear 12 1015 19 16093 0.3 230 11:38 04.11.2019
5005 Clear 12 1014 76 12874 0.78 227 11:20 04.11.2019
5006 Fog 12 1014 93 805 0.78 227 10:45 04.11.2019
5007 Clear 12 1014 71 14484 0.78 227 10:26 04.11.2019
5008 Clear 13 1015 32 16093 0.78 227 09:55 04.11.2019
5009 Clear 12 1015 21 16093 2.1 30 09:37 04.11.2019
5010 Clear 12 1014 77 12874 0.78 227 09:18 04.11.2019
5011 Clouds 13 1015 66 16093 0.78 227 08:42 04.11.2019
5012 Clouds 13 1015 82 12874 0.92 218 08:21 04.11.2019
5013 Clear 14 1015 27 16093 3.1 60 07:45 04.11.2019
5014 Clouds 14 1015 62 16093 0.92 218 07:25 04.11.2019
5015 Fog 14 1015 88 12874 2.1 240 07:25 04.11.2019
5016 Clear 14 1014 72 14484 0.92 218 06:59 04.11.2019
5017 Clear 14 1015 29 16093 3.1 60 06:38 04.11.2019
5018 Clear 15 1014 26 16093 0.92 218 05:59 04.11.2019
5019 Clear 15 1013 51 16093 1.52 233 05:23 04.11.2019
5020 Clear 16 1013 42 16093 1.52 233 04:26 04.11.2019
5021 Clear 18 1013 34 16093 1.52 233 03:29 04.11.2019
5022 Clear 23 1013 27 16093 1.5 0 01:23 04.11.2019
5023 Clear 23 1014 9 16093 3.1 130 00:54 04.11.2019
5024 Clear 24 1013 23 14484 3.1 270 00:22 04.11.2019
5025 Clear 24 1013 23 14484 3.1 270 23:58 03.11.2019
5026 Clear 24 1013 24 14484 2.1 0 23:37 03.11.2019
5027 Clear 25 1013 24 14484 2.1 0 23:18 03.11.2019
5028 Clear 25 1013 24 14484 2.1 0 23:18 03.11.2019
5029 Clear 25 1014 7 16093 5.1 260 22:56 03.11.2019
5030 Clear 25 1013 19 16093 1.5 250 22:38 03.11.2019
5031 Clear 25 1013 19 16093 1.5 250 22:18 03.11.2019
5032 Clear 26 1015 6 16093 3.1 240 21:42 03.11.2019
5033 Clear 25 1014 13 16093 2.88 236 21:21 03.11.2019
5034 Clear 25 1014 13 16093 2.88 236 21:21 03.11.2019
5035 Clear 25 1016 5 14484 2.6 0 20:58 03.11.2019
5036 Clear 25 1016 5 14484 2.6 0 20:37 03.11.2019
5037 Clear 24 1015 13 16093 1.32 211 20:19 03.11.2019
5038 Clear 23 1015 10 16093 1.32 211 19:57 03.11.2019
5039 Clear 23 1016 8 16093 1.32 211 19:38 03.11.2019
5040 Clear 23 1015 16 16093 1.32 211 19:20 03.11.2019
5041 Clear 22 1016 18 16093 1.5 220 18:56 03.11.2019
5042 Clear 21 1016 21 16093 1.32 211 18:37 03.11.2019
5043 Clear 20 1016 21 16093 1.32 211 18:18 03.11.2019
5044 Clear 17 1017 13 16093 1.32 211 17:42 03.11.2019
5045 Clear 15 1016 36 16093 0.25 248 17:20 03.11.2019
5046 Clear 13 1017 15 16093 0.25 248 16:59 03.11.2019
5047 Clear 13 1016 14 16093 0.25 248 16:40 03.11.2019
5048 Clear 12 1015 46 16093 0.25 248 16:22 03.11.2019
5049 Clear 11 1015 46 16093 0.25 248 15:58 03.11.2019
5050 Clear 10 1016 31 16093 1.5 250 15:58 03.11.2019
5051 Clear 10 1015 53 16093 0.25 248 15:40 03.11.2019
5052 Clear 10 1015 53 16093 0.25 248 15:21 03.11.2019
5053 Clear 10 1016 15 16093 2.6 30 14:44 03.11.2019
5054 Clear 11 1015 46 16093 0.77 224 14:20 03.11.2019
5055 Clear 11 1015 31 16093 0.77 224 13:59 03.11.2019
5056 Clear 11 1016 16 16093 2.6 60 13:59 03.11.2019
5057 Clear 11 1016 16 16093 2.6 60 13:41 03.11.2019
5058 Clear 11 1015 47 16093 0.73 212 13:18 03.11.2019
5059 Clear 11 1016 16 16093 2.1 60 12:55 03.11.2019
5060 Clear 11 1015 54 16093 0.73 212 12:36 03.11.2019
5061 Clear 12 1015 54 16093 0.73 212 12:18 03.11.2019
5062 Clear 12 1016 15 16093 2.6 50 11:42 03.11.2019
5063 Clear 12 1016 66 14484 0.95 185 11:22 03.11.2019
5064 Clear 12 1016 29 16093 0.95 185 10:55 03.11.2019
5065 Clear 13 1016 16 16093 2.1 20 10:37 03.11.2019
5066 Mist 13 1016 82 2816 0.95 185 10:19 03.11.2019
5067 Clear 13 1016 58 14484 0.95 185 10:19 03.11.2019
5068 Clear 13 1017 14 16093 0.95 185 09:43 03.11.2019
5069 Haze 13 1016 72 9656 0.95 185 09:43 03.11.2019
5070 Haze 13 1016 72 9656 0.95 185 09:25 03.11.2019
5071 Clear 13 1017 17 16093 1.5 60 08:56 03.11.2019
5072 Clear 13 1017 17 16093 1.5 60 08:38 03.11.2019
5073 Clear 13 1016 59 14484 1.07 177 08:19 03.11.2019
5074 Clear 14 1017 11 16093 1.07 177 07:45 03.11.2019
5075 Clear 14 1016 55 14484 1.07 177 07:22 03.11.2019
5076 Clear 15 1017 10 16093 1.07 177 06:39 03.11.2019
5077 Clear 15 1016 23 16093 1.5 80 05:57 03.11.2019
5078 Clear 16 1015 45 16093 1.07 177 05:38 03.11.2019
5079 Clear 16 1015 45 16093 1.07 177 05:38 03.11.2019
5080 Clear 17 1015 39 16093 1.11 235 04:55 03.11.2019
5081 Clear 17 1015 39 16093 1.11 235 04:28 03.11.2019
5082 Clear 19 1015 32 16093 1.11 235 03:28 03.11.2019
5083 Clear 21 1014 35 16093 1.11 235 02:30 03.11.2019
5084 Clear 22 1014 35 16093 3.45 249 01:59 03.11.2019
5085 Clear 23 1016 5 16093 3.1 260 01:38 03.11.2019
5086 Clear 24 1015 27 16093 1.5 0 01:19 03.11.2019
5087 Clear 25 1016 4 16093 4.1 270 00:42 03.11.2019
5088 Clear 25 1014 5 16093 1.5 250 00:23 03.11.2019
5089 Clear 26 1014 5 16093 1.5 250 23:57 02.11.2019
5090 Clear 26 1016 3 16093 2.6 280 23:37 02.11.2019
5091 Clear 27 1015 7 16093 1.5 250 23:18 02.11.2019
5092 Clear 27 1016 3 16093 2.1 230 22:55 02.11.2019
5093 Clear 27 1016 3 16093 3.6 260 22:37 02.11.2019
5094 Clear 27 1016 3 16093 3.6 260 22:37 02.11.2019
5095 Clear 27 1016 3 16093 3.6 260 22:37 02.11.2019
5096 Clear 27 1015 8 16093 1.95 260 22:18 02.11.2019
5097 Clear 27 1018 4 16093 1.95 260 21:55 02.11.2019
5098 Clear 27 1018 4 16093 1.95 260 21:55 02.11.2019
5099 Clear 27 1017 2 16093 2.6 280 21:37 02.11.2019
5100 Clear 27 1016 10 16093 1.95 260 21:18 02.11.2019
5101 Clear 26 1019 6 16093 1.95 260 20:58 02.11.2019
5102 Clear 25 1018 3 16093 1.95 260 20:39 02.11.2019
5103 Clear 24 1017 16 16093 0.64 192 20:19 02.11.2019
5104 Clear 23 1019 3 16093 0.64 192 19:41 02.11.2019
5105 Clear 23 1018 24 12874 0.64 192 19:23 02.11.2019
5106 Clouds 21 1020 9 16093 2.6 340 18:56 02.11.2019
5107 Thunderstorm 21 1019 33 14484 2.6 80 18:38 02.11.2019
5108 Thunderstorm 21 1019 33 14484 2.6 80 18:38 02.11.2019
5109 Clear 20 1019 29 11265 0.64 192 18:20 02.11.2019
5110 Clear 20 1019 29 11265 0.64 192 18:20 02.11.2019
5111 Clear 19 1019 33 16093 0.64 192 17:57 02.11.2019
5112 Clear 18 1020 3 16093 0.64 192 17:38 02.11.2019
5113 Clear 16 1019 33 12874 0.08 74 17:20 02.11.2019
5114 Clear 14 1019 8 16093 0.08 74 16:57 02.11.2019
5115 Clear 13 1019 8 16093 0.08 74 16:36 02.11.2019
5116 Clear 12 1018 30 12874 0.08 74 16:18 02.11.2019
5117 Clear 12 1019 8 16093 2.6 170 15:41 02.11.2019
5118 Clear 12 1018 11 16093 0.08 74 15:20 02.11.2019
5119 Clear 12 1019 5 16093 2.6 350 14:43 02.11.2019
5120 Clear 12 1018 13 16093 1.5 20 14:24 02.11.2019
5121 Clear 12 1018 21 16093 2.6 340 13:58 02.11.2019
5122 Clear 12 1018 21 16093 2.6 340 13:58 02.11.2019
5123 Clear 11 1019 7 16093 3.1 350 13:39 02.11.2019
5124 Clear 11 1017 22 14484 0.78 29 13:19 02.11.2019
5125 Clear 12 1018 8 16093 3.1 350 12:41 02.11.2019
5126 Clear 12 1018 8 16093 3.1 350 12:41 02.11.2019
5127 Clear 12 1017 14 12874 0.78 29 12:23 02.11.2019
5128 Clear 12 1018 7 16093 0.78 29 11:59 02.11.2019
5129 Clear 12 1018 7 16093 0.78 29 11:40 02.11.2019
5130 Clear 12 1017 13 16093 0.17 328 11:22 02.11.2019
5131 Clear 12 1019 8 16093 1.5 330 10:51 02.11.2019
5132 Clear 12 1018 16 16093 1.5 10 10:29 02.11.2019
5133 Clear 13 1019 14 16093 3.1 350 09:59 02.11.2019
5134 Clear 13 1019 14 16093 3.1 350 09:40 02.11.2019
5135 Clear 13 1018 21 12874 0.17 328 09:21 02.11.2019
5136 Clear 13 1019 13 16093 0.17 328 08:50 02.11.2019
5137 Clear 14 1018 54 16093 0.25 336 08:23 02.11.2019
5138 Clear 14 1019 9 16093 0.25 336 07:52 02.11.2019
5139 Clear 14 1019 59 14484 0.25 336 07:33 02.11.2019
5140 Clear 14 1019 59 14484 0.25 336 06:59 02.11.2019
5141 Clear 14 1019 7 16093 2.1 330 06:41 02.11.2019
5142 Clear 14 1018 51 16093 0.25 336 06:20 02.11.2019
5143 Clear 15 1019 9 16093 2.6 20 05:38 02.11.2019
5144 Clear 16 1017 42 16093 1.2 268 04:23 02.11.2019
5145 Clear 18 1019 5 16093 2.6 300 03:51 02.11.2019
5146 Clear 19 1019 5 16093 3.1 290 02:50 02.11.2019
5147 Clear 22 1018 2 16093 2.1 250 01:57 02.11.2019
5148 Clear 23 1016 17 16093 2.6 260 01:27 02.11.2019
5149 Clear 24 1018 2 16093 1.5 290 00:55 02.11.2019
5150 Clear 24 1016 19 16093 2.1 250 00:29 02.11.2019
5151 Clear 25 1017 2 16093 1.5 170 23:56 01.11.2019
5152 Clear 25 1018 2 16093 3.05 270 23:37 01.11.2019
5153 Clear 26 1017 14 16093 1.43 295 23:19 01.11.2019
5154 Clear 26 1018 3 16093 2.1 0 22:42 01.11.2019
5155 Clear 26 1017 5 16093 1.5 140 22:21 01.11.2019
5156 Clear 26 1018 3 16093 1.43 295 21:43 01.11.2019
5157 Clear 26 1018 6 16093 1.43 295 21:24 01.11.2019
5158 Clear 25 1019 4 16093 2.1 250 20:59 01.11.2019
5159 Clear 25 1019 4 16093 2.1 250 20:41 01.11.2019
5160 Clear 24 1019 5 16093 0.82 129 20:23 01.11.2019
5161 Clear 23 1019 5 16093 0.54 96 19:59 01.11.2019
5162 Clear 23 1019 5 16093 0.54 96 19:59 01.11.2019
5163 Clear 23 1019 5 16093 0.54 96 19:59 01.11.2019
5164 Clear 23 1019 5 16093 0.54 96 19:59 01.11.2019
5165 Clear 23 1020 4 16093 2.6 220 19:40 01.11.2019
5166 Clear 22 1019 6 14484 1.5 110 19:21 01.11.2019
5167 Clear 21 1020 6 16093 1.5 0 18:41 01.11.2019
5168 Clear 20 1019 11 16093 0.54 96 18:21 01.11.2019
5169 Clear 19 1020 18 16093 1.5 140 17:59 01.11.2019
5170 Clear 18 1020 5 16093 0.54 96 17:41 01.11.2019
5171 Clear 16 1019 11 16093 1.5 20 17:23 01.11.2019
5172 Clear 14 1020 7 16093 1.5 290 16:41 01.11.2019
5173 Clear 14 1020 7 16093 1.5 290 16:41 01.11.2019
5174 Clear 12 1019 12 16093 1.5 0 16:21 01.11.2019
5175 Clear 11 1019 12 16093 1.5 0 15:59 01.11.2019
5176 Clear 10 1019 9 16093 2.6 350 15:40 01.11.2019
5177 Clear 10 1018 10 16093 2.1 30 15:22 01.11.2019
5178 Clear 10 1018 10 16093 2.1 30 15:22 01.11.2019
5179 Clear 10 1019 15 16093 1.5 30 14:55 01.11.2019
5180 Clear 10 1019 9 16093 1.5 10 14:36 01.11.2019
5181 Clear 10 1018 9 16093 2.1 0 14:18 01.11.2019
5182 Clear 11 1019 10 16093 0.48 68 13:41 01.11.2019
5183 Clear 10 1018 11 16093 1.5 30 13:22 01.11.2019
5184 Clear 11 1019 8 16093 2.1 340 12:56 01.11.2019
5185 Clear 11 1019 8 16093 2.1 340 12:56 01.11.2019
5186 Clear 11 1019 8 16093 2.1 340 12:37 01.11.2019
5187 Clear 11 1018 14 16093 1.5 40 12:19 01.11.2019
5188 Clear 12 1019 8 16093 2.1 270 11:42 01.11.2019
5189 Clear 12 1019 11 16093 2.6 10 11:24 01.11.2019
5190 Clear 12 1019 14 16093 0.86 60 10:56 01.11.2019
5191 Clear 12 1019 11 16093 1.5 40 10:38 01.11.2019
5192 Clear 12 1019 11 16093 1.5 40 10:19 01.11.2019
5193 Clear 13 1019 8 16093 2.1 310 09:43 01.11.2019
5194 Clear 13 1019 11 16093 1.5 40 09:25 01.11.2019
5195 Clear 13 1019 12 16093 1.5 0 08:57 01.11.2019
5196 Clear 13 1019 8 16093 3.1 310 08:39 01.11.2019
5197 Clear 13 1019 9 16093 1.5 0 08:20 01.11.2019
5198 Clear 14 1019 9 16093 1.5 280 07:51 01.11.2019
5199 Clear 14 1018 9 16093 2.1 40 07:24 01.11.2019
5200 Clear 15 1019 8 16093 2.1 330 06:56 01.11.2019
5201 Clear 15 1018 13 16093 1.34 48 06:23 01.11.2019
5202 Clear 15 1019 6 16093 2.1 320 05:59 01.11.2019
5203 Clear 16 1019 6 16093 2.1 320 05:38 01.11.2019
5204 Clear 18 1017 19 16093 1.08 312 03:33 01.11.2019
5205 Clear 21 1019 5 16093 3.1 290 01:49 01.11.2019
5206 Clear 22 1017 6 16093 1.45 257 01:26 01.11.2019
5207 Clear 24 1017 5 16093 1.45 257 00:21 01.11.2019
5208 Clear 24 1018 11 16093 2.6 240 23:55 31.10.2019
5209 Clear 24 1018 4 16093 3.6 280 23:36 31.10.2019
5210 Clear 24 1018 4 16093 0.61 149 23:18 31.10.2019
5211 Clear 24 1019 3 16093 2.1 280 22:42 31.10.2019
5212 Clear 24 1019 3 16093 2.1 0 22:23 31.10.2019
5213 Clear 24 1020 5 16093 3.6 240 21:57 31.10.2019
5214 Clear 24 1019 3 16093 3.1 260 21:39 31.10.2019
5215 Clear 23 1019 4 16093 2.1 0 21:18 31.10.2019
5216 Clear 22 1020 4 16093 2.1 0 20:41 31.10.2019
5217 Clear 22 1020 5 16093 1.59 118 20:23 31.10.2019
5218 Clear 21 1020 5 16093 1.59 118 19:58 31.10.2019
5219 Clear 20 1021 5 16093 2.1 0 19:38 31.10.2019
5220 Clear 20 1021 6 16093 1.5 0 19:19 31.10.2019
5221 Clear 19 1022 4 16093 1.59 118 18:44 31.10.2019
5222 Clear 18 1022 9 16093 2.1 0 18:25 31.10.2019
5223 Clear 17 1022 9 16093 1.59 118 17:59 31.10.2019
5224 Clear 16 1022 9 16093 1.5 320 17:40 31.10.2019
5225 Clear 15 1022 12 16093 1.4 58 17:20 31.10.2019
5226 Clear 13 1021 8 14484 2.1 310 16:55 31.10.2019
5227 Clear 13 1021 13 16093 1.5 0 16:37 31.10.2019
5228 Clear 11 1021 13 16093 1.5 0 16:18 31.10.2019
5229 Clear 11 1021 9 16093 2.6 310 15:40 31.10.2019
5230 Clear 11 1021 9 16093 2.6 310 15:40 31.10.2019
5231 Clear 11 1021 12 16093 2.1 20 15:22 31.10.2019
5232 Clear 11 1021 12 16093 2.1 20 15:21 31.10.2019
5233 Clear 11 1021 12 16093 2.1 20 14:59 31.10.2019
5234 Clear 11 1021 9 16093 3.6 300 14:41 31.10.2019
5235 Clear 11 1020 13 16093 2.1 30 14:22 31.10.2019
5236 Clear 11 1020 9 16093 3.1 290 13:59 31.10.2019
5237 Clear 11 1020 12 16093 1.5 0 13:39 31.10.2019
5238 Clear 11 1020 12 16093 1.5 0 13:19 31.10.2019
5239 Clouds 11 1020 8 16093 2.6 310 12:57 31.10.2019
5240 Clouds 11 1020 8 16093 2.6 310 12:38 31.10.2019
5241 Clear 11 1021 11 16093 1.5 360 12:20 31.10.2019
5242 Clouds 11 1021 9 16093 2.6 310 11:46 31.10.2019
5243 Clear 12 1021 12 16093 0.7 70 11:21 31.10.2019
5244 Clear 12 1021 12 16093 0.7 70 11:21 31.10.2019
5245 Clear 12 1021 19 16093 0.7 70 10:58 31.10.2019
5246 Clear 12 1021 9 16093 3.1 300 10:39 31.10.2019
5247 Clear 12 1021 9 16093 3.1 300 10:39 31.10.2019
5248 Clear 12 1021 13 16093 1.5 10 10:21 31.10.2019
5249 Clear 12 1021 9 16093 0.7 70 09:56 31.10.2019
5250 Clear 13 1021 12 16093 1.5 30 09:37 31.10.2019
5251 Clear 13 1021 12 16093 1.5 30 09:18 31.10.2019
5252 Clear 13 1021 7 16093 0.7 70 08:44 31.10.2019
5253 Clear 13 1021 12 16093 0.54 26 08:26 31.10.2019
5254 Clear 14 1021 6 16093 1.64 12 07:48 31.10.2019
5255 Clear 13 1021 6 16093 1.5 0 07:27 31.10.2019
5256 Clear 14 1021 15 16093 1.5 240 06:55 31.10.2019
5257 Clear 14 1021 9 16093 2.1 10 06:32 31.10.2019
5258 Clear 15 1021 11 16093 1.64 12 05:28 31.10.2019
5259 Clear 17 1020 4 16093 3.71 49 03:21 31.10.2019
5260 Clear 18 1019 4 16093 2.6 100 02:30 31.10.2019
5261 Clear 20 1019 4 16093 2.6 0 01:25 31.10.2019
5262 Clear 21 1019 5 16093 2.6 80 00:34 31.10.2019
5263 Clear 22 1019 1 16093 3.1 0 23:53 30.10.2019
5264 Clear 22 1019 5 16093 2.6 0 23:28 30.10.2019
5265 Clear 21 1019 1 16093 3.6 150 22:43 30.10.2019
5266 Clear 21 1019 5 16093 2.1 0 22:21 30.10.2019
5267 Clear 21 1019 1 16093 3.6 130 21:55 30.10.2019
5268 Clear 21 1019 1 16093 3.6 130 21:37 30.10.2019
5269 Clear 20 1020 5 16093 3.1 0 21:18 30.10.2019
5270 Clear 21 1020 18 16093 2.1 160 20:58 30.10.2019
5271 Clear 20 1020 5 16093 3.6 90 20:40 30.10.2019
5272 Clear 20 1020 5 16093 3.6 90 20:22 30.10.2019
5273 Clear 19 1022 4 16093 7.2 350 19:58 30.10.2019
5274 Clear 19 1020 5 16093 2.6 0 19:38 30.10.2019
5275 Clear 19 1020 10 16093 2.6 0 19:20 30.10.2019
5276 Clear 18 1022 4 16093 5.1 360 18:57 30.10.2019
5277 Clear 18 1020 34 16093 1.5 0 18:36 30.10.2019
5278 Clear 18 1020 34 16093 1.5 0 18:18 30.10.2019
5279 Clear 16 1020 4 16093 1.5 220 17:41 30.10.2019
5280 Clear 15 1020 48 11265 2.77 46 17:19 30.10.2019
5281 Clear 15 1020 48 11265 2.77 46 17:19 30.10.2019
5282 Smoke 15 1019 62 16093 2.6 80 16:56 30.10.2019
5283 Clear 14 1019 28 16093 1.5 210 16:38 30.10.2019
5284 Clear 14 1019 71 16093 2.77 46 16:20 30.10.2019
5285 Clear 13 1019 71 16093 2.77 46 15:57 30.10.2019
5286 Clear 13 1019 53 16093 2.1 20 15:38 30.10.2019
5287 Clear 13 1018 62 16093 2.77 46 15:19 30.10.2019
5288 Clear 13 1018 71 16093 2.77 46 14:56 30.10.2019
5289 Clear 13 1018 46 16093 3.1 330 14:56 30.10.2019
5290 Clear 13 1018 46 16093 3.1 330 14:38 30.10.2019
5291 Clear 13 1017 67 16093 3.23 36 14:18 30.10.2019
5292 Clear 13 1017 43 16093 3.23 36 13:42 30.10.2019
5293 Clear 13 1017 76 16093 2.08 38 13:21 30.10.2019
5294 Clouds 13 1017 47 16093 2.08 38 12:59 30.10.2019
5295 Clear 13 1017 76 16093 2.08 38 12:59 30.10.2019
5296 Clouds 13 1017 47 16093 2.08 38 12:41 30.10.2019
5297 Clear 13 1016 71 16093 2.08 38 12:23 30.10.2019
5298 Clear 13 1016 58 16093 2.6 10 11:54 30.10.2019
5299 Clear 13 1016 71 16093 2.08 38 11:36 30.10.2019
5300 Clear 13 1016 58 16093 2.6 10 11:36 30.10.2019
5301 Clear 13 1016 71 16093 1.14 300 11:18 30.10.2019
5302 Clear 12 1016 66 16093 2.1 350 10:41 30.10.2019
5303 Clear 12 1016 72 16093 1.14 300 10:23 30.10.2019
5304 Clear 13 1016 62 16093 1.14 300 09:42 30.10.2019
5305 Clear 13 1015 72 16093 1.14 300 09:23 30.10.2019
5306 Clear 12 1015 72 16093 1.14 300 08:57 30.10.2019
5307 Clear 12 1015 71 16093 1.14 300 08:39 30.10.2019
5308 Clear 12 1015 71 16093 1.06 175 08:19 30.10.2019
5309 Clear 12 1016 62 16093 2.6 330 07:43 30.10.2019
5310 Clear 13 1015 58 16093 1.5 340 06:59 30.10.2019
5311 Clear 13 1014 67 16093 1.06 175 06:41 30.10.2019
5312 Clear 13 1014 67 16093 1.06 175 06:18 30.10.2019
5313 Clear 14 1015 67 16093 1.06 175 05:41 30.10.2019
5314 Clear 14 1014 58 16093 2.77 180 04:42 30.10.2019
5315 Clouds 16 1013 51 16093 2.6 300 03:43 30.10.2019
5316 Clear 17 1013 42 16093 2.6 240 02:51 30.10.2019
5317 Clear 18 1012 48 16093 3.1 180 01:55 30.10.2019
5318 Clear 19 1011 52 16093 3.6 170 00:57 30.10.2019
5319 Clear 20 1011 46 16093 4.46 184 00:28 30.10.2019
5320 Clear 21 1011 46 16093 3.1 260 23:43 29.10.2019
5321 Clear 21 1011 46 16093 3.1 260 23:23 29.10.2019
5322 Clear 21 1012 42 16093 3.6 130 22:48 29.10.2019
5323 Clear 21 1011 49 16093 2.1 260 22:20 29.10.2019
5324 Clear 21 1011 37 16093 4.1 150 21:58 29.10.2019
5325 Clear 21 1012 37 16093 4.1 260 21:40 29.10.2019
5326 Clear 21 1012 40 16093 4.19 184 21:20 29.10.2019
5327 Clear 21 1012 42 16093 4.1 200 20:56 29.10.2019
5328 Clear 21 1013 48 16093 3.6 250 20:38 29.10.2019
5329 Clear 20 1013 43 16093 1.5 0 20:20 29.10.2019
5330 Clear 20 1014 51 16093 3.6 250 19:56 29.10.2019
5331 Clear 20 1014 51 16093 3.6 250 19:38 29.10.2019
5332 Clear 19 1013 49 16093 2.1 0 19:19 29.10.2019
5333 Clear 19 1014 33 16093 2.6 130 18:55 29.10.2019
5334 Clear 18 1013 45 16093 2.7 161 18:36 29.10.2019
5335 Clear 19 1014 55 16093 3.1 220 18:36 29.10.2019
5336 Clear 18 1013 45 16093 2.7 161 18:18 29.10.2019
5337 Clear 17 1014 30 16093 2.6 240 17:54 29.10.2019
5338 Clear 17 1014 30 16093 2.6 240 17:54 29.10.2019
5339 Clear 17 1014 30 16093 2.6 240 17:36 29.10.2019
5340 Clear 17 1013 25 16093 2.1 110 17:36 29.10.2019
5341 Clear 16 1013 25 16093 2.1 110 17:18 29.10.2019
5342 Clouds 12 1013 35 16093 1.13 164 16:39 29.10.2019
5343 Clear 12 1013 20 16093 1.13 164 16:39 29.10.2019
5344 Clouds 10 1013 35 16093 1.13 164 16:19 29.10.2019
5345 Clear 10 1014 20 16093 1.13 164 15:56 29.10.2019
5346 Clear 10 1013 34 16093 2.1 360 15:38 29.10.2019
5347 Clear 10 1012 46 16093 1.13 164 15:19 29.10.2019
5348 Clouds 10 1013 32 16093 2.6 40 14:55 29.10.2019
5349 Clear 10 1012 46 16093 1.13 164 14:37 29.10.2019
5350 Clear 10 1012 46 16093 1.37 146 14:18 29.10.2019
5351 Clear 10 1013 32 16093 1.37 146 13:40 29.10.2019
5352 Clear 10 1013 32 16093 1.37 146 13:40 29.10.2019
5353 Clear 10 1013 47 16093 1.34 144 13:22 29.10.2019
5354 Clear 10 1013 32 16093 1.5 10 12:45 29.10.2019
5355 Clear 10 1013 47 16093 1.34 144 12:26 29.10.2019
5356 Clear 10 1013 34 16093 1.34 144 11:59 29.10.2019
5357 Clear 11 1013 34 16093 1.34 144 11:41 29.10.2019
5358 Clear 10 1013 44 16093 1.52 161 11:19 29.10.2019
5359 Clear 10 1013 44 16093 1.52 161 11:19 29.10.2019
5360 Clear 11 1014 30 16093 1.5 50 10:57 29.10.2019
5361 Clear 11 1014 38 16093 2.1 100 10:38 29.10.2019
5362 Clear 11 1014 38 16093 2.1 100 10:20 29.10.2019
5363 Clear 11 1014 26 16093 1.5 40 09:55 29.10.2019
5364 Clear 11 1014 26 16093 1.5 40 09:37 29.10.2019
5365 Clear 11 1014 48 16093 1.52 161 09:19 29.10.2019
5366 -273 0 0 0 0 0 09:19 29.10.2019
5367 Clear 12 1014 26 16093 2.6 60 08:43 29.10.2019
5368 Clear 12 1014 63 16093 1.5 90 08:24 29.10.2019
5369 Clouds 13 1014 20 16093 2.1 50 07:55 29.10.2019
5370 Clouds 13 1014 20 16093 2.1 50 07:36 29.10.2019
5371 Clear 13 1014 63 16093 1.9 189 07:18 29.10.2019
5372 Clear 14 1014 59 16093 1.9 189 06:43 29.10.2019
5373 Clear 14 1014 59 16093 1.9 189 06:21 29.10.2019
5374 Clouds 15 1014 21 16093 1.9 189 05:50 29.10.2019
5375 Clear 15 1013 52 16093 3.78 256 05:19 29.10.2019
5376 Clear 16 1013 42 16093 3.78 256 04:30 29.10.2019
5377 Clear 19 1013 26 16093 2.1 260 02:32 29.10.2019
5378 Clear 21 1014 6 16093 3.1 220 01:46 29.10.2019
5379 Clear 22 1013 23 16093 2.1 260 01:18 29.10.2019
5380 Clear 23 1013 17 16093 1.5 260 00:32 29.10.2019
5381 Clear 23 1014 8 16093 4.1 250 23:43 28.10.2019
5382 Clear 23 1014 15 16093 1.1 257 23:21 28.10.2019
5383 Clear 23 1015 10 16093 5.7 290 22:58 28.10.2019
5384 Clear 23 1014 15 16093 1.1 257 22:37 28.10.2019
5385 Clear 23 1015 10 16093 5.7 290 22:37 28.10.2019
5386 Clear 23 1014 15 16093 1.1 257 22:18 28.10.2019
5387 Clear 23 1015 15 16093 3.6 130 21:56 28.10.2019
5388 Clear 23 1015 13 16093 5.1 280 21:38 28.10.2019
5389 Clear 23 1015 17 16093 1.5 0 21:20 28.10.2019
5390 Clear 22 1015 13 16093 2.1 180 20:54 28.10.2019
5391 Clear 22 1016 16 16093 3.1 0 20:36 28.10.2019
5392 Clear 21 1016 25 16093 1.46 195 20:18 28.10.2019
5393 Clear 21 1017 20 16093 2.6 250 19:39 28.10.2019
5394 Clear 20 1016 24 16093 1.46 195 19:21 28.10.2019
5395 Clear 20 1016 24 16093 1.46 195 18:59 28.10.2019
5396 Clear 19 1017 27 16093 1.46 195 18:41 28.10.2019
5397 Clear 19 1016 32 16093 1.46 195 18:21 28.10.2019
5398 Clear 18 1016 33 16093 3.1 120 17:57 28.10.2019
5399 Clear 17 1016 59 16093 1.46 195 17:38 28.10.2019
5400 Clear 17 1016 59 16093 1.81 329 17:20 28.10.2019
5401 Clear 16 1016 59 16093 1.81 329 16:57 28.10.2019
5402 Clear 15 1016 24 16093 1.81 329 16:39 28.10.2019
5403 Clear 14 1016 72 14484 1.81 329 16:21 28.10.2019
5404 Clear 14 1016 72 14484 1.81 329 16:21 28.10.2019
5405 Clear 13 1017 8 16093 10.3 330 15:58 28.10.2019
5406 Clear 13 1015 27 16093 2.1 110 15:40 28.10.2019
5407 Clear 13 1015 76 16093 1.81 329 15:21 28.10.2019
5408 Clear 13 1015 76 16093 1.81 329 14:57 28.10.2019
5409 Clear 14 1014 25 16093 1.81 329 14:38 28.10.2019
5410 Clear 14 1014 76 16093 2.07 18 14:18 28.10.2019
5411 Smoke 14 1014 76 16093 1.5 190 13:56 28.10.2019
5412 Smoke 14 1014 76 16093 1.5 190 13:56 28.10.2019
5413 Haze 14 1014 10 805 8.7 40 13:38 28.10.2019
5414 Clear 14 1013 76 16093 1.44 9 13:18 28.10.2019
5415 Clouds 14 1013 10 12874 4.1 60 12:42 28.10.2019
5416 Clear 14 1013 72 16093 1.44 9 12:21 28.10.2019
5417 Clear 14 1014 40 16093 1.5 30 11:40 28.10.2019
5418 Clear 14 1014 67 16093 2.1 21 11:22 28.10.2019
5419 Clear 14 1014 67 16093 2.1 21 11:22 28.10.2019
5420 Clear 14 1014 67 16093 2.1 21 10:58 28.10.2019
5421 Clear 14 1014 58 16093 2.1 21 10:39 28.10.2019
5422 Clear 14 1013 77 16093 2.1 21 10:21 28.10.2019
5423 Clear 14 1014 62 16093 2.1 340 09:57 28.10.2019
5424 Clear 14 1014 62 16093 2.1 340 09:38 28.10.2019
5425 Clear 15 1013 72 16093 2.1 21 09:19 28.10.2019
5426 Clear 15 1014 13 16093 3.1 20 08:57 28.10.2019
5427 Clear 15 1014 13 16093 3.1 20 08:57 28.10.2019
5428 Clear 15 1013 76 16093 2.1 21 08:38 28.10.2019
5429 Clear 15 1013 76 16093 2.1 21 08:38 28.10.2019
5430 Clear 15 1013 72 16093 0.44 222 08:19 28.10.2019
5431 Clear 15 1012 76 16093 3.6 320 07:55 28.10.2019
5432 Clear 15 1012 72 16093 0.44 222 07:36 28.10.2019
5433 Clear 15 1012 72 16093 0.44 222 07:18 28.10.2019
5434 Clouds 15 1013 71 16093 0.44 222 06:39 28.10.2019
5435 Clouds 16 1011 72 16093 0.44 222 05:40 28.10.2019
5436 Clouds 16 1010 72 16093 3.07 155 03:45 28.10.2019
5437 Clouds 17 1009 72 16093 3.6 250 02:46 28.10.2019
5438 Clouds 17 1008 64 16093 3.07 155 02:27 28.10.2019
5439 Clouds 18 1008 63 16093 4.6 160 00:57 28.10.2019
5440 Clouds 19 1008 53 16093 4.07 189 00:33 28.10.2019
5441 Clouds 19 1009 59 16093 2.6 140 23:47 27.10.2019
5442 Clouds 20 1007 53 16093 1.5 0 23:24 27.10.2019
5443 Clouds 21 1007 60 16093 7.2 160 22:58 27.10.2019
5444 Clear 21 1008 49 16093 4.6 250 22:40 27.10.2019
5445 Clouds 21 1008 60 16093 4.1 150 22:22 27.10.2019
5446 Clouds 21 1009 60 12874 4.1 180 21:58 27.10.2019
5447 Clear 21 1008 26 16093 3.6 270 21:39 27.10.2019
5448 Clouds 21 1008 60 16093 5.7 160 21:21 27.10.2019
5449 Clouds 21 1009 64 16093 4.6 160 20:58 27.10.2019
5450 Clouds 21 1009 64 16093 4.6 160 20:39 27.10.2019
5451 Clouds 21 1009 60 16093 4.1 160 20:21 27.10.2019
5452 Clouds 21 1009 56 16093 4.6 130 19:56 27.10.2019
5453 Clouds 21 1008 60 16093 4.19 157 19:36 27.10.2019
5454 Clouds 20 1008 60 16093 3.1 0 19:18 27.10.2019
5455 Clouds 20 1009 55 16093 5.1 120 18:55 27.10.2019
5456 Clear 20 1009 34 16093 4.19 157 18:37 27.10.2019
5457 Clouds 19 1009 64 16093 5.1 110 18:19 27.10.2019
5458 Clouds 18 1009 72 16093 4.1 110 17:40 27.10.2019
5459 Clouds 18 1009 72 16093 4.1 110 17:40 27.10.2019
5460 Clouds 18 1009 64 16093 2.1 90 17:21 27.10.2019
5461 Clouds 17 1009 64 16093 2.1 90 16:59 27.10.2019
5462 Clouds 16 1008 68 16093 2.6 0 16:40 27.10.2019
5463 Clouds 16 1008 68 16093 1.5 0 16:22 27.10.2019
5464 Clouds 15 1008 77 16093 2.1 150 15:57 27.10.2019
5465 Clouds 15 1007 68 16093 3.6 100 15:39 27.10.2019
5466 Clear 15 1008 30 16093 1.5 320 15:39 27.10.2019
5467 Clouds 15 1007 72 16093 2.1 0 15:20 27.10.2019
5468 Clouds 15 1008 30 16093 1.5 340 14:44 27.10.2019
5469 Clouds 15 1007 72 16093 2.1 0 14:24 27.10.2019
5470 Clouds 15 1007 72 16093 2.56 175 13:59 27.10.2019
5471 Clouds 15 1007 72 16093 1.5 0 13:40 27.10.2019
5472 Clouds 15 1007 72 16093 1.5 90 13:22 27.10.2019
5473 Clear 15 1007 26 16093 1.5 40 12:59 27.10.2019
5474 Clear 15 1007 26 16093 1.5 40 12:41 27.10.2019
5475 Clear 15 1007 77 16093 3.02 169 12:23 27.10.2019
5476 Clouds 16 1007 67 16093 1.5 340 11:43 27.10.2019
5477 Clear 16 1007 82 16093 1.5 100 11:24 27.10.2019
5478 Clear 16 1008 87 16093 2.38 190 10:57 27.10.2019
5479 Clouds 16 1008 93 16093 2.38 190 10:38 27.10.2019
5480 Clouds 16 1008 93 16093 2.38 190 10:38 27.10.2019
5481 Clear 16 1008 82 16093 2.1 100 10:20 27.10.2019
5482 Clouds 16 1009 25 16093 2.38 190 09:43 27.10.2019
5483 Clear 16 1008 77 16093 1.5 0 09:19 27.10.2019
5484 Clear 16 1008 77 16093 1.5 0 09:19 27.10.2019
5485 Clear 17 1008 77 16093 1.5 90 08:57 27.10.2019
5486 Clouds 17 1008 77 16093 2.6 130 08:38 27.10.2019
5487 Clear 17 1008 77 16093 2.1 90 08:19 27.10.2019
5488 Clouds 17 1009 19 16093 1.5 350 07:47 27.10.2019
5489 Clouds 17 1008 100 16093 1.5 110 07:28 27.10.2019
5490 Clear 18 1008 48 16093 1.5 110 06:55 27.10.2019
5491 Clear 19 1007 73 16093 1.5 0 06:29 27.10.2019
5492 Clear 19 1008 45 16093 2.1 60 05:58 27.10.2019
5493 Clear 19 1007 77 16093 3.1 100 05:36 27.10.2019
5494 Clear 20 1007 53 16093 2.87 183 04:25 27.10.2019
5495 Clear 25 1008 10 16093 5.7 240 02:42 27.10.2019
5496 Clear 28 1007 21 16093 4.23 202 01:28 27.10.2019
5497 Clear 29 1009 32 16093 4.1 130 00:56 27.10.2019
5498 Clear 29 1007 19 16093 2.6 250 00:37 27.10.2019
5499 Clear 30 1009 9 16093 3.1 220 23:59 26.10.2019
5500 Clear 30 1008 12 16093 4.1 170 23:59 26.10.2019
5501 Clear 30 1009 9 16093 3.1 220 23:40 26.10.2019
5502 Clear 30 1007 19 16093 1.5 250 23:22 26.10.2019
5503 Clear 30 1007 19 16093 1.5 250 22:58 26.10.2019
5504 Clear 30 1009 9 16093 4.1 240 22:39 26.10.2019
5505 Clear 30 1008 13 16093 2.89 209 22:20 26.10.2019
5506 Clear 30 1009 11 16093 1.5 0 21:59 26.10.2019
5507 Clear 30 1011 9 16093 2.1 210 21:40 26.10.2019
5508 Clear 29 1009 12 16093 1.12 194 21:19 26.10.2019
5509 Clear 29 1012 13 16093 2.6 130 20:45 26.10.2019
5510 Clear 28 1010 13 16093 1.12 194 20:20 26.10.2019
5511 Clear 27 1010 13 16093 1.12 194 19:57 26.10.2019
5512 Clear 27 1012 11 16093 2.1 130 19:38 26.10.2019
5513 Clear 25 1010 15 16093 1.5 90 19:19 26.10.2019
5514 Clear 24 1011 14 16093 1.5 170 18:56 26.10.2019
5515 Clear 23 1011 30 16093 1.12 194 18:37 26.10.2019
5516 Clear 22 1011 30 16093 0.34 156 18:18 26.10.2019
5517 Clear 19 1013 19 16093 0.34 156 17:39 26.10.2019
5518 Clear 19 1013 19 16093 0.34 156 17:39 26.10.2019
5519 Clear 18 1011 34 16093 0.34 156 17:21 26.10.2019
5520 Clear 17 1011 22 16093 3.1 120 16:59 26.10.2019
5521 Clear 16 1012 18 16093 2.1 30 16:41 26.10.2019
5522 Clear 16 1010 34 16093 0.34 156 16:22 26.10.2019
5523 Clear 16 1012 19 16093 2.1 30 15:41 26.10.2019
5524 Clear 16 1010 34 16093 0.34 215 15:20 26.10.2019
5525 Clear 17 1011 31 16093 0.34 215 14:54 26.10.2019
5526 Clear 17 1012 18 16093 2.1 50 14:36 26.10.2019
5527 Haze 17 1011 34 8047 0.47 222 14:18 26.10.2019
5528 Clear 17 1012 18 16093 0.47 222 13:41 26.10.2019
5529 Clear 24 1012 20 0 0.47 222 13:22 26.10.2019
5530 Clear 19 1013 27 0 0.47 222 12:49 26.10.2019
5531 Clear 19 1013 27 0 0.47 222 12:49 26.10.2019
5532 Clear 18 1012 26 16093 0.48 117 12:25 26.10.2019
5533 Clear 18 1012 26 16093 0.48 117 11:56 26.10.2019
5534 Clear 19 1012 26 16093 0.48 117 11:36 26.10.2019
5535 Clear 19 1012 26 16093 0.48 117 11:18 26.10.2019
5536 Clear 20 1014 14 16093 0.48 117 10:42 26.10.2019
5537 Clear 19 1012 21 16093 0.48 117 10:23 26.10.2019
5538 Clear 20 1014 15 16093 2.1 30 09:48 26.10.2019
5539 Clear 20 1013 24 16093 1.07 130 09:27 26.10.2019
5540 Clear 21 1015 13 16093 2.6 20 08:44 26.10.2019
5541 Clear 21 1013 25 16093 1.07 130 08:25 26.10.2019
5542 Clear 22 1014 19 16093 1.07 130 07:56 26.10.2019
5543 Clear 22 1013 35 16093 1.07 130 07:33 26.10.2019
5544 Clear 23 1015 13 16093 1.07 130 06:48 26.10.2019
5545 Clear 24 1013 31 16093 1.07 130 06:29 26.10.2019
5546 Clear 25 1013 22 16093 2.17 217 05:21 26.10.2019
5547 Clear 27 1015 11 16093 2.17 217 04:44 26.10.2019
5548 Clear 27 1013 13 16093 1.5 0 03:22 26.10.2019
5549 Clear 30 1013 10 16093 2.6 270 02:18 26.10.2019
5550 Clear 31 1015 6 16093 3.6 260 01:42 26.10.2019
5551 Clear 32 1013 6 16093 2.6 260 00:31 26.10.2019
5552 Clear 33 1016 7 16093 3.6 300 23:47 25.10.2019
5553 Clear 33 1014 8 16093 2.1 260 23:21 25.10.2019
5554 Clear 33 1016 6 16093 3.1 230 22:54 25.10.2019
5555 Clear 33 1015 4 16093 2.35 281 22:36 25.10.2019
5556 Clear 32 1015 4 16093 2.35 281 22:18 25.10.2019
5557 Clear 32 1016 7 16093 2.1 0 21:54 25.10.2019
5558 Clear 32 1017 5 16093 5.7 280 21:54 25.10.2019
5559 Clear 32 1016 8 16093 2.7 286 21:36 25.10.2019
5560 Clear 31 1016 8 16093 0.55 232 21:18 25.10.2019
5561 Clear 30 1018 6 16093 4.1 280 20:42 25.10.2019
5562 Clear 30 1016 8 16093 0.55 232 20:19 25.10.2019
5563 Clear 29 1019 7 16093 0.55 232 19:45 25.10.2019
5564 Clear 29 1017 12 16093 1.5 90 19:27 25.10.2019
5565 Clear 27 1019 7 16093 2.1 290 18:47 25.10.2019
5566 Haze 25 1017 22 9656 0.55 232 18:29 25.10.2019
5567 Clear 24 1017 17 16093 2.1 330 17:59 25.10.2019
5568 Clear 23 1018 7 16093 3.1 290 17:36 25.10.2019
5569 Clear 21 1016 32 16093 0.95 3 17:18 25.10.2019
5570 Clear 21 1018 15 16093 2.6 310 16:46 25.10.2019
5571 Clear 21 1016 31 16093 0.95 3 16:22 25.10.2019
5572 Clear 21 1016 21 16093 1.5 360 15:55 25.10.2019
5573 Clear 21 1015 31 16093 1.5 270 15:37 25.10.2019
5574 Clear 21 1015 31 16093 1.5 270 15:18 25.10.2019
5575 Clear 21 1017 8 16093 2.6 340 14:42 25.10.2019
5576 Clear 21 1015 31 16093 1.46 20 14:23 25.10.2019
5577 Clear 20 1016 15 16093 1.46 20 13:56 25.10.2019
5578 Clear 21 1015 29 16093 1.46 20 13:37 25.10.2019
5579 Clear 22 1015 29 16093 1.46 20 13:18 25.10.2019
5580 Clear 22 1016 8 16093 2.1 330 12:41 25.10.2019
5581 Clear 23 1015 32 16093 1.51 46 12:22 25.10.2019
5582 Clear 23 1016 15 16093 1.5 260 11:58 25.10.2019
5583 Clear 23 1017 5 16093 2.6 330 11:38 25.10.2019
5584 Clear 23 1016 26 16093 1.51 46 11:18 25.10.2019
5585 Clear 24 1018 7 16093 2.6 280 10:41 25.10.2019
5586 Clear 24 1018 7 16093 2.6 280 10:41 25.10.2019
5587 Clear 24 1016 5 16093 1.51 46 10:22 25.10.2019
5588 Clear 24 1018 7 16093 2.1 360 09:58 25.10.2019
5589 Clear 24 1018 7 16093 2.1 360 09:38 25.10.2019
5590 Clear 25 1016 6 16093 1.6 53 09:19 25.10.2019
5591 Clear 25 1018 6 16093 2.6 340 08:51 25.10.2019
5592 Clear 25 1016 6 16093 1.6 53 08:33 25.10.2019
5593 Clear 25 1018 5 16093 2.1 340 07:57 25.10.2019
5594 Clear 25 1016 19 16093 1.6 53 07:35 25.10.2019
5595 Clear 26 1017 7 16093 2.6 350 06:42 25.10.2019
5596 Clear 27 1016 4 16093 4.1 340 05:59 25.10.2019
5597 Clear 27 1017 8 16093 2.65 43 05:37 25.10.2019
5598 Clear 28 1018 3 16093 4.1 290 04:53 25.10.2019
5599 Clear 29 1014 25 16093 4.6 10 03:45 25.10.2019
5600 Clear 32 1015 5 16093 2.6 70 01:54 25.10.2019
5601 Clear 32 1013 9 16093 2 51 01:35 25.10.2019
5602 Clear 33 1013 8 16093 1.5 260 00:22 25.10.2019
5603 Clear 33 1016 4 16093 3.1 270 23:41 24.10.2019
5604 Clear 33 1014 8 16093 2.1 0 23:23 24.10.2019
5605 Clear 33 1017 3 16093 6.7 350 22:56 24.10.2019
5606 Clear 33 1016 4 16093 2.1 0 22:37 24.10.2019
5607 Clear 33 1014 8 16093 0.88 78 22:19 24.10.2019
5608 Clear 33 1015 3 16093 3.1 50 21:57 24.10.2019
5609 Clear 33 1015 12 16093 1.5 0 21:38 24.10.2019
5610 Clear 32 1015 12 16093 1.5 0 21:19 24.10.2019
5611 Clear 31 1015 12 16093 1.5 0 20:57 24.10.2019
5612 Clear 31 1017 6 16093 2.6 210 20:38 24.10.2019
5613 Clear 31 1015 21 16093 1.41 53 20:20 24.10.2019
5614 Clear 30 1018 4 16093 7.7 30 19:55 24.10.2019
5615 Clear 30 1015 30 16093 1.41 53 19:37 24.10.2019
5616 Clear 29 1015 30 16093 1.41 53 19:18 24.10.2019
5617 Clear 27 1017 8 16093 2.1 290 18:41 24.10.2019
5618 Clear 25 1014 41 16093 1.33 27 18:23 24.10.2019
5619 Clear 23 1016 8 16093 1.33 27 17:59 24.10.2019
5620 Clear 23 1016 8 16093 1.33 27 17:40 24.10.2019
5621 Clear 22 1014 52 16093 1.33 27 17:20 24.10.2019
5622 Clear 22 1015 11 16093 3.6 330 16:56 24.10.2019
5623 Clear 21 1015 11 16093 3.6 330 16:37 24.10.2019
5624 Clear 21 1013 55 16093 1.33 27 16:19 24.10.2019
5625 Clear 21 1014 8 16093 1.33 27 15:57 24.10.2019
5626 Clear 21 1014 12 16093 2.1 50 15:39 24.10.2019
5627 Clear 21 1012 55 16093 1.31 3 15:21 24.10.2019
5628 Clear 20 1013 39 16093 1.65 15 14:55 24.10.2019
5629 Clear 20 1014 11 16093 2.6 290 14:37 24.10.2019
5630 Clear 20 1012 55 16093 1.65 15 14:18 24.10.2019
5631 Clear 19 1013 15 16093 1.65 15 13:40 24.10.2019
5632 Clear 19 1012 59 16093 1.65 15 13:19 24.10.2019
5633 Clear 19 1013 11 16093 3.1 70 12:57 24.10.2019
5634 Clear 19 1013 11 16093 3.1 70 12:38 24.10.2019
5635 Clear 18 1012 55 16093 0.79 338 12:19 24.10.2019
5636 Clear 18 1013 45 16093 0.79 338 11:56 24.10.2019
5637 Clear 18 1013 45 16093 0.79 338 11:56 24.10.2019
5638 Clear 18 1014 20 16093 3.6 360 11:37 24.10.2019
5639 Clear 18 1012 52 16093 0.79 338 11:19 24.10.2019
5640 Clear 19 1013 45 16093 0.79 338 10:55 24.10.2019
5641 Clear 19 1014 27 16093 3.1 340 10:36 24.10.2019
5642 Clear 19 1012 49 16093 0.79 338 10:18 24.10.2019
5643 Clear 19 1014 25 16093 1.5 250 09:38 24.10.2019
5644 Clear 19 1012 46 16093 0.64 291 09:18 24.10.2019
5645 Clear 19 1014 23 16093 2.6 350 08:44 24.10.2019
5646 Clear 20 1012 43 16093 0.64 291 08:21 24.10.2019
5647 Clear 20 1012 43 16093 0.64 291 08:00 24.10.2019
5648 Clear 20 1014 23 16093 2.6 350 07:41 24.10.2019
5649 Clear 20 1011 43 16093 0.64 291 07:21 24.10.2019
5650 Clear 21 1013 27 16093 1.5 340 06:39 24.10.2019
5651 Clear 21 1011 46 16093 2.13 214 06:20 24.10.2019
5652 Clear 21 1013 27 16093 2.6 80 05:48 24.10.2019
5653 Clear 22 1011 41 16093 2.13 214 05:27 24.10.2019
5654 Clear 24 1012 18 16093 2.1 250 03:37 24.10.2019
5655 Clear 28 1012 19 16093 2.1 130 02:55 24.10.2019
5656 Clear 29 1009 30 16093 3.16 220 02:25 24.10.2019
5657 Clear 30 1012 22 16093 2.6 170 01:49 24.10.2019
5658 Clear 30 1010 25 16093 3.16 220 01:27 24.10.2019
5659 Clear 31 1012 22 16093 4.6 260 00:41 24.10.2019
5660 Clear 32 1010 16 16093 2.34 232 00:18 24.10.2019
5661 Clear 32 1012 9 16093 3.1 0 23:43 23.10.2019
5662 Clear 32 1011 17 16093 2.34 232 23:23 23.10.2019
5663 Clear 32 1011 17 16093 2.34 232 22:57 23.10.2019
5664 Clear 32 1013 10 14484 2.34 232 22:38 23.10.2019
5665 Clear 32 1013 10 14484 2.34 232 22:38 23.10.2019
5666 Clear 32 1012 17 16093 2.34 232 22:19 23.10.2019
5667 Clear 31 1014 10 16093 3.1 230 21:57 23.10.2019
5668 Clear 31 1014 10 16093 3.1 230 21:38 23.10.2019
5669 Clear 30 1012 19 16093 1.02 171 21:20 23.10.2019
5670 Clear 30 1013 12 16093 2.1 150 20:57 23.10.2019
5671 Clear 29 1013 21 16093 1.5 0 20:39 23.10.2019
5672 Clear 29 1013 21 16093 1.5 0 20:20 23.10.2019
5673 Clear 28 1013 28 16093 2.1 0 19:57 23.10.2019
5674 Clear 27 1015 14 16093 1.02 171 19:38 23.10.2019
5675 Clear 26 1013 21 16093 1.5 130 19:18 23.10.2019
5676 Clear 24 1014 38 16093 2.1 0 18:55 23.10.2019
5677 Clear 24 1014 38 16093 2.1 0 18:55 23.10.2019
5678 Clear 24 1013 22 16093 2.1 100 18:36 23.10.2019
5679 Clear 24 1015 14 16093 1.02 171 18:36 23.10.2019
5680 Clear 23 1013 22 16093 2.1 100 18:18 23.10.2019
5681 Clear 20 1015 17 16093 2.1 0 17:43 23.10.2019
5682 Clear 19 1013 42 16093 0.25 126 17:20 23.10.2019
5683 Clear 17 1014 19 16093 1.5 100 16:56 23.10.2019
5684 Clear 17 1012 48 16093 0.25 126 16:38 23.10.2019
5685 Clear 17 1012 48 16093 0.25 126 16:19 23.10.2019
5686 Clear 17 1014 22 16093 2.6 60 15:42 23.10.2019
5687 Clear 17 1012 48 16093 0.52 66 15:22 23.10.2019
5688 Clear 17 1013 36 16093 0.52 66 14:58 23.10.2019
5689 Clear 17 1014 24 16093 3.1 70 14:38 23.10.2019
5690 Clear 17 1012 48 16093 0.54 87 14:20 23.10.2019
5691 Clear 17 1014 24 16093 2.6 80 13:59 23.10.2019
5692 Clear 17 1014 24 16093 2.6 80 13:40 23.10.2019
5693 Clear 17 1012 52 16093 0.54 87 13:22 23.10.2019
5694 Clear 18 1013 55 16093 1.5 20 12:56 23.10.2019
5695 Clear 18 1013 52 16093 0.54 87 12:37 23.10.2019
5696 Clear 17 1013 52 16093 0.92 92 12:18 23.10.2019
5697 Clear 18 1015 22 16093 0.92 92 11:57 23.10.2019
5698 Clear 18 1015 22 16093 0.92 92 11:38 23.10.2019
5699 Clear 18 1014 59 16093 0.92 92 11:20 23.10.2019
5700 Clear 19 1016 21 16093 2.1 20 10:45 23.10.2019
5701 Clear 19 1014 56 16093 0.92 92 10:26 23.10.2019
5702 Clear 19 1014 56 16093 0.92 92 10:26 23.10.2019
5703 Clear 19 1016 21 16093 2.6 60 09:57 23.10.2019
5704 Clear 19 1016 21 16093 2.6 60 09:38 23.10.2019
5705 Clear 19 1014 52 16093 0.57 175 09:20 23.10.2019
5706 Clear 20 1016 16 16093 2.6 10 08:42 23.10.2019
5707 Clear 20 1015 52 16093 0.57 175 08:24 23.10.2019
5708 Clear 21 1016 19 16093 2.1 50 07:47 23.10.2019
5709 Clear 21 1015 40 16093 0.57 175 07:25 23.10.2019
5710 Clear 21 1017 26 16093 0.57 175 06:48 23.10.2019
5711 Clear 22 1014 38 16093 1.44 214 06:22 23.10.2019
5712 Clear 23 1016 17 16093 1.44 214 05:55 23.10.2019
5713 Clear 24 1017 19 16093 1.44 214 04:59 23.10.2019
5714 Clear 27 1014 17 16093 1.44 214 03:36 23.10.2019
5715 Clear 30 1016 14 16093 6.2 280 02:41 23.10.2019
5716 Clear 30 1015 17 16093 2.6 0 01:34 23.10.2019
5717 Clear 31 1015 11 16093 4.1 190 00:58 23.10.2019
5718 Clear 32 1017 14 16093 4.1 170 00:32 23.10.2019
5719 Clear 33 1017 9 16093 3.1 0 23:42 22.10.2019
5720 Clear 33 1015 16 16093 2.1 250 23:19 22.10.2019
5721 Clear 34 1015 16 16093 2.1 250 22:58 22.10.2019
5722 Clear 34 1018 9 16093 3.1 230 22:40 22.10.2019
5723 Clear 34 1018 9 16093 3.1 230 22:40 22.10.2019
5724 Clear 34 1016 11 16093 2.41 253 22:21 22.10.2019
5725 Clear 34 1019 9 16093 2.41 253 21:56 22.10.2019
5726 Clear 34 1019 10 16093 2.6 240 21:38 22.10.2019
5727 Clear 32 1017 15 16093 0.89 128 21:19 22.10.2019
5728 Clear 32 1017 15 16093 0.89 128 20:58 22.10.2019
5729 Clear 31 1020 12 16093 0.89 128 20:40 22.10.2019
5730 Clear 30 1018 13 16093 0.89 128 20:21 22.10.2019
5731 Clear 30 1021 11 16093 0.89 128 19:56 22.10.2019
5732 Clear 29 1020 13 16093 0.89 128 19:38 22.10.2019
5733 Clear 28 1018 16 16093 0.89 128 19:20 22.10.2019
5734 Clear 27 1019 22 16093 0.89 128 18:55 22.10.2019
5735 Clear 26 1019 26 16093 0.89 128 18:37 22.10.2019
5736 Clear 24 1019 26 16093 1.61 25 18:19 22.10.2019
5737 Clear 22 1018 28 16093 1.61 25 17:54 22.10.2019
5738 Clear 21 1018 37 16093 1.61 25 17:36 22.10.2019
5739 Clear 19 1018 37 16093 1.61 25 17:18 22.10.2019
5740 Clear 18 1020 17 12874 1.61 25 16:39 22.10.2019
5741 Clear 18 1020 17 12874 1.61 25 16:39 22.10.2019
5742 Clear 19 1018 37 16093 1.5 360 16:20 22.10.2019
5743 Clear 19 1018 37 16093 1.5 360 15:59 22.10.2019
5744 Clear 19 1017 39 16093 1.61 25 15:41 22.10.2019
5745 Clear 18 1017 39 16093 1.31 46 15:19 22.10.2019
5746 Clear 18 1019 24 16093 1.31 46 14:46 22.10.2019
5747 Clear 18 1017 45 16093 1.42 27 14:22 22.10.2019
5748 Clear 18 1017 52 16093 1.42 27 13:55 22.10.2019
5749 Clear 18 1017 52 16093 1.42 27 13:37 22.10.2019
5750 Clear 18 1017 52 16093 1.42 27 13:18 22.10.2019
5751 Clear 18 1018 33 16093 1.42 27 12:54 22.10.2019
5752 Clear 18 1018 48 16093 1.42 27 12:36 22.10.2019
5753 Rain 18 1018 48 16093 1.08 21 12:18 22.10.2019
5754 Rain 19 1018 52 16093 1.08 21 11:40 22.10.2019
5755 Rain 19 1018 52 16093 1.08 21 11:22 22.10.2019
5756 Rain 19 1018 52 16093 1.08 21 10:58 22.10.2019
5757 Rain 19 1018 46 16093 1.08 21 10:38 22.10.2019
5758 Rain 19 1018 46 16093 1.08 21 10:19 22.10.2019
5759 Rain 20 1017 52 16093 1.08 21 09:57 22.10.2019
5760 Rain 19 1017 52 16093 0.87 23 09:38 22.10.2019
5761 Rain 19 1017 52 16093 0.51 115 09:20 22.10.2019
5762 Rain 20 1018 43 16093 0.51 115 08:43 22.10.2019
5763 Rain 20 1018 43 16093 0.51 115 08:22 22.10.2019
5764 Clear 21 1018 28 16093 0.51 115 07:57 22.10.2019
5765 Clear 21 1017 38 16093 0.51 115 07:39 22.10.2019
5766 Clear 21 1017 38 16093 0.51 115 07:20 22.10.2019
5767 Clear 22 1019 19 16093 2.6 360 06:37 22.10.2019
5768 Clear 22 1016 38 16093 1.26 241 06:19 22.10.2019
5769 Clear 23 1016 29 16093 1.26 241 05:27 22.10.2019
5770 Clear 26 1015 17 16093 2.1 260 03:53 22.10.2019
5771 Clear 29 1015 16 16093 2.1 270 02:29 22.10.2019
5772 Clear 30 1015 13 16093 2.6 260 01:37 22.10.2019
5773 Clear 31 1015 13 16093 2.6 260 01:18 22.10.2019
5774 Clear 30 1014 14 16093 2.6 260 00:42 22.10.2019
5775 Clear 31 1014 14 16093 2.6 260 00:24 22.10.2019
5776 Clear 31 1015 13 16093 2.1 0 23:58 21.10.2019
5777 Clear 31 1015 14 16093 1.5 0 23:38 21.10.2019
5778 Clear 31 1015 14 16093 1.5 0 23:19 21.10.2019
5779 Clear 31 1015 14 16093 1.5 0 22:58 21.10.2019
5780 Clear 31 1015 14 16093 1.5 0 22:39 21.10.2019
5781 Clear 31 1015 14 16093 1.5 0 22:20 21.10.2019
5782 Clear 31 1015 14 16093 1.5 0 22:20 21.10.2019
5783 Clear 31 1016 11 16093 2.1 210 21:56 21.10.2019
5784 Clear 31 1016 14 16093 2.48 280 21:38 21.10.2019
5785 Clear 30 1016 14 16093 0.34 107 21:19 21.10.2019
5786 Clear 29 1017 13 16093 2.1 260 20:57 21.10.2019
5787 Clear 29 1019 13 16093 1.5 100 20:57 21.10.2019
5788 Smoke 29 1016 16 16093 2.1 0 20:38 21.10.2019
5789 Clear 28 1016 16 16093 0.34 107 20:20 21.10.2019
5790 Clear 28 1017 15 16093 0.34 107 19:55 21.10.2019
5791 Clear 28 1017 17 16093 3.1 340 19:55 21.10.2019
5792 Clear 27 1017 17 16093 3.1 340 19:36 21.10.2019
5793 Clear 26 1016 23 16093 0.34 107 19:18 21.10.2019
5794 Clear 25 1019 20 16093 0.34 107 18:55 21.10.2019
5795 Clear 24 1016 27 16093 1.5 20 18:36 21.10.2019
5796 Clear 24 1016 27 16093 1.5 20 18:36 21.10.2019
5797 Clear 22 1016 27 16093 1.5 20 18:18 21.10.2019
5798 Clear 20 1015 32 16093 1.5 20 17:39 21.10.2019
5799 Clear 20 1015 32 16093 1.5 20 17:39 21.10.2019
5800 Clear 19 1015 32 16093 1.5 20 17:19 21.10.2019
5801 Clear 17 1018 29 16093 2.6 320 16:58 21.10.2019
5802 Clear 17 1015 30 16093 1.39 30 16:40 21.10.2019
5803 Clear 17 1015 30 16093 1.39 30 16:22 21.10.2019
5804 Rain 17 1015 30 16093 1.39 30 15:58 21.10.2019
5805 Rain 17 1014 30 16093 1.39 30 15:39 21.10.2019
5806 Rain 17 1014 30 16093 1.3 27 15:19 21.10.2019
5807 Rain 17 1014 30 16093 1.41 32 14:40 21.10.2019
5808 Rain 17 1014 30 16093 1.41 32 14:22 21.10.2019
5809 Rain 17 1014 30 16093 1.41 32 13:59 21.10.2019
5810 Rain 17 1014 34 16093 1.5 50 13:41 21.10.2019
5811 Rain 17 1014 34 16093 1.5 50 13:20 21.10.2019
5812 Rain 18 1014 32 16093 1.41 32 12:58 21.10.2019
5813 Rain 18 1014 32 16093 1.41 32 12:40 21.10.2019
5814 Clear 18 1014 32 16093 3.91 1.084 12:20 21.10.2019
5815 Rain 18 1014 30 16093 3.91 1.084 11:54 21.10.2019
5816 Rain 18 1015 29 16093 3.91 1.084 11:54 21.10.2019
5817 Rain 19 1014 30 16093 3.91 1.084 11:54 21.10.2019
5818 Rain 19 1014 30 16093 3.91 1.084 11:36 21.10.2019
5819 Rain 19 1014 30 16093 3.91 1.084 11:18 21.10.2019
5820 Rain 19 1015 22 16093 3.91 1.084 10:54 21.10.2019
5821 Rain 19 1013 40 16093 3.91 1.084 10:36 21.10.2019
5822 Rain 20 1013 40 16093 3.91 1.084 10:18 21.10.2019
5823 Rain 20 1013 37 16093 3.91 1.084 09:42 21.10.2019
5824 Rain 20 1013 37 16093 4.5 357.441 09:22 21.10.2019
5825 Rain 20 1013 46 16093 4.13 353.312 08:43 21.10.2019
5826 Rain 20 1013 46 16093 4.13 353.312 08:43 21.10.2019
5827 Clear 21 1013 46 16093 4.13 353.312 08:23 21.10.2019
5828 Rain 21 1013 46 16093 4.13 353.312 07:58 21.10.2019
5829 Rain 20 1012 40 16093 4.13 353.312 07:37 21.10.2019
5830 Rain 21 1012 40 16093 4.13 353.312 07:18 21.10.2019
5831 Rain 21 1012 49 16093 4.13 353.312 06:50 21.10.2019
5832 Rain 21 1012 49 16093 4.13 353.312 06:31 21.10.2019
5833 Rain 23 1011 49 16093 1.5 280 05:46 21.10.2019
5834 Rain 23 1011 44 16093 4.13 343.349 04:42 21.10.2019
5835 Rain 28 1010 28 16093 1.22 304.197 02:41 21.10.2019
5836 Rain 28 1010 28 16093 1.22 304.197 02:22 21.10.2019
5837 Rain 28 1010 26 16093 1.5 0 01:52 21.10.2019
5838 Rain 29 1010 26 16093 1.5 0 01:23 21.10.2019
5839 Clear 29 1010 27 16093 2.09 286.476 00:43 21.10.2019
5840 Clear 29 1010 27 16093 1.34 214.63 00:24 21.10.2019
5841 Clear 28 1011 23 16093 4.1 260 23:41 20.10.2019
5842 Clear 28 1011 23 16093 4.1 260 23:22 20.10.2019
5843 Clear 28 1012 15 16093 6.2 310 22:56 20.10.2019
5844 Clear 28 1013 16 16093 6.2 280 22:37 20.10.2019
5845 Clear 28 1012 28 16093 2.6 270 22:18 20.10.2019
5846 Clear 27 1012 28 16093 2.6 270 21:57 20.10.2019
5847 Clear 27 1013 34 16093 1.34 214.63 21:38 20.10.2019
5848 Clear 26 1013 34 16093 2.84 11.08 21:20 20.10.2019
5849 Clear 25 1013 50 16093 1.5 0 20:41 20.10.2019
5850 Clear 24 1013 50 16093 1.5 0 20:19 20.10.2019
5851 Clear 24 1013 50 16093 1.5 0 20:19 20.10.2019
5852 Clear 23 1014 46 16093 2.97 359.267 19:57 20.10.2019
5853 Clear 23 1013 27 16093 6.7 340 19:57 20.10.2019
5854 Clear 22 1013 53 16093 2.1 0 19:38 20.10.2019
5855 Clear 21 1013 53 16093 2.1 0 19:20 20.10.2019
5856 Clear 20 1013 59 16093 2.1 90 18:55 20.10.2019
5857 Clear 20 1013 59 16093 2.1 90 18:37 20.10.2019
5858 Haze 19 1013 59 16093 2.1 90 18:19 20.10.2019
5859 Haze 18 1013 67 16093 3.1 30 17:54 20.10.2019
5860 Haze 17 1013 67 16093 3.1 30 17:36 20.10.2019
5861 Haze 16 1012 67 16093 1.5 100 17:18 20.10.2019
5862 Rain 15 1012 82 9656 5.53 345.311 16:41 20.10.2019
5863 Rain 14 1012 72 14484 5.53 345.311 16:23 20.10.2019
5864 Rain 14 1011 77 14484 1.5 100 15:57 20.10.2019
5865 Rain 15 1011 77 14484 1.5 100 15:38 20.10.2019
5866 Rain 15 1011 77 14484 1.5 100 15:19 20.10.2019
5867 Rain 15 1011 42 16093 5.7 330 14:57 20.10.2019
5868 Rain 15 1011 76 16093 2.1 70 14:37 20.10.2019
5869 Rain 15 1011 76 16093 2.1 70 14:19 20.10.2019
5870 Rain 15 1011 82 12874 3.08 346.455 13:55 20.10.2019
5871 Rain 15 1011 82 9656 1.5 0 13:36 20.10.2019
5872 Rain 15 1011 82 11265 2.1 90 13:18 20.10.2019
5873 Clear 15 1011 59 16093 4.6 80 12:55 20.10.2019
5874 Rain 15 1011 72 14484 1.94 322.764 12:37 20.10.2019
5875 Rain 15 1011 72 14484 0.47 242.62 12:19 20.10.2019
5876 Rain 15 1011 72 14484 0.47 242.62 12:19 20.10.2019
5877 Haze 15 1011 93 16093 2.6 80 11:54 20.10.2019
5878 Haze 16 1011 72 16093 0.47 242.62 11:36 20.10.2019
5879 Clear 16 1011 72 16093 0.47 242.62 11:18 20.10.2019
5880 Clouds 15 1011 100 16093 2.1 100 10:40 20.10.2019
5881 Clouds 15 1011 72 16093 1.5 80 10:22 20.10.2019
5882 Clouds 16 1011 72 16093 2.1 90 09:57 20.10.2019
5883 Clouds 16 1011 72 16093 2.1 90 09:39 20.10.2019
5884 Rain 16 1011 72 16093 0.37 249.408 09:20 20.10.2019
5885 Rain 17 1011 72 16093 1 269.425 08:45 20.10.2019
5886 Rain 16 1011 72 16093 1 269.425 08:22 20.10.2019
5887 Rain 17 1011 68 16093 1 269.425 07:50 20.10.2019
5888 Rain 17 1011 68 16093 1 269.425 07:30 20.10.2019
5889 Rain 18 1011 68 16093 1 269.425 06:35 20.10.2019
5890 Rain 18 1011 52 16093 1.5 310 05:59 20.10.2019
5891 Rain 19 1011 56 16093 0.61 202.555 04:27 20.10.2019
5892 Rain 20 1011 49 16093 1.5 260 03:43 20.10.2019
5893 Rain 21 1011 49 16093 1.5 260 03:20 20.10.2019
5894 Rain 23 1011 36 16093 2.1 270 02:38 20.10.2019
5895 Rain 24 1011 36 16093 2.1 270 01:58 20.10.2019
5896 Rain 24 1011 36 16093 3.73 223.913 01:23 20.10.2019
5897 Clear 24 1011 36 16093 3.1 150 00:56 20.10.2019
5898 Clear 24 1011 44 16093 3.1 260 00:38 20.10.2019
5899 Clear 25 1011 44 16093 3.1 260 00:19 20.10.2019
5900 Clear 25 1012 34 16093 2.6 250 23:42 19.10.2019
5901 Clear 25 1012 34 16093 2.6 250 23:22 19.10.2019
5902 Clear 25 1012 36 16093 4.6 180 22:56 19.10.2019
5903 Clear 25 1013 39 16093 3.65 239.628 22:38 19.10.2019
5904 Clear 25 1013 39 16093 3.65 239.628 22:20 19.10.2019
5905 Haze 25 1014 19 16093 2.6 160 21:46 19.10.2019
5906 Clear 23 1013 41 16093 1.11 149.877 21:23 19.10.2019
5907 Clear 23 1015 20 16093 3.1 120 20:46 19.10.2019
5908 Clear 22 1014 47 16093 0.58 242.056 20:23 19.10.2019
5909 Clear 22 1014 28 16093 3.1 140 19:59 19.10.2019
5910 Clear 22 1014 60 16093 2.1 180 19:40 19.10.2019
5911 Haze 21 1014 56 16093 0.58 242.056 19:22 19.10.2019
5912 Clear 20 1014 63 16093 1.5 90 18:43 19.10.2019
5913 Clear 19 1014 63 16093 1.5 90 18:24 19.10.2019
5914 Clear 19 1014 63 16093 1.5 90 18:24 19.10.2019
5915 Clear 17 1014 39 16093 1.25 33.257 17:57 19.10.2019
5916 Clear 16 1013 55 14484 1.25 33.257 17:37 19.10.2019
5917 Clear 15 1013 55 14484 1.25 33.257 17:19 19.10.2019
5918 Rain 13 1013 67 16093 1.25 33.257 16:39 19.10.2019
5919 Rain 13 1013 67 16093 1.25 33.257 16:39 19.10.2019
5920 Rain 13 1013 67 16093 1.25 33.257 16:20 19.10.2019
5921 Rain 13 1013 43 16093 1.5 320 15:59 19.10.2019
5922 Rain 13 1013 67 16093 1.25 33.257 15:39 19.10.2019
5923 Rain 14 1013 67 16093 1.73 73.412 15:21 19.10.2019
5924 Rain 13 1012 72 16093 1.73 73.412 14:38 19.10.2019
5925 Rain 14 1012 72 16093 1.73 73.412 14:20 19.10.2019
5926 Rain 13 1012 72 16093 2.1 90 13:56 19.10.2019
5927 Rain 14 1012 72 16093 2.1 90 13:38 19.10.2019
5928 Rain 14 1012 72 16093 2.1 90 13:18 19.10.2019
5929 Rain 14 1012 59 16093 1.15 60.311 12:42 19.10.2019
5930 Rain 15 1012 59 16093 0.85 70.735 12:23 19.10.2019
5931 Rain 15 1012 59 16093 0.85 70.735 11:59 19.10.2019
5932 Rain 15 1012 72 16093 0.85 70.735 11:40 19.10.2019
5933 Rain 15 1012 72 16093 0.85 70.735 11:22 19.10.2019
5934 Rain 15 1012 55 16093 0.85 70.735 10:55 19.10.2019
5935 Rain 15 1012 77 16093 0.85 70.735 10:37 19.10.2019
5936 Rain 15 1012 77 16093 0.85 70.735 10:19 19.10.2019
5937 Rain 16 1012 63 16093 2.1 110 09:41 19.10.2019
5938 Rain 16 1012 63 16093 2.1 110 09:23 19.10.2019
5939 Rain 17 1012 63 16093 2.1 110 08:58 19.10.2019
5940 Rain 17 1012 63 16093 2.1 110 08:58 19.10.2019
5941 Rain 17 1012 68 16093 0.84 70.309 08:39 19.10.2019
5942 Rain 17 1012 68 16093 0.84 70.309 08:20 19.10.2019
5943 Rain 17 1012 68 16093 0.84 70.309 07:44 19.10.2019
5944 Rain 17 1012 68 16093 0.84 70.309 07:24 19.10.2019
5945 Rain 17 1012 68 16093 0.84 70.309 07:24 19.10.2019
5946 Rain 17 1012 68 16093 0.84 70.309 07:24 19.10.2019
5947 Rain 18 1012 56 16093 0.84 70.309 06:46 19.10.2019
5948 Rain 18 1012 56 16093 1.03 264.09 05:57 19.10.2019
5949 Rain 18 1012 52 16093 1.03 264.09 05:28 19.10.2019
5950 Rain 20 1012 35 16093 3.1 280 03:59 19.10.2019
5951 Rain 22 1012 40 16093 1.5 260 02:44 19.10.2019
5952 Rain 23 1012 38 16093 2.1 0 01:53 19.10.2019
5953 Rain 23 1012 38 16093 2.1 0 01:20 19.10.2019
5954 Clear 23 1012 38 16093 1.5 250 00:47 19.10.2019
5955 Clear 24 1012 38 16093 1.5 250 00:25 19.10.2019
5956 Clear 24 1012 44 16093 2.96 237.093 23:43 18.10.2019
5957 Clear 24 1012 44 16093 2.96 237.093 23:25 18.10.2019
5958 Clear 24 1012 31 16093 2.6 140 22:56 18.10.2019
5959 Clear 24 1013 38 16093 2.96 237.093 22:38 18.10.2019
5960 Clear 23 1013 38 16093 2.96 237.093 22:20 18.10.2019
5961 Clear 23 1014 38 16093 2.6 90 21:57 18.10.2019
5962 Clear 23 1014 44 16093 1.5 20 21:38 18.10.2019
5963 Clear 22 1014 44 16093 1.5 20 21:20 18.10.2019
5964 Clear 22 1014 49 16093 4.1 170 20:56 18.10.2019
5965 Clear 21 1014 53 16093 1.5 130 20:38 18.10.2019
5966 Clear 21 1014 53 16093 1.5 130 20:20 18.10.2019
5967 Clear 21 1015 45 16093 3.1 110 19:55 18.10.2019
5968 Clouds 21 1015 60 11265 2.1 100 19:55 18.10.2019
5969 Clear 21 1014 60 16093 2.1 100 19:37 18.10.2019
5970 Clear 21 1014 60 16093 2.1 100 19:37 18.10.2019
5971 Clear 20 1014 60 16093 2.1 100 19:19 18.10.2019
5972 Clear 19 1014 55 16093 4.1 110 18:55 18.10.2019
5973 Clouds 19 1014 68 14484 1.06 190.136 18:37 18.10.2019
5974 Clouds 18 1014 68 14484 2.95 347.442 18:19 18.10.2019
5975 Clear 17 1013 72 14484 2.95 347.442 17:39 18.10.2019
5976 Clear 17 1013 72 14484 2.95 347.442 17:39 18.10.2019
5977 Clear 16 1013 72 14484 2.95 347.442 17:20 18.10.2019
5978 Rain 15 1013 58 16093 1.5 210 16:58 18.10.2019
5979 Rain 14 1012 77 14484 2.95 347.442 16:37 18.10.2019
5980 Rain 14 1012 77 14484 2.95 347.442 16:19 18.10.2019
5981 Rain 14 1012 77 16093 2.95 347.442 15:41 18.10.2019
5982 Rain 14 1012 77 16093 0.93 342.013 15:21 18.10.2019
5983 Rain 14 1012 77 16093 0.93 342.013 14:59 18.10.2019
5984 Rain 14 1012 77 16093 0.93 342.013 14:41 18.10.2019
5985 Rain 14 1012 77 16093 0.93 342.013 14:22 18.10.2019
5986 Rain 15 1011 77 16093 1.5 30 13:59 18.10.2019
5987 Rain 15 1011 77 16093 1.5 30 13:41 18.10.2019
5988 Rain 15 1011 77 16093 1.5 30 13:23 18.10.2019
5989 Rain 15 1011 87 16093 1.5 170 12:57 18.10.2019
5990 Rain 15 1011 77 16093 1.5 90 12:39 18.10.2019
5991 Rain 15 1011 77 16093 1.55 80.78 12:20 18.10.2019
5992 Rain 15 1011 77 16093 2.6 100 11:56 18.10.2019
5993 Rain 16 1011 77 16093 2.6 90 11:38 18.10.2019
5994 Rain 16 1011 77 16093 2.6 90 11:19 18.10.2019
5995 Clear 16 1011 63 16093 3.1 100 10:56 18.10.2019
5996 Clear 16 1011 63 16093 3.1 100 10:55 18.10.2019
5997 Rain 16 1009 68 16093 2.6 100 10:36 18.10.2019
5998 Rain 16 1009 68 16093 2.6 100 10:18 18.10.2019
5999 Rain 16 1010 72 16093 2.1 110 09:54 18.10.2019
6000 Rain 17 1010 77 16093 2.1 120 09:36 18.10.2019
6001 Rain 17 1010 77 16093 2.1 120 09:18 18.10.2019
6002 Rain 17 1010 82 16093 1.5 200 08:42 18.10.2019
6003 Rain 17 1010 77 16093 0.89 83.709 08:22 18.10.2019
6004 Clouds 17 1009 82 16093 0.89 83.709 07:43 18.10.2019
6005 Clear 17 1009 68 16093 0.89 83.709 07:25 18.10.2019
6006 Clouds 18 1008 77 16093 2.1 170 06:40 18.10.2019
6007 Clear 18 1008 68 16093 1.5 110 06:22 18.10.2019
6008 Clear 18 1008 68 16093 1.5 110 05:58 18.10.2019
6009 Clear 18 1008 72 16093 0.29 212.983 05:24 18.10.2019
6010 Clear 18 1008 72 16093 0.29 212.983 05:24 18.10.2019
6011 Clear 18 1010 37 16093 7.7 300 04:49 18.10.2019
6012 Clear 19 1007 60 16093 1.5 240 03:33 18.10.2019
6013 Clear 20 1008 56 16093 3.1 260 02:37 18.10.2019
6014 Clear 21 1008 56 16093 3.1 260 02:18 18.10.2019
6015 Clear 22 1008 56 16093 2.1 250 01:31 18.10.2019
6016 Clear 22 1008 53 16093 3.6 250 00:54 18.10.2019
6017 Clear 23 1008 53 16093 3.6 250 00:36 18.10.2019
6018 Clear 23 1008 53 16093 3.6 250 00:18 18.10.2019
6019 Clear 23 1008 44 16093 2.1 0 23:38 17.10.2019
6020 Clear 24 1008 44 16093 2.1 0 23:19 17.10.2019
6021 Clear 24 1010 41 16093 4.6 130 22:55 17.10.2019
6022 Clear 24 1009 44 16093 1.5 0 22:37 17.10.2019
6023 Clear 23 1009 44 16093 1.5 0 22:19 17.10.2019
6024 Clear 23 1009 49 16093 4.6 170 21:56 17.10.2019
6025 Clear 23 1009 53 14484 1.5 0 21:38 17.10.2019
6026 Clear 22 1009 53 14484 1.5 0 21:20 17.10.2019
6027 Haze 22 1011 56 11265 3.1 200 20:57 17.10.2019
6028 Haze 22 1010 56 16093 2.1 0 20:38 17.10.2019
6029 Haze 21 1010 56 16093 1.5 0 20:19 17.10.2019
6030 Haze 21 1011 64 16093 2.6 140 19:56 17.10.2019
6031 Haze 21 1011 64 11265 4.1 90 19:38 17.10.2019
6032 Haze 20 1010 64 11265 1.5 0 19:19 17.10.2019
6033 Haze 19 1010 68 11265 3.1 120 18:43 17.10.2019
6034 Haze 19 1010 68 11265 1.82 70.154 18:21 17.10.2019
6035 Haze 18 1010 68 11265 1.82 70.154 17:58 17.10.2019
6036 Clouds 17 1010 72 14484 3.1 100 17:40 17.10.2019
6037 Haze 17 1010 82 9656 3.6 110 17:22 17.10.2019
6038 Clear 16 1009 77 11265 3.6 130 16:56 17.10.2019
6039 Haze 16 1009 88 9656 2.1 80 16:37 17.10.2019
6040 Haze 16 1009 88 9656 2.1 80 16:37 17.10.2019
6041 Haze 16 1009 88 9656 2.1 80 16:37 17.10.2019
6042 Haze 16 1009 88 9656 2.1 80 16:18 17.10.2019
6043 Rain 16 1009 77 16093 1.5 130 15:55 17.10.2019
6044 Rain 16 1009 77 16093 1.5 130 15:55 17.10.2019
6045 Rain 16 1010 51 16093 1.181 167 15:37 17.10.2019
6046 Rain 15 1009 82 14484 2.6 80 15:19 17.10.2019
6047 Clouds 16 1009 77 12874 1.856 193 14:42 17.10.2019
6048 Rain 16 1009 82 12874 1.856 193 14:23 17.10.2019
6049 Rain 16 1009 72 16093 1.856 193 13:56 17.10.2019
6050 Rain 16 1008 82 12874 1.856 193 13:38 17.10.2019
6051 Rain 16 1009 77 11265 1.856 193 13:18 17.10.2019
6052 Mist 16 1009 100 1207 1.856 193 12:41 17.10.2019
6053 Mist 16 1009 100 1207 1.636 161 12:21 17.10.2019
6054 Rain 16 1009 77 16093 2.1 80 11:59 17.10.2019
6055 Rain 16 1009 82 12874 1.5 110 11:59 17.10.2019
6056 Rain 16 1009 82 12874 1.5 110 11:40 17.10.2019
6057 Rain 17 1009 82 12874 1.5 110 11:19 17.10.2019
6058 Rain 17 1009 82 12874 1.5 110 11:19 17.10.2019
6059 Rain 17 1011 39 16093 2.1 330 10:56 17.10.2019
6060 Rain 17 1011 39 16093 2.1 330 10:38 17.10.2019
6061 Rain 17 1009 68 16093 1.636 161 10:18 17.10.2019
6062 Rain 17 1010 63 16093 1.636 161 09:54 17.10.2019
6063 Rain 17 1009 64 16093 1.439 198 09:36 17.10.2019
6064 Rain 17 1010 63 16093 1.461 187 09:18 17.10.2019
6065 Rain 18 1010 64 16093 1.461 187 08:42 17.10.2019
6066 Rain 18 1010 64 16093 1.461 187 08:24 17.10.2019
6067 Clear 18 1010 59 16093 1.461 187 07:56 17.10.2019
6068 Clear 18 1010 56 16093 1.461 187 07:37 17.10.2019
6069 Clear 18 1010 56 16093 1.461 187 07:18 17.10.2019
6070 Clear 18 1010 56 16093 1.461 187 07:18 17.10.2019
6071 Clear 19 1009 56 16093 1.461 187 06:40 17.10.2019
6072 Clear 20 1009 56 16093 1.74 180 06:21 17.10.2019
6073 Clear 20 1009 53 16093 3.6 110 05:57 17.10.2019
6074 Clear 20 1009 64 16093 1.74 180 05:32 17.10.2019
6075 Clear 21 1009 60 16093 1.5 320 04:56 17.10.2019
6076 Clear 22 1010 29 16093 3.6 280 03:55 17.10.2019
6077 Clear 25 1011 17 16093 2.1 200 02:53 17.10.2019
6078 Clear 26 1011 16 16093 5.1 270 01:39 17.10.2019
6079 Clear 27 1011 15 16093 6.2 260 00:40 17.10.2019
6080 Clear 29 1010 32 16093 2.6 260 00:19 17.10.2019
6081 Clear 30 1010 27 16093 2.41 247 23:42 16.10.2019
6082 Clear 30 1010 27 16093 2.41 247 23:21 16.10.2019
6083 Clear 30 1011 15 16093 4.1 190 22:56 16.10.2019
6084 Clear 30 1011 17 16093 2.41 247 22:38 16.10.2019
6085 Clear 30 1011 17 16093 2.41 247 22:19 16.10.2019
6086 Clear 30 1011 17 16093 2.41 247 22:19 16.10.2019
6087 Clear 31 1012 15 16093 2.41 247 21:58 16.10.2019
6088 Clear 31 1012 16 16093 1.718 264 21:38 16.10.2019
6089 Clear 31 1012 16 16093 1.718 264 21:38 16.10.2019
6090 Clear 30 1012 16 16093 0.451 334 21:20 16.10.2019
6091 Clear 29 1012 16 16093 0.451 334 20:58 16.10.2019
6092 Clear 29 1015 14 16093 0.451 334 20:40 16.10.2019
6093 Clear 28 1013 18 16093 1.5 0 20:21 16.10.2019
6094 Clear 27 1013 18 16093 1.5 0 19:59 16.10.2019
6095 Clear 27 1015 18 16093 0.451 334 19:39 16.10.2019
6096 Clear 27 1015 18 16093 0.451 334 19:39 16.10.2019
6097 Clear 26 1013 26 16093 0.451 334 19:21 16.10.2019
6098 Clear 24 1016 21 16093 0.451 334 18:56 16.10.2019
6099 Clear 24 1016 21 16093 0.451 334 18:56 16.10.2019
6100 Clear 23 1016 21 16093 0.451 334 18:37 16.10.2019
6101 Clear 22 1014 35 16093 0.772 56 18:18 16.10.2019
6102 Clear 20 1015 30 16093 1.5 220 17:54 16.10.2019
6103 Clear 20 1015 30 16093 1.5 220 17:54 16.10.2019
6104 Haze 18 1014 82 4828 0.772 56 17:36 16.10.2019
6105 Clear 18 1014 48 16093 0.772 56 17:18 16.10.2019
6106 Clear 16 1014 55 16093 1.5 350 16:43 16.10.2019
6107 Mist 15 1014 82 6437 1.5 320 16:22 16.10.2019
6108 Clear 15 1014 59 16093 0.772 56 15:59 16.10.2019
6109 Clear 15 1015 32 16093 3.1 30 15:39 16.10.2019
6110 Rain 15 1014 72 16093 0.549 99 15:19 16.10.2019
6111 Rain 15 1013 82 12874 0.549 99 14:58 16.10.2019
6112 Rain 15 1013 82 12874 0.849 112 14:39 16.10.2019
6113 Rain 16 1013 82 12874 0.849 112 14:20 16.10.2019
6114 Rain 16 1013 44 16093 0.849 112 13:57 16.10.2019
6115 Rain 16 1013 72 16093 0.849 112 13:39 16.10.2019
6116 Rain 16 1013 72 16093 0.849 112 13:21 16.10.2019
6117 Rain 16 1014 63 16093 0.849 112 12:42 16.10.2019
6118 Rain 16 1014 63 16093 0.611 147 12:20 16.10.2019
6119 Rain 17 1014 77 16093 0.611 147 11:55 16.10.2019
6120 Rain 17 1015 32 16093 2.6 50 11:37 16.10.2019
6121 Rain 17 1014 59 16093 0.611 147 11:18 16.10.2019
6122 Rain 17 1015 32 16093 3.6 50 10:36 16.10.2019
6123 Rain 17 1014 68 16093 0.611 147 10:18 16.10.2019
6124 Rain 18 1014 68 16093 0.611 147 09:40 16.10.2019
6125 Rain 18 1014 68 16093 0.78 150 09:22 16.10.2019
6126 Rain 18 1014 68 16093 0.78 150 08:57 16.10.2019
6127 Rain 18 1014 64 16093 0.78 150 08:39 16.10.2019
6128 -273 0 0 0 0 0 08:39 16.10.2019
6129 Rain 18 1014 64 16093 0.78 150 08:20 16.10.2019
6130 Clear 19 1016 35 16093 0.78 150 07:43 16.10.2019
6131 Clear 19 1014 64 16093 0.78 150 07:24 16.10.2019
6132 Clear 19 1014 30 16093 3.1 300 06:55 16.10.2019
6133 Clear 20 1013 64 16093 0.78 150 06:31 16.10.2019
6134 Clear 20 1013 64 16093 1.73 183 05:23 16.10.2019
6135 Clear 25 1013 17 16093 1.5 240 02:57 16.10.2019
6136 Clear 28 1014 12 16093 4.6 260 01:39 16.10.2019
6137 Clear 28 1013 42 16093 2.6 280 01:18 16.10.2019
6138 Clear 28 1014 19 16093 3.1 0 00:45 16.10.2019
6139 Clear 28 1013 39 16093 1.5 0 00:25 16.10.2019
6140 Clear 29 1015 21 16093 2.6 0 23:39 15.10.2019
6141 Clear 28 1014 37 16093 2.1 270 23:21 15.10.2019
6142 Clear 28 1016 16 16093 3.198 268 22:56 15.10.2019
6143 Clear 28 1016 16 16093 3.198 268 22:37 15.10.2019
6144 Clear 27 1015 41 16093 1.5 0 22:19 15.10.2019
6145 Clear 26 1016 26 16093 1.5 0 21:56 15.10.2019
6146 Clear 26 1017 19 14484 3.026 266 21:38 15.10.2019
6147 Clear 25 1016 47 11265 1.77 263 21:19 15.10.2019
6148 Clear 24 1016 33 16093 1.77 263 20:57 15.10.2019
6149 Clear 24 1017 25 16093 1.77 263 20:39 15.10.2019
6150 Clear 24 1016 44 11265 1.5 270 20:20 15.10.2019
6151 Clear 23 1017 40 16093 2.1 170 19:57 15.10.2019
6152 Clear 22 1017 38 14484 1.77 263 19:39 15.10.2019
6153 Clear 21 1017 49 11265 1.77 263 19:19 15.10.2019
6154 Clear 21 1017 49 11265 1.77 263 19:19 15.10.2019
6155 Clear 19 1018 60 16093 1.77 263 18:47 15.10.2019
6156 Clear 19 1016 59 12874 1.77 263 18:28 15.10.2019
6157 Clear 17 1016 59 12874 0.279 251 17:58 15.10.2019
6158 Clear 16 1017 55 16093 0.279 251 17:39 15.10.2019
6159 Clear 15 1016 67 12874 1.5 20 17:20 15.10.2019
6160 Clear 13 1017 66 16093 0.279 251 16:55 15.10.2019
6161 Clear 13 1016 72 11265 0.279 251 16:37 15.10.2019
6162 Clear 12 1016 72 11265 0.279 251 16:19 15.10.2019
6163 Mist 13 1016 100 4828 0.279 251 15:42 15.10.2019
6164 Clear 13 1015 77 14484 1.162 220 15:20 15.10.2019
6165 Clear 13 1015 77 14484 1.162 220 14:58 15.10.2019
6166 Rain 13 1016 71 16093 2.1 40 14:38 15.10.2019
6167 Rain 13 1016 71 16093 2.1 40 14:38 15.10.2019
6168 Rain 13 1016 71 16093 2.1 40 14:38 15.10.2019
6169 Rain 13 1015 77 11265 0.636 229 14:20 15.10.2019
6170 -273 0 0 0 0 0 13:56 15.10.2019
6171 Rain 13 1015 76 16093 0.636 229 13:37 15.10.2019
6172 Rain 13 1015 82 11265 0.636 229 13:19 15.10.2019
6173 Rain 13 1015 71 16093 2.1 40 12:42 15.10.2019
6174 Rain 13 1015 82 11265 0.894 234 12:21 15.10.2019
6175 Rain 13 1015 67 16093 1.5 300 11:57 15.10.2019
6176 Rain 13 1015 62 16093 0.894 234 11:38 15.10.2019
6177 Rain 14 1015 77 14484 0.894 234 11:19 15.10.2019
6178 Rain 14 1016 67 16093 1.5 70 10:45 15.10.2019
6179 Rain 14 1015 82 16093 0.85 258.954 10:22 15.10.2019
6180 Rain 14 1015 82 16093 0.85 258.954 09:58 15.10.2019
6181 Rain 15 1015 77 16093 1.5 150 09:38 15.10.2019
6182 Rain 14 1015 77 16093 1.5 150 09:20 15.10.2019
6183 Rain 15 1015 77 16093 0.9 155.198 08:56 15.10.2019
6184 Rain 15 1015 77 16093 0.9 155.198 08:37 15.10.2019
6185 Rain 15 1015 77 16093 0.9 155.198 08:18 15.10.2019
6186 Rain 16 1015 77 16093 0.9 155.198 07:42 15.10.2019
6187 Rain 16 1015 77 16093 0.9 155.198 07:21 15.10.2019
6188 Rain 16 1014 77 16093 0.9 155.198 06:47 15.10.2019
6189 Rain 16 1014 77 16093 0.9 155.198 06:29 15.10.2019
6190 Rain 17 1014 72 16093 2.1 140 05:54 15.10.2019
6191 Rain 17 1014 72 16093 2.28 241.972 05:35 15.10.2019
6192 Rain 18 1013 68 16093 2.1 260 04:39 15.10.2019
6193 Rain 18 1013 68 16093 3.1 180 03:58 15.10.2019
6194 Rain 19 1013 60 16093 2.6 250 03:30 15.10.2019
6195 Rain 21 1012 56 16093 2.1 0 01:51 15.10.2019
6196 Rain 22 1012 56 16093 2.1 0 01:24 15.10.2019
6197 Rain 22 1012 49 16093 4.1 180 00:58 15.10.2019
6198 Rain 22 1013 56 16093 4.6 270 00:24 15.10.2019
6199 Rain 22 1012 46 16093 5.1 150 23:57 14.10.2019
6200 Rain 22 1013 53 16093 4.16 213.938 23:37 14.10.2019
6201 Rain 22 1013 53 16093 4.16 213.938 23:18 14.10.2019
6202 Rain 22 1013 47 16093 4.16 213.938 22:39 14.10.2019
6203 Rain 22 1013 47 16093 4.16 213.938 22:20 14.10.2019
6204 Rain 22 1014 40 16093 2.6 250 21:57 14.10.2019
6205 Rain 22 1014 49 16093 4.16 213.938 21:39 14.10.2019
6206 Rain 21 1014 49 16093 1.24 206.194 21:20 14.10.2019
6207 Haze 21 1014 53 2012 2.12 173.481 20:57 14.10.2019
6208 Rain 21 1014 53 16093 2.12 173.481 20:38 14.10.2019
6209 Rain 20 1014 53 16093 2.12 173.481 20:19 14.10.2019
6210 Clear 20 1015 59 14484 1.774 214 19:44 14.10.2019
6211 Rain 19 1015 56 16093 1.774 214 19:25 14.10.2019
6212 Rain 18 1015 56 16093 2.12 173.481 18:59 14.10.2019
6213 Rain 18 1015 63 16093 2.12 173.481 18:40 14.10.2019
6214 Rain 17 1015 68 16093 1.54 155.519 18:21 14.10.2019
6215 Rain 17 1014 63 16093 1.5 260 17:59 14.10.2019
6216 Rain 16 1014 68 16093 1.54 155.519 17:41 14.10.2019
6217 Rain 16 1014 68 16093 1.54 155.519 17:22 14.10.2019
6218 Rain 14 1014 87 8047 1.54 155.519 16:46 14.10.2019
6219 Rain 14 1013 68 16093 1.54 155.519 16:23 14.10.2019
6220 Rain 14 1014 76 16093 1.54 155.519 15:59 14.10.2019
6221 Rain 14 1013 68 16093 1.54 155.519 15:40 14.10.2019
6222 Rain 15 1013 68 16093 1.28 153.375 15:21 14.10.2019
6223 Rain 15 1013 82 16093 1.28 153.375 14:44 14.10.2019
6224 Rain 15 1013 68 16093 1.28 153.375 14:25 14.10.2019
6225 Rain 15 1013 76 16093 2.1 330 13:57 14.10.2019
6226 Rain 15 1013 77 16093 1.75 128.952 13:39 14.10.2019
6227 Rain 15 1012 72 14484 1.75 128.952 13:20 14.10.2019
6228 Rain 14 1013 72 16093 1.75 128.952 12:41 14.10.2019
6229 Rain 14 1013 72 16093 1.05 161.479 12:20 14.10.2019
6230 Rain 14 1013 71 16093 1.5 330 11:55 14.10.2019
6231 Rain 14 1013 77 12874 1.05 161.479 11:36 14.10.2019
6232 Rain 14 1013 77 12874 1.05 161.479 11:18 14.10.2019
6233 Clouds 14 1013 82 16093 1.05 161.479 10:43 14.10.2019
6234 Clouds 14 1013 82 16093 1.05 161.479 10:43 14.10.2019
6235 Rain 14 1012 82 14484 1.05 161.479 10:21 14.10.2019
6236 Rain 14 1013 82 16093 1.5 110 09:59 14.10.2019
6237 Rain 15 1013 77 16093 1.5 320 09:38 14.10.2019
6238 Rain 14 1013 77 16093 1.5 320 09:20 14.10.2019
6239 Rain 14 1012 77 16093 1.41 158.274 08:48 14.10.2019
6240 Rain 15 1012 77 16093 1.41 158.274 08:23 14.10.2019
6241 Rain 15 1012 77 16093 1.41 158.274 07:44 14.10.2019
6242 -273 0 0 0 0 0 07:22 14.10.2019
6243 Rain 16 1012 77 16093 2.1 240 06:56 14.10.2019
6244 Rain 16 1012 77 16093 2.1 240 06:56 14.10.2019
6245 Rain 16 1012 77 16093 1.41 158.274 06:28 14.10.2019
6246 Rain 16 1011 77 16093 3.1 250 05:53 14.10.2019
6247 Rain 17 1011 72 16093 2.6 160 04:53 14.10.2019
6248 Smoke 18 1010 56 16093 2.1 260 03:49 14.10.2019
6249 Rain 19 1010 56 16093 2.1 260 03:22 14.10.2019
6250 Rain 21 1011 33 16093 4.6 140 01:56 14.10.2019
6251 Rain 22 1010 53 16093 3.1 260 01:18 14.10.2019
6252 Clear 22 1010 50 16093 2.1 260 00:41 14.10.2019
6253 Smoke 23 1010 50 16093 2.1 260 00:18 14.10.2019
6254 Smoke 23 1010 50 16093 1.5 0 23:40 13.10.2019
6255 Smoke 24 1010 50 16093 1.5 0 23:19 13.10.2019
6256 Smoke 23 1011 50 16093 1.5 0 22:56 13.10.2019
6257 Smoke 23 1011 50 16093 1.5 0 22:38 13.10.2019
6258 Smoke 23 1011 50 16093 1.5 0 22:19 13.10.2019
6259 Smoke 23 1011 49 16093 3.6 170 21:57 13.10.2019
6260 Smoke 23 1011 41 14484 3.6 216.409 21:36 13.10.2019
6261 Smoke 23 1011 41 14484 2.43 200.17 21:18 13.10.2019
6262 Smoke 22 1012 47 16093 2.43 204.327 20:56 13.10.2019
6263 Smoke 22 1012 47 16093 2.43 204.327 20:37 13.10.2019
6264 Smoke 22 1012 47 16093 2.43 204.327 20:37 13.10.2019
6265 Smoke 22 1012 47 16093 2.43 204.327 20:18 13.10.2019
6266 Smoke 21 1012 53 16093 2.1 0 19:55 13.10.2019
6267 Smoke 21 1012 60 16093 1.5 250 19:36 13.10.2019
6268 Smoke 21 1012 60 16093 1.5 250 19:36 13.10.2019
6269 Smoke 20 1012 60 16093 1.5 250 19:18 13.10.2019
6270 Smoke 19 1012 52 14484 2.43 204.327 18:41 13.10.2019
6271 Smoke 18 1012 52 14484 0.56 201.235 18:21 13.10.2019
6272 Smoke 18 1012 52 14484 0.56 201.235 18:21 13.10.2019
6273 Clear 17 1012 36 16093 1.5 160 17:59 13.10.2019
6274 Rain 16 1011 59 16093 0.56 201.235 17:41 13.10.2019
6275 Rain 16 1011 59 16093 0.56 201.235 17:41 13.10.2019
6276 Rain 16 1011 59 16093 0.56 201.235 17:41 13.10.2019
6277 Rain 15 1011 59 16093 0.56 201.235 17:23 13.10.2019
6278 Rain 13 1010 67 16093 0.56 201.235 16:44 13.10.2019
6279 Rain 12 1010 67 16093 0.56 201.235 16:20 13.10.2019
6280 Rain 12 1010 67 16093 0.56 201.235 16:20 13.10.2019
6281 Rain 12 1010 37 16093 0.56 201.235 15:58 13.10.2019
6282 Rain 12 1010 37 16093 0.56 201.235 15:58 13.10.2019
6283 Rain 13 1010 67 16093 0.56 201.235 15:39 13.10.2019
6284 Clear 13 1010 67 16093 1.21 240.526 15:21 13.10.2019
6285 Clear 13 1010 35 16093 1.5 240 14:59 13.10.2019
6286 Clear 13 1010 71 14484 1.21 240.526 14:40 13.10.2019
6287 Clear 13 1010 71 14484 1.21 240.526 14:21 13.10.2019
6288 Clear 13 1011 40 16093 1.21 240.526 13:58 13.10.2019
6289 Clear 14 1011 72 14484 1.21 240.526 13:38 13.10.2019
6290 Clear 14 1011 72 14484 1.17 238.584 13:20 13.10.2019
6291 Clear 14 1011 77 14484 1.17 238.584 12:56 13.10.2019
6292 Clear 14 1011 77 14484 1.17 238.584 12:38 13.10.2019
6293 Clear 14 1011 77 14484 1.22 263.981 12:19 13.10.2019
6294 Clear 14 1011 72 16093 1.22 263.981 11:56 13.10.2019
6295 Clear 15 1011 72 16093 1.22 263.981 11:38 13.10.2019
6296 Clear 14 1011 72 16093 1.22 263.981 11:18 13.10.2019
6297 Clear 15 1011 77 16093 1.22 263.981 10:42 13.10.2019
6298 Clear 15 1011 77 16093 1.22 263.981 10:23 13.10.2019
6299 Clear 15 1011 31 16093 1.22 263.981 09:56 13.10.2019
6300 Clear 15 1011 72 16093 1.22 263.981 09:37 13.10.2019
6301 Clear 15 1011 72 16093 1.66 171.495 09:19 13.10.2019
6302 Clear 15 1011 72 16093 1.74 170.597 08:43 13.10.2019
6303 Clear 16 1011 72 16093 1.74 170.597 08:21 13.10.2019
6304 Clear 16 1011 68 16093 1.74 170.597 07:46 13.10.2019
6305 Clear 17 1011 68 16093 1.74 170.597 07:23 13.10.2019
6306 Clear 17 1011 59 16093 1.74 170.597 06:46 13.10.2019
6307 Clear 18 1011 49 16093 1.57 210.689 05:50 13.10.2019
6308 Clear 19 1010 43 16093 1.57 210.689 04:52 13.10.2019
6309 Clear 19 1010 43 16093 1.57 210.689 04:33 13.10.2019
6310 Smoke 23 1010 31 16093 2.1 0 02:47 13.10.2019
6311 Smoke 24 1010 31 16093 2.1 0 02:18 13.10.2019
6312 Smoke 25 1010 36 16093 2.6 280 01:31 13.10.2019
6313 Smoke 25 1010 36 16093 2.6 280 01:31 13.10.2019
6314 Smoke 25 1010 36 16093 3.6 270 00:52 13.10.2019
6315 Smoke 27 1010 36 16093 3.6 270 00:22 13.10.2019
6316 Smoke 27 1010 11 16093 1.5 0 23:58 12.10.2019
6317 Smoke 27 1010 26 16093 3.1 260 23:39 12.10.2019
6318 Smoke 27 1010 26 16093 3.1 260 23:21 12.10.2019
6319 Smoke 27 1011 6 16093 2.6 0 22:58 12.10.2019
6320 Smoke 28 1011 21 16093 1.5 0 22:39 12.10.2019
6321 Smoke 28 1011 21 16093 1.5 0 22:21 12.10.2019
6322 Haze 27 1011 23 16093 2.6 180 21:55 12.10.2019
6323 Haze 27 1011 8 16093 3.72 222.851 21:37 12.10.2019
6324 Haze 26 1011 8 16093 0.57 199.845 21:19 12.10.2019
6325 Haze 26 1011 9 16093 0.38 183.188 20:44 12.10.2019
6326 Smoke 25 1011 9 16093 0.38 183.188 20:26 12.10.2019
6327 Smoke 24 1012 10 16093 0.38 183.188 19:42 12.10.2019
6328 Smoke 23 1012 10 16093 0.38 183.188 19:23 12.10.2019
6329 Smoke 22 1012 10 16093 0.38 183.188 18:59 12.10.2019
6330 Smoke 21 1012 14 16093 0.38 183.188 18:41 12.10.2019
6331 Smoke 20 1012 14 16093 1.84 356.787 18:23 12.10.2019
6332 Smoke 18 1011 17 16093 1.84 356.787 17:45 12.10.2019
6333 Smoke 17 1011 17 16093 1.84 356.787 17:21 12.10.2019
6334 Smoke 14 1011 17 16093 1.84 356.787 16:57 12.10.2019
6335 Smoke 14 1011 17 16093 1.84 356.787 16:57 12.10.2019
6336 Smoke 14 1011 17 16093 1.84 356.787 16:38 12.10.2019
6337 Smoke 14 1011 17 16093 1.84 356.787 16:19 12.10.2019
6338 Smoke 14 1011 17 16093 1.5 10 15:45 12.10.2019
6339 Smoke 14 1011 17 16093 1.5 10 15:26 12.10.2019
6340 Smoke 14 1011 17 16093 1.5 10 14:59 12.10.2019
6341 Haze 15 1011 20 8047 1.43 14.192 14:38 12.10.2019
6342 Haze 15 1011 20 8047 1.43 14.192 14:20 12.10.2019
6343 Smoke 15 1011 39 16093 1.43 14.192 13:49 12.10.2019
6344 Smoke 15 1011 39 16093 2.29 10.859 13:31 12.10.2019
6345 Smoke 15 1012 48 16093 2.29 10.859 12:55 12.10.2019
6346 Smoke 15 1012 48 16093 2.29 10.859 12:37 12.10.2019
6347 Smoke 15 1012 48 16093 3.11 11.823 12:18 12.10.2019
6348 Smoke 16 1013 63 16093 1.5 0 11:41 12.10.2019
6349 Smoke 16 1013 63 16093 1.5 0 11:22 12.10.2019
6350 Smoke 16 1013 19 16093 3.11 11.823 10:57 12.10.2019
6351 Smoke 17 1012 68 16093 2.1 0 10:38 12.10.2019
6352 Smoke 17 1012 45 16093 1.5 80 10:19 12.10.2019
6353 Smoke 17 1013 16 16093 3.11 11.823 09:56 12.10.2019
6354 Smoke 17 1013 16 16093 3.11 11.823 09:56 12.10.2019
6355 Smoke 18 1012 16 16093 3.11 11.823 09:37 12.10.2019
6356 Smoke 18 1012 16 16093 3.22 16.381 09:19 12.10.2019
6357 Smoke 19 1012 13 16093 1.69 23.949 08:43 12.10.2019
6358 Smoke 19 1012 13 16093 1.69 23.949 08:23 12.10.2019
6359 Smoke 20 1012 12 16093 1.5 30 07:49 12.10.2019
6360 Smoke 20 1012 12 16093 1.5 30 07:30 12.10.2019
6361 -273 0 0 0 0 0 05:54 12.10.2019
6362 Smoke 22 1011 20 16093 2.34 299.626 05:26 12.10.2019
6363 Smoke 23 1011 22 16093 3.1 270 04:34 12.10.2019
6364 Smoke 24 1011 17 16093 3.1 270 03:53 12.10.2019
6365 Smoke 27 1011 9 16093 1.5 260 02:37 12.10.2019
6366 Smoke 28 1011 6 16093 1.97 258.822 01:32 12.10.2019
6367 Smoke 29 1012 4 16093 1.5 0 00:55 12.10.2019
6368 Smoke 29 1012 4 16093 1.5 0 00:37 12.10.2019
6369 Smoke 29 1013 4 16093 2.6 300 23:55 11.10.2019
6370 Smoke 29 1012 5 16093 1.5 0 23:36 11.10.2019
6371 Smoke 28 1012 5 16093 1.5 0 23:18 11.10.2019
6372 Smoke 29 1013 4 16093 1.5 0 22:37 11.10.2019
6373 Smoke 29 1013 4 16093 1.5 0 22:19 11.10.2019
6374 Smoke 29 1014 4 16093 2.6 40 21:42 11.10.2019
6375 Smoke 27 1014 4 16093 2.6 40 21:21 11.10.2019
6376 Smoke 27 1014 4 16093 2.6 40 21:21 11.10.2019
6377 Smoke 27 1014 7 16093 2.1 0 20:57 11.10.2019
6378 Smoke 26 1014 7 16093 2.1 0 20:39 11.10.2019
6379 Smoke 26 1014 7 16093 2.1 0 20:20 11.10.2019
6380 Smoke 26 1014 7 16093 2.1 0 20:20 11.10.2019
6381 Smoke 26 1017 4 16093 7.7 360 19:55 11.10.2019
6382 Smoke 25 1015 7 16093 2.6 0 19:37 11.10.2019
6383 Smoke 25 1015 7 16093 2.6 0 19:18 11.10.2019
6384 Smoke 25 1015 7 16093 2.6 0 19:18 11.10.2019
6385 Smoke 25 1015 7 16093 2.6 0 19:18 11.10.2019
6386 Smoke 25 1015 7 16093 2.6 0 19:18 11.10.2019
6387 Smoke 25 1015 7 16093 2.6 0 19:18 11.10.2019
6388 Smoke 23 1015 11 16093 2.03 31.235 18:56 11.10.2019
6389 Smoke 23 1015 32 16093 2.03 31.235 18:37 11.10.2019
6390 Smoke 21 1015 32 16093 3.55 359.143 18:18 11.10.2019
6391 Smoke 20 1015 12 16093 3.55 359.143 17:55 11.10.2019
6392 Smoke 19 1015 48 16093 3.55 359.143 17:36 11.10.2019
6393 Smoke 19 1015 48 16093 3.55 359.143 17:18 11.10.2019
6394 Smoke 17 1014 54 16093 3.55 359.143 16:41 11.10.2019
6395 Smoke 17 1014 54 16093 3.55 359.143 16:21 11.10.2019
6396 Smoke 17 1014 16 16093 3.55 359.143 15:59 11.10.2019
6397 Smoke 17 1014 16 16093 3.55 359.143 15:59 11.10.2019
6398 Smoke 17 1014 62 16093 3.55 359.143 15:39 11.10.2019
6399 Smoke 17 1014 62 16093 1.77 3.829 15:19 11.10.2019
6400 Smoke 17 1013 58 16093 1.77 3.829 14:48 11.10.2019
6401 Smoke 17 1013 58 16093 1.77 3.829 14:29 11.10.2019
6402 Smoke 18 1013 15 16093 1.77 3.829 13:57 11.10.2019
6403 Smoke 18 1013 55 16093 2.68 359.68 13:38 11.10.2019
6404 Smoke 18 1013 55 16093 2.68 359.68 13:19 11.10.2019
6405 Smoke 18 1013 48 16093 1.5 320 12:56 11.10.2019
6406 Smoke 18 1013 72 16093 2.68 359.68 12:38 11.10.2019
6407 Smoke 18 1013 72 16093 1.71 42.161 12:19 11.10.2019
6408 Smoke 18 1013 68 16093 1.71 42.161 11:41 11.10.2019
6409 Smoke 18 1013 68 16093 1.71 42.161 11:41 11.10.2019
6410 Smoke 18 1013 68 16093 1.71 42.161 11:41 11.10.2019
6411 Smoke 18 1013 68 16093 1.71 42.161 11:22 11.10.2019
6412 Smoke 18 1013 68 16093 1.71 42.161 11:22 11.10.2019
6413 Smoke 18 1013 68 16093 1.71 42.161 10:59 11.10.2019
6414 Smoke 18 1013 72 16093 1.71 42.161 10:41 11.10.2019
6415 Clear 19 1013 72 16093 1.71 42.161 10:23 11.10.2019
6416 Clear 19 1013 12 16093 2.1 0 09:56 11.10.2019
6417 Clear 19 1013 72 16093 1.81 23.257 09:37 11.10.2019
6418 Clear 20 1013 72 16093 1.85 15.29 09:19 11.10.2019
6419 Clear 20 1014 11 16093 1.85 15.29 08:55 11.10.2019
6420 Clear 20 1013 68 16093 1.85 15.29 08:37 11.10.2019
6421 Clear 20 1013 68 16093 1.85 15.29 08:19 11.10.2019
6422 Clear 20 1013 60 16093 1.85 15.29 07:44 11.10.2019
6423 Clear 20 1013 60 16093 1.85 15.29 07:25 11.10.2019
6424 Clear 20 1012 64 16093 1.85 15.29 06:49 11.10.2019
6425 Clear 20 1012 64 16093 4.28 2.038 06:24 11.10.2019
6426 Clear 20 1011 64 16093 4.28 2.038 05:41 11.10.2019
6427 Clear 20 1012 64 16093 4.28 2.038 04:59 11.10.2019
6428 Clear 21 1011 60 16093 4.28 2.038 04:25 11.10.2019
6429 Clear 24 1011 44 16093 1.5 260 02:41 11.10.2019
6430 Clear 25 1013 3 16093 9.8 320 00:51 11.10.2019
6431 Clear 25 1011 39 16093 1.5 0 00:29 11.10.2019
6432 Clear 25 1012 32 16093 2 312.916 23:46 10.10.2019
6433 Clear 25 1012 32 16093 2 312.916 23:23 10.10.2019
6434 Clear 25 1012 32 16093 2 312.916 22:58 10.10.2019
6435 Clear 25 1014 5 16093 8.7 350 22:39 10.10.2019
6436 Clear 25 1014 5 16093 8.7 350 22:21 10.10.2019
6437 Clear 24 1014 27 16093 1.5 140 21:58 10.10.2019
6438 Clear 24 1013 41 16093 2 312.916 21:40 10.10.2019
6439 Clear 23 1013 41 16093 1.41 188.799 21:21 10.10.2019
6440 Clear 23 1014 46 16093 2.1 360 20:57 10.10.2019
6441 Clear 23 1014 46 16093 2.1 360 20:57 10.10.2019
6442 Clear 22 1013 49 16093 0.43 184.152 20:38 10.10.2019
6443 Clear 22 1013 49 16093 0.43 184.152 20:18 10.10.2019
6444 Clear 22 1013 49 16093 0.43 184.152 20:18 10.10.2019
6445 Clear 21 1014 40 16093 0.43 184.152 19:54 10.10.2019
6446 Clear 21 1013 52 16093 0.43 184.152 19:36 10.10.2019
6447 Clear 20 1013 52 16093 0.43 184.152 19:18 10.10.2019
6448 Clear 20 1013 56 16093 0.43 184.152 18:41 10.10.2019
6449 Clear 19 1013 56 16093 1.42 186.037 18:20 10.10.2019
6450 Haze 18 1013 52 16093 2.1 60 17:56 10.10.2019
6451 Haze 17 1013 63 16093 1.5 0 17:37 10.10.2019
6452 Haze 17 1013 63 16093 1.42 186.037 17:18 10.10.2019
6453 Clouds 16 1012 63 16093 1.42 186.037 16:47 10.10.2019
6454 Clouds 16 1012 63 16093 1.42 186.037 16:26 10.10.2019
6455 Clouds 16 1012 77 16093 1.5 310 15:58 10.10.2019
6456 Clouds 16 1012 59 16093 1.42 186.037 15:38 10.10.2019
6457 Clouds 16 1011 63 16093 1.28 135.953 15:20 10.10.2019
6458 Clouds 16 1012 72 16093 1.5 240 14:55 10.10.2019
6459 Clouds 16 1012 82 14484 1.28 135.953 14:36 10.10.2019
6460 Clouds 16 1011 63 16093 1.28 135.953 14:18 10.10.2019
6461 Clouds 17 1011 77 16093 1.28 135.953 13:46 10.10.2019
6462 Clouds 17 1011 63 16093 1.1 102.427 13:27 10.10.2019
6463 Clouds 17 1011 63 16093 1.1 102.427 12:59 10.10.2019
6464 Clouds 17 1011 63 16093 1.1 102.427 12:40 10.10.2019
6465 Clouds 17 1011 63 16093 2.27 108.938 12:20 10.10.2019
6466 Clouds 17 1011 72 16093 2.1 150 11:58 10.10.2019
6467 Clouds 17 1011 63 16093 2.1 0 11:39 10.10.2019
6468 Clouds 17 1011 63 16093 2.1 0 11:19 10.10.2019
6469 Clouds 17 1011 63 16093 2.1 90 10:45 10.10.2019
6470 Clouds 17 1011 63 16093 2.1 90 10:27 10.10.2019
6471 Clouds 17 1011 63 0 2.6 110 09:58 10.10.2019
6472 Clouds 17 1011 63 0 2.6 110 09:39 10.10.2019
6473 Clouds 17 1011 72 16093 2.1 230 09:21 10.10.2019
6474 Clouds 17 1011 77 16093 3.1 130 08:58 10.10.2019
6475 Clouds 17 1011 77 12874 1.5 150 08:38 10.10.2019
6476 Clouds 17 1011 68 16093 2.61 134.55 08:19 10.10.2019
6477 Clouds 17 1011 82 12874 2.61 134.55 07:45 10.10.2019
6478 Clouds 17 1011 72 16093 2.61 134.55 07:23 10.10.2019
6479 Clouds 17 1011 82 14484 2.1 160 06:49 10.10.2019
6480 Clouds 17 1010 72 16093 1.27 185.976 06:29 10.10.2019
6481 Clouds 17 1010 72 16093 1.5 280 05:28 10.10.2019
6482 Clear 17 1011 77 16093 1.27 185.976 04:55 10.10.2019
6483 Clouds 17 1010 72 16093 4.1 280 04:33 10.10.2019
6484 Clear 20 1009 60 16093 2.6 260 02:19 10.10.2019
6485 Clear 21 1009 56 16093 2.6 0 01:36 10.10.2019
6486 Clear 22 1009 56 16093 2.6 0 01:18 10.10.2019
6487 Clear 22 1009 56 16093 3.91 198.68 00:25 10.10.2019
6488 Clear 23 1009 56 16093 3.91 198.68 23:41 09.10.2019
6489 Clear 23 1009 56 16093 3.91 198.68 23:23 09.10.2019
6490 Rain 23 1009 49 16093 4.1 190 22:59 09.10.2019
6491 Rain 23 1010 50 16093 2.1 0 22:41 09.10.2019
6492 Rain 23 1010 50 16093 2.1 0 22:22 09.10.2019
6493 Haze 22 1010 49 16093 4.1 160 21:56 09.10.2019
6494 Haze 22 1011 50 16093 3.91 198.68 21:38 09.10.2019
6495 Haze 22 1011 50 16093 2.4 167.753 21:18 09.10.2019
6496 Haze 21 1012 60 16093 2.1 0 20:54 09.10.2019
6497 Haze 21 1012 56 14484 2.17 153.801 20:36 09.10.2019
6498 Haze 20 1012 60 12874 2.17 153.801 20:18 09.10.2019
6499 Haze 20 1012 68 14484 2.1 0 19:43 09.10.2019
6500 Haze 19 1012 64 11265 2.17 153.801 19:22 09.10.2019
6501 Haze 19 1012 72 8047 2.1 150 18:39 09.10.2019
6502 Haze 18 1012 72 11265 2.6 140 18:21 09.10.2019
6503 Haze 17 1012 77 6437 1.5 170 17:58 09.10.2019
6504 Haze 17 1011 68 9656 1.61 107.547 17:40 09.10.2019
6505 Haze 17 1011 68 9656 1.61 107.547 17:22 09.10.2019
6506 Haze 16 1012 82 6437 1.61 107.547 16:57 09.10.2019
6507 Haze 16 1011 72 11265 1.61 107.547 16:39 09.10.2019
6508 Haze 16 1011 72 11265 1.61 107.547 16:20 09.10.2019
6509 Haze 16 1011 72 11265 1.61 107.547 16:20 09.10.2019
6510 Haze 16 1011 72 11265 2.6 100 15:56 09.10.2019
6511 Haze 16 1011 72 9656 1.61 107.547 15:37 09.10.2019
6512 Haze 16 1011 72 9656 1.61 107.547 15:37 09.10.2019
6513 Haze 16 1011 72 9656 1.63 135.744 15:18 09.10.2019
6514 Haze 16 1011 72 9656 1.63 135.744 14:45 09.10.2019
6515 Haze 16 1011 72 11265 1.5 140 14:19 09.10.2019
6516 Haze 16 1011 72 9656 1.63 135.744 14:00 09.10.2019
6517 Mist 16 1011 82 8047 2.6 150 13:38 09.10.2019
6518 Mist 16 1011 82 8047 2.6 150 13:38 09.10.2019
6519 Mist 16 1011 72 0 1.5 100 13:18 09.10.2019
6520 Clouds 16 1011 82 14484 1.5 100 12:44 09.10.2019
6521 Clouds 16 1011 82 14484 0.92 195.511 12:23 09.10.2019
6522 Clouds 16 1011 82 14484 0.92 195.511 12:23 09.10.2019
6523 Mist 16 1012 82 16093 0.92 195.511 11:58 09.10.2019
6524 Mist 16 1011 82 14484 0.92 195.511 11:40 09.10.2019
6525 Mist 16 1011 77 16093 0.92 195.511 11:20 09.10.2019
6526 Mist 16 1011 87 9656 0.92 195.511 10:59 09.10.2019
6527 Mist 16 1011 77 9656 1.5 130 10:40 09.10.2019
6528 Mist 16 1011 82 16093 0.92 195.511 10:19 09.10.2019
6529 Mist 16 1011 82 16093 0.92 195.511 10:19 09.10.2019
6530 Haze 16 1011 77 9656 0.92 195.511 09:43 09.10.2019
6531 Clear 16 1011 82 12874 1.04 172.739 09:21 09.10.2019
6532 Clear 16 1011 77 16093 1.5 90 08:58 09.10.2019
6533 Clear 16 1011 82 14484 1.1 204.903 08:39 09.10.2019
6534 Clear 17 1011 82 14484 1.1 204.903 08:20 09.10.2019
6535 Clouds 17 1012 77 16093 1.5 290 07:47 09.10.2019
6536 Clouds 17 1011 77 16093 3.6 260 07:25 09.10.2019
6537 Clear 17 1011 82 16093 2.1 170 06:58 09.10.2019
6538 Clear 17 1011 77 14484 1.5 0 06:40 09.10.2019
6539 Clouds 18 1011 77 16093 3.1 240 05:53 09.10.2019
6540 Clear 18 1010 77 16093 1.04 192.457 05:18 09.10.2019
6541 Clear 20 1011 35 16093 1.04 192.457 03:48 09.10.2019
6542 Clear 20 1011 35 16093 1.04 192.457 03:48 09.10.2019
6543 Clear 23 1010 64 16093 4.6 280 02:34 09.10.2019
6544 Clear 24 1009 50 16093 2.1 0 01:39 09.10.2019
6545 Clear 24 1009 50 16093 2.1 0 01:39 09.10.2019
6546 Clear 24 1009 50 16093 2.1 0 01:18 09.10.2019
6547 Clear 25 1011 24 16093 4.6 110 00:55 09.10.2019
6548 Clear 25 1011 24 16093 4.6 110 00:55 09.10.2019
6549 Clear 25 1010 44 16093 1.98 202.78 00:36 09.10.2019
6550 Clear 26 1010 44 16093 3.73 209.945 00:18 09.10.2019
6551 Clear 26 1010 44 16093 3.73 209.945 23:38 08.10.2019
6552 Clear 26 1010 44 16093 3.73 209.945 23:18 08.10.2019
6553 Clear 26 1011 47 16093 1.5 0 22:55 08.10.2019
6554 Clear 27 1011 47 16093 1.5 0 22:37 08.10.2019
6555 Clear 26 1011 47 16093 1.5 0 22:18 08.10.2019
6556 Clear 25 1013 21 16093 3.73 209.945 21:56 08.10.2019
6557 Clear 25 1012 44 16093 3.73 209.945 21:36 08.10.2019
6558 Clear 25 1012 44 16093 2.09 172.705 21:18 08.10.2019
6559 Haze 24 1012 29 16093 2.6 0 20:55 08.10.2019
6560 Haze 24 1012 47 12874 1.5 240 20:37 08.10.2019
6561 Haze 24 1012 47 12874 1.5 240 20:18 08.10.2019
6562 Haze 23 1014 25 16093 2.1 90 19:55 08.10.2019
6563 Haze 23 1012 53 11265 2.3 177.513 19:36 08.10.2019
6564 Haze 23 1012 53 11265 2.3 177.513 19:36 08.10.2019
6565 Haze 22 1012 53 11265 2.3 177.513 19:18 08.10.2019
6566 Haze 20 1012 64 11265 2.3 177.513 18:42 08.10.2019
6567 Haze 19 1012 64 11265 0.77 111.565 18:24 08.10.2019
6568 Haze 18 1012 82 3219 0.77 111.565 17:57 08.10.2019
6569 Haze 17 1012 87 0 0.77 111.565 17:39 08.10.2019
6570 Haze 17 1012 87 0 0.77 111.565 17:20 08.10.2019
6571 Haze 15 1012 87 402 0.77 111.565 16:56 08.10.2019
6572 Haze 15 1012 87 402 0.77 111.565 16:56 08.10.2019
6573 -273 0 0 0 0 0 16:56 08.10.2019
6574 Fog 15 1011 77 16093 0.77 111.565 16:37 08.10.2019
6575 Fog 15 1011 77 16093 0.77 111.565 16:18 08.10.2019
6576 Fog 14 1011 77 16093 0.77 111.565 15:39 08.10.2019
6577 Fog 14 1011 77 16093 0.77 111.565 15:39 08.10.2019
6578 Fog 14 1011 77 16093 0.48 174.065 15:20 08.10.2019
6579 Fog 15 1011 100 805 0.48 174.065 14:56 08.10.2019
6580 Fog 15 1011 82 16093 0.48 174.065 14:38 08.10.2019
6581 Fog 15 1011 82 16093 0.48 174.065 14:19 08.10.2019
6582 Fog 15 1011 100 603 0.48 174.065 13:55 08.10.2019
6583 Clear 15 1011 77 16093 0.48 174.065 13:37 08.10.2019
6584 Clear 15 1011 77 16093 0.69 139.119 13:18 08.10.2019
6585 Mist 15 1011 77 16093 0.69 139.119 12:41 08.10.2019
6586 Mist 15 1011 77 16093 1.04 82.073 12:20 08.10.2019
6587 Mist 15 1011 77 16093 1.04 82.073 12:20 08.10.2019
6588 Clear 15 1012 55 16093 1.04 82.073 11:58 08.10.2019
6589 Clear 16 1012 77 16093 1.04 82.073 11:39 08.10.2019
6590 Clear 16 1012 77 16093 1.04 82.073 11:21 08.10.2019
6591 Clear 16 1012 77 16093 1.04 82.073 11:21 08.10.2019
6592 Mist 16 1012 77 16093 1.04 82.073 10:54 08.10.2019
6593 -273 0 0 0 0 0 10:54 08.10.2019
6594 Mist 16 1012 77 16093 1.04 82.073 10:36 08.10.2019
6595 Mist 16 1012 77 16093 1.04 82.073 10:18 08.10.2019
6596 Mist 17 1012 72 16093 1.04 82.073 09:40 08.10.2019
6597 Mist 17 1012 72 16093 1.13 105.046 09:22 08.10.2019
6598 Clear 17 1012 77 16093 1.21 132.096 08:45 08.10.2019
6599 Clear 18 1012 77 16093 1.21 132.096 08:25 08.10.2019
6600 Clear 18 1013 72 16093 2.1 100 07:58 08.10.2019
6601 Clear 18 1012 77 16093 1.21 132.096 07:40 08.10.2019
6602 Clear 18 1012 77 16093 1.21 132.096 07:19 08.10.2019
6603 Clear 19 1012 68 16093 1.21 132.096 06:46 08.10.2019
6604 Clear 19 1012 68 16093 1.32 239.521 06:23 08.10.2019
6605 Clear 20 1012 68 16093 1.32 239.521 05:43 08.10.2019
6606 Clear 20 1012 68 16093 1.32 239.521 05:21 08.10.2019
6607 Clear 23 1011 50 16093 2.1 260 03:32 08.10.2019
6608 Clear 26 1011 34 16093 2.1 260 02:44 08.10.2019
6609 Clear 27 1011 34 16093 2.1 260 02:25 08.10.2019
6610 Clear 27 1012 42 16093 2.6 260 01:42 08.10.2019
6611 Clear 28 1012 15 16093 4.1 170 00:57 08.10.2019
6612 Clear 28 1012 20 16093 2.1 0 00:36 08.10.2019
6613 Clear 30 1012 20 16093 2.1 0 00:18 08.10.2019
6614 Clear 29 1014 17 16093 3.1 130 23:38 07.10.2019
6615 Clouds 29 1017 65 1200 5.7 350 23:19 07.10.2019
6616 Clear 29 1013 42 16093 4.31 230.383 22:55 07.10.2019
6617 Clear 28 1013 42 16093 4.31 230.383 22:37 07.10.2019
6618 Clear 28 1013 42 16093 4.31 230.383 22:19 07.10.2019
6619 Clear 28 1014 39 16093 4.31 230.383 21:55 07.10.2019
6620 Clear 28 1014 39 16093 4.31 230.383 21:37 07.10.2019
6621 Clear 27 1014 39 16093 2.51 221.392 21:18 07.10.2019
6622 Clear 27 1014 32 16093 2.62 219.539 20:56 07.10.2019
6623 Clear 27 1014 32 16093 2.62 219.539 20:38 07.10.2019
6624 Clear 27 1014 32 16093 2.62 219.539 20:19 07.10.2019
6625 Clear 26 1015 17 16093 2.1 160 19:54 07.10.2019
6626 Clear 26 1015 39 16093 2.62 219.539 19:36 07.10.2019
6627 Clear 25 1015 39 16093 2.62 219.539 19:18 07.10.2019
6628 Clear 22 1015 52 14484 2.62 219.539 18:43 07.10.2019
6629 Haze 21 1015 52 14484 0.9 244.597 18:20 07.10.2019
6630 Haze 19 1015 32 16093 1.5 200 17:59 07.10.2019
6631 Haze 19 1015 63 16093 0.9 244.597 17:41 07.10.2019
6632 Haze 18 1015 63 16093 0.9 244.597 17:19 07.10.2019
6633 Haze 15 1015 77 16093 0.9 244.597 16:55 07.10.2019
6634 Haze 15 1015 77 16093 0.9 244.597 16:55 07.10.2019
6635 Haze 15 1015 77 16093 0.9 244.597 16:37 07.10.2019
6636 Clear 15 1015 77 16093 0.9 244.597 16:18 07.10.2019
6637 Clear 14 1015 77 16093 0.9 244.597 15:41 07.10.2019
6638 Clear 14 1015 77 16093 0.9 244.597 15:41 07.10.2019
6639 Clear 15 1015 77 16093 1.48 244.77 15:22 07.10.2019
6640 Haze 15 1014 77 16093 1.48 244.77 14:42 07.10.2019
6641 Haze 15 1014 77 16093 1.48 244.77 14:23 07.10.2019
6642 Clear 16 1015 41 16093 1.48 244.77 13:59 07.10.2019
6643 Clear 16 1014 77 16093 1.48 244.77 13:40 07.10.2019
6644 Clear 15 1014 77 16093 1.15 266.1 13:18 07.10.2019
6645 Clear 16 1015 77 16093 1.15 266.1 12:54 07.10.2019
6646 Clear 16 1015 77 16093 1.15 266.1 12:36 07.10.2019
6647 Clear 16 1015 77 16093 1.15 266.1 12:36 07.10.2019
6648 Clear 16 1015 77 16093 0.36 265.746 12:18 07.10.2019
6649 Clear 16 1015 33 16093 0.36 265.746 11:56 07.10.2019
6650 Clear 16 1015 77 16093 0.36 265.746 11:36 07.10.2019
6651 Mist 17 1015 77 16093 0.36 265.746 11:18 07.10.2019
6652 Mist 16 1015 82 14484 0.36 265.746 10:40 07.10.2019
6653 Mist 17 1015 82 14484 0.36 265.746 10:20 07.10.2019
6654 Clear 17 1015 82 16093 0.36 265.746 09:42 07.10.2019
6655 Clear 17 1015 82 16093 1.64 183.075 09:23 07.10.2019
6656 Clear 17 1016 52 16093 1.64 183.075 08:56 07.10.2019
6657 Clear 18 1015 82 16093 1.82 193.685 08:37 07.10.2019
6658 Clear 18 1015 82 16093 1.82 193.685 08:18 07.10.2019
6659 Clear 18 1015 72 16093 1.82 193.685 07:41 07.10.2019
6660 Clear 19 1015 72 16093 1.82 193.685 07:21 07.10.2019
6661 Clear 19 1015 64 16093 1.82 193.685 06:48 07.10.2019
6662 Clear 19 1015 64 16093 1.09 261.922 06:27 07.10.2019
6663 Clear 20 1014 56 16093 1.09 261.922 05:42 07.10.2019
6664 Clear 20 1014 56 16093 1.09 261.922 05:21 07.10.2019
6665 Clear 22 1014 43 16093 1.5 270 04:24 07.10.2019
6666 Clear 23 1013 36 16093 1.09 261.922 03:44 07.10.2019
6667 Clear 23 1013 36 16093 1.09 261.922 03:44 07.10.2019
6668 Clear 26 1013 36 16093 3.34 236.823 03:20 07.10.2019
6669 Rain 28 1014 39 16093 2.6 260 02:21 07.10.2019
6670 Clear 28 1014 42 16093 1.5 0 01:50 07.10.2019
6671 Clear 28 1014 42 16093 1.5 0 01:21 07.10.2019
6672 Clear 28 1014 9 16093 4.6 190 00:39 07.10.2019
6673 Clear 29 1014 39 16093 2.6 270 00:20 07.10.2019
6674 Clear 28 1015 35 16093 1.5 250 23:42 06.10.2019
6675 Clear 29 1015 35 16093 1.5 250 23:22 06.10.2019
6676 Clear 30 1015 48 16093 2.1 240 22:59 06.10.2019
6677 Clear 31 1015 20 16093 2.93 227.766 22:41 06.10.2019
6678 Clear 30 1015 20 16093 2.93 227.766 22:22 06.10.2019
6679 Clear 30 1015 20 16093 2.93 227.766 21:58 06.10.2019
6680 Clear 30 1016 25 16093 2.93 227.766 21:38 06.10.2019
6681 Clear 28 1016 25 16093 1.86 199.457 21:19 06.10.2019
6682 Clear 27 1017 20 16093 2.1 0 20:58 06.10.2019
6683 Clear 27 1017 30 16093 1.92 211.384 20:40 06.10.2019
6684 Clear 27 1017 30 16093 1.92 211.384 20:40 06.10.2019
6685 Clear 26 1017 30 16093 1.92